<?xml version='1.0' encoding='UTF-8'?><gpx version="1.1" creator="JPX - https://github.com/jenetics/jpx" xmlns="http://www.topografix.com/GPX/1/1"><trk><trkseg><trkpt lat="43.8346468" lon="12.7478346"><ele>65.0</ele><time>2026-04-11T07:22:13.942Z</time></trkpt><trkpt lat="43.8347184" lon="12.7477864"><ele>65.0</ele><time>2026-04-11T07:22:32.95Z</time></trkpt><trkpt lat="43.8346662" lon="12.7476473"><ele>65.0</ele><time>2026-04-11T07:22:34.949Z</time></trkpt><trkpt lat="43.8345973" lon="12.7475125"><ele>65.0</ele><time>2026-04-11T07:22:35.945Z</time></trkpt><trkpt lat="43.8345344" lon="12.7473924"><ele>65.0</ele><time>2026-04-11T07:22:36.949Z</time></trkpt><trkpt lat="43.8344778" lon="12.7472801"><ele>65.0</ele><time>2026-04-11T07:22:37.95Z</time></trkpt><trkpt lat="43.83441" lon="12.7471475"><ele>65.0</ele><time>2026-04-11T07:22:38.945Z</time></trkpt><trkpt lat="43.8343448" lon="12.7470121"><ele>65.0</ele><time>2026-04-11T07:22:39.951Z</time></trkpt><trkpt lat="43.8342747" lon="12.7468826"><ele>65.0</ele><time>2026-04-11T07:22:40.944Z</time></trkpt><trkpt lat="43.8342071" lon="12.7467519"><ele>65.33333333333334</ele><time>2026-04-11T07:22:41.95Z</time></trkpt><trkpt lat="43.8341477" lon="12.7466333"><ele>65.66666666666667</ele><time>2026-04-11T07:22:42.949Z</time></trkpt><trkpt lat="43.8340994" lon="12.7465312"><ele>66.0</ele><time>2026-04-11T07:22:43.941Z</time></trkpt><trkpt lat="43.8340658" lon="12.7464348"><ele>66.33333333333333</ele><time>2026-04-11T07:22:44.95Z</time></trkpt><trkpt lat="43.8340584" lon="12.7463351"><ele>66.66666666666666</ele><time>2026-04-11T07:22:45.95Z</time></trkpt><trkpt lat="43.8340616" lon="12.7462346"><ele>67.0</ele><time>2026-04-11T07:22:46.95Z</time></trkpt><trkpt lat="43.8340725" lon="12.7461233"><ele>67.66666666666666</ele><time>2026-04-11T07:22:47.949Z</time></trkpt><trkpt lat="43.8340677" lon="12.7460166"><ele>68.33333333333333</ele><time>2026-04-11T07:22:48.946Z</time></trkpt><trkpt lat="43.8340343" lon="12.7459409"><ele>69.0</ele><time>2026-04-11T07:22:49.944Z</time></trkpt><trkpt lat="43.833975" lon="12.7458942"><ele>69.66666666666667</ele><time>2026-04-11T07:22:50.953Z</time></trkpt><trkpt lat="43.8338993" lon="12.7458798"><ele>70.33333333333334</ele><time>2026-04-11T07:22:51.948Z</time></trkpt><trkpt lat="43.8338103" lon="12.7458699"><ele>71.0</ele><time>2026-04-11T07:22:52.936Z</time></trkpt><trkpt lat="43.8337068" lon="12.7458567"><ele>71.0</ele><time>2026-04-11T07:22:53.944Z</time></trkpt><trkpt lat="43.8335909" lon="12.745834"><ele>71.0</ele><time>2026-04-11T07:22:54.948Z</time></trkpt><trkpt lat="43.833471" lon="12.7458197"><ele>71.0</ele><time>2026-04-11T07:22:55.941Z</time></trkpt><trkpt lat="43.8333556" lon="12.7458166"><ele>71.0</ele><time>2026-04-11T07:22:56.947Z</time></trkpt><trkpt lat="43.8332378" lon="12.7458201"><ele>70.75</ele><time>2026-04-11T07:22:57.949Z</time></trkpt><trkpt lat="43.8331151" lon="12.7458158"><ele>70.5</ele><time>2026-04-11T07:22:58.946Z</time></trkpt><trkpt lat="43.832987" lon="12.7458057"><ele>70.25</ele><time>2026-04-11T07:22:59.942Z</time></trkpt><trkpt lat="43.832861" lon="12.7457991"><ele>70.0</ele><time>2026-04-11T07:23:00.943Z</time></trkpt><trkpt lat="43.8327284" lon="12.745788"><ele>70.2</ele><time>2026-04-11T07:23:01.946Z</time></trkpt><trkpt lat="43.8326096" lon="12.7457694"><ele>70.4</ele><time>2026-04-11T07:23:02.939Z</time></trkpt><trkpt lat="43.8324948" lon="12.7457528"><ele>70.6</ele><time>2026-04-11T07:23:03.948Z</time></trkpt><trkpt lat="43.8324002" lon="12.7457225"><ele>70.8</ele><time>2026-04-11T07:23:04.957Z</time></trkpt><trkpt lat="43.8323058" lon="12.7456908"><ele>71.0</ele><time>2026-04-11T07:23:05.946Z</time></trkpt><trkpt lat="43.8322075" lon="12.7456696"><ele>71.0</ele><time>2026-04-11T07:23:06.954Z</time></trkpt><trkpt lat="43.8321077" lon="12.7456409"><ele>71.0</ele><time>2026-04-11T07:23:07.951Z</time></trkpt><trkpt lat="43.8320071" lon="12.745618"><ele>71.0</ele><time>2026-04-11T07:23:08.952Z</time></trkpt><trkpt lat="43.8319062" lon="12.7455909"><ele>71.0</ele><time>2026-04-11T07:23:09.946Z</time></trkpt><trkpt lat="43.8318033" lon="12.7455606"><ele>71.0</ele><time>2026-04-11T07:23:10.949Z</time></trkpt><trkpt lat="43.8317033" lon="12.74554"><ele>71.16666666666667</ele><time>2026-04-11T07:23:11.943Z</time></trkpt><trkpt lat="43.8316129" lon="12.7455124"><ele>71.33333333333334</ele><time>2026-04-11T07:23:12.941Z</time></trkpt><trkpt lat="43.8315247" lon="12.7454851"><ele>71.5</ele><time>2026-04-11T07:23:13.946Z</time></trkpt><trkpt lat="43.8314291" lon="12.7454683"><ele>71.66666666666667</ele><time>2026-04-11T07:23:14.946Z</time></trkpt><trkpt lat="43.8313524" lon="12.745418"><ele>71.83333333333333</ele><time>2026-04-11T07:23:15.95Z</time></trkpt><trkpt lat="43.8312899" lon="12.7453792"><ele>72.0</ele><time>2026-04-11T07:23:16.946Z</time></trkpt><trkpt lat="43.8312305" lon="12.745337"><ele>72.0</ele><time>2026-04-11T07:23:17.947Z</time></trkpt><trkpt lat="43.8311114" lon="12.745285"><ele>72.0</ele><time>2026-04-11T07:23:19.949Z</time></trkpt><trkpt lat="43.8310462" lon="12.7452923"><ele>72.0</ele><time>2026-04-11T07:23:20.943Z</time></trkpt><trkpt lat="43.8309759" lon="12.7453174"><ele>72.0</ele><time>2026-04-11T07:23:21.944Z</time></trkpt><trkpt lat="43.8309176" lon="12.7453742"><ele>72.0</ele><time>2026-04-11T07:23:22.951Z</time></trkpt><trkpt lat="43.8308548" lon="12.7454265"><ele>72.0</ele><time>2026-04-11T07:23:23.949Z</time></trkpt><trkpt lat="43.8307766" lon="12.7454574"><ele>72.5</ele><time>2026-04-11T07:23:24.951Z</time></trkpt><trkpt lat="43.8306827" lon="12.7454654"><ele>73.0</ele><time>2026-04-11T07:23:25.942Z</time></trkpt><trkpt lat="43.8305803" lon="12.7454638"><ele>73.5</ele><time>2026-04-11T07:23:26.946Z</time></trkpt><trkpt lat="43.8304339" lon="12.745445"><ele>74.0</ele><time>2026-04-11T07:23:27.951Z</time></trkpt><trkpt lat="43.8302914" lon="12.7454486"><ele>74.0</ele><time>2026-04-11T07:23:28.95Z</time></trkpt><trkpt lat="43.8301417" lon="12.7454255"><ele>74.0</ele><time>2026-04-11T07:23:29.944Z</time></trkpt><trkpt lat="43.8299818" lon="12.745407"><ele>74.0</ele><time>2026-04-11T07:23:30.947Z</time></trkpt><trkpt lat="43.8298323" lon="12.7454054"><ele>74.0</ele><time>2026-04-11T07:23:31.946Z</time></trkpt><trkpt lat="43.8296766" lon="12.7453919"><ele>74.0</ele><time>2026-04-11T07:23:32.947Z</time></trkpt><trkpt lat="43.8295195" lon="12.7453854"><ele>74.0</ele><time>2026-04-11T07:23:33.951Z</time></trkpt><trkpt lat="43.8293693" lon="12.7453656"><ele>73.66666666666667</ele><time>2026-04-11T07:23:34.947Z</time></trkpt><trkpt lat="43.829221" lon="12.745343"><ele>73.33333333333333</ele><time>2026-04-11T07:23:35.944Z</time></trkpt><trkpt lat="43.8290676" lon="12.7453178"><ele>73.0</ele><time>2026-04-11T07:23:36.948Z</time></trkpt><trkpt lat="43.8289217" lon="12.7452723"><ele>73.66666666666666</ele><time>2026-04-11T07:23:37.951Z</time></trkpt><trkpt lat="43.8287712" lon="12.7452101"><ele>74.33333333333333</ele><time>2026-04-11T07:23:38.945Z</time></trkpt><trkpt lat="43.8286208" lon="12.7451264"><ele>75.0</ele><time>2026-04-11T07:23:39.942Z</time></trkpt><trkpt lat="43.8284678" lon="12.7450306"><ele>75.0</ele><time>2026-04-11T07:23:40.943Z</time></trkpt><trkpt lat="43.8283271" lon="12.744914"><ele>75.0</ele><time>2026-04-11T07:23:41.947Z</time></trkpt><trkpt lat="43.8281901" lon="12.7447846"><ele>75.0</ele><time>2026-04-11T07:23:42.944Z</time></trkpt><trkpt lat="43.8280597" lon="12.7446385"><ele>75.0</ele><time>2026-04-11T07:23:43.941Z</time></trkpt><trkpt lat="43.8279382" lon="12.7444767"><ele>75.0</ele><time>2026-04-11T07:23:44.946Z</time></trkpt><trkpt lat="43.8278217" lon="12.7443071"><ele>75.0</ele><time>2026-04-11T07:23:45.945Z</time></trkpt><trkpt lat="43.8277109" lon="12.7441178"><ele>75.33333333333333</ele><time>2026-04-11T07:23:46.95Z</time></trkpt><trkpt lat="43.8275987" lon="12.7439266"><ele>75.66666666666666</ele><time>2026-04-11T07:23:47.944Z</time></trkpt><trkpt lat="43.8274881" lon="12.7437443"><ele>76.0</ele><time>2026-04-11T07:23:48.946Z</time></trkpt><trkpt lat="43.8273819" lon="12.7435539"><ele>76.0</ele><time>2026-04-11T07:23:49.937Z</time></trkpt><trkpt lat="43.827281" lon="12.7433601"><ele>76.0</ele><time>2026-04-11T07:23:50.944Z</time></trkpt><trkpt lat="43.8271994" lon="12.743157"><ele>76.0</ele><time>2026-04-11T07:23:51.941Z</time></trkpt><trkpt lat="43.827123" lon="12.7429544"><ele>76.0</ele><time>2026-04-11T07:23:52.95Z</time></trkpt><trkpt lat="43.827059" lon="12.7427449"><ele>76.0</ele><time>2026-04-11T07:23:53.949Z</time></trkpt><trkpt lat="43.826997" lon="12.7425394"><ele>76.0</ele><time>2026-04-11T07:23:54.945Z</time></trkpt><trkpt lat="43.8269348" lon="12.7423182"><ele>76.0</ele><time>2026-04-11T07:23:55.952Z</time></trkpt><trkpt lat="43.8268734" lon="12.7421038"><ele>76.0</ele><time>2026-04-11T07:23:56.946Z</time></trkpt><trkpt lat="43.8268155" lon="12.7418813"><ele>76.0</ele><time>2026-04-11T07:23:57.939Z</time></trkpt><trkpt lat="43.826757" lon="12.7416708"><ele>76.33333333333333</ele><time>2026-04-11T07:23:58.944Z</time></trkpt><trkpt lat="43.8266975" lon="12.7414627"><ele>76.66666666666667</ele><time>2026-04-11T07:23:59.95Z</time></trkpt><trkpt lat="43.8266407" lon="12.7412647"><ele>77.0</ele><time>2026-04-11T07:24:00.945Z</time></trkpt><trkpt lat="43.8265705" lon="12.741078"><ele>77.33333333333334</ele><time>2026-04-11T07:24:01.945Z</time></trkpt><trkpt lat="43.8264923" lon="12.7408911"><ele>77.66666666666667</ele><time>2026-04-11T07:24:02.943Z</time></trkpt><trkpt lat="43.8264092" lon="12.7407054"><ele>78.0</ele><time>2026-04-11T07:24:03.951Z</time></trkpt><trkpt lat="43.8263096" lon="12.7405312"><ele>78.0</ele><time>2026-04-11T07:24:04.945Z</time></trkpt><trkpt lat="43.8261985" lon="12.7403697"><ele>78.0</ele><time>2026-04-11T07:24:05.943Z</time></trkpt><trkpt lat="43.8260892" lon="12.7402228"><ele>78.0</ele><time>2026-04-11T07:24:06.944Z</time></trkpt><trkpt lat="43.8259796" lon="12.7400869"><ele>78.5</ele><time>2026-04-11T07:24:07.943Z</time></trkpt><trkpt lat="43.8258875" lon="12.7399639"><ele>79.0</ele><time>2026-04-11T07:24:08.948Z</time></trkpt><trkpt lat="43.825797" lon="12.7398544"><ele>79.5</ele><time>2026-04-11T07:24:09.945Z</time></trkpt><trkpt lat="43.8257093" lon="12.7397541"><ele>80.0</ele><time>2026-04-11T07:24:10.955Z</time></trkpt><trkpt lat="43.8256304" lon="12.7396596"><ele>80.0</ele><time>2026-04-11T07:24:11.948Z</time></trkpt><trkpt lat="43.8255544" lon="12.739563"><ele>80.0</ele><time>2026-04-11T07:24:12.952Z</time></trkpt><trkpt lat="43.8254722" lon="12.7394585"><ele>80.0</ele><time>2026-04-11T07:24:13.948Z</time></trkpt><trkpt lat="43.8253908" lon="12.7393534"><ele>80.0</ele><time>2026-04-11T07:24:14.949Z</time></trkpt><trkpt lat="43.8253093" lon="12.7392562"><ele>80.0</ele><time>2026-04-11T07:24:15.946Z</time></trkpt><trkpt lat="43.8252308" lon="12.7391609"><ele>80.0</ele><time>2026-04-11T07:24:16.942Z</time></trkpt><trkpt lat="43.8251618" lon="12.7390704"><ele>80.0</ele><time>2026-04-11T07:24:17.941Z</time></trkpt><trkpt lat="43.825097" lon="12.7389927"><ele>80.0</ele><time>2026-04-11T07:24:18.946Z</time></trkpt><trkpt lat="43.8250472" lon="12.7389206"><ele>80.0</ele><time>2026-04-11T07:24:19.945Z</time></trkpt><trkpt lat="43.825033" lon="12.7387692"><ele>80.0</ele><time>2026-04-11T07:24:21.947Z</time></trkpt><trkpt lat="43.8250605" lon="12.7386886"><ele>80.0</ele><time>2026-04-11T07:24:22.944Z</time></trkpt><trkpt lat="43.8250902" lon="12.7386101"><ele>80.8</ele><time>2026-04-11T07:24:23.948Z</time></trkpt><trkpt lat="43.825165" lon="12.7384899"><ele>81.6</ele><time>2026-04-11T07:24:25.946Z</time></trkpt><trkpt lat="43.8252035" lon="12.7384007"><ele>82.4</ele><time>2026-04-11T07:24:26.964Z</time></trkpt><trkpt lat="43.8252694" lon="12.7382739"><ele>83.2</ele><time>2026-04-11T07:24:27.952Z</time></trkpt><trkpt lat="43.825362" lon="12.7381329"><ele>84.0</ele><time>2026-04-11T07:24:28.944Z</time></trkpt><trkpt lat="43.8254502" lon="12.7379846"><ele>84.0</ele><time>2026-04-11T07:24:29.949Z</time></trkpt><trkpt lat="43.8255414" lon="12.737816"><ele>84.0</ele><time>2026-04-11T07:24:30.951Z</time></trkpt><trkpt lat="43.8256393" lon="12.7376392"><ele>84.0</ele><time>2026-04-11T07:24:31.946Z</time></trkpt><trkpt lat="43.8257488" lon="12.7374619"><ele>84.5</ele><time>2026-04-11T07:24:32.955Z</time></trkpt><trkpt lat="43.8258558" lon="12.7372921"><ele>85.0</ele><time>2026-04-11T07:24:33.947Z</time></trkpt><trkpt lat="43.8259432" lon="12.7371347"><ele>85.5</ele><time>2026-04-11T07:24:34.948Z</time></trkpt><trkpt lat="43.8260336" lon="12.7370033"><ele>86.0</ele><time>2026-04-11T07:24:35.952Z</time></trkpt><trkpt lat="43.8261136" lon="12.7368822"><ele>87.75</ele><time>2026-04-11T07:24:36.945Z</time></trkpt><trkpt lat="43.8261951" lon="12.7367927"><ele>89.5</ele><time>2026-04-11T07:24:37.947Z</time></trkpt><trkpt lat="43.8263311" lon="12.7368482"><ele>91.25</ele><time>2026-04-11T07:24:38.954Z</time></trkpt><trkpt lat="43.826425" lon="12.7368482"><ele>93.0</ele><time>2026-04-11T07:24:39.947Z</time></trkpt><trkpt lat="43.8265495" lon="12.7369662"><ele>93.0</ele><time>2026-04-11T07:24:40.947Z</time></trkpt><trkpt lat="43.8266831" lon="12.73708"><ele>93.0</ele><time>2026-04-11T07:24:41.955Z</time></trkpt><trkpt lat="43.8268042" lon="12.7371924"><ele>93.0</ele><time>2026-04-11T07:24:42.94Z</time></trkpt><trkpt lat="43.8269439" lon="12.7373211"><ele>97.33333333333334</ele><time>2026-04-11T07:24:43.951Z</time></trkpt><trkpt lat="43.8270795" lon="12.7374416"><ele>101.66666666666667</ele><time>2026-04-11T07:24:44.953Z</time></trkpt><trkpt lat="43.8272408" lon="12.7375114"><ele>106.0</ele><time>2026-04-11T07:24:45.949Z</time></trkpt><trkpt lat="43.8274133" lon="12.7375755"><ele>106.0</ele><time>2026-04-11T07:24:46.954Z</time></trkpt><trkpt lat="43.8275914" lon="12.7376388"><ele>106.0</ele><time>2026-04-11T07:24:47.943Z</time></trkpt><trkpt lat="43.8277579" lon="12.7377203"><ele>106.0</ele><time>2026-04-11T07:24:48.941Z</time></trkpt><trkpt lat="43.827924" lon="12.737798"><ele>107.33333333333334</ele><time>2026-04-11T07:24:49.951Z</time></trkpt><trkpt lat="43.8280811" lon="12.7378763"><ele>108.66666666666666</ele><time>2026-04-11T07:24:50.943Z</time></trkpt><trkpt lat="43.8282158" lon="12.7379985"><ele>110.0</ele><time>2026-04-11T07:24:51.944Z</time></trkpt><trkpt lat="43.8283568" lon="12.7381001"><ele>112.75</ele><time>2026-04-11T07:24:52.948Z</time></trkpt><trkpt lat="43.8284841" lon="12.7381828"><ele>115.5</ele><time>2026-04-11T07:24:53.949Z</time></trkpt><trkpt lat="43.8286001" lon="12.7382549"><ele>118.25</ele><time>2026-04-11T07:24:54.951Z</time></trkpt><trkpt lat="43.8287113" lon="12.7382941"><ele>121.0</ele><time>2026-04-11T07:24:55.946Z</time></trkpt><trkpt lat="43.8288142" lon="12.7383042"><ele>121.0</ele><time>2026-04-11T07:24:56.952Z</time></trkpt><trkpt lat="43.8289151" lon="12.7382456"><ele>121.0</ele><time>2026-04-11T07:24:57.952Z</time></trkpt><trkpt lat="43.8290191" lon="12.7381446"><ele>121.0</ele><time>2026-04-11T07:24:58.95Z</time></trkpt><trkpt lat="43.8291238" lon="12.7380362"><ele>121.0</ele><time>2026-04-11T07:24:59.948Z</time></trkpt><trkpt lat="43.8292452" lon="12.7379095"><ele>120.33333333333334</ele><time>2026-04-11T07:25:00.945Z</time></trkpt><trkpt lat="43.8293747" lon="12.7377581"><ele>119.66666666666666</ele><time>2026-04-11T07:25:01.942Z</time></trkpt><trkpt lat="43.8294962" lon="12.7376336"><ele>119.0</ele><time>2026-04-11T07:25:02.954Z</time></trkpt><trkpt lat="43.8295968" lon="12.7374939"><ele>119.80000000000001</ele><time>2026-04-11T07:25:03.951Z</time></trkpt><trkpt lat="43.8296867" lon="12.7373827"><ele>120.60000000000001</ele><time>2026-04-11T07:25:04.948Z</time></trkpt><trkpt lat="43.8297533" lon="12.7372691"><ele>121.4</ele><time>2026-04-11T07:25:05.947Z</time></trkpt><trkpt lat="43.8297857" lon="12.7371536"><ele>122.2</ele><time>2026-04-11T07:25:06.948Z</time></trkpt><trkpt lat="43.8297772" lon="12.7370328"><ele>123.0</ele><time>2026-04-11T07:25:07.952Z</time></trkpt><trkpt lat="43.8297119" lon="12.7369467"><ele>123.0</ele><time>2026-04-11T07:25:08.952Z</time></trkpt><trkpt lat="43.8296364" lon="12.7369023"><ele>123.0</ele><time>2026-04-11T07:25:09.945Z</time></trkpt><trkpt lat="43.8295605" lon="12.7368711"><ele>123.0</ele><time>2026-04-11T07:25:10.952Z</time></trkpt><trkpt lat="43.8294566" lon="12.7368776"><ele>123.0</ele><time>2026-04-11T07:25:11.945Z</time></trkpt><trkpt lat="43.8293755" lon="12.7368571"><ele>123.0</ele><time>2026-04-11T07:25:12.948Z</time></trkpt><trkpt lat="43.8292997" lon="12.7368026"><ele>123.0</ele><time>2026-04-11T07:25:13.943Z</time></trkpt><trkpt lat="43.8292412" lon="12.7367178"><ele>125.2</ele><time>2026-04-11T07:25:14.948Z</time></trkpt><trkpt lat="43.8292046" lon="12.7365969"><ele>127.4</ele><time>2026-04-11T07:25:15.945Z</time></trkpt><trkpt lat="43.8291701" lon="12.7364696"><ele>129.60000000000002</ele><time>2026-04-11T07:25:16.944Z</time></trkpt><trkpt lat="43.8291301" lon="12.7363222"><ele>131.8</ele><time>2026-04-11T07:25:17.949Z</time></trkpt><trkpt lat="43.829087" lon="12.7361806"><ele>134.0</ele><time>2026-04-11T07:25:18.947Z</time></trkpt><trkpt lat="43.8290373" lon="12.7360382"><ele>134.0</ele><time>2026-04-11T07:25:19.95Z</time></trkpt><trkpt lat="43.8289828" lon="12.7358919"><ele>134.0</ele><time>2026-04-11T07:25:20.943Z</time></trkpt><trkpt lat="43.8289055" lon="12.7357498"><ele>134.0</ele><time>2026-04-11T07:25:21.951Z</time></trkpt><trkpt lat="43.8288128" lon="12.7356013"><ele>134.0</ele><time>2026-04-11T07:25:22.946Z</time></trkpt><trkpt lat="43.8287068" lon="12.7354502"><ele>134.0</ele><time>2026-04-11T07:25:23.95Z</time></trkpt><trkpt lat="43.8286046" lon="12.7352969"><ele>134.0</ele><time>2026-04-11T07:25:24.951Z</time></trkpt><trkpt lat="43.8284991" lon="12.7351458"><ele>134.0</ele><time>2026-04-11T07:25:25.946Z</time></trkpt><trkpt lat="43.8283833" lon="12.7349823"><ele>138.0</ele><time>2026-04-11T07:25:26.951Z</time></trkpt><trkpt lat="43.8282733" lon="12.7348129"><ele>142.0</ele><time>2026-04-11T07:25:27.945Z</time></trkpt><trkpt lat="43.8281603" lon="12.7346355"><ele>146.0</ele><time>2026-04-11T07:25:28.941Z</time></trkpt><trkpt lat="43.8280546" lon="12.7344464"><ele>147.66666666666666</ele><time>2026-04-11T07:25:29.945Z</time></trkpt><trkpt lat="43.8279562" lon="12.7342441"><ele>149.33333333333334</ele><time>2026-04-11T07:25:30.951Z</time></trkpt><trkpt lat="43.8278701" lon="12.7340408"><ele>151.0</ele><time>2026-04-11T07:25:31.95Z</time></trkpt><trkpt lat="43.8277887" lon="12.7338465"><ele>151.0</ele><time>2026-04-11T07:25:32.943Z</time></trkpt><trkpt lat="43.8277049" lon="12.7336418"><ele>151.0</ele><time>2026-04-11T07:25:33.941Z</time></trkpt><trkpt lat="43.8276361" lon="12.7334679"><ele>151.0</ele><time>2026-04-11T07:25:34.948Z</time></trkpt><trkpt lat="43.8275473" lon="12.7332583"><ele>153.0</ele><time>2026-04-11T07:25:35.948Z</time></trkpt><trkpt lat="43.8273923" lon="12.7331204"><ele>155.0</ele><time>2026-04-11T07:25:36.945Z</time></trkpt><trkpt lat="43.8272503" lon="12.7329971"><ele>157.0</ele><time>2026-04-11T07:25:37.945Z</time></trkpt><trkpt lat="43.8270928" lon="12.7329009"><ele>157.0</ele><time>2026-04-11T07:25:38.944Z</time></trkpt><trkpt lat="43.8269457" lon="12.7328077"><ele>157.0</ele><time>2026-04-11T07:25:39.943Z</time></trkpt><trkpt lat="43.8268098" lon="12.7327013"><ele>157.0</ele><time>2026-04-11T07:25:40.942Z</time></trkpt><trkpt lat="43.826678" lon="12.732578"><ele>160.33333333333334</ele><time>2026-04-11T07:25:41.949Z</time></trkpt><trkpt lat="43.8265757" lon="12.7324091"><ele>163.66666666666666</ele><time>2026-04-11T07:25:42.946Z</time></trkpt><trkpt lat="43.8264781" lon="12.7322347"><ele>167.0</ele><time>2026-04-11T07:25:43.954Z</time></trkpt><trkpt lat="43.8263791" lon="12.7320577"><ele>167.33333333333331</ele><time>2026-04-11T07:25:44.957Z</time></trkpt><trkpt lat="43.8262732" lon="12.7318736"><ele>167.66666666666666</ele><time>2026-04-11T07:25:45.954Z</time></trkpt><trkpt lat="43.8261675" lon="12.7316822"><ele>168.0</ele><time>2026-04-11T07:25:46.953Z</time></trkpt><trkpt lat="43.8260576" lon="12.7314949"><ele>168.66666666666666</ele><time>2026-04-11T07:25:47.948Z</time></trkpt><trkpt lat="43.8259546" lon="12.7312867"><ele>169.33333333333331</ele><time>2026-04-11T07:25:48.956Z</time></trkpt><trkpt lat="43.8258456" lon="12.7310762"><ele>170.0</ele><time>2026-04-11T07:25:49.945Z</time></trkpt><trkpt lat="43.8257285" lon="12.7308521"><ele>171.66666666666666</ele><time>2026-04-11T07:25:50.949Z</time></trkpt><trkpt lat="43.825607" lon="12.7306225"><ele>173.33333333333334</ele><time>2026-04-11T07:25:51.941Z</time></trkpt><trkpt lat="43.8254869" lon="12.7303898"><ele>175.0</ele><time>2026-04-11T07:25:52.945Z</time></trkpt><trkpt lat="43.8253606" lon="12.7301596"><ele>175.66666666666669</ele><time>2026-04-11T07:25:53.949Z</time></trkpt><trkpt lat="43.825239" lon="12.7299333"><ele>176.33333333333334</ele><time>2026-04-11T07:25:54.947Z</time></trkpt><trkpt lat="43.8251196" lon="12.7297175"><ele>177.0</ele><time>2026-04-11T07:25:55.949Z</time></trkpt><trkpt lat="43.8249921" lon="12.7295179"><ele>179.66666666666666</ele><time>2026-04-11T07:25:56.951Z</time></trkpt><trkpt lat="43.8248383" lon="12.7293386"><ele>182.33333333333331</ele><time>2026-04-11T07:25:57.946Z</time></trkpt><trkpt lat="43.8246766" lon="12.7291828"><ele>185.0</ele><time>2026-04-11T07:25:58.947Z</time></trkpt><trkpt lat="43.8245183" lon="12.7290341"><ele>185.0</ele><time>2026-04-11T07:25:59.95Z</time></trkpt><trkpt lat="43.8243753" lon="12.7288782"><ele>185.0</ele><time>2026-04-11T07:26:00.946Z</time></trkpt><trkpt lat="43.8242572" lon="12.7287211"><ele>185.0</ele><time>2026-04-11T07:26:01.944Z</time></trkpt><trkpt lat="43.8241529" lon="12.7285664"><ele>187.75</ele><time>2026-04-11T07:26:02.95Z</time></trkpt><trkpt lat="43.8240575" lon="12.7284042"><ele>190.5</ele><time>2026-04-11T07:26:03.947Z</time></trkpt><trkpt lat="43.8239727" lon="12.7282349"><ele>193.25</ele><time>2026-04-11T07:26:04.951Z</time></trkpt><trkpt lat="43.8238926" lon="12.7280611"><ele>196.0</ele><time>2026-04-11T07:26:05.95Z</time></trkpt><trkpt lat="43.8238299" lon="12.7278816"><ele>196.75</ele><time>2026-04-11T07:26:06.948Z</time></trkpt><trkpt lat="43.8237793" lon="12.7277029"><ele>197.5</ele><time>2026-04-11T07:26:07.944Z</time></trkpt><trkpt lat="43.8237321" lon="12.727505"><ele>198.25</ele><time>2026-04-11T07:26:08.949Z</time></trkpt><trkpt lat="43.823695" lon="12.7272925"><ele>199.0</ele><time>2026-04-11T07:26:09.947Z</time></trkpt><trkpt lat="43.8237112" lon="12.7271048"><ele>199.0</ele><time>2026-04-11T07:26:10.943Z</time></trkpt><trkpt lat="43.823705" lon="12.7269183"><ele>199.0</ele><time>2026-04-11T07:26:11.947Z</time></trkpt><trkpt lat="43.8237201" lon="12.7267847"><ele>199.0</ele><time>2026-04-11T07:26:12.951Z</time></trkpt><trkpt lat="43.8236827" lon="12.7266573"><ele>199.0</ele><time>2026-04-11T07:26:13.953Z</time></trkpt><trkpt lat="43.8236231" lon="12.7265778"><ele>199.0</ele><time>2026-04-11T07:26:14.95Z</time></trkpt><trkpt lat="43.8235086" lon="12.7265569"><ele>205.33333333333331</ele><time>2026-04-11T07:26:15.944Z</time></trkpt><trkpt lat="43.8233718" lon="12.7265705"><ele>211.66666666666669</ele><time>2026-04-11T07:26:16.943Z</time></trkpt><trkpt lat="43.8232188" lon="12.72663"><ele>218.0</ele><time>2026-04-11T07:26:17.948Z</time></trkpt><trkpt lat="43.8230717" lon="12.7267093"><ele>218.0</ele><time>2026-04-11T07:26:18.951Z</time></trkpt><trkpt lat="43.8229844" lon="12.7268825"><ele>218.0</ele><time>2026-04-11T07:26:19.947Z</time></trkpt><trkpt lat="43.8228753" lon="12.7270355"><ele>218.0</ele><time>2026-04-11T07:26:20.952Z</time></trkpt><trkpt lat="43.8227702" lon="12.7271654"><ele>218.0</ele><time>2026-04-11T07:26:21.945Z</time></trkpt><trkpt lat="43.822672" lon="12.727294"><ele>219.25</ele><time>2026-04-11T07:26:22.949Z</time></trkpt><trkpt lat="43.8225342" lon="12.7273053"><ele>220.5</ele><time>2026-04-11T07:26:23.949Z</time></trkpt><trkpt lat="43.8224178" lon="12.7273043"><ele>221.75</ele><time>2026-04-11T07:26:24.95Z</time></trkpt><trkpt lat="43.8223066" lon="12.7273025"><ele>223.0</ele><time>2026-04-11T07:26:25.95Z</time></trkpt><trkpt lat="43.8222204" lon="12.7272611"><ele>223.0</ele><time>2026-04-11T07:26:26.951Z</time></trkpt><trkpt lat="43.822227" lon="12.7270636"><ele>223.0</ele><time>2026-04-11T07:26:27.942Z</time></trkpt><trkpt lat="43.8222419" lon="12.7269191"><ele>223.0</ele><time>2026-04-11T07:26:28.948Z</time></trkpt><trkpt lat="43.8222678" lon="12.7267585"><ele>223.0</ele><time>2026-04-11T07:26:29.944Z</time></trkpt><trkpt lat="43.8223124" lon="12.7265742"><ele>225.66666666666666</ele><time>2026-04-11T07:26:30.946Z</time></trkpt><trkpt lat="43.8223569" lon="12.7263656"><ele>228.33333333333331</ele><time>2026-04-11T07:26:31.946Z</time></trkpt><trkpt lat="43.8224141" lon="12.7261397"><ele>231.0</ele><time>2026-04-11T07:26:32.947Z</time></trkpt><trkpt lat="43.8224629" lon="12.7259058"><ele>229.66666666666669</ele><time>2026-04-11T07:26:33.951Z</time></trkpt><trkpt lat="43.8225313" lon="12.72569"><ele>228.33333333333334</ele><time>2026-04-11T07:26:34.95Z</time></trkpt><trkpt lat="43.8226347" lon="12.7255071"><ele>227.0</ele><time>2026-04-11T07:26:35.947Z</time></trkpt><trkpt lat="43.8227575" lon="12.7253665"><ele>227.0</ele><time>2026-04-11T07:26:36.941Z</time></trkpt><trkpt lat="43.8228767" lon="12.7252461"><ele>227.0</ele><time>2026-04-11T07:26:37.949Z</time></trkpt><trkpt lat="43.8229759" lon="12.7251303"><ele>227.0</ele><time>2026-04-11T07:26:38.947Z</time></trkpt><trkpt lat="43.8230325" lon="12.7249976"><ele>227.0</ele><time>2026-04-11T07:26:39.949Z</time></trkpt><trkpt lat="43.8230494" lon="12.7248751"><ele>229.25</ele><time>2026-04-11T07:26:40.953Z</time></trkpt><trkpt lat="43.8230609" lon="12.7247643"><ele>231.5</ele><time>2026-04-11T07:26:41.952Z</time></trkpt><trkpt lat="43.8230097" lon="12.7246779"><ele>233.75</ele><time>2026-04-11T07:26:42.949Z</time></trkpt><trkpt lat="43.822815" lon="12.7247371"><ele>236.0</ele><time>2026-04-11T07:26:43.947Z</time></trkpt><trkpt lat="43.8226807" lon="12.7247717"><ele>241.66666666666669</ele><time>2026-04-11T07:26:44.946Z</time></trkpt><trkpt lat="43.8225482" lon="12.7248178"><ele>247.33333333333331</ele><time>2026-04-11T07:26:45.943Z</time></trkpt><trkpt lat="43.8223959" lon="12.7248366"><ele>253.0</ele><time>2026-04-11T07:26:46.953Z</time></trkpt><trkpt lat="43.8222324" lon="12.7248122"><ele>253.0</ele><time>2026-04-11T07:26:47.945Z</time></trkpt><trkpt lat="43.8220683" lon="12.7247713"><ele>253.0</ele><time>2026-04-11T07:26:48.949Z</time></trkpt><trkpt lat="43.821905" lon="12.7247222"><ele>253.0</ele><time>2026-04-11T07:26:49.95Z</time></trkpt><trkpt lat="43.8217557" lon="12.7246861"><ele>253.25</ele><time>2026-04-11T07:26:50.951Z</time></trkpt><trkpt lat="43.8216202" lon="12.7246406"><ele>253.5</ele><time>2026-04-11T07:26:51.943Z</time></trkpt><trkpt lat="43.8214906" lon="12.7245592"><ele>253.75</ele><time>2026-04-11T07:26:52.947Z</time></trkpt><trkpt lat="43.8213699" lon="12.7244545"><ele>254.0</ele><time>2026-04-11T07:26:53.941Z</time></trkpt><trkpt lat="43.8212578" lon="12.724323"><ele>257.33333333333337</ele><time>2026-04-11T07:26:54.947Z</time></trkpt><trkpt lat="43.8211525" lon="12.7241759"><ele>260.6666666666667</ele><time>2026-04-11T07:26:55.946Z</time></trkpt><trkpt lat="43.8210563" lon="12.7240066"><ele>264.0</ele><time>2026-04-11T07:26:56.94Z</time></trkpt><trkpt lat="43.8209558" lon="12.7238316"><ele>264.0</ele><time>2026-04-11T07:26:57.938Z</time></trkpt><trkpt lat="43.8208617" lon="12.723655"><ele>264.0</ele><time>2026-04-11T07:26:58.95Z</time></trkpt><trkpt lat="43.8207799" lon="12.7234849"><ele>264.0</ele><time>2026-04-11T07:26:59.943Z</time></trkpt><trkpt lat="43.8207016" lon="12.7233181"><ele>264.0</ele><time>2026-04-11T07:27:00.948Z</time></trkpt><trkpt lat="43.8206325" lon="12.7231584"><ele>268.25</ele><time>2026-04-11T07:27:01.946Z</time></trkpt><trkpt lat="43.8205602" lon="12.7230041"><ele>272.5</ele><time>2026-04-11T07:27:02.951Z</time></trkpt><trkpt lat="43.8205064" lon="12.7228685"><ele>276.75</ele><time>2026-04-11T07:27:03.943Z</time></trkpt><trkpt lat="43.8204455" lon="12.7227434"><ele>281.0</ele><time>2026-04-11T07:27:04.951Z</time></trkpt><trkpt lat="43.8203854" lon="12.7226323"><ele>282.8</ele><time>2026-04-11T07:27:05.95Z</time></trkpt><trkpt lat="43.8203738" lon="12.7224848"><ele>284.6</ele><time>2026-04-11T07:27:06.95Z</time></trkpt><trkpt lat="43.8203513" lon="12.7223564"><ele>286.4</ele><time>2026-04-11T07:27:07.95Z</time></trkpt><trkpt lat="43.8203489" lon="12.7222252"><ele>288.2</ele><time>2026-04-11T07:27:08.945Z</time></trkpt><trkpt lat="43.8203511" lon="12.7220916"><ele>290.0</ele><time>2026-04-11T07:27:09.946Z</time></trkpt><trkpt lat="43.8203318" lon="12.7219634"><ele>289.5</ele><time>2026-04-11T07:27:10.949Z</time></trkpt><trkpt lat="43.8203347" lon="12.7218342"><ele>289.0</ele><time>2026-04-11T07:27:11.951Z</time></trkpt><trkpt lat="43.8203265" lon="12.721725"><ele>288.5</ele><time>2026-04-11T07:27:12.949Z</time></trkpt><trkpt lat="43.8203029" lon="12.7216235"><ele>288.0</ele><time>2026-04-11T07:27:13.943Z</time></trkpt><trkpt lat="43.820268" lon="12.7215214"><ele>287.5</ele><time>2026-04-11T07:27:14.945Z</time></trkpt><trkpt lat="43.8202143" lon="12.7214226"><ele>287.0</ele><time>2026-04-11T07:27:15.948Z</time></trkpt><trkpt lat="43.820153" lon="12.7213248"><ele>287.1666666666667</ele><time>2026-04-11T07:27:16.944Z</time></trkpt><trkpt lat="43.820085" lon="12.7212488"><ele>287.33333333333337</ele><time>2026-04-11T07:27:17.942Z</time></trkpt><trkpt lat="43.820012" lon="12.7211744"><ele>287.5</ele><time>2026-04-11T07:27:18.943Z</time></trkpt><trkpt lat="43.8199498" lon="12.7211038"><ele>287.6666666666667</ele><time>2026-04-11T07:27:19.952Z</time></trkpt><trkpt lat="43.8198671" lon="12.7210296"><ele>287.8333333333333</ele><time>2026-04-11T07:27:20.95Z</time></trkpt><trkpt lat="43.8197979" lon="12.7209474"><ele>288.0</ele><time>2026-04-11T07:27:21.949Z</time></trkpt><trkpt lat="43.8197155" lon="12.7208516"><ele>290.2</ele><time>2026-04-11T07:27:22.947Z</time></trkpt><trkpt lat="43.8196275" lon="12.7207413"><ele>292.4</ele><time>2026-04-11T07:27:23.954Z</time></trkpt><trkpt lat="43.8195547" lon="12.7206274"><ele>294.59999999999997</ele><time>2026-04-11T07:27:24.95Z</time></trkpt><trkpt lat="43.8194804" lon="12.7205147"><ele>296.8</ele><time>2026-04-11T07:27:25.944Z</time></trkpt><trkpt lat="43.8194115" lon="12.7203986"><ele>299.0</ele><time>2026-04-11T07:27:26.945Z</time></trkpt><trkpt lat="43.8193509" lon="12.7202712"><ele>298.2</ele><time>2026-04-11T07:27:27.947Z</time></trkpt><trkpt lat="43.8192904" lon="12.7201571"><ele>297.4</ele><time>2026-04-11T07:27:28.949Z</time></trkpt><trkpt lat="43.8192307" lon="12.7200348"><ele>296.6</ele><time>2026-04-11T07:27:29.95Z</time></trkpt><trkpt lat="43.8191608" lon="12.7199091"><ele>295.8</ele><time>2026-04-11T07:27:30.951Z</time></trkpt><trkpt lat="43.8190815" lon="12.7197809"><ele>295.0</ele><time>2026-04-11T07:27:31.947Z</time></trkpt><trkpt lat="43.8189973" lon="12.7196537"><ele>295.0</ele><time>2026-04-11T07:27:32.952Z</time></trkpt><trkpt lat="43.8189077" lon="12.7195215"><ele>295.0</ele><time>2026-04-11T07:27:33.945Z</time></trkpt><trkpt lat="43.8188177" lon="12.7193893"><ele>295.0</ele><time>2026-04-11T07:27:34.944Z</time></trkpt><trkpt lat="43.8187313" lon="12.7192567"><ele>295.0</ele><time>2026-04-11T07:27:35.944Z</time></trkpt><trkpt lat="43.8186444" lon="12.719123"><ele>294.0</ele><time>2026-04-11T07:27:36.949Z</time></trkpt><trkpt lat="43.8185603" lon="12.71899"><ele>293.0</ele><time>2026-04-11T07:27:37.95Z</time></trkpt><trkpt lat="43.8184737" lon="12.7188613"><ele>292.0</ele><time>2026-04-11T07:27:38.941Z</time></trkpt><trkpt lat="43.8183925" lon="12.7187439"><ele>291.0</ele><time>2026-04-11T07:27:39.952Z</time></trkpt><trkpt lat="43.8183058" lon="12.7186377"><ele>292.0</ele><time>2026-04-11T07:27:40.951Z</time></trkpt><trkpt lat="43.8182136" lon="12.7185414"><ele>293.0</ele><time>2026-04-11T07:27:41.949Z</time></trkpt><trkpt lat="43.8181149" lon="12.7184431"><ele>294.0</ele><time>2026-04-11T07:27:42.946Z</time></trkpt><trkpt lat="43.8180224" lon="12.7183375"><ele>295.0</ele><time>2026-04-11T07:27:43.946Z</time></trkpt><trkpt lat="43.8179257" lon="12.7182191"><ele>295.0</ele><time>2026-04-11T07:27:44.951Z</time></trkpt><trkpt lat="43.817824" lon="12.7181019"><ele>295.0</ele><time>2026-04-11T07:27:45.951Z</time></trkpt><trkpt lat="43.8177168" lon="12.7179779"><ele>295.0</ele><time>2026-04-11T07:27:46.947Z</time></trkpt><trkpt lat="43.817613" lon="12.7178476"><ele>295.0</ele><time>2026-04-11T07:27:47.942Z</time></trkpt><trkpt lat="43.8175039" lon="12.7177122"><ele>295.66666666666663</ele><time>2026-04-11T07:27:48.953Z</time></trkpt><trkpt lat="43.8173868" lon="12.7175786"><ele>296.3333333333333</ele><time>2026-04-11T07:27:49.949Z</time></trkpt><trkpt lat="43.8172737" lon="12.7174417"><ele>297.0</ele><time>2026-04-11T07:27:50.948Z</time></trkpt><trkpt lat="43.8171545" lon="12.717313"><ele>297.0</ele><time>2026-04-11T07:27:51.948Z</time></trkpt><trkpt lat="43.8170303" lon="12.7172027"><ele>297.0</ele><time>2026-04-11T07:27:52.949Z</time></trkpt><trkpt lat="43.816895" lon="12.7171151"><ele>297.0</ele><time>2026-04-11T07:27:53.95Z</time></trkpt><trkpt lat="43.8167745" lon="12.7170686"><ele>297.0</ele><time>2026-04-11T07:27:54.945Z</time></trkpt><trkpt lat="43.8166479" lon="12.7170357"><ele>297.0</ele><time>2026-04-11T07:27:55.943Z</time></trkpt><trkpt lat="43.8165217" lon="12.7170184"><ele>297.0</ele><time>2026-04-11T07:27:56.942Z</time></trkpt><trkpt lat="43.8164138" lon="12.7169928"><ele>297.0</ele><time>2026-04-11T07:27:57.947Z</time></trkpt><trkpt lat="43.8163223" lon="12.7169591"><ele>297.0</ele><time>2026-04-11T07:27:58.949Z</time></trkpt><trkpt lat="43.8162476" lon="12.7168997"><ele>297.0</ele><time>2026-04-11T07:27:59.947Z</time></trkpt><trkpt lat="43.8162109" lon="12.7167986"><ele>297.0</ele><time>2026-04-11T07:28:00.948Z</time></trkpt><trkpt lat="43.8161905" lon="12.7166654"><ele>297.0</ele><time>2026-04-11T07:28:01.954Z</time></trkpt><trkpt lat="43.8161595" lon="12.7165084"><ele>297.0</ele><time>2026-04-11T07:28:02.943Z</time></trkpt><trkpt lat="43.8161217" lon="12.7163361"><ele>297.0</ele><time>2026-04-11T07:28:03.946Z</time></trkpt><trkpt lat="43.8160842" lon="12.7161486"><ele>292.6666666666667</ele><time>2026-04-11T07:28:04.946Z</time></trkpt><trkpt lat="43.8160365" lon="12.7159534"><ele>288.33333333333337</ele><time>2026-04-11T07:28:05.946Z</time></trkpt><trkpt lat="43.8159713" lon="12.7157581"><ele>284.0</ele><time>2026-04-11T07:28:06.948Z</time></trkpt><trkpt lat="43.8159002" lon="12.7155744"><ele>292.25</ele><time>2026-04-11T07:28:07.942Z</time></trkpt><trkpt lat="43.8158221" lon="12.7153945"><ele>300.5</ele><time>2026-04-11T07:28:08.95Z</time></trkpt><trkpt lat="43.8157556" lon="12.7152206"><ele>308.75</ele><time>2026-04-11T07:28:09.946Z</time></trkpt><trkpt lat="43.8156983" lon="12.7150621"><ele>317.0</ele><time>2026-04-11T07:28:10.948Z</time></trkpt><trkpt lat="43.815663" lon="12.7148988"><ele>317.0</ele><time>2026-04-11T07:28:11.951Z</time></trkpt><trkpt lat="43.8156679" lon="12.7147275"><ele>317.0</ele><time>2026-04-11T07:28:12.952Z</time></trkpt><trkpt lat="43.8157063" lon="12.7145599"><ele>317.0</ele><time>2026-04-11T07:28:13.95Z</time></trkpt><trkpt lat="43.8157903" lon="12.7144031"><ele>317.0</ele><time>2026-04-11T07:28:14.953Z</time></trkpt><trkpt lat="43.8158727" lon="12.7142477"><ele>319.33333333333337</ele><time>2026-04-11T07:28:15.947Z</time></trkpt><trkpt lat="43.8159455" lon="12.7140813"><ele>321.6666666666667</ele><time>2026-04-11T07:28:16.95Z</time></trkpt><trkpt lat="43.8160186" lon="12.7138832"><ele>324.0</ele><time>2026-04-11T07:28:17.945Z</time></trkpt><trkpt lat="43.8160956" lon="12.7136847"><ele>319.0</ele><time>2026-04-11T07:28:18.947Z</time></trkpt><trkpt lat="43.8161662" lon="12.7134673"><ele>314.0</ele><time>2026-04-11T07:28:19.945Z</time></trkpt><trkpt lat="43.8162362" lon="12.7132362"><ele>309.0</ele><time>2026-04-11T07:28:20.949Z</time></trkpt><trkpt lat="43.8163003" lon="12.713024"><ele>309.0</ele><time>2026-04-11T07:28:21.951Z</time></trkpt><trkpt lat="43.8163829" lon="12.7128474"><ele>309.0</ele><time>2026-04-11T07:28:22.948Z</time></trkpt><trkpt lat="43.8164558" lon="12.7127014"><ele>309.0</ele><time>2026-04-11T07:28:23.945Z</time></trkpt><trkpt lat="43.8165437" lon="12.7125755"><ele>309.0</ele><time>2026-04-11T07:28:24.95Z</time></trkpt><trkpt lat="43.8166272" lon="12.7124565"><ele>312.5</ele><time>2026-04-11T07:28:25.945Z</time></trkpt><trkpt lat="43.8167033" lon="12.7123104"><ele>316.0</ele><time>2026-04-11T07:28:26.948Z</time></trkpt><trkpt lat="43.8167347" lon="12.7121487"><ele>319.5</ele><time>2026-04-11T07:28:27.951Z</time></trkpt><trkpt lat="43.8167369" lon="12.7119929"><ele>323.0</ele><time>2026-04-11T07:28:28.953Z</time></trkpt><trkpt lat="43.8166925" lon="12.7118459"><ele>323.25</ele><time>2026-04-11T07:28:29.948Z</time></trkpt><trkpt lat="43.8166139" lon="12.7117211"><ele>323.5</ele><time>2026-04-11T07:28:30.943Z</time></trkpt><trkpt lat="43.8165343" lon="12.7115813"><ele>323.75</ele><time>2026-04-11T07:28:31.942Z</time></trkpt><trkpt lat="43.8164346" lon="12.7114316"><ele>324.0</ele><time>2026-04-11T07:28:32.95Z</time></trkpt><trkpt lat="43.8163312" lon="12.7112812"><ele>324.0</ele><time>2026-04-11T07:28:33.957Z</time></trkpt><trkpt lat="43.8162299" lon="12.7111369"><ele>324.0</ele><time>2026-04-11T07:28:34.953Z</time></trkpt><trkpt lat="43.8161389" lon="12.7109889"><ele>324.0</ele><time>2026-04-11T07:28:35.952Z</time></trkpt><trkpt lat="43.8160651" lon="12.7108261"><ele>324.0</ele><time>2026-04-11T07:28:36.948Z</time></trkpt><trkpt lat="43.8160826" lon="12.7106477"><ele>323.25</ele><time>2026-04-11T07:28:37.949Z</time></trkpt><trkpt lat="43.8160779" lon="12.7104639"><ele>322.5</ele><time>2026-04-11T07:28:38.947Z</time></trkpt><trkpt lat="43.8160798" lon="12.7102659"><ele>321.75</ele><time>2026-04-11T07:28:39.944Z</time></trkpt><trkpt lat="43.8161107" lon="12.7100618"><ele>321.0</ele><time>2026-04-11T07:28:40.952Z</time></trkpt><trkpt lat="43.8160824" lon="12.7098327"><ele>320.6666666666667</ele><time>2026-04-11T07:28:41.951Z</time></trkpt><trkpt lat="43.8160745" lon="12.7096164"><ele>320.33333333333337</ele><time>2026-04-11T07:28:42.956Z</time></trkpt><trkpt lat="43.816055" lon="12.709382"><ele>320.0</ele><time>2026-04-11T07:28:43.946Z</time></trkpt><trkpt lat="43.8160444" lon="12.7091481"><ele>320.0</ele><time>2026-04-11T07:28:44.942Z</time></trkpt><trkpt lat="43.8160588" lon="12.7089021"><ele>320.0</ele><time>2026-04-11T07:28:45.944Z</time></trkpt><trkpt lat="43.8160853" lon="12.708666"><ele>320.0</ele><time>2026-04-11T07:28:46.944Z</time></trkpt><trkpt lat="43.8161275" lon="12.7084357"><ele>326.0</ele><time>2026-04-11T07:28:47.949Z</time></trkpt><trkpt lat="43.8161629" lon="12.7082147"><ele>332.0</ele><time>2026-04-11T07:28:48.952Z</time></trkpt><trkpt lat="43.8161959" lon="12.7080118"><ele>338.0</ele><time>2026-04-11T07:28:49.953Z</time></trkpt><trkpt lat="43.8162262" lon="12.7078131"><ele>342.75</ele><time>2026-04-11T07:28:50.947Z</time></trkpt><trkpt lat="43.8162553" lon="12.7076374"><ele>347.5</ele><time>2026-04-11T07:28:51.949Z</time></trkpt><trkpt lat="43.8162109" lon="12.7074601"><ele>352.25</ele><time>2026-04-11T07:28:52.947Z</time></trkpt><trkpt lat="43.8161708" lon="12.7073001"><ele>357.0</ele><time>2026-04-11T07:28:53.946Z</time></trkpt><trkpt lat="43.816104" lon="12.7071532"><ele>357.0</ele><time>2026-04-11T07:28:54.94Z</time></trkpt><trkpt lat="43.8160209" lon="12.7070108"><ele>357.0</ele><time>2026-04-11T07:28:55.939Z</time></trkpt><trkpt lat="43.8159541" lon="12.706883"><ele>357.0</ele><time>2026-04-11T07:28:56.949Z</time></trkpt><trkpt lat="43.8158886" lon="12.7067449"><ele>357.0</ele><time>2026-04-11T07:28:57.949Z</time></trkpt><trkpt lat="43.8158003" lon="12.7066319"><ele>358.0</ele><time>2026-04-11T07:28:58.937Z</time></trkpt><trkpt lat="43.8157137" lon="12.7065467"><ele>359.0</ele><time>2026-04-11T07:28:59.943Z</time></trkpt><trkpt lat="43.8156" lon="12.7065213"><ele>360.0</ele><time>2026-04-11T07:29:00.945Z</time></trkpt><trkpt lat="43.8154941" lon="12.7065549"><ele>361.0</ele><time>2026-04-11T07:29:01.944Z</time></trkpt><trkpt lat="43.81539" lon="12.7066321"><ele>362.0</ele><time>2026-04-11T07:29:02.944Z</time></trkpt><trkpt lat="43.8152836" lon="12.7067122"><ele>362.0</ele><time>2026-04-11T07:29:03.944Z</time></trkpt><trkpt lat="43.8151763" lon="12.7067557"><ele>362.0</ele><time>2026-04-11T07:29:04.938Z</time></trkpt><trkpt lat="43.815068" lon="12.7067521"><ele>362.0</ele><time>2026-04-11T07:29:05.944Z</time></trkpt><trkpt lat="43.8149653" lon="12.7067291"><ele>362.0</ele><time>2026-04-11T07:29:06.95Z</time></trkpt><trkpt lat="43.8148632" lon="12.7066892"><ele>362.0</ele><time>2026-04-11T07:29:07.949Z</time></trkpt><trkpt lat="43.8147801" lon="12.7065413"><ele>360.0</ele><time>2026-04-11T07:29:08.952Z</time></trkpt><trkpt lat="43.814711" lon="12.7064"><ele>358.0</ele><time>2026-04-11T07:29:09.954Z</time></trkpt><trkpt lat="43.8147165" lon="12.7061943"><ele>356.0</ele><time>2026-04-11T07:29:10.96Z</time></trkpt><trkpt lat="43.8147421" lon="12.7060092"><ele>354.0</ele><time>2026-04-11T07:29:11.939Z</time></trkpt><trkpt lat="43.8147296" lon="12.7058382"><ele>352.75</ele><time>2026-04-11T07:29:12.955Z</time></trkpt><trkpt lat="43.8147019" lon="12.7056671"><ele>351.5</ele><time>2026-04-11T07:29:13.945Z</time></trkpt><trkpt lat="43.8146826" lon="12.7054907"><ele>350.25</ele><time>2026-04-11T07:29:14.945Z</time></trkpt><trkpt lat="43.8146685" lon="12.7053196"><ele>349.0</ele><time>2026-04-11T07:29:15.949Z</time></trkpt><trkpt lat="43.8146334" lon="12.7051432"><ele>346.75</ele><time>2026-04-11T07:29:16.942Z</time></trkpt><trkpt lat="43.8145994" lon="12.7049794"><ele>344.5</ele><time>2026-04-11T07:29:17.951Z</time></trkpt><trkpt lat="43.8145774" lon="12.7048117"><ele>342.25</ele><time>2026-04-11T07:29:18.95Z</time></trkpt><trkpt lat="43.8145529" lon="12.7046362"><ele>340.0</ele><time>2026-04-11T07:29:19.94Z</time></trkpt><trkpt lat="43.8145288" lon="12.7044707"><ele>338.2</ele><time>2026-04-11T07:29:20.944Z</time></trkpt><trkpt lat="43.8144983" lon="12.7043111"><ele>336.4</ele><time>2026-04-11T07:29:21.946Z</time></trkpt><trkpt lat="43.8144819" lon="12.7041635"><ele>334.6</ele><time>2026-04-11T07:29:22.942Z</time></trkpt><trkpt lat="43.814481" lon="12.7040218"><ele>332.8</ele><time>2026-04-11T07:29:23.946Z</time></trkpt><trkpt lat="43.8144932" lon="12.7038887"><ele>331.0</ele><time>2026-04-11T07:29:24.945Z</time></trkpt><trkpt lat="43.8145201" lon="12.7037638"><ele>331.0</ele><time>2026-04-11T07:29:25.948Z</time></trkpt><trkpt lat="43.8145491" lon="12.7036427"><ele>331.0</ele><time>2026-04-11T07:29:26.946Z</time></trkpt><trkpt lat="43.8145784" lon="12.7035223"><ele>331.0</ele><time>2026-04-11T07:29:27.945Z</time></trkpt><trkpt lat="43.8146092" lon="12.7033946"><ele>331.0</ele><time>2026-04-11T07:29:28.949Z</time></trkpt><trkpt lat="43.814635" lon="12.7032685"><ele>331.0</ele><time>2026-04-11T07:29:29.944Z</time></trkpt><trkpt lat="43.8146497" lon="12.7031363"><ele>329.0</ele><time>2026-04-11T07:29:30.95Z</time></trkpt><trkpt lat="43.8146594" lon="12.7030049"><ele>327.0</ele><time>2026-04-11T07:29:31.946Z</time></trkpt><trkpt lat="43.8146537" lon="12.7028846"><ele>325.0</ele><time>2026-04-11T07:29:32.954Z</time></trkpt><trkpt lat="43.8146485" lon="12.7027667"><ele>323.0</ele><time>2026-04-11T07:29:33.946Z</time></trkpt><trkpt lat="43.8146353" lon="12.7026694"><ele>321.0</ele><time>2026-04-11T07:29:34.944Z</time></trkpt><trkpt lat="43.8146194" lon="12.7025326"><ele>319.0</ele><time>2026-04-11T07:29:36.949Z</time></trkpt><trkpt lat="43.8146548" lon="12.7024564"><ele>316.0</ele><time>2026-04-11T07:29:38.947Z</time></trkpt><trkpt lat="43.8147528" lon="12.7024802"><ele>313.0</ele><time>2026-04-11T07:29:41.95Z</time></trkpt><trkpt lat="43.8148417" lon="12.7025064"><ele>310.0</ele><time>2026-04-11T07:29:43.949Z</time></trkpt><trkpt lat="43.8149333" lon="12.7025441"><ele>307.0</ele><time>2026-04-11T07:29:45.949Z</time></trkpt><trkpt lat="43.815031" lon="12.7026084"><ele>304.0</ele><time>2026-04-11T07:29:47.947Z</time></trkpt><trkpt lat="43.8151279" lon="12.7027107"><ele>304.5</ele><time>2026-04-11T07:29:49.942Z</time></trkpt><trkpt lat="43.8152035" lon="12.7028153"><ele>305.0</ele><time>2026-04-11T07:29:51.944Z</time></trkpt><trkpt lat="43.8152773" lon="12.7029489"><ele>305.5</ele><time>2026-04-11T07:29:53.95Z</time></trkpt><trkpt lat="43.8153448" lon="12.7030781"><ele>306.0</ele><time>2026-04-11T07:29:55.944Z</time></trkpt><trkpt lat="43.8154303" lon="12.7031749"><ele>306.0</ele><time>2026-04-11T07:29:57.947Z</time></trkpt><trkpt lat="43.8155408" lon="12.7031991"><ele>306.0</ele><time>2026-04-11T07:29:59.95Z</time></trkpt><trkpt lat="43.8156625" lon="12.7031748"><ele>306.0</ele><time>2026-04-11T07:30:01.941Z</time></trkpt><trkpt lat="43.8157294" lon="12.7031506"><ele>306.0</ele><time>2026-04-11T07:30:02.943Z</time></trkpt><trkpt lat="43.8158442" lon="12.7031051"><ele>306.0</ele><time>2026-04-11T07:30:04.947Z</time></trkpt><trkpt lat="43.8159477" lon="12.7030959"><ele>306.0</ele><time>2026-04-11T07:30:06.944Z</time></trkpt><trkpt lat="43.8160539" lon="12.7031767"><ele>306.0</ele><time>2026-04-11T07:30:08.948Z</time></trkpt><trkpt lat="43.8161394" lon="12.7032806"><ele>306.0</ele><time>2026-04-11T07:30:10.94Z</time></trkpt><trkpt lat="43.8162015" lon="12.7033035"><ele>306.0</ele><time>2026-04-11T07:30:11.948Z</time></trkpt><trkpt lat="43.8163243" lon="12.7032723"><ele>306.0</ele><time>2026-04-11T07:30:13.947Z</time></trkpt><trkpt lat="43.8164598" lon="12.7032363"><ele>306.0</ele><time>2026-04-11T07:30:15.948Z</time></trkpt><trkpt lat="43.8165719" lon="12.7032676"><ele>306.0</ele><time>2026-04-11T07:30:17.95Z</time></trkpt><trkpt lat="43.8166609" lon="12.7033168"><ele>306.0</ele><time>2026-04-11T07:30:19.948Z</time></trkpt><trkpt lat="43.816759" lon="12.703349"><ele>306.0</ele><time>2026-04-11T07:30:21.943Z</time></trkpt><trkpt lat="43.8168441" lon="12.7033191"><ele>306.0</ele><time>2026-04-11T07:30:23.952Z</time></trkpt><trkpt lat="43.8169351" lon="12.7032464"><ele>306.8</ele><time>2026-04-11T07:30:25.951Z</time></trkpt><trkpt lat="43.8170179" lon="12.7031438"><ele>307.6</ele><time>2026-04-11T07:30:27.947Z</time></trkpt><trkpt lat="43.8170861" lon="12.7030525"><ele>308.4</ele><time>2026-04-11T07:30:29.943Z</time></trkpt><trkpt lat="43.8171534" lon="12.702962"><ele>309.2</ele><time>2026-04-11T07:30:31.945Z</time></trkpt><trkpt lat="43.8172195" lon="12.702916"><ele>310.0</ele><time>2026-04-11T07:30:33.94Z</time></trkpt><trkpt lat="43.8173161" lon="12.7029041"><ele>310.0</ele><time>2026-04-11T07:30:35.942Z</time></trkpt><trkpt lat="43.8174079" lon="12.702901"><ele>310.0</ele><time>2026-04-11T07:30:37.945Z</time></trkpt><trkpt lat="43.8174943" lon="12.7029116"><ele>310.0</ele><time>2026-04-11T07:30:39.947Z</time></trkpt><trkpt lat="43.8175873" lon="12.7029362"><ele>310.0</ele><time>2026-04-11T07:30:41.946Z</time></trkpt><trkpt lat="43.8176692" lon="12.702903"><ele>310.0</ele><time>2026-04-11T07:30:44.949Z</time></trkpt><trkpt lat="43.8177127" lon="12.7027994"><ele>310.0</ele><time>2026-04-11T07:30:47.948Z</time></trkpt><trkpt lat="43.8177418" lon="12.7026916"><ele>308.16666666666663</ele><time>2026-04-11T07:30:50.948Z</time></trkpt><trkpt lat="43.8177779" lon="12.7025818"><ele>306.3333333333333</ele><time>2026-04-11T07:30:53.948Z</time></trkpt><trkpt lat="43.8178218" lon="12.7024702"><ele>304.5</ele><time>2026-04-11T07:30:56.95Z</time></trkpt><trkpt lat="43.8178553" lon="12.7023835"><ele>302.6666666666667</ele><time>2026-04-11T07:30:58.95Z</time></trkpt><trkpt lat="43.8179082" lon="12.7022547"><ele>300.83333333333337</ele><time>2026-04-11T07:31:00.948Z</time></trkpt><trkpt lat="43.8179397" lon="12.7021406"><ele>299.0</ele><time>2026-04-11T07:31:02.951Z</time></trkpt><trkpt lat="43.8179739" lon="12.7020001"><ele>296.4</ele><time>2026-04-11T07:31:04.953Z</time></trkpt><trkpt lat="43.8180007" lon="12.7018711"><ele>293.79999999999995</ele><time>2026-04-11T07:31:06.94Z</time></trkpt><trkpt lat="43.8180543" lon="12.7017562"><ele>291.20000000000005</ele><time>2026-04-11T07:31:08.954Z</time></trkpt><trkpt lat="43.8181017" lon="12.7016386"><ele>288.6</ele><time>2026-04-11T07:31:10.95Z</time></trkpt><trkpt lat="43.8181357" lon="12.7014943"><ele>286.0</ele><time>2026-04-11T07:31:12.943Z</time></trkpt><trkpt lat="43.8181669" lon="12.7013511"><ele>286.0</ele><time>2026-04-11T07:31:14.946Z</time></trkpt><trkpt lat="43.8182049" lon="12.7012179"><ele>286.0</ele><time>2026-04-11T07:31:16.95Z</time></trkpt><trkpt lat="43.8182388" lon="12.7010893"><ele>286.0</ele><time>2026-04-11T07:31:18.946Z</time></trkpt><trkpt lat="43.8182845" lon="12.7009817"><ele>286.0</ele><time>2026-04-11T07:31:20.951Z</time></trkpt><trkpt lat="43.8183495" lon="12.7008712"><ele>286.0</ele><time>2026-04-11T07:31:22.943Z</time></trkpt><trkpt lat="43.8183868" lon="12.7007644"><ele>282.6</ele><time>2026-04-11T07:31:24.952Z</time></trkpt><trkpt lat="43.8184285" lon="12.7006645"><ele>279.20000000000005</ele><time>2026-04-11T07:31:26.942Z</time></trkpt><trkpt lat="43.8184847" lon="12.7005702"><ele>275.79999999999995</ele><time>2026-04-11T07:31:28.94Z</time></trkpt><trkpt lat="43.8185376" lon="12.7004659"><ele>272.4</ele><time>2026-04-11T07:31:30.944Z</time></trkpt><trkpt lat="43.818604" lon="12.7003439"><ele>269.0</ele><time>2026-04-11T07:31:32.944Z</time></trkpt><trkpt lat="43.818671" lon="12.7002245"><ele>266.59999999999997</ele><time>2026-04-11T07:31:34.951Z</time></trkpt><trkpt lat="43.8187357" lon="12.7000729"><ele>264.2</ele><time>2026-04-11T07:31:36.954Z</time></trkpt><trkpt lat="43.8187749" lon="12.6999605"><ele>261.79999999999995</ele><time>2026-04-11T07:31:38.95Z</time></trkpt><trkpt lat="43.8188233" lon="12.6998459"><ele>259.4</ele><time>2026-04-11T07:31:40.944Z</time></trkpt><trkpt lat="43.8188781" lon="12.699722"><ele>257.0</ele><time>2026-04-11T07:31:42.95Z</time></trkpt><trkpt lat="43.8189382" lon="12.6995905"><ele>257.0</ele><time>2026-04-11T07:31:44.946Z</time></trkpt><trkpt lat="43.8190161" lon="12.6994779"><ele>257.0</ele><time>2026-04-11T07:31:46.948Z</time></trkpt><trkpt lat="43.8191013" lon="12.6993733"><ele>257.0</ele><time>2026-04-11T07:31:48.95Z</time></trkpt><trkpt lat="43.8191852" lon="12.6992859"><ele>257.0</ele><time>2026-04-11T07:31:50.952Z</time></trkpt><trkpt lat="43.8192646" lon="12.6992043"><ele>257.0</ele><time>2026-04-11T07:31:52.949Z</time></trkpt><trkpt lat="43.8193531" lon="12.6991201"><ele>254.2</ele><time>2026-04-11T07:31:54.94Z</time></trkpt><trkpt lat="43.8194302" lon="12.6990453"><ele>251.39999999999998</ele><time>2026-04-11T07:31:56.95Z</time></trkpt><trkpt lat="43.8194967" lon="12.698972"><ele>248.60000000000002</ele><time>2026-04-11T07:31:58.946Z</time></trkpt><trkpt lat="43.8195693" lon="12.6989031"><ele>245.8</ele><time>2026-04-11T07:32:00.95Z</time></trkpt><trkpt lat="43.8196532" lon="12.6988273"><ele>243.0</ele><time>2026-04-11T07:32:02.948Z</time></trkpt><trkpt lat="43.8197269" lon="12.6987375"><ele>243.0</ele><time>2026-04-11T07:32:04.946Z</time></trkpt><trkpt lat="43.8198018" lon="12.6986467"><ele>243.0</ele><time>2026-04-11T07:32:06.941Z</time></trkpt><trkpt lat="43.8198794" lon="12.6985542"><ele>243.0</ele><time>2026-04-11T07:32:08.961Z</time></trkpt><trkpt lat="43.819943" lon="12.6984804"><ele>243.0</ele><time>2026-04-11T07:32:10.949Z</time></trkpt><trkpt lat="43.8200042" lon="12.6984142"><ele>243.0</ele><time>2026-04-11T07:32:12.94Z</time></trkpt><trkpt lat="43.8200911" lon="12.6983323"><ele>240.0</ele><time>2026-04-11T07:32:14.948Z</time></trkpt><trkpt lat="43.8201727" lon="12.698246"><ele>237.0</ele><time>2026-04-11T07:32:16.947Z</time></trkpt><trkpt lat="43.8202586" lon="12.6981584"><ele>234.0</ele><time>2026-04-11T07:32:18.948Z</time></trkpt><trkpt lat="43.8203368" lon="12.6980772"><ele>231.0</ele><time>2026-04-11T07:32:20.961Z</time></trkpt><trkpt lat="43.8204082" lon="12.6979953"><ele>228.0</ele><time>2026-04-11T07:32:22.943Z</time></trkpt><trkpt lat="43.8204994" lon="12.6979128"><ele>228.0</ele><time>2026-04-11T07:32:24.953Z</time></trkpt><trkpt lat="43.8205855" lon="12.6978465"><ele>228.0</ele><time>2026-04-11T07:32:26.95Z</time></trkpt><trkpt lat="43.8206665" lon="12.6977817"><ele>228.0</ele><time>2026-04-11T07:32:28.942Z</time></trkpt><trkpt lat="43.8207213" lon="12.6976986"><ele>228.0</ele><time>2026-04-11T07:32:30.95Z</time></trkpt><trkpt lat="43.8207793" lon="12.6975991"><ele>228.0</ele><time>2026-04-11T07:32:32.945Z</time></trkpt><trkpt lat="43.8208363" lon="12.6975017"><ele>227.4</ele><time>2026-04-11T07:32:34.94Z</time></trkpt><trkpt lat="43.8208979" lon="12.6974122"><ele>226.8</ele><time>2026-04-11T07:32:36.939Z</time></trkpt><trkpt lat="43.8209712" lon="12.6973359"><ele>226.2</ele><time>2026-04-11T07:32:38.955Z</time></trkpt><trkpt lat="43.8210434" lon="12.6972641"><ele>225.6</ele><time>2026-04-11T07:32:40.947Z</time></trkpt><trkpt lat="43.8211192" lon="12.6971977"><ele>225.0</ele><time>2026-04-11T07:32:42.944Z</time></trkpt><trkpt lat="43.8212018" lon="12.697129"><ele>225.0</ele><time>2026-04-11T07:32:44.949Z</time></trkpt><trkpt lat="43.8212656" lon="12.697051"><ele>225.0</ele><time>2026-04-11T07:32:46.945Z</time></trkpt><trkpt lat="43.8213374" lon="12.6969755"><ele>225.0</ele><time>2026-04-11T07:32:48.947Z</time></trkpt><trkpt lat="43.8213956" lon="12.6969389"><ele>225.0</ele><time>2026-04-11T07:32:50.95Z</time></trkpt><trkpt lat="43.8214752" lon="12.6969385"><ele>225.0</ele><time>2026-04-11T07:32:58.953Z</time></trkpt><trkpt lat="43.8215315" lon="12.696876"><ele>225.0</ele><time>2026-04-11T07:33:02.947Z</time></trkpt><trkpt lat="43.821579" lon="12.6967838"><ele>224.5714285714286</ele><time>2026-04-11T07:33:04.944Z</time></trkpt><trkpt lat="43.8216151" lon="12.6966861"><ele>224.14285714285717</ele><time>2026-04-11T07:33:06.952Z</time></trkpt><trkpt lat="43.82163" lon="12.6965936"><ele>223.71428571428572</ele><time>2026-04-11T07:33:08.949Z</time></trkpt><trkpt lat="43.8216279" lon="12.6965058"><ele>223.2857142857143</ele><time>2026-04-11T07:33:10.945Z</time></trkpt><trkpt lat="43.8216096" lon="12.6964205"><ele>222.8571428571429</ele><time>2026-04-11T07:33:12.951Z</time></trkpt><trkpt lat="43.821581" lon="12.6963395"><ele>222.42857142857142</ele><time>2026-04-11T07:33:14.949Z</time></trkpt><trkpt lat="43.8215497" lon="12.696262"><ele>222.0</ele><time>2026-04-11T07:33:16.942Z</time></trkpt><trkpt lat="43.8215072" lon="12.6961631"><ele>220.0</ele><time>2026-04-11T07:33:19.944Z</time></trkpt><trkpt lat="43.8214735" lon="12.6960738"><ele>218.0</ele><time>2026-04-11T07:33:22.95Z</time></trkpt><trkpt lat="43.8214596" lon="12.6959627"><ele>216.0</ele><time>2026-04-11T07:33:25.949Z</time></trkpt><trkpt lat="43.8214661" lon="12.6958212"><ele>214.0</ele><time>2026-04-11T07:33:28.949Z</time></trkpt><trkpt lat="43.8214951" lon="12.6956819"><ele>212.0</ele><time>2026-04-11T07:33:30.953Z</time></trkpt><trkpt lat="43.8215283" lon="12.6955742"><ele>210.0</ele><time>2026-04-11T07:33:32.95Z</time></trkpt><trkpt lat="43.8215716" lon="12.6954659"><ele>210.0</ele><time>2026-04-11T07:33:34.944Z</time></trkpt><trkpt lat="43.8216201" lon="12.6953631"><ele>210.0</ele><time>2026-04-11T07:33:36.957Z</time></trkpt><trkpt lat="43.8216694" lon="12.6952846"><ele>210.0</ele><time>2026-04-11T07:33:38.954Z</time></trkpt><trkpt lat="43.8217289" lon="12.6952229"><ele>210.0</ele><time>2026-04-11T07:33:40.947Z</time></trkpt><trkpt lat="43.8218084" lon="12.6951397"><ele>210.0</ele><time>2026-04-11T07:33:43.946Z</time></trkpt><trkpt lat="43.8218811" lon="12.6950762"><ele>210.0</ele><time>2026-04-11T07:33:45.942Z</time></trkpt><trkpt lat="43.8219542" lon="12.6950078"><ele>206.5</ele><time>2026-04-11T07:33:47.948Z</time></trkpt><trkpt lat="43.8220232" lon="12.6949409"><ele>203.0</ele><time>2026-04-11T07:33:49.944Z</time></trkpt><trkpt lat="43.8220861" lon="12.6948764"><ele>199.5</ele><time>2026-04-11T07:33:51.945Z</time></trkpt><trkpt lat="43.8221647" lon="12.6948035"><ele>196.0</ele><time>2026-04-11T07:33:54.943Z</time></trkpt><trkpt lat="43.822225" lon="12.6947449"><ele>192.5</ele><time>2026-04-11T07:33:56.942Z</time></trkpt><trkpt lat="43.8222876" lon="12.6946618"><ele>189.0</ele><time>2026-04-11T07:33:58.949Z</time></trkpt><trkpt lat="43.8223484" lon="12.6945749"><ele>189.0</ele><time>2026-04-11T07:34:00.942Z</time></trkpt><trkpt lat="43.8224129" lon="12.6944726"><ele>189.0</ele><time>2026-04-11T07:34:02.949Z</time></trkpt><trkpt lat="43.8224721" lon="12.6943874"><ele>189.0</ele><time>2026-04-11T07:34:04.951Z</time></trkpt><trkpt lat="43.822534" lon="12.6942962"><ele>189.0</ele><time>2026-04-11T07:34:06.947Z</time></trkpt><trkpt lat="43.8226016" lon="12.6941956"><ele>189.0</ele><time>2026-04-11T07:34:08.949Z</time></trkpt><trkpt lat="43.8226766" lon="12.6940985"><ele>185.16666666666666</ele><time>2026-04-11T07:34:10.95Z</time></trkpt><trkpt lat="43.8227443" lon="12.6940053"><ele>181.33333333333334</ele><time>2026-04-11T07:34:12.943Z</time></trkpt><trkpt lat="43.8228171" lon="12.6939264"><ele>177.5</ele><time>2026-04-11T07:34:14.948Z</time></trkpt><trkpt lat="43.822892" lon="12.6938642"><ele>173.66666666666669</ele><time>2026-04-11T07:34:16.95Z</time></trkpt><trkpt lat="43.822961" lon="12.6938186"><ele>169.83333333333334</ele><time>2026-04-11T07:34:18.945Z</time></trkpt><trkpt lat="43.8230233" lon="12.6937846"><ele>166.0</ele><time>2026-04-11T07:34:20.941Z</time></trkpt><trkpt lat="43.8230825" lon="12.6937503"><ele>166.0</ele><time>2026-04-11T07:34:22.957Z</time></trkpt><trkpt lat="43.823144" lon="12.6937233"><ele>166.0</ele><time>2026-04-11T07:34:24.943Z</time></trkpt><trkpt lat="43.8232215" lon="12.6936855"><ele>166.0</ele><time>2026-04-11T07:34:27.942Z</time></trkpt><trkpt lat="43.8232905" lon="12.6936511"><ele>166.0</ele><time>2026-04-11T07:34:29.944Z</time></trkpt><trkpt lat="43.8233677" lon="12.6936143"><ele>166.0</ele><time>2026-04-11T07:34:31.953Z</time></trkpt><trkpt lat="43.8234333" lon="12.6935807"><ele>166.0</ele><time>2026-04-11T07:34:33.948Z</time></trkpt><trkpt lat="43.8234943" lon="12.6935465"><ele>166.0</ele><time>2026-04-11T07:34:35.942Z</time></trkpt><trkpt lat="43.823561" lon="12.6935068"><ele>163.16666666666669</ele><time>2026-04-11T07:34:37.95Z</time></trkpt><trkpt lat="43.823639" lon="12.6934603"><ele>160.33333333333334</ele><time>2026-04-11T07:34:39.943Z</time></trkpt><trkpt lat="43.8237251" lon="12.6934028"><ele>157.5</ele><time>2026-04-11T07:34:41.948Z</time></trkpt><trkpt lat="43.8238169" lon="12.6933585"><ele>154.66666666666666</ele><time>2026-04-11T07:34:43.944Z</time></trkpt><trkpt lat="43.8238931" lon="12.6933272"><ele>151.83333333333331</ele><time>2026-04-11T07:34:45.941Z</time></trkpt><trkpt lat="43.8239719" lon="12.6932964"><ele>149.0</ele><time>2026-04-11T07:34:47.951Z</time></trkpt><trkpt lat="43.8240674" lon="12.6932645"><ele>149.0</ele><time>2026-04-11T07:34:49.948Z</time></trkpt><trkpt lat="43.8241284" lon="12.6932278"><ele>149.0</ele><time>2026-04-11T07:34:51.952Z</time></trkpt><trkpt lat="43.8241309" lon="12.693104"><ele>149.0</ele><time>2026-04-11T07:34:54.944Z</time></trkpt><trkpt lat="43.8240869" lon="12.6930156"><ele>149.0</ele><time>2026-04-11T07:34:58.951Z</time></trkpt><trkpt lat="43.8240562" lon="12.6929374"><ele>149.0</ele><time>2026-04-11T07:35:01.95Z</time></trkpt><trkpt lat="43.8239988" lon="12.6928584"><ele>149.0</ele><time>2026-04-11T07:35:19.948Z</time></trkpt><trkpt lat="43.8239716" lon="12.6927754"><ele>149.0</ele><time>2026-04-11T07:35:21.941Z</time></trkpt><trkpt lat="43.8239413" lon="12.6926641"><ele>147.5</ele><time>2026-04-11T07:35:24.947Z</time></trkpt><trkpt lat="43.823924" lon="12.6925703"><ele>146.0</ele><time>2026-04-11T07:35:26.942Z</time></trkpt><trkpt lat="43.8239173" lon="12.6924794"><ele>144.5</ele><time>2026-04-11T07:35:28.942Z</time></trkpt><trkpt lat="43.8239164" lon="12.6923586"><ele>143.0</ele><time>2026-04-11T07:35:31.951Z</time></trkpt><trkpt lat="43.8239169" lon="12.6922363"><ele>141.5</ele><time>2026-04-11T07:35:34.941Z</time></trkpt><trkpt lat="43.8239004" lon="12.6921325"><ele>140.0</ele><time>2026-04-11T07:35:37.947Z</time></trkpt><trkpt lat="43.8238573" lon="12.6920279"><ele>140.0</ele><time>2026-04-11T07:35:40.947Z</time></trkpt><trkpt lat="43.8238682" lon="12.6919239"><ele>140.0</ele><time>2026-04-11T07:35:43.95Z</time></trkpt><trkpt lat="43.8239506" lon="12.6919589"><ele>140.0</ele><time>2026-04-11T07:35:46.947Z</time></trkpt><trkpt lat="43.8240205" lon="12.692018"><ele>140.0</ele><time>2026-04-11T07:35:48.95Z</time></trkpt><trkpt lat="43.8240838" lon="12.6920841"><ele>140.0</ele><time>2026-04-11T07:35:50.941Z</time></trkpt><trkpt lat="43.8241491" lon="12.6921592"><ele>140.0</ele><time>2026-04-11T07:35:52.942Z</time></trkpt><trkpt lat="43.8242107" lon="12.6922277"><ele>140.0</ele><time>2026-04-11T07:35:54.945Z</time></trkpt><trkpt lat="43.8242804" lon="12.6922627"><ele>140.0</ele><time>2026-04-11T07:35:55.945Z</time></trkpt><trkpt lat="43.8243625" lon="12.6922809"><ele>140.0</ele><time>2026-04-11T07:35:57.951Z</time></trkpt><trkpt lat="43.8244647" lon="12.6922794"><ele>140.0</ele><time>2026-04-11T07:35:59.95Z</time></trkpt><trkpt lat="43.8245648" lon="12.6923091"><ele>140.0</ele><time>2026-04-11T07:36:01.944Z</time></trkpt><trkpt lat="43.8246502" lon="12.6923503"><ele>137.2</ele><time>2026-04-11T07:36:03.947Z</time></trkpt><trkpt lat="43.8247154" lon="12.692391"><ele>134.4</ele><time>2026-04-11T07:36:05.943Z</time></trkpt><trkpt lat="43.8248104" lon="12.69241"><ele>131.6</ele><time>2026-04-11T07:36:07.951Z</time></trkpt><trkpt lat="43.8249146" lon="12.6924294"><ele>128.8</ele><time>2026-04-11T07:36:09.942Z</time></trkpt><trkpt lat="43.8250324" lon="12.692444"><ele>126.0</ele><time>2026-04-11T07:36:11.946Z</time></trkpt><trkpt lat="43.8251527" lon="12.6925046"><ele>124.5</ele><time>2026-04-11T07:36:13.94Z</time></trkpt><trkpt lat="43.8252338" lon="12.6925599"><ele>123.0</ele><time>2026-04-11T07:36:15.953Z</time></trkpt><trkpt lat="43.8253029" lon="12.6926095"><ele>121.5</ele><time>2026-04-11T07:36:17.948Z</time></trkpt><trkpt lat="43.8253647" lon="12.6926484"><ele>120.0</ele><time>2026-04-11T07:36:19.948Z</time></trkpt><trkpt lat="43.8254174" lon="12.6926962"><ele>118.5</ele><time>2026-04-11T07:36:21.948Z</time></trkpt><trkpt lat="43.8254944" lon="12.6927435"><ele>117.0</ele><time>2026-04-11T07:36:23.944Z</time></trkpt><trkpt lat="43.8255619" lon="12.6927939"><ele>117.0</ele><time>2026-04-11T07:36:25.951Z</time></trkpt><trkpt lat="43.8256226" lon="12.6928424"><ele>117.00000000000001</ele><time>2026-04-11T07:36:27.944Z</time></trkpt><trkpt lat="43.8256949" lon="12.6929113"><ele>117.0</ele><time>2026-04-11T07:36:30.946Z</time></trkpt><trkpt lat="43.8257536" lon="12.6929608"><ele>117.0</ele><time>2026-04-11T07:36:32.946Z</time></trkpt><trkpt lat="43.8258111" lon="12.6929985"><ele>117.00000000000001</ele><time>2026-04-11T07:36:34.94Z</time></trkpt><trkpt lat="43.8258855" lon="12.6930255"><ele>117.0</ele><time>2026-04-11T07:36:36.945Z</time></trkpt><trkpt lat="43.8259608" lon="12.6930296"><ele>117.0</ele><time>2026-04-11T07:36:38.945Z</time></trkpt><trkpt lat="43.826039" lon="12.6930122"><ele>114.66666666666667</ele><time>2026-04-11T07:36:41.945Z</time></trkpt><trkpt lat="43.8260965" lon="12.6929198"><ele>112.33333333333334</ele><time>2026-04-11T07:36:44.945Z</time></trkpt><trkpt lat="43.8261266" lon="12.692821"><ele>110.0</ele><time>2026-04-11T07:36:46.943Z</time></trkpt><trkpt lat="43.8261582" lon="12.6927186"><ele>107.66666666666667</ele><time>2026-04-11T07:36:48.949Z</time></trkpt><trkpt lat="43.8261884" lon="12.692626"><ele>105.33333333333334</ele><time>2026-04-11T07:36:50.941Z</time></trkpt><trkpt lat="43.8262365" lon="12.6925629"><ele>103.0</ele><time>2026-04-11T07:36:52.945Z</time></trkpt><trkpt lat="43.8263002" lon="12.6925248"><ele>102.85714285714285</ele><time>2026-04-11T07:37:27.941Z</time></trkpt><trkpt lat="43.8263501" lon="12.6924443"><ele>102.71428571428571</ele><time>2026-04-11T07:37:28.944Z</time></trkpt><trkpt lat="43.8263939" lon="12.6923765"><ele>102.57142857142857</ele><time>2026-04-11T07:37:29.94Z</time></trkpt><trkpt lat="43.8264399" lon="12.6923026"><ele>102.42857142857142</ele><time>2026-04-11T07:37:30.944Z</time></trkpt><trkpt lat="43.8264923" lon="12.6922282"><ele>102.28571428571429</ele><time>2026-04-11T07:37:31.944Z</time></trkpt><trkpt lat="43.8265388" lon="12.6921569"><ele>102.14285714285714</ele><time>2026-04-11T07:37:32.95Z</time></trkpt><trkpt lat="43.8265934" lon="12.6920743"><ele>102.0</ele><time>2026-04-11T07:37:33.949Z</time></trkpt><trkpt lat="43.8266546" lon="12.691988"><ele>101.39999999999999</ele><time>2026-04-11T07:37:34.95Z</time></trkpt><trkpt lat="43.8267129" lon="12.6918972"><ele>100.8</ele><time>2026-04-11T07:37:35.95Z</time></trkpt><trkpt lat="43.8267708" lon="12.6918"><ele>100.2</ele><time>2026-04-11T07:37:36.945Z</time></trkpt><trkpt lat="43.8268356" lon="12.691696"><ele>99.6</ele><time>2026-04-11T07:37:37.949Z</time></trkpt><trkpt lat="43.8268947" lon="12.6915886"><ele>99.0</ele><time>2026-04-11T07:37:38.949Z</time></trkpt><trkpt lat="43.8269481" lon="12.6914948"><ele>98.33333333333333</ele><time>2026-04-11T07:37:39.944Z</time></trkpt><trkpt lat="43.8270006" lon="12.6913988"><ele>97.66666666666667</ele><time>2026-04-11T07:37:40.943Z</time></trkpt><trkpt lat="43.8270447" lon="12.6913032"><ele>97.0</ele><time>2026-04-11T07:37:41.95Z</time></trkpt><trkpt lat="43.8270944" lon="12.6912134"><ele>96.33333333333334</ele><time>2026-04-11T07:37:42.95Z</time></trkpt><trkpt lat="43.8271103" lon="12.6911227"><ele>95.66666666666667</ele><time>2026-04-11T07:37:43.949Z</time></trkpt><trkpt lat="43.8271352" lon="12.6909704"><ele>95.0</ele><time>2026-04-11T07:37:45.948Z</time></trkpt><trkpt lat="43.8270983" lon="12.6908844"><ele>95.2</ele><time>2026-04-11T07:37:46.953Z</time></trkpt><trkpt lat="43.8270036" lon="12.690775"><ele>95.4</ele><time>2026-04-11T07:37:48.942Z</time></trkpt><trkpt lat="43.8269437" lon="12.6907243"><ele>95.6</ele><time>2026-04-11T07:37:49.951Z</time></trkpt><trkpt lat="43.8268727" lon="12.6906658"><ele>95.8</ele><time>2026-04-11T07:37:50.95Z</time></trkpt><trkpt lat="43.8267893" lon="12.6906014"><ele>96.0</ele><time>2026-04-11T07:37:51.943Z</time></trkpt><trkpt lat="43.8267167" lon="12.6905398"><ele>96.0</ele><time>2026-04-11T07:37:52.941Z</time></trkpt><trkpt lat="43.8266567" lon="12.6904588"><ele>96.0</ele><time>2026-04-11T07:37:53.951Z</time></trkpt><trkpt lat="43.8266145" lon="12.6903616"><ele>96.0</ele><time>2026-04-11T07:37:54.947Z</time></trkpt><trkpt lat="43.8265871" lon="12.6902492"><ele>96.0</ele><time>2026-04-11T07:37:55.94Z</time></trkpt><trkpt lat="43.8265533" lon="12.6901498"><ele>96.0</ele><time>2026-04-11T07:37:56.944Z</time></trkpt><trkpt lat="43.8265497" lon="12.6900329"><ele>96.0</ele><time>2026-04-11T07:37:57.948Z</time></trkpt><trkpt lat="43.8265395" lon="12.6899228"><ele>94.19999999999999</ele><time>2026-04-11T07:37:58.954Z</time></trkpt><trkpt lat="43.8265109" lon="12.689814"><ele>92.39999999999999</ele><time>2026-04-11T07:37:59.944Z</time></trkpt><trkpt lat="43.8264551" lon="12.6896951"><ele>90.6</ele><time>2026-04-11T07:38:00.942Z</time></trkpt><trkpt lat="43.8264135" lon="12.6896074"><ele>88.8</ele><time>2026-04-11T07:38:01.945Z</time></trkpt><trkpt lat="43.826365" lon="12.6895146"><ele>87.0</ele><time>2026-04-11T07:38:02.945Z</time></trkpt><trkpt lat="43.8262913" lon="12.6893939"><ele>88.5</ele><time>2026-04-11T07:38:03.951Z</time></trkpt><trkpt lat="43.8262018" lon="12.6892833"><ele>90.0</ele><time>2026-04-11T07:38:04.949Z</time></trkpt><trkpt lat="43.8261228" lon="12.6891732"><ele>91.5</ele><time>2026-04-11T07:38:05.946Z</time></trkpt><trkpt lat="43.8260497" lon="12.6890604"><ele>93.0</ele><time>2026-04-11T07:38:06.95Z</time></trkpt><trkpt lat="43.8259658" lon="12.6889424"><ele>93.0</ele><time>2026-04-11T07:38:07.95Z</time></trkpt><trkpt lat="43.8258855" lon="12.6888275"><ele>93.0</ele><time>2026-04-11T07:38:08.944Z</time></trkpt><trkpt lat="43.825801" lon="12.6886944"><ele>93.0</ele><time>2026-04-11T07:38:09.943Z</time></trkpt><trkpt lat="43.825699" lon="12.6885444"><ele>93.0</ele><time>2026-04-11T07:38:10.943Z</time></trkpt><trkpt lat="43.8256249" lon="12.6883899"><ele>88.25</ele><time>2026-04-11T07:38:11.951Z</time></trkpt><trkpt lat="43.8255593" lon="12.688222"><ele>83.5</ele><time>2026-04-11T07:38:12.95Z</time></trkpt><trkpt lat="43.8254853" lon="12.6880325"><ele>78.75</ele><time>2026-04-11T07:38:13.948Z</time></trkpt><trkpt lat="43.8254249" lon="12.6878467"><ele>74.0</ele><time>2026-04-11T07:38:14.944Z</time></trkpt><trkpt lat="43.8253472" lon="12.6876604"><ele>73.0</ele><time>2026-04-11T07:38:15.952Z</time></trkpt><trkpt lat="43.8252714" lon="12.6874786"><ele>72.0</ele><time>2026-04-11T07:38:16.948Z</time></trkpt><trkpt lat="43.8251846" lon="12.6873001"><ele>71.0</ele><time>2026-04-11T07:38:17.943Z</time></trkpt><trkpt lat="43.8251097" lon="12.6871317"><ele>70.0</ele><time>2026-04-11T07:38:18.944Z</time></trkpt><trkpt lat="43.8250212" lon="12.6869586"><ele>72.33333333333333</ele><time>2026-04-11T07:38:19.95Z</time></trkpt><trkpt lat="43.8249174" lon="12.6867742"><ele>74.66666666666667</ele><time>2026-04-11T07:38:20.938Z</time></trkpt><trkpt lat="43.8248307" lon="12.686607"><ele>77.0</ele><time>2026-04-11T07:38:21.956Z</time></trkpt><trkpt lat="43.824743" lon="12.6864238"><ele>77.0</ele><time>2026-04-11T07:38:22.947Z</time></trkpt><trkpt lat="43.8246525" lon="12.6862453"><ele>77.0</ele><time>2026-04-11T07:38:23.944Z</time></trkpt><trkpt lat="43.8245718" lon="12.6860621"><ele>77.0</ele><time>2026-04-11T07:38:24.944Z</time></trkpt><trkpt lat="43.8244761" lon="12.6858771"><ele>75.0</ele><time>2026-04-11T07:38:25.942Z</time></trkpt><trkpt lat="43.8243882" lon="12.6856908"><ele>73.0</ele><time>2026-04-11T07:38:26.943Z</time></trkpt><trkpt lat="43.8243001" lon="12.6855111"><ele>71.0</ele><time>2026-04-11T07:38:27.943Z</time></trkpt><trkpt lat="43.8241913" lon="12.6853457"><ele>72.75</ele><time>2026-04-11T07:38:28.946Z</time></trkpt><trkpt lat="43.8241121" lon="12.6851846"><ele>74.5</ele><time>2026-04-11T07:38:29.952Z</time></trkpt><trkpt lat="43.8240307" lon="12.6850259"><ele>76.25</ele><time>2026-04-11T07:38:30.941Z</time></trkpt><trkpt lat="43.8239693" lon="12.6848939"><ele>78.0</ele><time>2026-04-11T07:38:31.941Z</time></trkpt><trkpt lat="43.8239155" lon="12.6847833"><ele>78.0</ele><time>2026-04-11T07:38:32.942Z</time></trkpt><trkpt lat="43.823855" lon="12.6846686"><ele>78.0</ele><time>2026-04-11T07:38:33.95Z</time></trkpt><trkpt lat="43.8237955" lon="12.6845779"><ele>78.0</ele><time>2026-04-11T07:38:34.947Z</time></trkpt><trkpt lat="43.8237594" lon="12.6845055"><ele>78.0</ele><time>2026-04-11T07:38:35.943Z</time></trkpt><trkpt lat="43.8236995" lon="12.6844034"><ele>78.0</ele><time>2026-04-11T07:38:37.946Z</time></trkpt><trkpt lat="43.8236931" lon="12.6842832"><ele>78.0</ele><time>2026-04-11T07:38:40.947Z</time></trkpt><trkpt lat="43.8237553" lon="12.6841764"><ele>76.6</ele><time>2026-04-11T07:38:42.947Z</time></trkpt><trkpt lat="43.8238355" lon="12.6840644"><ele>75.19999999999999</ele><time>2026-04-11T07:38:44.949Z</time></trkpt><trkpt lat="43.8239102" lon="12.6839905"><ele>73.8</ele><time>2026-04-11T07:38:45.944Z</time></trkpt><trkpt lat="43.8239784" lon="12.683924"><ele>72.39999999999999</ele><time>2026-04-11T07:38:46.944Z</time></trkpt><trkpt lat="43.8240466" lon="12.6838541"><ele>71.0</ele><time>2026-04-11T07:38:47.942Z</time></trkpt><trkpt lat="43.8241138" lon="12.6837856"><ele>71.0</ele><time>2026-04-11T07:38:48.947Z</time></trkpt><trkpt lat="43.8241716" lon="12.6837202"><ele>71.0</ele><time>2026-04-11T07:38:49.946Z</time></trkpt><trkpt lat="43.8242267" lon="12.6836659"><ele>71.0</ele><time>2026-04-11T07:38:50.948Z</time></trkpt><trkpt lat="43.8243103" lon="12.6835477"><ele>71.0</ele><time>2026-04-11T07:38:52.944Z</time></trkpt><trkpt lat="43.8243272" lon="12.6834018"><ele>71.0</ele><time>2026-04-11T07:38:54.946Z</time></trkpt><trkpt lat="43.8242786" lon="12.6832357"><ele>71.5</ele><time>2026-04-11T07:38:56.939Z</time></trkpt><trkpt lat="43.8242477" lon="12.6831445"><ele>72.0</ele><time>2026-04-11T07:38:57.945Z</time></trkpt><trkpt lat="43.8242121" lon="12.6830432"><ele>72.5</ele><time>2026-04-11T07:38:58.947Z</time></trkpt><trkpt lat="43.824174" lon="12.6829202"><ele>73.0</ele><time>2026-04-11T07:38:59.949Z</time></trkpt><trkpt lat="43.8241288" lon="12.6828081"><ele>73.5</ele><time>2026-04-11T07:39:00.944Z</time></trkpt><trkpt lat="43.8240807" lon="12.6826871"><ele>74.0</ele><time>2026-04-11T07:39:01.944Z</time></trkpt><trkpt lat="43.8240368" lon="12.6825688"><ele>74.83333333333334</ele><time>2026-04-11T07:39:02.943Z</time></trkpt><trkpt lat="43.8239949" lon="12.6824519"><ele>75.66666666666667</ele><time>2026-04-11T07:39:03.944Z</time></trkpt><trkpt lat="43.8239616" lon="12.6823418"><ele>76.5</ele><time>2026-04-11T07:39:04.94Z</time></trkpt><trkpt lat="43.8239323" lon="12.6822375"><ele>77.33333333333333</ele><time>2026-04-11T07:39:05.945Z</time></trkpt><trkpt lat="43.8239008" lon="12.6821449"><ele>78.16666666666666</ele><time>2026-04-11T07:39:06.944Z</time></trkpt><trkpt lat="43.8238738" lon="12.682048"><ele>79.0</ele><time>2026-04-11T07:39:07.946Z</time></trkpt><trkpt lat="43.8238403" lon="12.681892"><ele>80.0</ele><time>2026-04-11T07:39:09.943Z</time></trkpt><trkpt lat="43.8238221" lon="12.681755"><ele>81.0</ele><time>2026-04-11T07:39:11.95Z</time></trkpt><trkpt lat="43.8238628" lon="12.681633"><ele>82.0</ele><time>2026-04-11T07:39:13.945Z</time></trkpt><trkpt lat="43.8239637" lon="12.6815337"><ele>83.0</ele><time>2026-04-11T07:39:15.944Z</time></trkpt><trkpt lat="43.8240172" lon="12.6814855"><ele>84.0</ele><time>2026-04-11T07:39:16.95Z</time></trkpt><trkpt lat="43.8240846" lon="12.6814574"><ele>84.0</ele><time>2026-04-11T07:39:17.94Z</time></trkpt><trkpt lat="43.8241517" lon="12.6814211"><ele>84.0</ele><time>2026-04-11T07:39:18.942Z</time></trkpt><trkpt lat="43.8242574" lon="12.6813816"><ele>84.0</ele><time>2026-04-11T07:39:20.943Z</time></trkpt><trkpt lat="43.8243367" lon="12.6813446"><ele>84.0</ele><time>2026-04-11T07:39:22.94Z</time></trkpt><trkpt lat="43.8244119" lon="12.6813129"><ele>84.0</ele><time>2026-04-11T07:39:25.941Z</time></trkpt><trkpt lat="43.8244792" lon="12.6813"><ele>84.0</ele><time>2026-04-11T07:39:45.94Z</time></trkpt><trkpt lat="43.8245309" lon="12.6812325"><ele>84.6</ele><time>2026-04-11T07:39:47.942Z</time></trkpt><trkpt lat="43.8245958" lon="12.6811924"><ele>85.2</ele><time>2026-04-11T07:39:48.946Z</time></trkpt><trkpt lat="43.8247279" lon="12.681133"><ele>85.8</ele><time>2026-04-11T07:39:50.943Z</time></trkpt><trkpt lat="43.8247983" lon="12.6811077"><ele>86.39999999999999</ele><time>2026-04-11T07:39:51.941Z</time></trkpt><trkpt lat="43.8248898" lon="12.6810634"><ele>87.0</ele><time>2026-04-11T07:39:52.943Z</time></trkpt><trkpt lat="43.8249783" lon="12.6810102"><ele>87.0</ele><time>2026-04-11T07:39:53.946Z</time></trkpt><trkpt lat="43.8250879" lon="12.6809527"><ele>87.0</ele><time>2026-04-11T07:39:54.943Z</time></trkpt><trkpt lat="43.8252169" lon="12.6808914"><ele>87.0</ele><time>2026-04-11T07:39:55.942Z</time></trkpt><trkpt lat="43.8253511" lon="12.6808304"><ele>87.0</ele><time>2026-04-11T07:39:56.937Z</time></trkpt><trkpt lat="43.8254833" lon="12.6807568"><ele>87.0</ele><time>2026-04-11T07:39:57.942Z</time></trkpt><trkpt lat="43.8256275" lon="12.6806847"><ele>87.0</ele><time>2026-04-11T07:39:58.945Z</time></trkpt><trkpt lat="43.8257739" lon="12.680602"><ele>87.0</ele><time>2026-04-11T07:39:59.949Z</time></trkpt><trkpt lat="43.8259207" lon="12.6805368"><ele>87.0</ele><time>2026-04-11T07:40:00.95Z</time></trkpt><trkpt lat="43.8260576" lon="12.6804698"><ele>87.0</ele><time>2026-04-11T07:40:01.941Z</time></trkpt><trkpt lat="43.8261923" lon="12.6804049"><ele>87.0</ele><time>2026-04-11T07:40:02.941Z</time></trkpt><trkpt lat="43.826332" lon="12.6803569"><ele>87.0</ele><time>2026-04-11T07:40:03.945Z</time></trkpt><trkpt lat="43.8264682" lon="12.6803207"><ele>87.0</ele><time>2026-04-11T07:40:04.946Z</time></trkpt><trkpt lat="43.826604" lon="12.6803005"><ele>87.0</ele><time>2026-04-11T07:40:05.941Z</time></trkpt><trkpt lat="43.8267399" lon="12.6802857"><ele>87.0</ele><time>2026-04-11T07:40:06.942Z</time></trkpt><trkpt lat="43.8268742" lon="12.6802938"><ele>87.0</ele><time>2026-04-11T07:40:07.939Z</time></trkpt><trkpt lat="43.8270057" lon="12.680319"><ele>84.75</ele><time>2026-04-11T07:40:08.946Z</time></trkpt><trkpt lat="43.8271459" lon="12.6803672"><ele>82.5</ele><time>2026-04-11T07:40:09.95Z</time></trkpt><trkpt lat="43.8272688" lon="12.6804242"><ele>80.25</ele><time>2026-04-11T07:40:10.943Z</time></trkpt><trkpt lat="43.8273899" lon="12.6805002"><ele>78.0</ele><time>2026-04-11T07:40:11.945Z</time></trkpt><trkpt lat="43.8275171" lon="12.6805929"><ele>78.0</ele><time>2026-04-11T07:40:12.948Z</time></trkpt><trkpt lat="43.8276353" lon="12.6806899"><ele>78.0</ele><time>2026-04-11T07:40:13.947Z</time></trkpt><trkpt lat="43.8277473" lon="12.6807857"><ele>78.0</ele><time>2026-04-11T07:40:14.946Z</time></trkpt><trkpt lat="43.8278471" lon="12.6808807"><ele>78.0</ele><time>2026-04-11T07:40:15.945Z</time></trkpt><trkpt lat="43.8279431" lon="12.6809728"><ele>78.0</ele><time>2026-04-11T07:40:16.948Z</time></trkpt><trkpt lat="43.82803" lon="12.6810527"><ele>78.0</ele><time>2026-04-11T07:40:17.95Z</time></trkpt><trkpt lat="43.8281128" lon="12.6811297"><ele>78.0</ele><time>2026-04-11T07:40:18.941Z</time></trkpt><trkpt lat="43.8281893" lon="12.6811883"><ele>78.0</ele><time>2026-04-11T07:40:19.945Z</time></trkpt><trkpt lat="43.8282702" lon="12.6812599"><ele>78.0</ele><time>2026-04-11T07:40:20.945Z</time></trkpt><trkpt lat="43.8283438" lon="12.681322"><ele>78.0</ele><time>2026-04-11T07:40:21.94Z</time></trkpt><trkpt lat="43.8284109" lon="12.6813759"><ele>78.0</ele><time>2026-04-11T07:40:22.945Z</time></trkpt><trkpt lat="43.828521" lon="12.6813746"><ele>78.0</ele><time>2026-04-11T07:40:24.945Z</time></trkpt><trkpt lat="43.828624" lon="12.6812857"><ele>78.0</ele><time>2026-04-11T07:40:26.945Z</time></trkpt><trkpt lat="43.8286723" lon="12.6812256"><ele>78.0</ele><time>2026-04-11T07:40:27.945Z</time></trkpt><trkpt lat="43.828745" lon="12.6811679"><ele>79.33333333333333</ele><time>2026-04-11T07:40:28.95Z</time></trkpt><trkpt lat="43.8287978" lon="12.6810748"><ele>80.66666666666667</ele><time>2026-04-11T07:40:29.944Z</time></trkpt><trkpt lat="43.8288308" lon="12.680954"><ele>82.0</ele><time>2026-04-11T07:40:30.945Z</time></trkpt><trkpt lat="43.8288373" lon="12.6808452"><ele>83.33333333333334</ele><time>2026-04-11T07:40:31.945Z</time></trkpt><trkpt lat="43.8288263" lon="12.6807368"><ele>84.66666666666667</ele><time>2026-04-11T07:40:32.95Z</time></trkpt><trkpt lat="43.8287979" lon="12.6806436"><ele>86.0</ele><time>2026-04-11T07:40:33.947Z</time></trkpt><trkpt lat="43.8287699" lon="12.6805533"><ele>86.0</ele><time>2026-04-11T07:40:34.952Z</time></trkpt><trkpt lat="43.8287801" lon="12.6803912"><ele>86.0</ele><time>2026-04-11T07:40:36.946Z</time></trkpt><trkpt lat="43.8288854" lon="12.6802958"><ele>86.0</ele><time>2026-04-11T07:40:38.942Z</time></trkpt><trkpt lat="43.8289691" lon="12.6802487"><ele>86.0</ele><time>2026-04-11T07:40:39.937Z</time></trkpt><trkpt lat="43.8290512" lon="12.680203"><ele>86.0</ele><time>2026-04-11T07:40:40.949Z</time></trkpt><trkpt lat="43.8291323" lon="12.6801608"><ele>86.0</ele><time>2026-04-11T07:40:41.938Z</time></trkpt><trkpt lat="43.8292181" lon="12.6801188"><ele>86.0</ele><time>2026-04-11T07:40:42.951Z</time></trkpt><trkpt lat="43.8293029" lon="12.6800713"><ele>86.0</ele><time>2026-04-11T07:40:43.945Z</time></trkpt><trkpt lat="43.8293927" lon="12.6800337"><ele>86.0</ele><time>2026-04-11T07:40:44.945Z</time></trkpt><trkpt lat="43.8294721" lon="12.6799876"><ele>86.0</ele><time>2026-04-11T07:40:45.945Z</time></trkpt><trkpt lat="43.8295418" lon="12.6799201"><ele>86.0</ele><time>2026-04-11T07:40:46.943Z</time></trkpt><trkpt lat="43.8296034" lon="12.6798356"><ele>85.8</ele><time>2026-04-11T07:40:47.941Z</time></trkpt><trkpt lat="43.8296284" lon="12.6796953"><ele>85.6</ele><time>2026-04-11T07:40:48.948Z</time></trkpt><trkpt lat="43.8296469" lon="12.6795706"><ele>85.4</ele><time>2026-04-11T07:40:49.948Z</time></trkpt><trkpt lat="43.8296586" lon="12.679434"><ele>85.2</ele><time>2026-04-11T07:40:50.945Z</time></trkpt><trkpt lat="43.8296727" lon="12.6793116"><ele>85.0</ele><time>2026-04-11T07:40:51.942Z</time></trkpt><trkpt lat="43.8296937" lon="12.6791988"><ele>85.5</ele><time>2026-04-11T07:40:52.938Z</time></trkpt><trkpt lat="43.8297329" lon="12.6790946"><ele>86.0</ele><time>2026-04-11T07:40:53.948Z</time></trkpt><trkpt lat="43.8297806" lon="12.6789921"><ele>86.5</ele><time>2026-04-11T07:40:54.941Z</time></trkpt><trkpt lat="43.8298387" lon="12.6788938"><ele>87.0</ele><time>2026-04-11T07:40:55.946Z</time></trkpt><trkpt lat="43.8298947" lon="12.6787977"><ele>87.5</ele><time>2026-04-11T07:40:56.943Z</time></trkpt><trkpt lat="43.8299467" lon="12.6787107"><ele>88.0</ele><time>2026-04-11T07:40:57.948Z</time></trkpt><trkpt lat="43.8299904" lon="12.6786423"><ele>89.0</ele><time>2026-04-11T07:40:58.947Z</time></trkpt><trkpt lat="43.8300578" lon="12.6785267"><ele>90.0</ele><time>2026-04-11T07:41:00.945Z</time></trkpt><trkpt lat="43.8301137" lon="12.6784775"><ele>91.0</ele><time>2026-04-11T07:41:02.944Z</time></trkpt><trkpt lat="43.8301934" lon="12.6784727"><ele>92.0</ele><time>2026-04-11T07:41:04.944Z</time></trkpt><trkpt lat="43.8302692" lon="12.678481"><ele>93.0</ele><time>2026-04-11T07:41:06.941Z</time></trkpt><trkpt lat="43.8303586" lon="12.6785177"><ele>94.0</ele><time>2026-04-11T07:41:08.942Z</time></trkpt><trkpt lat="43.8304618" lon="12.6785678"><ele>95.66666666666666</ele><time>2026-04-11T07:41:10.943Z</time></trkpt><trkpt lat="43.8305678" lon="12.6785821"><ele>97.33333333333333</ele><time>2026-04-11T07:41:12.95Z</time></trkpt><trkpt lat="43.8306501" lon="12.6785683"><ele>99.0</ele><time>2026-04-11T07:41:14.949Z</time></trkpt><trkpt lat="43.830718" lon="12.6785417"><ele>100.66666666666666</ele><time>2026-04-11T07:41:16.949Z</time></trkpt><trkpt lat="43.8307818" lon="12.6785212"><ele>102.33333333333333</ele><time>2026-04-11T07:41:18.94Z</time></trkpt><trkpt lat="43.8308519" lon="12.6784931"><ele>104.0</ele><time>2026-04-11T07:41:20.944Z</time></trkpt><trkpt lat="43.83094" lon="12.678472"><ele>106.66666666666666</ele><time>2026-04-11T07:41:22.941Z</time></trkpt><trkpt lat="43.8310221" lon="12.6784339"><ele>109.33333333333333</ele><time>2026-04-11T07:41:24.946Z</time></trkpt><trkpt lat="43.8310994" lon="12.6784117"><ele>112.0</ele><time>2026-04-11T07:41:26.943Z</time></trkpt><trkpt lat="43.831184" lon="12.6783989"><ele>114.66666666666666</ele><time>2026-04-11T07:41:28.942Z</time></trkpt><trkpt lat="43.8312528" lon="12.6783912"><ele>117.33333333333333</ele><time>2026-04-11T07:41:30.945Z</time></trkpt><trkpt lat="43.8313288" lon="12.678393"><ele>120.0</ele><time>2026-04-11T07:41:32.94Z</time></trkpt><trkpt lat="43.8314075" lon="12.6784081"><ele>120.0</ele><time>2026-04-11T07:41:34.948Z</time></trkpt><trkpt lat="43.8314916" lon="12.6784349"><ele>120.0</ele><time>2026-04-11T07:41:36.943Z</time></trkpt><trkpt lat="43.8315699" lon="12.6784636"><ele>120.0</ele><time>2026-04-11T07:41:38.943Z</time></trkpt><trkpt lat="43.8316424" lon="12.6784868"><ele>120.0</ele><time>2026-04-11T07:41:40.946Z</time></trkpt><trkpt lat="43.8317357" lon="12.6785144"><ele>120.0</ele><time>2026-04-11T07:41:43.953Z</time></trkpt><trkpt lat="43.8318027" lon="12.678543"><ele>120.0</ele><time>2026-04-11T07:41:45.944Z</time></trkpt><trkpt lat="43.8318625" lon="12.678589"><ele>120.2</ele><time>2026-04-11T07:41:47.945Z</time></trkpt><trkpt lat="43.8319305" lon="12.6786305"><ele>120.4</ele><time>2026-04-11T07:41:49.946Z</time></trkpt><trkpt lat="43.8320092" lon="12.6786939"><ele>120.6</ele><time>2026-04-11T07:41:51.939Z</time></trkpt><trkpt lat="43.8321066" lon="12.6787569"><ele>120.8</ele><time>2026-04-11T07:41:53.944Z</time></trkpt><trkpt lat="43.8322204" lon="12.6788419"><ele>121.0</ele><time>2026-04-11T07:41:55.944Z</time></trkpt><trkpt lat="43.8323157" lon="12.6789427"><ele>121.00000000000001</ele><time>2026-04-11T07:41:57.947Z</time></trkpt><trkpt lat="43.8323685" lon="12.6789921"><ele>121.0</ele><time>2026-04-11T07:41:58.946Z</time></trkpt><trkpt lat="43.832462" lon="12.6790375"><ele>121.0</ele><time>2026-04-11T07:42:00.944Z</time></trkpt><trkpt lat="43.832563" lon="12.6790536"><ele>121.0</ele><time>2026-04-11T07:42:02.948Z</time></trkpt><trkpt lat="43.832627" lon="12.6790538"><ele>121.00000000000001</ele><time>2026-04-11T07:42:03.948Z</time></trkpt><trkpt lat="43.8326936" lon="12.679055"><ele>121.0</ele><time>2026-04-11T07:42:04.946Z</time></trkpt><trkpt lat="43.832816" lon="12.6790321"><ele>121.8</ele><time>2026-04-11T07:42:06.946Z</time></trkpt><trkpt lat="43.8328785" lon="12.6790109"><ele>122.6</ele><time>2026-04-11T07:42:07.946Z</time></trkpt><trkpt lat="43.832983" lon="12.6789397"><ele>123.4</ele><time>2026-04-11T07:42:09.941Z</time></trkpt><trkpt lat="43.8330533" lon="12.6788253"><ele>124.2</ele><time>2026-04-11T07:42:11.943Z</time></trkpt><trkpt lat="43.8330673" lon="12.6787032"><ele>125.0</ele><time>2026-04-11T07:42:13.948Z</time></trkpt><trkpt lat="43.8330148" lon="12.678601"><ele>128.5</ele><time>2026-04-11T07:42:15.943Z</time></trkpt><trkpt lat="43.8329176" lon="12.6785632"><ele>132.0</ele><time>2026-04-11T07:42:18.946Z</time></trkpt><trkpt lat="43.8328422" lon="12.67856"><ele>135.5</ele><time>2026-04-11T07:42:20.946Z</time></trkpt><trkpt lat="43.8327725" lon="12.678561"><ele>139.0</ele><time>2026-04-11T07:42:22.941Z</time></trkpt><trkpt lat="43.8326931" lon="12.6785459"><ele>142.5</ele><time>2026-04-11T07:42:24.943Z</time></trkpt><trkpt lat="43.8326171" lon="12.6784976"><ele>146.0</ele><time>2026-04-11T07:42:26.951Z</time></trkpt><trkpt lat="43.8325496" lon="12.6784424"><ele>146.0</ele><time>2026-04-11T07:42:28.917Z</time></trkpt><trkpt lat="43.8324878" lon="12.6783706"><ele>146.0</ele><time>2026-04-11T07:42:30.947Z</time></trkpt><trkpt lat="43.8324439" lon="12.6782603"><ele>146.0</ele><time>2026-04-11T07:42:32.941Z</time></trkpt><trkpt lat="43.8324268" lon="12.6781363"><ele>146.0</ele><time>2026-04-11T07:42:34.943Z</time></trkpt><trkpt lat="43.8324358" lon="12.6780347"><ele>146.0</ele><time>2026-04-11T07:42:36.95Z</time></trkpt><trkpt lat="43.8324763" lon="12.6779564"><ele>146.0</ele><time>2026-04-11T07:42:38.945Z</time></trkpt><trkpt lat="43.8325421" lon="12.677935"><ele>146.0</ele><time>2026-04-11T07:42:40.944Z</time></trkpt><trkpt lat="43.832628" lon="12.6779251"><ele>146.0</ele><time>2026-04-11T07:42:43.879Z</time></trkpt><trkpt lat="43.8326731" lon="12.6778165"><ele>146.0</ele><time>2026-04-11T07:42:46.951Z</time></trkpt><trkpt lat="43.8327054" lon="12.6776978"><ele>146.0</ele><time>2026-04-11T07:42:48.946Z</time></trkpt><trkpt lat="43.8327252" lon="12.6775713"><ele>146.0</ele><time>2026-04-11T07:42:50.942Z</time></trkpt><trkpt lat="43.8327296" lon="12.6774245"><ele>149.83333333333331</ele><time>2026-04-11T07:42:52.945Z</time></trkpt><trkpt lat="43.8327459" lon="12.6773099"><ele>153.66666666666666</ele><time>2026-04-11T07:42:54.944Z</time></trkpt><trkpt lat="43.8327638" lon="12.6771961"><ele>157.5</ele><time>2026-04-11T07:42:56.948Z</time></trkpt><trkpt lat="43.8327682" lon="12.6770823"><ele>161.33333333333334</ele><time>2026-04-11T07:42:58.941Z</time></trkpt><trkpt lat="43.8327888" lon="12.6769606"><ele>165.16666666666669</ele><time>2026-04-11T07:43:00.947Z</time></trkpt><trkpt lat="43.8328274" lon="12.6768458"><ele>169.0</ele><time>2026-04-11T07:43:02.942Z</time></trkpt><trkpt lat="43.8328731" lon="12.6767237"><ele>170.39999999999998</ele><time>2026-04-11T07:43:04.94Z</time></trkpt><trkpt lat="43.8329235" lon="12.6766474"><ele>171.8</ele><time>2026-04-11T07:43:06.942Z</time></trkpt><trkpt lat="43.83295" lon="12.6765464"><ele>173.2</ele><time>2026-04-11T07:43:08.94Z</time></trkpt><trkpt lat="43.8329463" lon="12.6764459"><ele>174.60000000000002</ele><time>2026-04-11T07:43:10.945Z</time></trkpt><trkpt lat="43.8329452" lon="12.6762787"><ele>176.0</ele><time>2026-04-11T07:43:14.938Z</time></trkpt><trkpt lat="43.8329521" lon="12.6761272"><ele>177.5</ele><time>2026-04-11T07:43:16.938Z</time></trkpt><trkpt lat="43.8329849" lon="12.6759757"><ele>179.0</ele><time>2026-04-11T07:43:18.947Z</time></trkpt><trkpt lat="43.8330153" lon="12.6758552"><ele>180.5</ele><time>2026-04-11T07:43:20.941Z</time></trkpt><trkpt lat="43.8330637" lon="12.6757841"><ele>182.0</ele><time>2026-04-11T07:43:22.943Z</time></trkpt><trkpt lat="43.8331107" lon="12.6756948"><ele>183.5</ele><time>2026-04-11T07:43:24.942Z</time></trkpt><trkpt lat="43.8331676" lon="12.6756166"><ele>185.0</ele><time>2026-04-11T07:43:26.904Z</time></trkpt><trkpt lat="43.8332268" lon="12.6755329"><ele>185.0</ele><time>2026-04-11T07:43:28.94Z</time></trkpt><trkpt lat="43.8332797" lon="12.6754578"><ele>185.0</ele><time>2026-04-11T07:43:30.895Z</time></trkpt><trkpt lat="43.8333419" lon="12.6753639"><ele>185.0</ele><time>2026-04-11T07:43:32.951Z</time></trkpt><trkpt lat="43.8333888" lon="12.6752531"><ele>185.0</ele><time>2026-04-11T07:43:34.941Z</time></trkpt><trkpt lat="43.8334159" lon="12.6751722"><ele>185.0</ele><time>2026-04-11T07:43:36.942Z</time></trkpt><trkpt lat="43.8334489" lon="12.6750244"><ele>185.0</ele><time>2026-04-11T07:43:38.948Z</time></trkpt><trkpt lat="43.8334918" lon="12.674868"><ele>184.6</ele><time>2026-04-11T07:43:40.945Z</time></trkpt><trkpt lat="43.8335391" lon="12.6747109"><ele>184.2</ele><time>2026-04-11T07:43:42.946Z</time></trkpt><trkpt lat="43.8335769" lon="12.6745667"><ele>183.8</ele><time>2026-04-11T07:43:44.94Z</time></trkpt><trkpt lat="43.8335987" lon="12.6744844"><ele>183.4</ele><time>2026-04-11T07:43:45.949Z</time></trkpt><trkpt lat="43.8336395" lon="12.6743611"><ele>183.0</ele><time>2026-04-11T07:43:47.949Z</time></trkpt><trkpt lat="43.8336539" lon="12.6742749"><ele>183.0</ele><time>2026-04-11T07:43:48.952Z</time></trkpt><trkpt lat="43.8336496" lon="12.6741308"><ele>183.0</ele><time>2026-04-11T07:43:50.947Z</time></trkpt><trkpt lat="43.8336218" lon="12.6740038"><ele>183.0</ele><time>2026-04-11T07:43:52.95Z</time></trkpt><trkpt lat="43.8335715" lon="12.6738747"><ele>183.0</ele><time>2026-04-11T07:43:54.951Z</time></trkpt><trkpt lat="43.8335099" lon="12.6737522"><ele>183.0</ele><time>2026-04-11T07:43:56.944Z</time></trkpt><trkpt lat="43.8334728" lon="12.6736765"><ele>188.4</ele><time>2026-04-11T07:43:57.952Z</time></trkpt><trkpt lat="43.8333973" lon="12.6735423"><ele>193.8</ele><time>2026-04-11T07:43:59.945Z</time></trkpt><trkpt lat="43.83332" lon="12.6734178"><ele>199.2</ele><time>2026-04-11T07:44:01.94Z</time></trkpt><trkpt lat="43.8332855" lon="12.673342"><ele>204.6</ele><time>2026-04-11T07:44:02.949Z</time></trkpt><trkpt lat="43.833217" lon="12.6732167"><ele>210.0</ele><time>2026-04-11T07:44:04.947Z</time></trkpt><trkpt lat="43.8331486" lon="12.6730907"><ele>210.0</ele><time>2026-04-11T07:44:06.945Z</time></trkpt><trkpt lat="43.8330714" lon="12.6729865"><ele>210.0</ele><time>2026-04-11T07:44:08.942Z</time></trkpt><trkpt lat="43.8329869" lon="12.6728927"><ele>210.0</ele><time>2026-04-11T07:44:10.949Z</time></trkpt><trkpt lat="43.8329105" lon="12.6728082"><ele>210.0</ele><time>2026-04-11T07:44:12.946Z</time></trkpt><trkpt lat="43.8328502" lon="12.6726898"><ele>210.0</ele><time>2026-04-11T07:44:14.945Z</time></trkpt><trkpt lat="43.8327905" lon="12.6725553"><ele>211.0</ele><time>2026-04-11T07:44:16.946Z</time></trkpt><trkpt lat="43.8327618" lon="12.672475"><ele>212.0</ele><time>2026-04-11T07:44:17.941Z</time></trkpt><trkpt lat="43.8327005" lon="12.6723429"><ele>213.0</ele><time>2026-04-11T07:44:19.95Z</time></trkpt><trkpt lat="43.8326466" lon="12.6722302"><ele>214.0</ele><time>2026-04-11T07:44:21.947Z</time></trkpt><trkpt lat="43.8325918" lon="12.6721262"><ele>215.0</ele><time>2026-04-11T07:44:23.946Z</time></trkpt><trkpt lat="43.8325597" lon="12.6720232"><ele>216.0</ele><time>2026-04-11T07:44:25.942Z</time></trkpt><trkpt lat="43.8325532" lon="12.6719099"><ele>216.5</ele><time>2026-04-11T07:44:27.944Z</time></trkpt><trkpt lat="43.8325776" lon="12.6717783"><ele>217.0</ele><time>2026-04-11T07:44:29.943Z</time></trkpt><trkpt lat="43.832614" lon="12.6716468"><ele>217.5</ele><time>2026-04-11T07:44:31.942Z</time></trkpt><trkpt lat="43.832665" lon="12.6715147"><ele>218.0</ele><time>2026-04-11T07:44:33.942Z</time></trkpt><trkpt lat="43.8326901" lon="12.6714331"><ele>218.5</ele><time>2026-04-11T07:44:34.945Z</time></trkpt><trkpt lat="43.8327166" lon="12.671345"><ele>219.0</ele><time>2026-04-11T07:44:35.949Z</time></trkpt><trkpt lat="43.8327493" lon="12.6712503"><ele>219.0</ele><time>2026-04-11T07:44:36.947Z</time></trkpt><trkpt lat="43.8327849" lon="12.6711645"><ele>219.0</ele><time>2026-04-11T07:44:37.942Z</time></trkpt><trkpt lat="43.8328181" lon="12.6710829"><ele>219.0</ele><time>2026-04-11T07:44:38.943Z</time></trkpt><trkpt lat="43.8328487" lon="12.6710061"><ele>219.0</ele><time>2026-04-11T07:44:39.943Z</time></trkpt><trkpt lat="43.8329137" lon="12.6708731"><ele>219.0</ele><time>2026-04-11T07:44:41.949Z</time></trkpt><trkpt lat="43.833009" lon="12.6707613"><ele>219.0</ele><time>2026-04-11T07:44:43.942Z</time></trkpt><trkpt lat="43.8331019" lon="12.6706477"><ele>221.2</ele><time>2026-04-11T07:44:45.946Z</time></trkpt><trkpt lat="43.8331846" lon="12.6705512"><ele>223.39999999999998</ele><time>2026-04-11T07:44:47.953Z</time></trkpt><trkpt lat="43.8332771" lon="12.6704407"><ele>225.6</ele><time>2026-04-11T07:44:49.946Z</time></trkpt><trkpt lat="43.8333623" lon="12.6703397"><ele>227.8</ele><time>2026-04-11T07:44:51.942Z</time></trkpt><trkpt lat="43.8334279" lon="12.6702638"><ele>230.0</ele><time>2026-04-11T07:44:53.95Z</time></trkpt><trkpt lat="43.8334634" lon="12.6701887"><ele>230.57142857142856</ele><time>2026-04-11T07:45:30.94Z</time></trkpt><trkpt lat="43.8335119" lon="12.6701233"><ele>231.14285714285714</ele><time>2026-04-11T07:45:32.937Z</time></trkpt><trkpt lat="43.8335725" lon="12.6700468"><ele>231.71428571428572</ele><time>2026-04-11T07:45:34.946Z</time></trkpt><trkpt lat="43.8336266" lon="12.6699592"><ele>232.28571428571428</ele><time>2026-04-11T07:45:36.941Z</time></trkpt><trkpt lat="43.8336673" lon="12.6698888"><ele>232.8571428571429</ele><time>2026-04-11T07:45:38.943Z</time></trkpt><trkpt lat="43.8337048" lon="12.6698171"><ele>233.42857142857144</ele><time>2026-04-11T07:45:41.942Z</time></trkpt><trkpt lat="43.833782" lon="12.6698231"><ele>234.0</ele><time>2026-04-11T07:45:43.944Z</time></trkpt><trkpt lat="43.8339149" lon="12.6698667"><ele>234.0</ele><time>2026-04-11T07:45:45.943Z</time></trkpt><trkpt lat="43.8340144" lon="12.6698995"><ele>233.99999999999997</ele><time>2026-04-11T07:45:46.95Z</time></trkpt><trkpt lat="43.8341069" lon="12.6699278"><ele>233.99999999999997</ele><time>2026-04-11T07:45:47.944Z</time></trkpt><trkpt lat="43.8342052" lon="12.6699611"><ele>234.0</ele><time>2026-04-11T07:45:48.938Z</time></trkpt><trkpt lat="43.8343046" lon="12.6699941"><ele>234.0</ele><time>2026-04-11T07:45:49.94Z</time></trkpt><trkpt lat="43.8344036" lon="12.6700114"><ele>235.6</ele><time>2026-04-11T07:45:50.943Z</time></trkpt><trkpt lat="43.8345087" lon="12.6699908"><ele>237.2</ele><time>2026-04-11T07:45:51.949Z</time></trkpt><trkpt lat="43.8346076" lon="12.6699392"><ele>238.79999999999998</ele><time>2026-04-11T07:45:52.949Z</time></trkpt><trkpt lat="43.8347042" lon="12.6698702"><ele>240.39999999999998</ele><time>2026-04-11T07:45:53.947Z</time></trkpt><trkpt lat="43.8348026" lon="12.6697992"><ele>242.0</ele><time>2026-04-11T07:45:54.945Z</time></trkpt><trkpt lat="43.8349119" lon="12.6697568"><ele>242.0</ele><time>2026-04-11T07:45:55.946Z</time></trkpt><trkpt lat="43.8350146" lon="12.6697402"><ele>242.0</ele><time>2026-04-11T07:45:56.946Z</time></trkpt><trkpt lat="43.8351189" lon="12.6697658"><ele>242.0</ele><time>2026-04-11T07:45:57.941Z</time></trkpt><trkpt lat="43.8352275" lon="12.669825"><ele>242.0</ele><time>2026-04-11T07:45:58.949Z</time></trkpt><trkpt lat="43.8353239" lon="12.6698707"><ele>242.0</ele><time>2026-04-11T07:45:59.948Z</time></trkpt><trkpt lat="43.8354225" lon="12.6699558"><ele>242.5</ele><time>2026-04-11T07:46:00.954Z</time></trkpt><trkpt lat="43.8355227" lon="12.6700639"><ele>243.0</ele><time>2026-04-11T07:46:01.948Z</time></trkpt><trkpt lat="43.8356091" lon="12.6701727"><ele>243.5</ele><time>2026-04-11T07:46:02.945Z</time></trkpt><trkpt lat="43.8356916" lon="12.6702667"><ele>244.0</ele><time>2026-04-11T07:46:03.943Z</time></trkpt><trkpt lat="43.8357864" lon="12.6703526"><ele>245.0</ele><time>2026-04-11T07:46:04.942Z</time></trkpt><trkpt lat="43.8358731" lon="12.6704163"><ele>245.99999999999997</ele><time>2026-04-11T07:46:05.948Z</time></trkpt><trkpt lat="43.8359705" lon="12.6704701"><ele>246.99999999999997</ele><time>2026-04-11T07:46:06.951Z</time></trkpt><trkpt lat="43.8360671" lon="12.6704844"><ele>248.0</ele><time>2026-04-11T07:46:07.95Z</time></trkpt><trkpt lat="43.8361641" lon="12.670467"><ele>249.0</ele><time>2026-04-11T07:46:08.944Z</time></trkpt><trkpt lat="43.8362661" lon="12.6704383"><ele>251.2</ele><time>2026-04-11T07:46:09.942Z</time></trkpt><trkpt lat="43.8363594" lon="12.6704012"><ele>253.39999999999998</ele><time>2026-04-11T07:46:10.945Z</time></trkpt><trkpt lat="43.8364585" lon="12.6703692"><ele>255.6</ele><time>2026-04-11T07:46:11.949Z</time></trkpt><trkpt lat="43.8365674" lon="12.6703495"><ele>257.8</ele><time>2026-04-11T07:46:12.943Z</time></trkpt><trkpt lat="43.8366813" lon="12.6703674"><ele>260.0</ele><time>2026-04-11T07:46:13.943Z</time></trkpt><trkpt lat="43.8367935" lon="12.670391"><ele>260.4</ele><time>2026-04-11T07:46:14.946Z</time></trkpt><trkpt lat="43.8369151" lon="12.6704259"><ele>260.8</ele><time>2026-04-11T07:46:15.948Z</time></trkpt><trkpt lat="43.8370227" lon="12.6704285"><ele>261.2</ele><time>2026-04-11T07:46:16.949Z</time></trkpt><trkpt lat="43.8371236" lon="12.6703964"><ele>261.6</ele><time>2026-04-11T07:46:17.947Z</time></trkpt><trkpt lat="43.8372169" lon="12.6703401"><ele>262.0</ele><time>2026-04-11T07:46:18.952Z</time></trkpt><trkpt lat="43.8373002" lon="12.6702363"><ele>262.0</ele><time>2026-04-11T07:46:19.944Z</time></trkpt><trkpt lat="43.8373754" lon="12.6701306"><ele>262.0</ele><time>2026-04-11T07:46:20.941Z</time></trkpt><trkpt lat="43.8374444" lon="12.6700033"><ele>262.0</ele><time>2026-04-11T07:46:21.951Z</time></trkpt><trkpt lat="43.8375148" lon="12.669866"><ele>262.0</ele><time>2026-04-11T07:46:22.946Z</time></trkpt><trkpt lat="43.8375893" lon="12.6697487"><ele>265.5</ele><time>2026-04-11T07:46:23.947Z</time></trkpt><trkpt lat="43.8376699" lon="12.6696315"><ele>269.0</ele><time>2026-04-11T07:46:24.943Z</time></trkpt><trkpt lat="43.8377466" lon="12.6695063"><ele>272.5</ele><time>2026-04-11T07:46:25.945Z</time></trkpt><trkpt lat="43.837833" lon="12.6693867"><ele>276.0</ele><time>2026-04-11T07:46:26.944Z</time></trkpt><trkpt lat="43.8379152" lon="12.6692666"><ele>276.0</ele><time>2026-04-11T07:46:27.94Z</time></trkpt><trkpt lat="43.8380063" lon="12.6691449"><ele>276.0</ele><time>2026-04-11T07:46:28.951Z</time></trkpt><trkpt lat="43.8380991" lon="12.6690154"><ele>276.0</ele><time>2026-04-11T07:46:29.95Z</time></trkpt><trkpt lat="43.8381882" lon="12.6688783"><ele>276.0</ele><time>2026-04-11T07:46:30.947Z</time></trkpt><trkpt lat="43.8382723" lon="12.6687307"><ele>276.5</ele><time>2026-04-11T07:46:31.942Z</time></trkpt><trkpt lat="43.8383527" lon="12.6686"><ele>277.0</ele><time>2026-04-11T07:46:32.945Z</time></trkpt><trkpt lat="43.8384154" lon="12.668452"><ele>277.5</ele><time>2026-04-11T07:46:33.948Z</time></trkpt><trkpt lat="43.8384735" lon="12.6683126"><ele>278.0</ele><time>2026-04-11T07:46:34.948Z</time></trkpt><trkpt lat="43.8385361" lon="12.6682041"><ele>278.0</ele><time>2026-04-11T07:46:35.95Z</time></trkpt><trkpt lat="43.8386072" lon="12.6681286"><ele>278.0</ele><time>2026-04-11T07:46:36.95Z</time></trkpt><trkpt lat="43.8386877" lon="12.6680837"><ele>278.0</ele><time>2026-04-11T07:46:37.941Z</time></trkpt><trkpt lat="43.8387699" lon="12.6680636"><ele>278.0</ele><time>2026-04-11T07:46:38.946Z</time></trkpt><trkpt lat="43.8388611" lon="12.6680732"><ele>278.0</ele><time>2026-04-11T07:46:39.948Z</time></trkpt><trkpt lat="43.8389596" lon="12.6680943"><ele>278.0</ele><time>2026-04-11T07:46:40.947Z</time></trkpt><trkpt lat="43.8390618" lon="12.668127"><ele>278.0</ele><time>2026-04-11T07:46:41.944Z</time></trkpt><trkpt lat="43.8391746" lon="12.668166"><ele>278.0</ele><time>2026-04-11T07:46:42.947Z</time></trkpt><trkpt lat="43.8392867" lon="12.6682068"><ele>278.0</ele><time>2026-04-11T07:46:43.942Z</time></trkpt><trkpt lat="43.8394074" lon="12.6682491"><ele>278.5</ele><time>2026-04-11T07:46:44.949Z</time></trkpt><trkpt lat="43.8395334" lon="12.6682952"><ele>279.0</ele><time>2026-04-11T07:46:45.94Z</time></trkpt><trkpt lat="43.8396557" lon="12.6683434"><ele>279.5</ele><time>2026-04-11T07:46:46.945Z</time></trkpt><trkpt lat="43.8397717" lon="12.6683836"><ele>280.0</ele><time>2026-04-11T07:46:47.944Z</time></trkpt><trkpt lat="43.8398921" lon="12.6684263"><ele>280.0</ele><time>2026-04-11T07:46:48.947Z</time></trkpt><trkpt lat="43.8400094" lon="12.6684462"><ele>280.0</ele><time>2026-04-11T07:46:49.95Z</time></trkpt><trkpt lat="43.8401333" lon="12.6684568"><ele>280.0</ele><time>2026-04-11T07:46:50.94Z</time></trkpt><trkpt lat="43.8402531" lon="12.6684378"><ele>280.0</ele><time>2026-04-11T07:46:51.951Z</time></trkpt><trkpt lat="43.8403726" lon="12.6684059"><ele>281.25</ele><time>2026-04-11T07:46:52.951Z</time></trkpt><trkpt lat="43.8404838" lon="12.6683538"><ele>282.5</ele><time>2026-04-11T07:46:53.947Z</time></trkpt><trkpt lat="43.8406022" lon="12.6683141"><ele>283.75</ele><time>2026-04-11T07:46:54.942Z</time></trkpt><trkpt lat="43.840724" lon="12.6683016"><ele>285.0</ele><time>2026-04-11T07:46:55.944Z</time></trkpt><trkpt lat="43.8408463" lon="12.668297"><ele>289.25</ele><time>2026-04-11T07:46:56.945Z</time></trkpt><trkpt lat="43.8409691" lon="12.6682729"><ele>293.5</ele><time>2026-04-11T07:46:57.947Z</time></trkpt><trkpt lat="43.8410867" lon="12.6682278"><ele>297.75</ele><time>2026-04-11T07:46:58.944Z</time></trkpt><trkpt lat="43.8411886" lon="12.6681558"><ele>302.0</ele><time>2026-04-11T07:46:59.942Z</time></trkpt><trkpt lat="43.8412918" lon="12.6680743"><ele>302.0</ele><time>2026-04-11T07:47:00.942Z</time></trkpt><trkpt lat="43.8414004" lon="12.6679861"><ele>302.0</ele><time>2026-04-11T07:47:01.946Z</time></trkpt><trkpt lat="43.8414928" lon="12.6678855"><ele>302.0</ele><time>2026-04-11T07:47:02.953Z</time></trkpt><trkpt lat="43.8415769" lon="12.6677688"><ele>302.0</ele><time>2026-04-11T07:47:03.948Z</time></trkpt><trkpt lat="43.8416461" lon="12.6676402"><ele>302.8</ele><time>2026-04-11T07:47:04.944Z</time></trkpt><trkpt lat="43.8417083" lon="12.6675094"><ele>303.6</ele><time>2026-04-11T07:47:05.947Z</time></trkpt><trkpt lat="43.8417736" lon="12.6673912"><ele>304.40000000000003</ele><time>2026-04-11T07:47:06.947Z</time></trkpt><trkpt lat="43.8418519" lon="12.6673025"><ele>305.2</ele><time>2026-04-11T07:47:07.949Z</time></trkpt><trkpt lat="43.8419468" lon="12.6672294"><ele>306.0</ele><time>2026-04-11T07:47:08.948Z</time></trkpt><trkpt lat="43.8420507" lon="12.6671724"><ele>306.0</ele><time>2026-04-11T07:47:09.949Z</time></trkpt><trkpt lat="43.84216" lon="12.6671297"><ele>306.0</ele><time>2026-04-11T07:47:10.948Z</time></trkpt><trkpt lat="43.842278" lon="12.6671094"><ele>306.0</ele><time>2026-04-11T07:47:11.945Z</time></trkpt><trkpt lat="43.8423986" lon="12.6671209"><ele>306.0</ele><time>2026-04-11T07:47:12.943Z</time></trkpt><trkpt lat="43.842531" lon="12.6671851"><ele>308.5</ele><time>2026-04-11T07:47:13.948Z</time></trkpt><trkpt lat="43.8426467" lon="12.6672275"><ele>311.0</ele><time>2026-04-11T07:47:14.948Z</time></trkpt><trkpt lat="43.8427711" lon="12.6672701"><ele>313.5</ele><time>2026-04-11T07:47:15.947Z</time></trkpt><trkpt lat="43.8428845" lon="12.667264"><ele>316.0</ele><time>2026-04-11T07:47:16.946Z</time></trkpt><trkpt lat="43.8429973" lon="12.6672165"><ele>316.0</ele><time>2026-04-11T07:47:17.943Z</time></trkpt><trkpt lat="43.8430931" lon="12.6671302"><ele>316.0</ele><time>2026-04-11T07:47:18.95Z</time></trkpt><trkpt lat="43.8431843" lon="12.6670108"><ele>316.0</ele><time>2026-04-11T07:47:19.951Z</time></trkpt><trkpt lat="43.8432472" lon="12.6668549"><ele>316.0</ele><time>2026-04-11T07:47:20.943Z</time></trkpt><trkpt lat="43.843311" lon="12.6667196"><ele>318.5</ele><time>2026-04-11T07:47:21.948Z</time></trkpt><trkpt lat="43.8433713" lon="12.6665812"><ele>321.0</ele><time>2026-04-11T07:47:22.945Z</time></trkpt><trkpt lat="43.8434543" lon="12.6664809"><ele>323.5</ele><time>2026-04-11T07:47:23.943Z</time></trkpt><trkpt lat="43.8435475" lon="12.6663935"><ele>326.0</ele><time>2026-04-11T07:47:24.938Z</time></trkpt><trkpt lat="43.8436471" lon="12.6663258"><ele>326.0</ele><time>2026-04-11T07:47:25.952Z</time></trkpt><trkpt lat="43.8437562" lon="12.6662596"><ele>326.0</ele><time>2026-04-11T07:47:26.941Z</time></trkpt><trkpt lat="43.8438522" lon="12.6661635"><ele>326.0</ele><time>2026-04-11T07:47:27.944Z</time></trkpt><trkpt lat="43.8439336" lon="12.6660347"><ele>326.0</ele><time>2026-04-11T07:47:28.944Z</time></trkpt><trkpt lat="43.8440155" lon="12.6659003"><ele>328.5</ele><time>2026-04-11T07:47:29.947Z</time></trkpt><trkpt lat="43.8440875" lon="12.6657497"><ele>331.0</ele><time>2026-04-11T07:47:30.946Z</time></trkpt><trkpt lat="43.8441687" lon="12.665623"><ele>333.5</ele><time>2026-04-11T07:47:31.944Z</time></trkpt><trkpt lat="43.844236" lon="12.66549"><ele>336.0</ele><time>2026-04-11T07:47:32.946Z</time></trkpt><trkpt lat="43.844298" lon="12.6653607"><ele>333.0</ele><time>2026-04-11T07:47:33.947Z</time></trkpt><trkpt lat="43.8443298" lon="12.6652243"><ele>330.0</ele><time>2026-04-11T07:47:34.952Z</time></trkpt><trkpt lat="43.8443638" lon="12.6650917"><ele>327.0</ele><time>2026-04-11T07:47:35.949Z</time></trkpt><trkpt lat="43.8444043" lon="12.6649815"><ele>324.0</ele><time>2026-04-11T07:47:36.95Z</time></trkpt><trkpt lat="43.8444652" lon="12.66489"><ele>321.0</ele><time>2026-04-11T07:47:37.948Z</time></trkpt><trkpt lat="43.8445325" lon="12.6648383"><ele>321.0</ele><time>2026-04-11T07:47:38.944Z</time></trkpt><trkpt lat="43.8446025" lon="12.6647957"><ele>321.0</ele><time>2026-04-11T07:47:39.942Z</time></trkpt><trkpt lat="43.8446734" lon="12.6648195"><ele>321.0</ele><time>2026-04-11T07:47:40.947Z</time></trkpt><trkpt lat="43.8447462" lon="12.6649072"><ele>321.0</ele><time>2026-04-11T07:47:41.938Z</time></trkpt><trkpt lat="43.8448345" lon="12.6649678"><ele>321.0</ele><time>2026-04-11T07:47:42.941Z</time></trkpt><trkpt lat="43.8449513" lon="12.664984"><ele>321.0</ele><time>2026-04-11T07:47:43.943Z</time></trkpt><trkpt lat="43.8450562" lon="12.6649824"><ele>321.0</ele><time>2026-04-11T07:47:44.939Z</time></trkpt><trkpt lat="43.8451694" lon="12.6649105"><ele>321.0</ele><time>2026-04-11T07:47:45.949Z</time></trkpt><trkpt lat="43.8452488" lon="12.6647778"><ele>321.0</ele><time>2026-04-11T07:47:46.946Z</time></trkpt><trkpt lat="43.8453401" lon="12.6646743"><ele>320.6</ele><time>2026-04-11T07:47:47.946Z</time></trkpt><trkpt lat="43.8454192" lon="12.6646072"><ele>320.20000000000005</ele><time>2026-04-11T07:47:48.944Z</time></trkpt><trkpt lat="43.8455061" lon="12.6645435"><ele>319.79999999999995</ele><time>2026-04-11T07:47:49.941Z</time></trkpt><trkpt lat="43.8456063" lon="12.6646056"><ele>319.4</ele><time>2026-04-11T07:47:50.951Z</time></trkpt><trkpt lat="43.8456773" lon="12.6646749"><ele>319.0</ele><time>2026-04-11T07:47:51.939Z</time></trkpt><trkpt lat="43.8457327" lon="12.6647794"><ele>319.0</ele><time>2026-04-11T07:47:52.945Z</time></trkpt><trkpt lat="43.8457586" lon="12.6649029"><ele>319.0</ele><time>2026-04-11T07:47:53.943Z</time></trkpt><trkpt lat="43.8457915" lon="12.6650553"><ele>319.0</ele><time>2026-04-11T07:47:54.948Z</time></trkpt><trkpt lat="43.8458266" lon="12.6652084"><ele>319.0</ele><time>2026-04-11T07:47:55.951Z</time></trkpt><trkpt lat="43.8458875" lon="12.6653688"><ele>317.5</ele><time>2026-04-11T07:47:56.944Z</time></trkpt><trkpt lat="43.8459733" lon="12.665511"><ele>316.0</ele><time>2026-04-11T07:47:57.948Z</time></trkpt><trkpt lat="43.8460869" lon="12.6656443"><ele>314.5</ele><time>2026-04-11T07:47:58.941Z</time></trkpt><trkpt lat="43.8462159" lon="12.6657648"><ele>313.0</ele><time>2026-04-11T07:47:59.943Z</time></trkpt><trkpt lat="43.8463231" lon="12.6658691"><ele>313.0</ele><time>2026-04-11T07:48:00.94Z</time></trkpt><trkpt lat="43.8464413" lon="12.66599"><ele>313.0</ele><time>2026-04-11T07:48:01.941Z</time></trkpt><trkpt lat="43.8465312" lon="12.6661147"><ele>313.0</ele><time>2026-04-11T07:48:02.942Z</time></trkpt><trkpt lat="43.8465802" lon="12.6662591"><ele>313.0</ele><time>2026-04-11T07:48:03.944Z</time></trkpt><trkpt lat="43.8466094" lon="12.6664068"><ele>315.8</ele><time>2026-04-11T07:48:04.939Z</time></trkpt><trkpt lat="43.8466275" lon="12.6665431"><ele>318.6</ele><time>2026-04-11T07:48:05.944Z</time></trkpt><trkpt lat="43.8466555" lon="12.6666845"><ele>321.40000000000003</ele><time>2026-04-11T07:48:06.946Z</time></trkpt><trkpt lat="43.8467003" lon="12.6668092"><ele>324.20000000000005</ele><time>2026-04-11T07:48:07.946Z</time></trkpt><trkpt lat="43.8467941" lon="12.6669247"><ele>327.0</ele><time>2026-04-11T07:48:08.945Z</time></trkpt><trkpt lat="43.8468865" lon="12.6670172"><ele>327.0</ele><time>2026-04-11T07:48:09.946Z</time></trkpt><trkpt lat="43.8469988" lon="12.6670911"><ele>327.0</ele><time>2026-04-11T07:48:10.941Z</time></trkpt><trkpt lat="43.8471184" lon="12.6671493"><ele>327.0</ele><time>2026-04-11T07:48:11.938Z</time></trkpt><trkpt lat="43.8472475" lon="12.6671906"><ele>327.0</ele><time>2026-04-11T07:48:12.938Z</time></trkpt><trkpt lat="43.8473783" lon="12.6672262"><ele>327.0</ele><time>2026-04-11T07:48:13.939Z</time></trkpt><trkpt lat="43.8475127" lon="12.667269"><ele>327.0</ele><time>2026-04-11T07:48:14.94Z</time></trkpt><trkpt lat="43.8476487" lon="12.6673228"><ele>327.0</ele><time>2026-04-11T07:48:15.945Z</time></trkpt><trkpt lat="43.8477518" lon="12.6673639"><ele>327.0</ele><time>2026-04-11T07:48:16.947Z</time></trkpt><trkpt lat="43.8478546" lon="12.6674054"><ele>326.6</ele><time>2026-04-11T07:48:17.939Z</time></trkpt><trkpt lat="43.8479621" lon="12.6674642"><ele>326.20000000000005</ele><time>2026-04-11T07:48:18.946Z</time></trkpt><trkpt lat="43.8480433" lon="12.6675393"><ele>325.8</ele><time>2026-04-11T07:48:19.952Z</time></trkpt><trkpt lat="43.8481254" lon="12.667654"><ele>325.4</ele><time>2026-04-11T07:48:20.94Z</time></trkpt><trkpt lat="43.8481878" lon="12.6677895"><ele>325.0</ele><time>2026-04-11T07:48:21.943Z</time></trkpt><trkpt lat="43.8482377" lon="12.6679378"><ele>325.0</ele><time>2026-04-11T07:48:22.942Z</time></trkpt><trkpt lat="43.8482788" lon="12.6680977"><ele>325.0</ele><time>2026-04-11T07:48:23.946Z</time></trkpt><trkpt lat="43.848338" lon="12.668253"><ele>325.0</ele><time>2026-04-11T07:48:24.939Z</time></trkpt><trkpt lat="43.8484269" lon="12.6684023"><ele>325.0</ele><time>2026-04-11T07:48:25.942Z</time></trkpt><trkpt lat="43.848525" lon="12.6685196"><ele>323.75</ele><time>2026-04-11T07:48:26.94Z</time></trkpt><trkpt lat="43.8486329" lon="12.6686164"><ele>322.5</ele><time>2026-04-11T07:48:27.944Z</time></trkpt><trkpt lat="43.8487268" lon="12.6687199"><ele>321.25</ele><time>2026-04-11T07:48:28.947Z</time></trkpt><trkpt lat="43.8488072" lon="12.6688446"><ele>320.0</ele><time>2026-04-11T07:48:29.944Z</time></trkpt><trkpt lat="43.8488717" lon="12.6689707"><ele>320.0</ele><time>2026-04-11T07:48:30.942Z</time></trkpt><trkpt lat="43.8489484" lon="12.6690849"><ele>320.0</ele><time>2026-04-11T07:48:31.941Z</time></trkpt><trkpt lat="43.8490445" lon="12.6691802"><ele>320.0</ele><time>2026-04-11T07:48:32.952Z</time></trkpt><trkpt lat="43.8491461" lon="12.6692437"><ele>320.0</ele><time>2026-04-11T07:48:33.942Z</time></trkpt><trkpt lat="43.8492558" lon="12.6692714"><ele>319.8</ele><time>2026-04-11T07:48:34.941Z</time></trkpt><trkpt lat="43.8493591" lon="12.6692985"><ele>319.6</ele><time>2026-04-11T07:48:35.942Z</time></trkpt><trkpt lat="43.8494683" lon="12.669347"><ele>319.4</ele><time>2026-04-11T07:48:36.94Z</time></trkpt><trkpt lat="43.8495706" lon="12.6694079"><ele>319.2</ele><time>2026-04-11T07:48:37.944Z</time></trkpt><trkpt lat="43.8496527" lon="12.6695175"><ele>319.0</ele><time>2026-04-11T07:48:38.944Z</time></trkpt><trkpt lat="43.8497366" lon="12.6696419"><ele>319.0</ele><time>2026-04-11T07:48:39.95Z</time></trkpt><trkpt lat="43.8498149" lon="12.6697756"><ele>319.0</ele><time>2026-04-11T07:48:40.939Z</time></trkpt><trkpt lat="43.849893" lon="12.669922"><ele>319.0</ele><time>2026-04-11T07:48:41.947Z</time></trkpt><trkpt lat="43.8499677" lon="12.6700666"><ele>319.0</ele><time>2026-04-11T07:48:42.94Z</time></trkpt><trkpt lat="43.8500474" lon="12.6702103"><ele>318.25</ele><time>2026-04-11T07:48:43.939Z</time></trkpt><trkpt lat="43.8501259" lon="12.6703495"><ele>317.5</ele><time>2026-04-11T07:48:44.947Z</time></trkpt><trkpt lat="43.8501959" lon="12.6704809"><ele>316.75</ele><time>2026-04-11T07:48:45.948Z</time></trkpt><trkpt lat="43.8502812" lon="12.6705921"><ele>316.0</ele><time>2026-04-11T07:48:46.951Z</time></trkpt><trkpt lat="43.8503704" lon="12.6706854"><ele>316.0</ele><time>2026-04-11T07:48:47.942Z</time></trkpt><trkpt lat="43.8504584" lon="12.6707428"><ele>316.0</ele><time>2026-04-11T07:48:48.951Z</time></trkpt><trkpt lat="43.8505816" lon="12.6707726"><ele>316.0</ele><time>2026-04-11T07:48:49.949Z</time></trkpt><trkpt lat="43.8506909" lon="12.6707653"><ele>316.0</ele><time>2026-04-11T07:48:50.945Z</time></trkpt><trkpt lat="43.8508047" lon="12.6707453"><ele>316.0</ele><time>2026-04-11T07:48:51.938Z</time></trkpt><trkpt lat="43.8509138" lon="12.6707152"><ele>320.8</ele><time>2026-04-11T07:48:52.947Z</time></trkpt><trkpt lat="43.851017" lon="12.6706859"><ele>325.6</ele><time>2026-04-11T07:48:53.947Z</time></trkpt><trkpt lat="43.8511024" lon="12.6706286"><ele>330.4</ele><time>2026-04-11T07:48:54.947Z</time></trkpt><trkpt lat="43.8511821" lon="12.6705391"><ele>335.2</ele><time>2026-04-11T07:48:55.95Z</time></trkpt><trkpt lat="43.8512416" lon="12.6704242"><ele>340.0</ele><time>2026-04-11T07:48:56.948Z</time></trkpt><trkpt lat="43.8512898" lon="12.6702885"><ele>338.25</ele><time>2026-04-11T07:48:57.939Z</time></trkpt><trkpt lat="43.8513302" lon="12.6701384"><ele>336.5</ele><time>2026-04-11T07:48:58.949Z</time></trkpt><trkpt lat="43.8513653" lon="12.6699781"><ele>334.75</ele><time>2026-04-11T07:48:59.945Z</time></trkpt><trkpt lat="43.8514127" lon="12.6698248"><ele>333.0</ele><time>2026-04-11T07:49:00.94Z</time></trkpt><trkpt lat="43.8514553" lon="12.6696533"><ele>333.0</ele><time>2026-04-11T07:49:01.945Z</time></trkpt><trkpt lat="43.8514876" lon="12.6695028"><ele>333.0</ele><time>2026-04-11T07:49:02.939Z</time></trkpt><trkpt lat="43.8515271" lon="12.6693586"><ele>333.0</ele><time>2026-04-11T07:49:03.938Z</time></trkpt><trkpt lat="43.8515587" lon="12.6692347"><ele>333.0</ele><time>2026-04-11T07:49:04.948Z</time></trkpt><trkpt lat="43.8516034" lon="12.6691313"><ele>333.0</ele><time>2026-04-11T07:49:05.945Z</time></trkpt><trkpt lat="43.8516594" lon="12.6690625"><ele>333.4</ele><time>2026-04-11T07:49:06.94Z</time></trkpt><trkpt lat="43.8517312" lon="12.6690308"><ele>333.79999999999995</ele><time>2026-04-11T07:49:07.95Z</time></trkpt><trkpt lat="43.8517973" lon="12.6690073"><ele>334.2</ele><time>2026-04-11T07:49:08.941Z</time></trkpt><trkpt lat="43.8518608" lon="12.66901"><ele>334.6</ele><time>2026-04-11T07:49:09.941Z</time></trkpt><trkpt lat="43.8519705" lon="12.669155"><ele>335.0</ele><time>2026-04-11T07:49:10.947Z</time></trkpt><trkpt lat="43.8520579" lon="12.669232"><ele>335.0</ele><time>2026-04-11T07:49:11.943Z</time></trkpt><trkpt lat="43.8521741" lon="12.6692663"><ele>335.0</ele><time>2026-04-11T07:49:12.944Z</time></trkpt><trkpt lat="43.8522932" lon="12.6692704"><ele>335.0</ele><time>2026-04-11T07:49:13.943Z</time></trkpt><trkpt lat="43.8523962" lon="12.6692254"><ele>335.0</ele><time>2026-04-11T07:49:14.95Z</time></trkpt><trkpt lat="43.8524831" lon="12.6691536"><ele>335.0</ele><time>2026-04-11T07:49:15.943Z</time></trkpt><trkpt lat="43.8525544" lon="12.6690938"><ele>335.0</ele><time>2026-04-11T07:49:16.94Z</time></trkpt><trkpt lat="43.8526271" lon="12.6690269"><ele>335.0</ele><time>2026-04-11T07:49:17.942Z</time></trkpt><trkpt lat="43.852674" lon="12.6690915"><ele>335.0</ele><time>2026-04-11T07:49:18.945Z</time></trkpt><trkpt lat="43.8527073" lon="12.6692332"><ele>335.0</ele><time>2026-04-11T07:49:20.939Z</time></trkpt><trkpt lat="43.8526324" lon="12.6692859"><ele>335.0</ele><time>2026-04-11T07:49:21.937Z</time></trkpt><trkpt lat="43.8525814" lon="12.6693506"><ele>335.0</ele><time>2026-04-11T07:49:22.946Z</time></trkpt><trkpt lat="43.8524762" lon="12.6694057"><ele>339.2</ele><time>2026-04-11T07:49:23.947Z</time></trkpt><trkpt lat="43.8523761" lon="12.6694859"><ele>343.4</ele><time>2026-04-11T07:49:24.944Z</time></trkpt><trkpt lat="43.8522759" lon="12.6695731"><ele>347.6</ele><time>2026-04-11T07:49:25.941Z</time></trkpt><trkpt lat="43.8522025" lon="12.6696626"><ele>351.8</ele><time>2026-04-11T07:49:26.949Z</time></trkpt><trkpt lat="43.8521223" lon="12.6697402"><ele>356.0</ele><time>2026-04-11T07:49:27.942Z</time></trkpt><trkpt lat="43.8520597" lon="12.6698269"><ele>356.0</ele><time>2026-04-11T07:49:28.945Z</time></trkpt><trkpt lat="43.852031" lon="12.6699207"><ele>356.0</ele><time>2026-04-11T07:49:29.941Z</time></trkpt><trkpt lat="43.8520378" lon="12.6700193"><ele>356.0</ele><time>2026-04-11T07:49:30.944Z</time></trkpt><trkpt lat="43.852081" lon="12.670088"><ele>356.0</ele><time>2026-04-11T07:49:31.947Z</time></trkpt><trkpt lat="43.8521516" lon="12.6701045"><ele>356.0</ele><time>2026-04-11T07:49:32.943Z</time></trkpt><trkpt lat="43.8522348" lon="12.670052"><ele>356.0</ele><time>2026-04-11T07:49:33.952Z</time></trkpt><trkpt lat="43.8523224" lon="12.6699776"><ele>356.0</ele><time>2026-04-11T07:49:34.96Z</time></trkpt><trkpt lat="43.8524063" lon="12.6698893"><ele>356.0</ele><time>2026-04-11T07:49:35.961Z</time></trkpt><trkpt lat="43.8524772" lon="12.6698048"><ele>356.0</ele><time>2026-04-11T07:49:36.945Z</time></trkpt><trkpt lat="43.8525457" lon="12.6697369"><ele>356.0</ele><time>2026-04-11T07:49:37.941Z</time></trkpt><trkpt lat="43.852613" lon="12.6696873"><ele>356.0</ele><time>2026-04-11T07:49:38.947Z</time></trkpt><trkpt lat="43.8526986" lon="12.6697248"><ele>356.0</ele><time>2026-04-11T07:49:40.945Z</time></trkpt><trkpt lat="43.8526842" lon="12.669869"><ele>356.0</ele><time>2026-04-11T07:49:42.947Z</time></trkpt><trkpt lat="43.8526709" lon="12.6699693"><ele>356.0</ele><time>2026-04-11T07:49:43.948Z</time></trkpt><trkpt lat="43.8525726" lon="12.6700163"><ele>356.0</ele><time>2026-04-11T07:49:44.944Z</time></trkpt><trkpt lat="43.8525274" lon="12.6701184"><ele>356.0</ele><time>2026-04-11T07:49:45.938Z</time></trkpt><trkpt lat="43.8524464" lon="12.6702135"><ele>356.0</ele><time>2026-04-11T07:49:46.935Z</time></trkpt><trkpt lat="43.8523778" lon="12.6703094"><ele>358.0</ele><time>2026-04-11T07:49:47.94Z</time></trkpt><trkpt lat="43.8523278" lon="12.6704049"><ele>360.0</ele><time>2026-04-11T07:49:48.943Z</time></trkpt><trkpt lat="43.8522791" lon="12.6705006"><ele>362.0</ele><time>2026-04-11T07:49:49.949Z</time></trkpt><trkpt lat="43.85223" lon="12.6705932"><ele>364.0</ele><time>2026-04-11T07:49:50.943Z</time></trkpt><trkpt lat="43.8522368" lon="12.6707009"><ele>366.0</ele><time>2026-04-11T07:49:51.94Z</time></trkpt><trkpt lat="43.8522347" lon="12.6708029"><ele>368.0</ele><time>2026-04-11T07:49:52.938Z</time></trkpt><trkpt lat="43.8522974" lon="12.6709306"><ele>368.0</ele><time>2026-04-11T07:49:53.957Z</time></trkpt><trkpt lat="43.8523478" lon="12.6710353"><ele>368.0</ele><time>2026-04-11T07:49:54.95Z</time></trkpt><trkpt lat="43.8524045" lon="12.6711274"><ele>368.0</ele><time>2026-04-11T07:49:55.938Z</time></trkpt><trkpt lat="43.8524832" lon="12.6712338"><ele>368.0</ele><time>2026-04-11T07:49:56.937Z</time></trkpt><trkpt lat="43.8525535" lon="12.6713494"><ele>368.0</ele><time>2026-04-11T07:49:57.94Z</time></trkpt><trkpt lat="43.8526238" lon="12.6714602"><ele>370.2</ele><time>2026-04-11T07:49:58.945Z</time></trkpt><trkpt lat="43.8526966" lon="12.6715495"><ele>372.4</ele><time>2026-04-11T07:49:59.941Z</time></trkpt><trkpt lat="43.8527773" lon="12.6716282"><ele>374.59999999999997</ele><time>2026-04-11T07:50:00.946Z</time></trkpt><trkpt lat="43.8528566" lon="12.671706"><ele>376.79999999999995</ele><time>2026-04-11T07:50:01.938Z</time></trkpt><trkpt lat="43.8529533" lon="12.6717685"><ele>379.0</ele><time>2026-04-11T07:50:02.942Z</time></trkpt><trkpt lat="43.8530557" lon="12.671816"><ele>379.0</ele><time>2026-04-11T07:50:03.947Z</time></trkpt><trkpt lat="43.8531568" lon="12.6718593"><ele>379.0</ele><time>2026-04-11T07:50:04.951Z</time></trkpt><trkpt lat="43.8532634" lon="12.6718991"><ele>379.0</ele><time>2026-04-11T07:50:05.951Z</time></trkpt><trkpt lat="43.8533702" lon="12.6719528"><ele>379.0</ele><time>2026-04-11T07:50:06.943Z</time></trkpt><trkpt lat="43.853476" lon="12.6719928"><ele>379.0</ele><time>2026-04-11T07:50:07.949Z</time></trkpt><trkpt lat="43.8536001" lon="12.6720297"><ele>374.75</ele><time>2026-04-11T07:50:08.944Z</time></trkpt><trkpt lat="43.8537149" lon="12.6720546"><ele>370.5</ele><time>2026-04-11T07:50:09.942Z</time></trkpt><trkpt lat="43.8538328" lon="12.6720657"><ele>366.25</ele><time>2026-04-11T07:50:10.936Z</time></trkpt><trkpt lat="43.8539773" lon="12.6720643"><ele>362.0</ele><time>2026-04-11T07:50:11.941Z</time></trkpt><trkpt lat="43.8541183" lon="12.6720513"><ele>362.0</ele><time>2026-04-11T07:50:12.941Z</time></trkpt><trkpt lat="43.854248" lon="12.6720352"><ele>362.0</ele><time>2026-04-11T07:50:13.94Z</time></trkpt><trkpt lat="43.8543802" lon="12.6720116"><ele>362.0</ele><time>2026-04-11T07:50:14.942Z</time></trkpt><trkpt lat="43.854517" lon="12.6719908"><ele>362.0</ele><time>2026-04-11T07:50:15.944Z</time></trkpt><trkpt lat="43.8546466" lon="12.6719726"><ele>363.75</ele><time>2026-04-11T07:50:16.944Z</time></trkpt><trkpt lat="43.8547714" lon="12.6719756"><ele>365.5</ele><time>2026-04-11T07:50:17.937Z</time></trkpt><trkpt lat="43.8548932" lon="12.6719821"><ele>367.25</ele><time>2026-04-11T07:50:18.943Z</time></trkpt><trkpt lat="43.855007" lon="12.6720128"><ele>369.0</ele><time>2026-04-11T07:50:19.952Z</time></trkpt><trkpt lat="43.8551095" lon="12.6720392"><ele>370.2</ele><time>2026-04-11T07:50:20.943Z</time></trkpt><trkpt lat="43.8552187" lon="12.6720598"><ele>371.4</ele><time>2026-04-11T07:50:21.94Z</time></trkpt><trkpt lat="43.8553255" lon="12.6720781"><ele>372.6</ele><time>2026-04-11T07:50:22.941Z</time></trkpt><trkpt lat="43.8554285" lon="12.6720792"><ele>373.8</ele><time>2026-04-11T07:50:23.943Z</time></trkpt><trkpt lat="43.8555165" lon="12.6720698"><ele>375.0</ele><time>2026-04-11T07:50:24.95Z</time></trkpt><trkpt lat="43.8556123" lon="12.6720611"><ele>375.0</ele><time>2026-04-11T07:50:25.938Z</time></trkpt><trkpt lat="43.8557029" lon="12.6720509"><ele>375.0</ele><time>2026-04-11T07:50:26.944Z</time></trkpt><trkpt lat="43.8557926" lon="12.6720421"><ele>375.0</ele><time>2026-04-11T07:50:27.935Z</time></trkpt><trkpt lat="43.8558789" lon="12.6720363"><ele>375.0</ele><time>2026-04-11T07:50:28.942Z</time></trkpt><trkpt lat="43.8559715" lon="12.6720293"><ele>375.0</ele><time>2026-04-11T07:50:29.943Z</time></trkpt><trkpt lat="43.8560514" lon="12.6720034"><ele>375.0</ele><time>2026-04-11T07:50:30.944Z</time></trkpt><trkpt lat="43.8561313" lon="12.6719806"><ele>376.1666666666667</ele><time>2026-04-11T07:50:31.94Z</time></trkpt><trkpt lat="43.8561992" lon="12.6719582"><ele>377.3333333333333</ele><time>2026-04-11T07:50:32.942Z</time></trkpt><trkpt lat="43.8562795" lon="12.6718794"><ele>378.5</ele><time>2026-04-11T07:50:34.948Z</time></trkpt><trkpt lat="43.856301" lon="12.6717913"><ele>379.66666666666663</ele><time>2026-04-11T07:50:37.954Z</time></trkpt><trkpt lat="43.8563611" lon="12.6717176"><ele>380.8333333333333</ele><time>2026-04-11T07:50:41.947Z</time></trkpt><trkpt lat="43.8564758" lon="12.6716747"><ele>382.0</ele><time>2026-04-11T07:50:43.947Z</time></trkpt><trkpt lat="43.8565614" lon="12.6716727"><ele>382.20000000000005</ele><time>2026-04-11T07:50:44.944Z</time></trkpt><trkpt lat="43.8566593" lon="12.6717062"><ele>382.4</ele><time>2026-04-11T07:50:45.952Z</time></trkpt><trkpt lat="43.8567563" lon="12.6717475"><ele>382.6</ele><time>2026-04-11T07:50:46.942Z</time></trkpt><trkpt lat="43.8568359" lon="12.6717852"><ele>382.79999999999995</ele><time>2026-04-11T07:50:47.94Z</time></trkpt><trkpt lat="43.856909" lon="12.6718291"><ele>383.0</ele><time>2026-04-11T07:50:48.943Z</time></trkpt><trkpt lat="43.8569902" lon="12.6718653"><ele>383.0</ele><time>2026-04-11T07:50:49.939Z</time></trkpt><trkpt lat="43.8570602" lon="12.6719015"><ele>383.0</ele><time>2026-04-11T07:50:50.941Z</time></trkpt><trkpt lat="43.8571914" lon="12.6719553"><ele>383.0</ele><time>2026-04-11T07:50:52.937Z</time></trkpt><trkpt lat="43.857266" lon="12.6719902"><ele>383.0</ele><time>2026-04-11T07:50:53.946Z</time></trkpt><trkpt lat="43.8573355" lon="12.6720197"><ele>383.0</ele><time>2026-04-11T07:50:54.937Z</time></trkpt><trkpt lat="43.8574339" lon="12.6719961"><ele>383.0</ele><time>2026-04-11T07:50:56.938Z</time></trkpt><trkpt lat="43.8575023" lon="12.6718807"><ele>383.0</ele><time>2026-04-11T07:50:58.943Z</time></trkpt><trkpt lat="43.8575344" lon="12.67179"><ele>383.0</ele><time>2026-04-11T07:50:59.944Z</time></trkpt><trkpt lat="43.8575811" lon="12.6717019"><ele>383.0</ele><time>2026-04-11T07:51:00.944Z</time></trkpt><trkpt lat="43.8576434" lon="12.6716203"><ele>383.0</ele><time>2026-04-11T07:51:01.944Z</time></trkpt><trkpt lat="43.8577054" lon="12.6715193"><ele>383.0</ele><time>2026-04-11T07:51:02.949Z</time></trkpt><trkpt lat="43.8577719" lon="12.6714125"><ele>383.2</ele><time>2026-04-11T07:51:03.945Z</time></trkpt><trkpt lat="43.8578257" lon="12.671299"><ele>383.4</ele><time>2026-04-11T07:51:04.949Z</time></trkpt><trkpt lat="43.8578627" lon="12.6711852"><ele>383.59999999999997</ele><time>2026-04-11T07:51:05.945Z</time></trkpt><trkpt lat="43.8578729" lon="12.6710405"><ele>383.79999999999995</ele><time>2026-04-11T07:51:06.942Z</time></trkpt><trkpt lat="43.8578756" lon="12.6709037"><ele>384.0</ele><time>2026-04-11T07:51:07.94Z</time></trkpt><trkpt lat="43.8578728" lon="12.6707595"><ele>383.3333333333333</ele><time>2026-04-11T07:51:08.949Z</time></trkpt><trkpt lat="43.8578744" lon="12.6706373"><ele>382.6666666666667</ele><time>2026-04-11T07:51:09.946Z</time></trkpt><trkpt lat="43.8578666" lon="12.6705338"><ele>382.0</ele><time>2026-04-11T07:51:10.945Z</time></trkpt><trkpt lat="43.8578689" lon="12.6703901"><ele>381.33333333333337</ele><time>2026-04-11T07:51:12.942Z</time></trkpt><trkpt lat="43.8578473" lon="12.670306"><ele>380.6666666666667</ele><time>2026-04-11T07:51:13.948Z</time></trkpt><trkpt lat="43.8578216" lon="12.670203"><ele>380.0</ele><time>2026-04-11T07:51:14.944Z</time></trkpt><trkpt lat="43.8577939" lon="12.670079"><ele>379.8</ele><time>2026-04-11T07:51:15.941Z</time></trkpt><trkpt lat="43.8577655" lon="12.669947"><ele>379.6</ele><time>2026-04-11T07:51:16.941Z</time></trkpt><trkpt lat="43.8577336" lon="12.6698318"><ele>379.4</ele><time>2026-04-11T07:51:17.948Z</time></trkpt><trkpt lat="43.8577074" lon="12.6696776"><ele>379.2</ele><time>2026-04-11T07:51:18.945Z</time></trkpt><trkpt lat="43.8576723" lon="12.669512"><ele>379.0</ele><time>2026-04-11T07:51:19.939Z</time></trkpt><trkpt lat="43.8576321" lon="12.6693359"><ele>378.5</ele><time>2026-04-11T07:51:20.938Z</time></trkpt><trkpt lat="43.8575918" lon="12.6691518"><ele>378.0</ele><time>2026-04-11T07:51:21.942Z</time></trkpt><trkpt lat="43.857551" lon="12.6689801"><ele>377.5</ele><time>2026-04-11T07:51:22.942Z</time></trkpt><trkpt lat="43.8575126" lon="12.6688114"><ele>377.0</ele><time>2026-04-11T07:51:23.937Z</time></trkpt><trkpt lat="43.8574793" lon="12.6686426"><ele>378.0</ele><time>2026-04-11T07:51:24.944Z</time></trkpt><trkpt lat="43.857439" lon="12.668469"><ele>379.0</ele><time>2026-04-11T07:51:25.945Z</time></trkpt><trkpt lat="43.8573989" lon="12.6682985"><ele>380.0</ele><time>2026-04-11T07:51:26.944Z</time></trkpt><trkpt lat="43.85733" lon="12.6681606"><ele>381.0</ele><time>2026-04-11T07:51:27.946Z</time></trkpt><trkpt lat="43.8572473" lon="12.6680305"><ele>381.0</ele><time>2026-04-11T07:51:28.947Z</time></trkpt><trkpt lat="43.8571558" lon="12.6679112"><ele>381.0</ele><time>2026-04-11T07:51:29.94Z</time></trkpt><trkpt lat="43.8570645" lon="12.6677926"><ele>381.0</ele><time>2026-04-11T07:51:30.949Z</time></trkpt><trkpt lat="43.8569699" lon="12.6676836"><ele>381.0</ele><time>2026-04-11T07:51:31.944Z</time></trkpt><trkpt lat="43.8568997" lon="12.6675444"><ele>381.75</ele><time>2026-04-11T07:51:32.945Z</time></trkpt><trkpt lat="43.8568434" lon="12.6674011"><ele>382.5</ele><time>2026-04-11T07:51:33.95Z</time></trkpt><trkpt lat="43.8567678" lon="12.6672257"><ele>383.25</ele><time>2026-04-11T07:51:34.942Z</time></trkpt><trkpt lat="43.8567005" lon="12.6670473"><ele>384.0</ele><time>2026-04-11T07:51:35.944Z</time></trkpt><trkpt lat="43.8566344" lon="12.666877"><ele>384.0</ele><time>2026-04-11T07:51:36.951Z</time></trkpt><trkpt lat="43.8565798" lon="12.6667263"><ele>384.0</ele><time>2026-04-11T07:51:37.942Z</time></trkpt><trkpt lat="43.8565213" lon="12.6665868"><ele>384.0</ele><time>2026-04-11T07:51:38.941Z</time></trkpt><trkpt lat="43.8564644" lon="12.6664454"><ele>384.0</ele><time>2026-04-11T07:51:39.944Z</time></trkpt><trkpt lat="43.8564263" lon="12.6663098"><ele>384.0</ele><time>2026-04-11T07:51:40.944Z</time></trkpt><trkpt lat="43.856401" lon="12.6661778"><ele>384.0</ele><time>2026-04-11T07:51:41.946Z</time></trkpt><trkpt lat="43.8564048" lon="12.6660275"><ele>384.0</ele><time>2026-04-11T07:51:42.943Z</time></trkpt><trkpt lat="43.8564222" lon="12.6658725"><ele>384.0</ele><time>2026-04-11T07:51:43.949Z</time></trkpt><trkpt lat="43.8564529" lon="12.6657139"><ele>384.0</ele><time>2026-04-11T07:51:44.949Z</time></trkpt><trkpt lat="43.8565492" lon="12.6656069"><ele>384.0</ele><time>2026-04-11T07:51:45.948Z</time></trkpt><trkpt lat="43.8566413" lon="12.6655234"><ele>384.0</ele><time>2026-04-11T07:51:46.941Z</time></trkpt><trkpt lat="43.856741" lon="12.6654593"><ele>384.0</ele><time>2026-04-11T07:51:47.949Z</time></trkpt><trkpt lat="43.8568523" lon="12.6654304"><ele>384.0</ele><time>2026-04-11T07:51:48.945Z</time></trkpt><trkpt lat="43.856973" lon="12.6654005"><ele>384.4</ele><time>2026-04-11T07:51:49.943Z</time></trkpt><trkpt lat="43.8570865" lon="12.6653735"><ele>384.79999999999995</ele><time>2026-04-11T07:51:50.945Z</time></trkpt><trkpt lat="43.8571862" lon="12.6653418"><ele>385.20000000000005</ele><time>2026-04-11T07:51:51.946Z</time></trkpt><trkpt lat="43.8573" lon="12.6653149"><ele>385.6</ele><time>2026-04-11T07:51:52.937Z</time></trkpt><trkpt lat="43.8573918" lon="12.6652521"><ele>386.0</ele><time>2026-04-11T07:51:53.946Z</time></trkpt><trkpt lat="43.8574344" lon="12.665148"><ele>386.0</ele><time>2026-04-11T07:51:54.947Z</time></trkpt><trkpt lat="43.8575066" lon="12.66508"><ele>386.0</ele><time>2026-04-11T07:51:55.942Z</time></trkpt><trkpt lat="43.8575509" lon="12.6649732"><ele>386.0</ele><time>2026-04-11T07:51:56.94Z</time></trkpt><trkpt lat="43.857513" lon="12.6647448"><ele>386.0</ele><time>2026-04-11T07:51:57.938Z</time></trkpt><trkpt lat="43.8575168" lon="12.6645915"><ele>386.0</ele><time>2026-04-11T07:51:58.942Z</time></trkpt><trkpt lat="43.8574358" lon="12.6644279"><ele>386.0</ele><time>2026-04-11T07:51:59.941Z</time></trkpt><trkpt lat="43.8573832" lon="12.6642499"><ele>386.0</ele><time>2026-04-11T07:52:00.946Z</time></trkpt><trkpt lat="43.8573509" lon="12.6640775"><ele>386.0</ele><time>2026-04-11T07:52:01.946Z</time></trkpt><trkpt lat="43.8573048" lon="12.6638953"><ele>386.0</ele><time>2026-04-11T07:52:02.943Z</time></trkpt><trkpt lat="43.8572727" lon="12.6637132"><ele>386.0</ele><time>2026-04-11T07:52:03.942Z</time></trkpt><trkpt lat="43.8572221" lon="12.6635426"><ele>386.0</ele><time>2026-04-11T07:52:04.95Z</time></trkpt><trkpt lat="43.8571868" lon="12.6633664"><ele>386.0</ele><time>2026-04-11T07:52:05.95Z</time></trkpt><trkpt lat="43.8571218" lon="12.663237"><ele>387.20000000000005</ele><time>2026-04-11T07:52:06.946Z</time></trkpt><trkpt lat="43.857065" lon="12.6631012"><ele>388.40000000000003</ele><time>2026-04-11T07:52:07.943Z</time></trkpt><trkpt lat="43.8570349" lon="12.6629657"><ele>389.6</ele><time>2026-04-11T07:52:08.941Z</time></trkpt><trkpt lat="43.8570099" lon="12.6628186"><ele>390.8</ele><time>2026-04-11T07:52:09.941Z</time></trkpt><trkpt lat="43.8569767" lon="12.6626814"><ele>392.0</ele><time>2026-04-11T07:52:10.944Z</time></trkpt><trkpt lat="43.8569514" lon="12.6625431"><ele>392.0</ele><time>2026-04-11T07:52:11.943Z</time></trkpt><trkpt lat="43.8569387" lon="12.6624141"><ele>392.0</ele><time>2026-04-11T07:52:12.943Z</time></trkpt><trkpt lat="43.8569591" lon="12.6622714"><ele>392.0</ele><time>2026-04-11T07:52:13.947Z</time></trkpt><trkpt lat="43.8569767" lon="12.6621181"><ele>392.0</ele><time>2026-04-11T07:52:14.949Z</time></trkpt><trkpt lat="43.8569998" lon="12.6619678"><ele>392.0</ele><time>2026-04-11T07:52:15.942Z</time></trkpt><trkpt lat="43.8570203" lon="12.6618197"><ele>390.75</ele><time>2026-04-11T07:52:16.948Z</time></trkpt><trkpt lat="43.8570448" lon="12.6616689"><ele>389.5</ele><time>2026-04-11T07:52:17.945Z</time></trkpt><trkpt lat="43.8570668" lon="12.6615071"><ele>388.25</ele><time>2026-04-11T07:52:18.944Z</time></trkpt><trkpt lat="43.8570885" lon="12.6613425"><ele>387.0</ele><time>2026-04-11T07:52:19.952Z</time></trkpt><trkpt lat="43.8571097" lon="12.6611725"><ele>384.25</ele><time>2026-04-11T07:52:20.944Z</time></trkpt><trkpt lat="43.8571299" lon="12.6610057"><ele>381.5</ele><time>2026-04-11T07:52:21.941Z</time></trkpt><trkpt lat="43.8571492" lon="12.6608346"><ele>378.75</ele><time>2026-04-11T07:52:22.95Z</time></trkpt><trkpt lat="43.8571841" lon="12.6606625"><ele>376.0</ele><time>2026-04-11T07:52:23.942Z</time></trkpt><trkpt lat="43.8572288" lon="12.6604995"><ele>376.0</ele><time>2026-04-11T07:52:24.946Z</time></trkpt><trkpt lat="43.8572919" lon="12.6603456"><ele>376.0</ele><time>2026-04-11T07:52:25.94Z</time></trkpt><trkpt lat="43.8573615" lon="12.6602"><ele>376.0</ele><time>2026-04-11T07:52:26.94Z</time></trkpt><trkpt lat="43.8574349" lon="12.6600625"><ele>376.0</ele><time>2026-04-11T07:52:27.947Z</time></trkpt><trkpt lat="43.8575127" lon="12.6599179"><ele>376.5</ele><time>2026-04-11T07:52:28.944Z</time></trkpt><trkpt lat="43.8575683" lon="12.6597801"><ele>377.0</ele><time>2026-04-11T07:52:29.947Z</time></trkpt><trkpt lat="43.8576233" lon="12.6596335"><ele>377.5</ele><time>2026-04-11T07:52:30.941Z</time></trkpt><trkpt lat="43.8576709" lon="12.6594731"><ele>378.0</ele><time>2026-04-11T07:52:31.944Z</time></trkpt><trkpt lat="43.8577026" lon="12.6593141"><ele>373.25</ele><time>2026-04-11T07:52:32.941Z</time></trkpt><trkpt lat="43.8577254" lon="12.6591657"><ele>368.5</ele><time>2026-04-11T07:52:33.946Z</time></trkpt><trkpt lat="43.8577375" lon="12.659016"><ele>363.75</ele><time>2026-04-11T07:52:34.952Z</time></trkpt><trkpt lat="43.8577314" lon="12.6588691"><ele>359.0</ele><time>2026-04-11T07:52:35.94Z</time></trkpt><trkpt lat="43.8576646" lon="12.6587093"><ele>365.0</ele><time>2026-04-11T07:52:36.943Z</time></trkpt><trkpt lat="43.8576119" lon="12.6585821"><ele>371.0</ele><time>2026-04-11T07:52:37.943Z</time></trkpt><trkpt lat="43.8575267" lon="12.6584651"><ele>377.0</ele><time>2026-04-11T07:52:38.943Z</time></trkpt><trkpt lat="43.8574516" lon="12.6583409"><ele>383.0</ele><time>2026-04-11T07:52:39.946Z</time></trkpt><trkpt lat="43.857372" lon="12.6582256"><ele>383.0</ele><time>2026-04-11T07:52:40.943Z</time></trkpt><trkpt lat="43.8572935" lon="12.6581147"><ele>383.0</ele><time>2026-04-11T07:52:41.941Z</time></trkpt><trkpt lat="43.857216" lon="12.6580078"><ele>383.0</ele><time>2026-04-11T07:52:42.945Z</time></trkpt><trkpt lat="43.857148" lon="12.6579005"><ele>383.0</ele><time>2026-04-11T07:52:43.945Z</time></trkpt><trkpt lat="43.8570933" lon="12.6577759"><ele>383.0</ele><time>2026-04-11T07:52:44.95Z</time></trkpt><trkpt lat="43.8570775" lon="12.6576551"><ele>381.59999999999997</ele><time>2026-04-11T07:52:45.944Z</time></trkpt><trkpt lat="43.8570772" lon="12.6575323"><ele>380.2</ele><time>2026-04-11T07:52:46.945Z</time></trkpt><trkpt lat="43.8570933" lon="12.6574146"><ele>378.8</ele><time>2026-04-11T07:52:47.937Z</time></trkpt><trkpt lat="43.8571343" lon="12.6572863"><ele>377.4</ele><time>2026-04-11T07:52:48.945Z</time></trkpt><trkpt lat="43.8572046" lon="12.6571873"><ele>376.0</ele><time>2026-04-11T07:52:49.954Z</time></trkpt><trkpt lat="43.8572542" lon="12.6570763"><ele>376.0</ele><time>2026-04-11T07:52:50.948Z</time></trkpt><trkpt lat="43.8572878" lon="12.6569575"><ele>376.0</ele><time>2026-04-11T07:52:51.944Z</time></trkpt><trkpt lat="43.8572905" lon="12.656839"><ele>376.0</ele><time>2026-04-11T07:52:52.937Z</time></trkpt><trkpt lat="43.8572682" lon="12.6567394"><ele>376.0</ele><time>2026-04-11T07:52:53.95Z</time></trkpt><trkpt lat="43.8572225" lon="12.6566585"><ele>376.0</ele><time>2026-04-11T07:52:54.948Z</time></trkpt><trkpt lat="43.8571415" lon="12.6565979"><ele>376.0</ele><time>2026-04-11T07:52:55.945Z</time></trkpt><trkpt lat="43.8570505" lon="12.6565489"><ele>374.6</ele><time>2026-04-11T07:52:56.944Z</time></trkpt><trkpt lat="43.8569518" lon="12.6564779"><ele>373.20000000000005</ele><time>2026-04-11T07:52:57.949Z</time></trkpt><trkpt lat="43.8568704" lon="12.6563928"><ele>371.79999999999995</ele><time>2026-04-11T07:52:58.947Z</time></trkpt><trkpt lat="43.8568126" lon="12.6562834"><ele>370.4</ele><time>2026-04-11T07:52:59.945Z</time></trkpt><trkpt lat="43.8567764" lon="12.6561651"><ele>369.0</ele><time>2026-04-11T07:53:00.938Z</time></trkpt><trkpt lat="43.8567511" lon="12.656028"><ele>372.79999999999995</ele><time>2026-04-11T07:53:01.946Z</time></trkpt><trkpt lat="43.8567414" lon="12.6558883"><ele>376.59999999999997</ele><time>2026-04-11T07:53:02.941Z</time></trkpt><trkpt lat="43.8567324" lon="12.6557359"><ele>380.4</ele><time>2026-04-11T07:53:03.942Z</time></trkpt><trkpt lat="43.8567247" lon="12.6555854"><ele>384.2</ele><time>2026-04-11T07:53:04.942Z</time></trkpt><trkpt lat="43.8567192" lon="12.6554467"><ele>388.0</ele><time>2026-04-11T07:53:05.942Z</time></trkpt><trkpt lat="43.8567084" lon="12.6553092"><ele>386.0</ele><time>2026-04-11T07:53:06.941Z</time></trkpt><trkpt lat="43.8567002" lon="12.6551795"><ele>384.0</ele><time>2026-04-11T07:53:07.95Z</time></trkpt><trkpt lat="43.8566553" lon="12.6550551"><ele>382.0</ele><time>2026-04-11T07:53:08.939Z</time></trkpt><trkpt lat="43.8565762" lon="12.6549547"><ele>380.0</ele><time>2026-04-11T07:53:09.946Z</time></trkpt><trkpt lat="43.8565059" lon="12.6548614"><ele>378.0</ele><time>2026-04-11T07:53:10.939Z</time></trkpt><trkpt lat="43.8563771" lon="12.6548206"><ele>378.0</ele><time>2026-04-11T07:53:11.949Z</time></trkpt><trkpt lat="43.8562767" lon="12.6547711"><ele>378.0</ele><time>2026-04-11T07:53:12.942Z</time></trkpt><trkpt lat="43.8561833" lon="12.6547283"><ele>378.0</ele><time>2026-04-11T07:53:13.949Z</time></trkpt><trkpt lat="43.8561058" lon="12.6546785"><ele>378.0</ele><time>2026-04-11T07:53:14.948Z</time></trkpt><trkpt lat="43.8560159" lon="12.6546078"><ele>378.0</ele><time>2026-04-11T07:53:15.95Z</time></trkpt><trkpt lat="43.85593" lon="12.6545081"><ele>377.59999999999997</ele><time>2026-04-11T07:53:16.942Z</time></trkpt><trkpt lat="43.8558418" lon="12.6544025"><ele>377.2</ele><time>2026-04-11T07:53:17.939Z</time></trkpt><trkpt lat="43.8557682" lon="12.6542777"><ele>376.8</ele><time>2026-04-11T07:53:18.939Z</time></trkpt><trkpt lat="43.8557081" lon="12.6541528"><ele>376.4</ele><time>2026-04-11T07:53:19.942Z</time></trkpt><trkpt lat="43.8556584" lon="12.6540247"><ele>376.0</ele><time>2026-04-11T07:53:20.946Z</time></trkpt><trkpt lat="43.8556165" lon="12.6538797"><ele>376.0</ele><time>2026-04-11T07:53:21.945Z</time></trkpt><trkpt lat="43.8555945" lon="12.6537359"><ele>376.0</ele><time>2026-04-11T07:53:22.936Z</time></trkpt><trkpt lat="43.8555872" lon="12.6535868"><ele>376.0</ele><time>2026-04-11T07:53:23.946Z</time></trkpt><trkpt lat="43.8555836" lon="12.6534445"><ele>376.0</ele><time>2026-04-11T07:53:24.942Z</time></trkpt><trkpt lat="43.8555784" lon="12.6533014"><ele>376.0</ele><time>2026-04-11T07:53:25.951Z</time></trkpt><trkpt lat="43.8555762" lon="12.6531646"><ele>374.20000000000005</ele><time>2026-04-11T07:53:26.947Z</time></trkpt><trkpt lat="43.8555689" lon="12.6530264"><ele>372.40000000000003</ele><time>2026-04-11T07:53:27.941Z</time></trkpt><trkpt lat="43.8555674" lon="12.6528898"><ele>370.6</ele><time>2026-04-11T07:53:28.941Z</time></trkpt><trkpt lat="43.8555851" lon="12.6527464"><ele>368.8</ele><time>2026-04-11T07:53:29.939Z</time></trkpt><trkpt lat="43.855588" lon="12.6526117"><ele>367.0</ele><time>2026-04-11T07:53:30.946Z</time></trkpt><trkpt lat="43.8555922" lon="12.6524861"><ele>366.0</ele><time>2026-04-11T07:53:31.941Z</time></trkpt><trkpt lat="43.8555948" lon="12.6523793"><ele>365.0</ele><time>2026-04-11T07:53:32.942Z</time></trkpt><trkpt lat="43.8556008" lon="12.6522841"><ele>364.0</ele><time>2026-04-11T07:53:33.943Z</time></trkpt><trkpt lat="43.8556156" lon="12.6521959"><ele>363.0</ele><time>2026-04-11T07:53:34.94Z</time></trkpt><trkpt lat="43.8556523" lon="12.6520269"><ele>362.0</ele><time>2026-04-11T07:53:36.939Z</time></trkpt><trkpt lat="43.8557145" lon="12.6518624"><ele>362.0</ele><time>2026-04-11T07:53:38.945Z</time></trkpt><trkpt lat="43.8557476" lon="12.6517738"><ele>362.0</ele><time>2026-04-11T07:53:39.945Z</time></trkpt><trkpt lat="43.8557746" lon="12.651668"><ele>362.0</ele><time>2026-04-11T07:53:40.942Z</time></trkpt><trkpt lat="43.8558017" lon="12.6515671"><ele>362.0</ele><time>2026-04-11T07:53:41.939Z</time></trkpt><trkpt lat="43.855824" lon="12.6514506"><ele>362.0</ele><time>2026-04-11T07:53:42.953Z</time></trkpt><trkpt lat="43.8558667" lon="12.6513306"><ele>362.0</ele><time>2026-04-11T07:53:43.957Z</time></trkpt><trkpt lat="43.8559041" lon="12.651192"><ele>361.8</ele><time>2026-04-11T07:53:44.946Z</time></trkpt><trkpt lat="43.8559491" lon="12.6510635"><ele>361.6</ele><time>2026-04-11T07:53:45.944Z</time></trkpt><trkpt lat="43.8560094" lon="12.650955"><ele>361.40000000000003</ele><time>2026-04-11T07:53:46.939Z</time></trkpt><trkpt lat="43.856065" lon="12.6508424"><ele>361.20000000000005</ele><time>2026-04-11T07:53:47.944Z</time></trkpt><trkpt lat="43.8561257" lon="12.6507383"><ele>361.0</ele><time>2026-04-11T07:53:48.943Z</time></trkpt><trkpt lat="43.8561867" lon="12.6506281"><ele>360.8</ele><time>2026-04-11T07:53:49.946Z</time></trkpt><trkpt lat="43.8562633" lon="12.6505292"><ele>360.6</ele><time>2026-04-11T07:53:50.937Z</time></trkpt><trkpt lat="43.8563443" lon="12.6504321"><ele>360.4</ele><time>2026-04-11T07:53:51.94Z</time></trkpt><trkpt lat="43.8564394" lon="12.6503409"><ele>360.2</ele><time>2026-04-11T07:53:52.947Z</time></trkpt><trkpt lat="43.8565381" lon="12.6502577"><ele>360.0</ele><time>2026-04-11T07:53:53.944Z</time></trkpt><trkpt lat="43.8566316" lon="12.6501833"><ele>360.0</ele><time>2026-04-11T07:53:54.942Z</time></trkpt><trkpt lat="43.8567228" lon="12.6501078"><ele>360.0</ele><time>2026-04-11T07:53:55.949Z</time></trkpt><trkpt lat="43.8568087" lon="12.6500405"><ele>360.0</ele><time>2026-04-11T07:53:56.939Z</time></trkpt><trkpt lat="43.8568983" lon="12.6499818"><ele>360.0</ele><time>2026-04-11T07:53:57.941Z</time></trkpt><trkpt lat="43.8569861" lon="12.6499286"><ele>360.0</ele><time>2026-04-11T07:53:58.942Z</time></trkpt><trkpt lat="43.8570795" lon="12.649886"><ele>357.2</ele><time>2026-04-11T07:53:59.946Z</time></trkpt><trkpt lat="43.8571784" lon="12.6498479"><ele>354.4</ele><time>2026-04-11T07:54:00.941Z</time></trkpt><trkpt lat="43.857276" lon="12.6498172"><ele>351.6</ele><time>2026-04-11T07:54:01.942Z</time></trkpt><trkpt lat="43.8573712" lon="12.6497698"><ele>348.8</ele><time>2026-04-11T07:54:02.944Z</time></trkpt><trkpt lat="43.8574601" lon="12.6497061"><ele>346.0</ele><time>2026-04-11T07:54:03.949Z</time></trkpt><trkpt lat="43.8575467" lon="12.6496492"><ele>346.16666666666663</ele><time>2026-04-11T07:54:04.947Z</time></trkpt><trkpt lat="43.8576316" lon="12.6495877"><ele>346.3333333333333</ele><time>2026-04-11T07:54:05.942Z</time></trkpt><trkpt lat="43.8577129" lon="12.6495345"><ele>346.5</ele><time>2026-04-11T07:54:06.948Z</time></trkpt><trkpt lat="43.8577849" lon="12.6494791"><ele>346.6666666666667</ele><time>2026-04-11T07:54:07.943Z</time></trkpt><trkpt lat="43.857859" lon="12.6494206"><ele>346.83333333333337</ele><time>2026-04-11T07:54:08.945Z</time></trkpt><trkpt lat="43.8579321" lon="12.6493642"><ele>347.0</ele><time>2026-04-11T07:54:09.943Z</time></trkpt><trkpt lat="43.8580074" lon="12.6493065"><ele>347.0</ele><time>2026-04-11T07:54:10.942Z</time></trkpt><trkpt lat="43.8580826" lon="12.649255"><ele>347.0</ele><time>2026-04-11T07:54:11.945Z</time></trkpt><trkpt lat="43.858164" lon="12.6492139"><ele>347.0</ele><time>2026-04-11T07:54:12.944Z</time></trkpt><trkpt lat="43.8582451" lon="12.649184"><ele>347.0</ele><time>2026-04-11T07:54:13.947Z</time></trkpt><trkpt lat="43.8583235" lon="12.649165"><ele>347.0</ele><time>2026-04-11T07:54:14.952Z</time></trkpt><trkpt lat="43.8584045" lon="12.6491699"><ele>347.0</ele><time>2026-04-11T07:54:15.937Z</time></trkpt><trkpt lat="43.8584843" lon="12.6491755"><ele>346.83333333333337</ele><time>2026-04-11T07:54:16.947Z</time></trkpt><trkpt lat="43.8585626" lon="12.6491946"><ele>346.6666666666667</ele><time>2026-04-11T07:54:17.945Z</time></trkpt><trkpt lat="43.8586573" lon="12.6492235"><ele>346.5</ele><time>2026-04-11T07:54:18.936Z</time></trkpt><trkpt lat="43.8587517" lon="12.6492377"><ele>346.3333333333333</ele><time>2026-04-11T07:54:19.948Z</time></trkpt><trkpt lat="43.8588313" lon="12.6492431"><ele>346.16666666666663</ele><time>2026-04-11T07:54:20.947Z</time></trkpt><trkpt lat="43.8589096" lon="12.6492245"><ele>346.0</ele><time>2026-04-11T07:54:21.946Z</time></trkpt><trkpt lat="43.858996" lon="12.6491985"><ele>346.0</ele><time>2026-04-11T07:54:22.941Z</time></trkpt><trkpt lat="43.8590874" lon="12.6491811"><ele>346.0</ele><time>2026-04-11T07:54:23.948Z</time></trkpt><trkpt lat="43.8591716" lon="12.6491661"><ele>346.0</ele><time>2026-04-11T07:54:24.944Z</time></trkpt><trkpt lat="43.8592501" lon="12.6491591"><ele>346.0</ele><time>2026-04-11T07:54:25.944Z</time></trkpt><trkpt lat="43.8593335" lon="12.6491449"><ele>346.0</ele><time>2026-04-11T07:54:26.941Z</time></trkpt><trkpt lat="43.859413" lon="12.649129"><ele>346.0</ele><time>2026-04-11T07:54:27.941Z</time></trkpt><trkpt lat="43.8594848" lon="12.6491171"><ele>345.66666666666663</ele><time>2026-04-11T07:54:28.95Z</time></trkpt><trkpt lat="43.8595611" lon="12.6491"><ele>345.3333333333333</ele><time>2026-04-11T07:54:29.948Z</time></trkpt><trkpt lat="43.8596358" lon="12.649095"><ele>345.0</ele><time>2026-04-11T07:54:30.944Z</time></trkpt><trkpt lat="43.8597139" lon="12.6490779"><ele>344.6666666666667</ele><time>2026-04-11T07:54:31.94Z</time></trkpt><trkpt lat="43.8597945" lon="12.6490642"><ele>344.33333333333337</ele><time>2026-04-11T07:54:32.943Z</time></trkpt><trkpt lat="43.8598654" lon="12.649042"><ele>344.0</ele><time>2026-04-11T07:54:33.95Z</time></trkpt><trkpt lat="43.8599347" lon="12.6490174"><ele>344.00000000000006</ele><time>2026-04-11T07:54:34.948Z</time></trkpt><trkpt lat="43.8600012" lon="12.6489905"><ele>344.0</ele><time>2026-04-11T07:54:35.942Z</time></trkpt><trkpt lat="43.8600644" lon="12.6489555"><ele>344.0</ele><time>2026-04-11T07:54:36.949Z</time></trkpt><trkpt lat="43.8601348" lon="12.6489204"><ele>344.0</ele><time>2026-04-11T07:54:37.938Z</time></trkpt><trkpt lat="43.860208" lon="12.6488857"><ele>344.0</ele><time>2026-04-11T07:54:38.947Z</time></trkpt><trkpt lat="43.8602749" lon="12.648836"><ele>344.00000000000006</ele><time>2026-04-11T07:54:39.936Z</time></trkpt><trkpt lat="43.860338" lon="12.6487938"><ele>344.0</ele><time>2026-04-11T07:54:40.947Z</time></trkpt><trkpt lat="43.8604028" lon="12.6487637"><ele>342.7142857142857</ele><time>2026-04-11T07:54:41.949Z</time></trkpt><trkpt lat="43.8604727" lon="12.648755"><ele>341.42857142857144</ele><time>2026-04-11T07:54:42.947Z</time></trkpt><trkpt lat="43.8605423" lon="12.6487494"><ele>340.1428571428571</ele><time>2026-04-11T07:54:43.939Z</time></trkpt><trkpt lat="43.8606145" lon="12.6487436"><ele>338.8571428571429</ele><time>2026-04-11T07:54:44.937Z</time></trkpt><trkpt lat="43.8606889" lon="12.6487396"><ele>337.57142857142856</ele><time>2026-04-11T07:54:45.945Z</time></trkpt><trkpt lat="43.8607713" lon="12.6487455"><ele>336.2857142857143</ele><time>2026-04-11T07:54:46.937Z</time></trkpt><trkpt lat="43.8608488" lon="12.6487414"><ele>335.0</ele><time>2026-04-11T07:54:47.943Z</time></trkpt><trkpt lat="43.8609254" lon="12.648722"><ele>332.2857142857143</ele><time>2026-04-11T07:54:48.955Z</time></trkpt><trkpt lat="43.8609999" lon="12.6487002"><ele>329.57142857142856</ele><time>2026-04-11T07:54:49.945Z</time></trkpt><trkpt lat="43.8610672" lon="12.6486712"><ele>326.8571428571429</ele><time>2026-04-11T07:54:50.942Z</time></trkpt><trkpt lat="43.8611317" lon="12.6486389"><ele>324.1428571428571</ele><time>2026-04-11T07:54:51.94Z</time></trkpt><trkpt lat="43.8612015" lon="12.6486044"><ele>321.42857142857144</ele><time>2026-04-11T07:54:52.942Z</time></trkpt><trkpt lat="43.8612618" lon="12.648574"><ele>318.7142857142857</ele><time>2026-04-11T07:54:53.945Z</time></trkpt><trkpt lat="43.8613203" lon="12.6485252"><ele>316.0</ele><time>2026-04-11T07:54:54.943Z</time></trkpt><trkpt lat="43.861382" lon="12.6484982"><ele>316.0</ele><time>2026-04-11T07:54:55.944Z</time></trkpt><trkpt lat="43.8614433" lon="12.6484742"><ele>316.0</ele><time>2026-04-11T07:54:56.94Z</time></trkpt><trkpt lat="43.8615274" lon="12.6484324"><ele>316.0</ele><time>2026-04-11T07:54:58.944Z</time></trkpt><trkpt lat="43.8615985" lon="12.6483999"><ele>316.0</ele><time>2026-04-11T07:55:00.942Z</time></trkpt><trkpt lat="43.8616747" lon="12.6483511"><ele>316.0</ele><time>2026-04-11T07:55:03.945Z</time></trkpt><trkpt lat="43.8617436" lon="12.6483059"><ele>316.0</ele><time>2026-04-11T07:55:05.949Z</time></trkpt><trkpt lat="43.8618024" lon="12.6482746"><ele>316.0</ele><time>2026-04-11T07:55:07.943Z</time></trkpt><trkpt lat="43.8617593" lon="12.6482067"><ele>316.0</ele><time>2026-04-11T07:55:12.943Z</time></trkpt><trkpt lat="43.861691" lon="12.6482035"><ele>316.0</ele><time>2026-04-11T07:55:14.945Z</time></trkpt><trkpt lat="43.8616107" lon="12.6481819"><ele>316.0</ele><time>2026-04-11T07:55:16.948Z</time></trkpt><trkpt lat="43.8615095" lon="12.6481234"><ele>316.0</ele><time>2026-04-11T07:55:18.942Z</time></trkpt><trkpt lat="43.8614411" lon="12.648084"><ele>316.0</ele><time>2026-04-11T07:55:20.942Z</time></trkpt><trkpt lat="43.861361" lon="12.6480882"><ele>316.0</ele><time>2026-04-11T07:55:22.94Z</time></trkpt><trkpt lat="43.861272" lon="12.6480918"><ele>316.0</ele><time>2026-04-11T07:55:24.95Z</time></trkpt><trkpt lat="43.8611907" lon="12.6481137"><ele>316.0</ele><time>2026-04-11T07:55:26.942Z</time></trkpt><trkpt lat="43.8611028" lon="12.6481329"><ele>316.0</ele><time>2026-04-11T07:55:28.938Z</time></trkpt><trkpt lat="43.8610105" lon="12.6481128"><ele>316.0</ele><time>2026-04-11T07:55:30.942Z</time></trkpt><trkpt lat="43.8609119" lon="12.6480793"><ele>317.3333333333333</ele><time>2026-04-11T07:55:32.939Z</time></trkpt><trkpt lat="43.8608332" lon="12.6480732"><ele>318.66666666666663</ele><time>2026-04-11T07:55:34.944Z</time></trkpt><trkpt lat="43.860774" lon="12.6480364"><ele>320.0</ele><time>2026-04-11T07:55:35.94Z</time></trkpt><trkpt lat="43.8607023" lon="12.6480141"><ele>321.3333333333333</ele><time>2026-04-11T07:55:37.945Z</time></trkpt><trkpt lat="43.8606116" lon="12.6479508"><ele>322.6666666666667</ele><time>2026-04-11T07:55:39.947Z</time></trkpt><trkpt lat="43.8605147" lon="12.6478826"><ele>324.0</ele><time>2026-04-11T07:55:41.948Z</time></trkpt><trkpt lat="43.8604023" lon="12.6477966"><ele>322.2</ele><time>2026-04-11T07:55:43.946Z</time></trkpt><trkpt lat="43.8603067" lon="12.6477054"><ele>320.4</ele><time>2026-04-11T07:55:45.947Z</time></trkpt><trkpt lat="43.860222" lon="12.647636"><ele>318.6</ele><time>2026-04-11T07:55:47.943Z</time></trkpt><trkpt lat="43.8601229" lon="12.6475587"><ele>316.8</ele><time>2026-04-11T07:55:49.94Z</time></trkpt><trkpt lat="43.8600514" lon="12.6474421"><ele>315.0</ele><time>2026-04-11T07:55:51.942Z</time></trkpt><trkpt lat="43.8600104" lon="12.6472866"><ele>315.0</ele><time>2026-04-11T07:55:53.947Z</time></trkpt><trkpt lat="43.8599955" lon="12.6471988"><ele>315.0</ele><time>2026-04-11T07:55:54.944Z</time></trkpt><trkpt lat="43.8599877" lon="12.6471055"><ele>315.0</ele><time>2026-04-11T07:55:55.948Z</time></trkpt><trkpt lat="43.859947" lon="12.6469888"><ele>315.0</ele><time>2026-04-11T07:55:57.943Z</time></trkpt><trkpt lat="43.8598749" lon="12.6468744"><ele>315.0</ele><time>2026-04-11T07:55:59.95Z</time></trkpt><trkpt lat="43.8598227" lon="12.6467811"><ele>315.0</ele><time>2026-04-11T07:56:01.941Z</time></trkpt><trkpt lat="43.8597857" lon="12.6466652"><ele>312.4</ele><time>2026-04-11T07:56:03.95Z</time></trkpt><trkpt lat="43.8597826" lon="12.6465495"><ele>309.8</ele><time>2026-04-11T07:56:05.942Z</time></trkpt><trkpt lat="43.8597964" lon="12.6464265"><ele>307.2</ele><time>2026-04-11T07:56:07.938Z</time></trkpt><trkpt lat="43.8597975" lon="12.646281"><ele>304.6</ele><time>2026-04-11T07:56:09.948Z</time></trkpt><trkpt lat="43.8598116" lon="12.6461341"><ele>302.0</ele><time>2026-04-11T07:56:11.943Z</time></trkpt><trkpt lat="43.8598113" lon="12.6460069"><ele>301.5</ele><time>2026-04-11T07:56:13.945Z</time></trkpt><trkpt lat="43.859784" lon="12.6458741"><ele>301.0</ele><time>2026-04-11T07:56:15.939Z</time></trkpt><trkpt lat="43.8597236" lon="12.6457552"><ele>300.5</ele><time>2026-04-11T07:56:18.945Z</time></trkpt><trkpt lat="43.8596711" lon="12.6456344"><ele>300.0</ele><time>2026-04-11T07:56:21.936Z</time></trkpt><trkpt lat="43.8596387" lon="12.6455476"><ele>299.5</ele><time>2026-04-11T07:56:23.946Z</time></trkpt><trkpt lat="43.859611" lon="12.6454604"><ele>299.0</ele><time>2026-04-11T07:56:25.941Z</time></trkpt><trkpt lat="43.8595809" lon="12.6453809"><ele>299.0</ele><time>2026-04-11T07:56:29.943Z</time></trkpt><trkpt lat="43.8596197" lon="12.6454642"><ele>299.0</ele><time>2026-04-11T08:04:07.941Z</time></trkpt><trkpt lat="43.8596492" lon="12.6455691"><ele>299.0</ele><time>2026-04-11T08:05:26.942Z</time></trkpt><trkpt lat="43.8596934" lon="12.6456574"><ele>299.0</ele><time>2026-04-11T08:07:02.939Z</time></trkpt><trkpt lat="43.8597434" lon="12.6457719"><ele>299.0</ele><time>2026-04-11T08:07:05.935Z</time></trkpt><trkpt lat="43.8597808" lon="12.6458652"><ele>299.0</ele><time>2026-04-11T08:07:08.943Z</time></trkpt><trkpt lat="43.8597878" lon="12.6459832"><ele>299.0</ele><time>2026-04-11T08:14:16.936Z</time></trkpt><trkpt lat="43.8597894" lon="12.6460717"><ele>299.0</ele><time>2026-04-11T08:14:18.936Z</time></trkpt><trkpt lat="43.8597849" lon="12.6461669"><ele>299.0</ele><time>2026-04-11T08:14:20.932Z</time></trkpt><trkpt lat="43.8597747" lon="12.6462603"><ele>299.0</ele><time>2026-04-11T08:14:22.938Z</time></trkpt><trkpt lat="43.8597682" lon="12.6463492"><ele>299.0</ele><time>2026-04-11T08:14:24.939Z</time></trkpt><trkpt lat="43.8597735" lon="12.6464686"><ele>299.0</ele><time>2026-04-11T08:14:26.938Z</time></trkpt><trkpt lat="43.8597864" lon="12.6465969"><ele>299.0</ele><time>2026-04-11T08:14:28.941Z</time></trkpt><trkpt lat="43.8598084" lon="12.6467323"><ele>299.59999999999997</ele><time>2026-04-11T08:14:30.938Z</time></trkpt><trkpt lat="43.85987" lon="12.6468404"><ele>300.2</ele><time>2026-04-11T08:14:32.936Z</time></trkpt><trkpt lat="43.859941" lon="12.6469531"><ele>300.79999999999995</ele><time>2026-04-11T08:14:34.933Z</time></trkpt><trkpt lat="43.8599929" lon="12.6470778"><ele>301.4</ele><time>2026-04-11T08:14:36.942Z</time></trkpt><trkpt lat="43.8600227" lon="12.6472367"><ele>302.0</ele><time>2026-04-11T08:14:38.938Z</time></trkpt><trkpt lat="43.8600276" lon="12.6473375"><ele>302.6666666666667</ele><time>2026-04-11T08:14:39.943Z</time></trkpt><trkpt lat="43.8600597" lon="12.6474368"><ele>303.33333333333337</ele><time>2026-04-11T08:14:40.944Z</time></trkpt><trkpt lat="43.860106" lon="12.6475304"><ele>304.0</ele><time>2026-04-11T08:14:41.937Z</time></trkpt><trkpt lat="43.8601708" lon="12.6476016"><ele>304.6666666666667</ele><time>2026-04-11T08:14:42.947Z</time></trkpt><trkpt lat="43.8602423" lon="12.6476567"><ele>305.3333333333333</ele><time>2026-04-11T08:14:43.935Z</time></trkpt><trkpt lat="43.8603233" lon="12.6477333"><ele>306.0</ele><time>2026-04-11T08:14:44.939Z</time></trkpt><trkpt lat="43.8604051" lon="12.6477973"><ele>309.6</ele><time>2026-04-11T08:14:45.939Z</time></trkpt><trkpt lat="43.8604637" lon="12.6478416"><ele>313.20000000000005</ele><time>2026-04-11T08:14:46.942Z</time></trkpt><trkpt lat="43.8605815" lon="12.6479323"><ele>316.79999999999995</ele><time>2026-04-11T08:14:48.937Z</time></trkpt><trkpt lat="43.8606506" lon="12.6479843"><ele>320.4</ele><time>2026-04-11T08:14:49.938Z</time></trkpt><trkpt lat="43.8607438" lon="12.6480309"><ele>324.0</ele><time>2026-04-11T08:14:51.938Z</time></trkpt><trkpt lat="43.8608413" lon="12.6480799"><ele>324.0</ele><time>2026-04-11T08:14:52.936Z</time></trkpt><trkpt lat="43.8609167" lon="12.6481111"><ele>324.0</ele><time>2026-04-11T08:14:53.937Z</time></trkpt><trkpt lat="43.8610097" lon="12.6481402"><ele>324.0</ele><time>2026-04-11T08:14:55.937Z</time></trkpt><trkpt lat="43.8611166" lon="12.6481142"><ele>324.0</ele><time>2026-04-11T08:14:57.939Z</time></trkpt><trkpt lat="43.861227" lon="12.6481017"><ele>324.0</ele><time>2026-04-11T08:14:59.933Z</time></trkpt><trkpt lat="43.8612903" lon="12.6481116"><ele>322.4</ele><time>2026-04-11T08:15:00.941Z</time></trkpt><trkpt lat="43.8613655" lon="12.6481202"><ele>320.79999999999995</ele><time>2026-04-11T08:15:01.944Z</time></trkpt><trkpt lat="43.8614848" lon="12.6481274"><ele>319.20000000000005</ele><time>2026-04-11T08:15:03.94Z</time></trkpt><trkpt lat="43.8615611" lon="12.648184"><ele>317.6</ele><time>2026-04-11T08:15:05.939Z</time></trkpt><trkpt lat="43.8616749" lon="12.6482286"><ele>316.0</ele><time>2026-04-11T08:15:07.949Z</time></trkpt><trkpt lat="43.8617499" lon="12.6482363"><ele>317.8</ele><time>2026-04-11T08:15:10.942Z</time></trkpt><trkpt lat="43.8618315" lon="12.6482198"><ele>319.6</ele><time>2026-04-11T08:15:16.935Z</time></trkpt><trkpt lat="43.8619514" lon="12.6481419"><ele>321.4</ele><time>2026-04-11T08:15:18.938Z</time></trkpt><trkpt lat="43.8620275" lon="12.6480849"><ele>323.2</ele><time>2026-04-11T08:15:19.939Z</time></trkpt><trkpt lat="43.862089" lon="12.6480172"><ele>325.0</ele><time>2026-04-11T08:15:20.938Z</time></trkpt><trkpt lat="43.8621649" lon="12.6479522"><ele>325.0</ele><time>2026-04-11T08:15:21.937Z</time></trkpt><trkpt lat="43.8622646" lon="12.6478633"><ele>325.0</ele><time>2026-04-11T08:15:22.944Z</time></trkpt><trkpt lat="43.8623754" lon="12.6477964"><ele>325.0</ele><time>2026-04-11T08:15:23.939Z</time></trkpt><trkpt lat="43.8624785" lon="12.6477288"><ele>325.0</ele><time>2026-04-11T08:15:24.944Z</time></trkpt><trkpt lat="43.8625896" lon="12.64766"><ele>325.0</ele><time>2026-04-11T08:15:25.942Z</time></trkpt><trkpt lat="43.862714" lon="12.6476104"><ele>325.0</ele><time>2026-04-11T08:15:26.942Z</time></trkpt><trkpt lat="43.8628211" lon="12.6475663"><ele>325.0</ele><time>2026-04-11T08:15:27.946Z</time></trkpt><trkpt lat="43.8629365" lon="12.6475245"><ele>325.0</ele><time>2026-04-11T08:15:28.936Z</time></trkpt><trkpt lat="43.8630553" lon="12.6474741"><ele>325.0</ele><time>2026-04-11T08:15:29.953Z</time></trkpt><trkpt lat="43.8631719" lon="12.6474281"><ele>325.0</ele><time>2026-04-11T08:15:30.943Z</time></trkpt><trkpt lat="43.8632992" lon="12.6473793"><ele>325.0</ele><time>2026-04-11T08:15:31.942Z</time></trkpt><trkpt lat="43.8634331" lon="12.6473108"><ele>325.0</ele><time>2026-04-11T08:15:32.941Z</time></trkpt><trkpt lat="43.8635287" lon="12.647262"><ele>323.8</ele><time>2026-04-11T08:15:33.937Z</time></trkpt><trkpt lat="43.8636335" lon="12.6471958"><ele>322.6</ele><time>2026-04-11T08:15:34.94Z</time></trkpt><trkpt lat="43.8637333" lon="12.6471427"><ele>321.4</ele><time>2026-04-11T08:15:35.946Z</time></trkpt><trkpt lat="43.8638256" lon="12.6470967"><ele>320.2</ele><time>2026-04-11T08:15:36.942Z</time></trkpt><trkpt lat="43.8639104" lon="12.6470271"><ele>319.0</ele><time>2026-04-11T08:15:37.936Z</time></trkpt><trkpt lat="43.86399" lon="12.646976"><ele>318.59999999999997</ele><time>2026-04-11T08:15:38.944Z</time></trkpt><trkpt lat="43.8640773" lon="12.6469221"><ele>318.2</ele><time>2026-04-11T08:15:39.941Z</time></trkpt><trkpt lat="43.8641766" lon="12.6468691"><ele>317.79999999999995</ele><time>2026-04-11T08:15:40.946Z</time></trkpt><trkpt lat="43.8642657" lon="12.6468155"><ele>317.4</ele><time>2026-04-11T08:15:41.939Z</time></trkpt><trkpt lat="43.8643636" lon="12.6467699"><ele>317.0</ele><time>2026-04-11T08:15:42.947Z</time></trkpt><trkpt lat="43.8644632" lon="12.6467295"><ele>317.0</ele><time>2026-04-11T08:15:43.944Z</time></trkpt><trkpt lat="43.8645686" lon="12.6466907"><ele>317.0</ele><time>2026-04-11T08:15:44.944Z</time></trkpt><trkpt lat="43.8646683" lon="12.6466543"><ele>317.0</ele><time>2026-04-11T08:15:45.943Z</time></trkpt><trkpt lat="43.8647676" lon="12.6466096"><ele>317.0</ele><time>2026-04-11T08:15:46.939Z</time></trkpt><trkpt lat="43.8648494" lon="12.6465554"><ele>317.0</ele><time>2026-04-11T08:15:47.936Z</time></trkpt><trkpt lat="43.8649349" lon="12.6464947"><ele>317.0</ele><time>2026-04-11T08:15:48.948Z</time></trkpt><trkpt lat="43.8650247" lon="12.6464315"><ele>317.0</ele><time>2026-04-11T08:15:49.941Z</time></trkpt><trkpt lat="43.8651079" lon="12.6463842"><ele>317.0</ele><time>2026-04-11T08:15:50.937Z</time></trkpt><trkpt lat="43.8651856" lon="12.6463269"><ele>317.0</ele><time>2026-04-11T08:15:51.937Z</time></trkpt><trkpt lat="43.8652694" lon="12.6462643"><ele>317.0</ele><time>2026-04-11T08:15:52.941Z</time></trkpt><trkpt lat="43.8653473" lon="12.6461936"><ele>316.2</ele><time>2026-04-11T08:15:53.944Z</time></trkpt><trkpt lat="43.8654308" lon="12.6461325"><ele>315.4</ele><time>2026-04-11T08:15:54.939Z</time></trkpt><trkpt lat="43.8655235" lon="12.646059"><ele>314.6</ele><time>2026-04-11T08:15:55.938Z</time></trkpt><trkpt lat="43.8656191" lon="12.6459938"><ele>313.8</ele><time>2026-04-11T08:15:56.94Z</time></trkpt><trkpt lat="43.865722" lon="12.6459291"><ele>313.0</ele><time>2026-04-11T08:15:57.944Z</time></trkpt><trkpt lat="43.8658374" lon="12.6458791"><ele>313.0</ele><time>2026-04-11T08:15:58.939Z</time></trkpt><trkpt lat="43.865943" lon="12.645819"><ele>313.0</ele><time>2026-04-11T08:15:59.941Z</time></trkpt><trkpt lat="43.8660388" lon="12.645741"><ele>313.0</ele><time>2026-04-11T08:16:00.941Z</time></trkpt><trkpt lat="43.8661337" lon="12.6456661"><ele>313.0</ele><time>2026-04-11T08:16:01.941Z</time></trkpt><trkpt lat="43.86623" lon="12.6456034"><ele>313.0</ele><time>2026-04-11T08:16:02.937Z</time></trkpt><trkpt lat="43.8663227" lon="12.6455367"><ele>312.8</ele><time>2026-04-11T08:16:03.941Z</time></trkpt><trkpt lat="43.8664127" lon="12.6454846"><ele>312.6</ele><time>2026-04-11T08:16:04.945Z</time></trkpt><trkpt lat="43.8665139" lon="12.6454326"><ele>312.4</ele><time>2026-04-11T08:16:05.946Z</time></trkpt><trkpt lat="43.8666162" lon="12.6453828"><ele>312.2</ele><time>2026-04-11T08:16:06.937Z</time></trkpt><trkpt lat="43.8667123" lon="12.6453463"><ele>312.0</ele><time>2026-04-11T08:16:07.945Z</time></trkpt><trkpt lat="43.8668121" lon="12.6453156"><ele>312.0</ele><time>2026-04-11T08:16:08.942Z</time></trkpt><trkpt lat="43.8669121" lon="12.6452925"><ele>312.0</ele><time>2026-04-11T08:16:09.938Z</time></trkpt><trkpt lat="43.8670002" lon="12.6452838"><ele>312.0</ele><time>2026-04-11T08:16:10.94Z</time></trkpt><trkpt lat="43.8670749" lon="12.6452792"><ele>312.0</ele><time>2026-04-11T08:16:11.935Z</time></trkpt><trkpt lat="43.8671404" lon="12.6452759"><ele>312.0</ele><time>2026-04-11T08:16:12.942Z</time></trkpt><trkpt lat="43.8672464" lon="12.6452901"><ele>312.0</ele><time>2026-04-11T08:16:14.939Z</time></trkpt><trkpt lat="43.8673461" lon="12.6453465"><ele>312.0</ele><time>2026-04-11T08:16:16.946Z</time></trkpt><trkpt lat="43.8674424" lon="12.6454396"><ele>312.0</ele><time>2026-04-11T08:16:18.947Z</time></trkpt><trkpt lat="43.8675119" lon="12.6455119"><ele>312.0</ele><time>2026-04-11T08:16:19.939Z</time></trkpt><trkpt lat="43.8675681" lon="12.6455921"><ele>312.0</ele><time>2026-04-11T08:16:20.946Z</time></trkpt><trkpt lat="43.8676231" lon="12.645661"><ele>312.0</ele><time>2026-04-11T08:16:21.946Z</time></trkpt><trkpt lat="43.8676666" lon="12.6457908"><ele>313.0</ele><time>2026-04-11T08:16:22.939Z</time></trkpt><trkpt lat="43.8677221" lon="12.6459255"><ele>314.0</ele><time>2026-04-11T08:16:23.942Z</time></trkpt><trkpt lat="43.8677694" lon="12.6460699"><ele>315.0</ele><time>2026-04-11T08:16:24.941Z</time></trkpt><trkpt lat="43.867794" lon="12.646229"><ele>316.0</ele><time>2026-04-11T08:16:25.943Z</time></trkpt><trkpt lat="43.8678121" lon="12.6463844"><ele>316.0</ele><time>2026-04-11T08:16:26.945Z</time></trkpt><trkpt lat="43.8678258" lon="12.646531"><ele>316.0</ele><time>2026-04-11T08:16:27.94Z</time></trkpt><trkpt lat="43.8678411" lon="12.6466758"><ele>316.0</ele><time>2026-04-11T08:16:28.939Z</time></trkpt><trkpt lat="43.867866" lon="12.6468166"><ele>316.0</ele><time>2026-04-11T08:16:29.943Z</time></trkpt><trkpt lat="43.867898" lon="12.6469447"><ele>316.0</ele><time>2026-04-11T08:16:30.948Z</time></trkpt><trkpt lat="43.8679334" lon="12.6470648"><ele>314.0</ele><time>2026-04-11T08:16:31.939Z</time></trkpt><trkpt lat="43.8679827" lon="12.6471743"><ele>312.0</ele><time>2026-04-11T08:16:32.94Z</time></trkpt><trkpt lat="43.8680494" lon="12.6472747"><ele>310.0</ele><time>2026-04-11T08:16:33.945Z</time></trkpt><trkpt lat="43.8681282" lon="12.6473521"><ele>308.0</ele><time>2026-04-11T08:16:34.94Z</time></trkpt><trkpt lat="43.8682157" lon="12.6474131"><ele>306.0</ele><time>2026-04-11T08:16:35.941Z</time></trkpt><trkpt lat="43.8683173" lon="12.6474718"><ele>306.0</ele><time>2026-04-11T08:16:36.942Z</time></trkpt><trkpt lat="43.8684272" lon="12.6475111"><ele>306.0</ele><time>2026-04-11T08:16:37.934Z</time></trkpt><trkpt lat="43.8685319" lon="12.6475524"><ele>306.0</ele><time>2026-04-11T08:16:38.936Z</time></trkpt><trkpt lat="43.8686383" lon="12.6475878"><ele>306.0</ele><time>2026-04-11T08:16:39.941Z</time></trkpt><trkpt lat="43.8687389" lon="12.6476288"><ele>306.0</ele><time>2026-04-11T08:16:40.938Z</time></trkpt><trkpt lat="43.8688478" lon="12.6476571"><ele>304.6</ele><time>2026-04-11T08:16:41.947Z</time></trkpt><trkpt lat="43.8689496" lon="12.6476832"><ele>303.20000000000005</ele><time>2026-04-11T08:16:42.947Z</time></trkpt><trkpt lat="43.8690492" lon="12.6476912"><ele>301.79999999999995</ele><time>2026-04-11T08:16:43.944Z</time></trkpt><trkpt lat="43.869151" lon="12.6476847"><ele>300.4</ele><time>2026-04-11T08:16:44.945Z</time></trkpt><trkpt lat="43.8692472" lon="12.6476679"><ele>299.0</ele><time>2026-04-11T08:16:45.94Z</time></trkpt><trkpt lat="43.8693444" lon="12.6476462"><ele>295.2</ele><time>2026-04-11T08:16:46.941Z</time></trkpt><trkpt lat="43.8694378" lon="12.6476118"><ele>291.4</ele><time>2026-04-11T08:16:47.968Z</time></trkpt><trkpt lat="43.8695282" lon="12.6475519"><ele>287.6</ele><time>2026-04-11T08:16:48.943Z</time></trkpt><trkpt lat="43.8696231" lon="12.6475096"><ele>283.8</ele><time>2026-04-11T08:16:49.94Z</time></trkpt><trkpt lat="43.8697159" lon="12.6474547"><ele>280.0</ele><time>2026-04-11T08:16:50.966Z</time></trkpt><trkpt lat="43.8698105" lon="12.6473951"><ele>280.0</ele><time>2026-04-11T08:16:51.935Z</time></trkpt><trkpt lat="43.8699005" lon="12.6473338"><ele>280.0</ele><time>2026-04-11T08:16:52.943Z</time></trkpt><trkpt lat="43.8699953" lon="12.647266"><ele>280.0</ele><time>2026-04-11T08:16:53.939Z</time></trkpt><trkpt lat="43.8700965" lon="12.6472004"><ele>280.0</ele><time>2026-04-11T08:16:54.935Z</time></trkpt><trkpt lat="43.8701917" lon="12.6471325"><ele>280.0</ele><time>2026-04-11T08:16:55.936Z</time></trkpt><trkpt lat="43.8702834" lon="12.6470661"><ele>279.2</ele><time>2026-04-11T08:16:56.942Z</time></trkpt><trkpt lat="43.8703785" lon="12.6470011"><ele>278.4</ele><time>2026-04-11T08:16:57.941Z</time></trkpt><trkpt lat="43.870472" lon="12.6469327"><ele>277.6</ele><time>2026-04-11T08:16:58.934Z</time></trkpt><trkpt lat="43.8705638" lon="12.646877"><ele>276.8</ele><time>2026-04-11T08:16:59.936Z</time></trkpt><trkpt lat="43.8706624" lon="12.6468416"><ele>276.0</ele><time>2026-04-11T08:17:00.939Z</time></trkpt><trkpt lat="43.8707661" lon="12.6468359"><ele>276.0</ele><time>2026-04-11T08:17:01.941Z</time></trkpt><trkpt lat="43.8708631" lon="12.6468369"><ele>276.0</ele><time>2026-04-11T08:17:02.94Z</time></trkpt><trkpt lat="43.8709625" lon="12.6468234"><ele>276.0</ele><time>2026-04-11T08:17:03.942Z</time></trkpt><trkpt lat="43.871038" lon="12.6467814"><ele>276.0</ele><time>2026-04-11T08:17:04.936Z</time></trkpt><trkpt lat="43.8711087" lon="12.6467057"><ele>276.0</ele><time>2026-04-11T08:17:05.939Z</time></trkpt><trkpt lat="43.8711768" lon="12.6466279"><ele>272.2</ele><time>2026-04-11T08:17:06.937Z</time></trkpt><trkpt lat="43.8712304" lon="12.6464955"><ele>268.40000000000003</ele><time>2026-04-11T08:17:07.937Z</time></trkpt><trkpt lat="43.8712887" lon="12.6463718"><ele>264.6</ele><time>2026-04-11T08:17:08.938Z</time></trkpt><trkpt lat="43.8713498" lon="12.6462503"><ele>260.8</ele><time>2026-04-11T08:17:09.937Z</time></trkpt><trkpt lat="43.871414" lon="12.6461377"><ele>257.0</ele><time>2026-04-11T08:17:10.947Z</time></trkpt><trkpt lat="43.8714814" lon="12.6460261"><ele>257.0</ele><time>2026-04-11T08:17:11.939Z</time></trkpt><trkpt lat="43.8715486" lon="12.6459144"><ele>257.0</ele><time>2026-04-11T08:17:12.94Z</time></trkpt><trkpt lat="43.8716184" lon="12.6458058"><ele>257.0</ele><time>2026-04-11T08:17:13.937Z</time></trkpt><trkpt lat="43.8716854" lon="12.6457049"><ele>257.0</ele><time>2026-04-11T08:17:14.948Z</time></trkpt><trkpt lat="43.8717468" lon="12.6456114"><ele>257.0</ele><time>2026-04-11T08:17:15.937Z</time></trkpt><trkpt lat="43.8718095" lon="12.6455223"><ele>255.42857142857142</ele><time>2026-04-11T08:17:16.94Z</time></trkpt><trkpt lat="43.8718595" lon="12.6454301"><ele>253.8571428571429</ele><time>2026-04-11T08:17:17.94Z</time></trkpt><trkpt lat="43.8719129" lon="12.6453592"><ele>252.2857142857143</ele><time>2026-04-11T08:17:18.936Z</time></trkpt><trkpt lat="43.8719705" lon="12.6453014"><ele>250.71428571428572</ele><time>2026-04-11T08:17:19.945Z</time></trkpt><trkpt lat="43.8720329" lon="12.6452577"><ele>249.14285714285717</ele><time>2026-04-11T08:17:20.947Z</time></trkpt><trkpt lat="43.8721026" lon="12.645229"><ele>247.5714285714286</ele><time>2026-04-11T08:17:21.939Z</time></trkpt><trkpt lat="43.8721768" lon="12.6452005"><ele>246.00000000000003</ele><time>2026-04-11T08:17:22.946Z</time></trkpt><trkpt lat="43.8722563" lon="12.6451815"><ele>246.0</ele><time>2026-04-11T08:17:23.941Z</time></trkpt><trkpt lat="43.8723399" lon="12.6451615"><ele>246.0</ele><time>2026-04-11T08:17:24.944Z</time></trkpt><trkpt lat="43.8724239" lon="12.6451398"><ele>246.0</ele><time>2026-04-11T08:17:25.937Z</time></trkpt><trkpt lat="43.8725027" lon="12.6451119"><ele>246.0</ele><time>2026-04-11T08:17:26.944Z</time></trkpt><trkpt lat="43.8725873" lon="12.6450903"><ele>246.0</ele><time>2026-04-11T08:17:27.941Z</time></trkpt><trkpt lat="43.8726628" lon="12.6450548"><ele>246.0</ele><time>2026-04-11T08:17:28.935Z</time></trkpt><trkpt lat="43.8727358" lon="12.6450182"><ele>244.71428571428575</ele><time>2026-04-11T08:17:29.943Z</time></trkpt><trkpt lat="43.872805" lon="12.6449834"><ele>243.42857142857144</ele><time>2026-04-11T08:17:30.937Z</time></trkpt><trkpt lat="43.8728722" lon="12.6449418"><ele>242.14285714285714</ele><time>2026-04-11T08:17:31.941Z</time></trkpt><trkpt lat="43.8729319" lon="12.6448925"><ele>240.85714285714286</ele><time>2026-04-11T08:17:32.94Z</time></trkpt><trkpt lat="43.872985" lon="12.6448386"><ele>239.57142857142856</ele><time>2026-04-11T08:17:33.936Z</time></trkpt><trkpt lat="43.8730305" lon="12.6447764"><ele>238.28571428571425</ele><time>2026-04-11T08:17:34.937Z</time></trkpt><trkpt lat="43.873074" lon="12.6446943"><ele>236.99999999999997</ele><time>2026-04-11T08:17:35.936Z</time></trkpt><trkpt lat="43.8731049" lon="12.6445919"><ele>237.0</ele><time>2026-04-11T08:17:36.936Z</time></trkpt><trkpt lat="43.8731358" lon="12.6444886"><ele>237.0</ele><time>2026-04-11T08:17:37.937Z</time></trkpt><trkpt lat="43.8731669" lon="12.6443708"><ele>237.0</ele><time>2026-04-11T08:17:38.936Z</time></trkpt><trkpt lat="43.8732154" lon="12.6442619"><ele>237.0</ele><time>2026-04-11T08:17:39.939Z</time></trkpt><trkpt lat="43.8732517" lon="12.6441453"><ele>237.0</ele><time>2026-04-11T08:17:40.935Z</time></trkpt><trkpt lat="43.8732867" lon="12.6440244"><ele>237.0</ele><time>2026-04-11T08:17:41.944Z</time></trkpt><trkpt lat="43.8733246" lon="12.6439129"><ele>237.0</ele><time>2026-04-11T08:17:42.943Z</time></trkpt><trkpt lat="43.8733523" lon="12.6437962"><ele>237.0</ele><time>2026-04-11T08:17:43.942Z</time></trkpt><trkpt lat="43.8733851" lon="12.6436841"><ele>237.0</ele><time>2026-04-11T08:17:44.942Z</time></trkpt><trkpt lat="43.8734207" lon="12.6435862"><ele>237.0</ele><time>2026-04-11T08:17:45.937Z</time></trkpt><trkpt lat="43.8734524" lon="12.6435006"><ele>237.0</ele><time>2026-04-11T08:17:46.935Z</time></trkpt><trkpt lat="43.873511" lon="12.6434156"><ele>237.0</ele><time>2026-04-11T08:17:48.944Z</time></trkpt><trkpt lat="43.8735701" lon="12.6433663"><ele>233.83333333333334</ele><time>2026-04-11T08:17:50.939Z</time></trkpt><trkpt lat="43.873637" lon="12.6433283"><ele>230.66666666666669</ele><time>2026-04-11T08:17:52.94Z</time></trkpt><trkpt lat="43.8737078" lon="12.6432777"><ele>227.5</ele><time>2026-04-11T08:17:54.941Z</time></trkpt><trkpt lat="43.8737784" lon="12.6432239"><ele>224.33333333333334</ele><time>2026-04-11T08:17:56.939Z</time></trkpt><trkpt lat="43.8738489" lon="12.6431503"><ele>221.16666666666669</ele><time>2026-04-11T08:17:58.943Z</time></trkpt><trkpt lat="43.8739308" lon="12.6430634"><ele>218.0</ele><time>2026-04-11T08:18:00.941Z</time></trkpt><trkpt lat="43.8740169" lon="12.64296"><ele>218.0</ele><time>2026-04-11T08:18:02.934Z</time></trkpt><trkpt lat="43.8740987" lon="12.6428557"><ele>218.0</ele><time>2026-04-11T08:18:04.941Z</time></trkpt><trkpt lat="43.8741566" lon="12.6428076"><ele>218.0</ele><time>2026-04-11T08:18:05.941Z</time></trkpt><trkpt lat="43.8742454" lon="12.6427122"><ele>218.0</ele><time>2026-04-11T08:18:07.941Z</time></trkpt><trkpt lat="43.8743388" lon="12.642632"><ele>218.0</ele><time>2026-04-11T08:18:09.945Z</time></trkpt><trkpt lat="43.874419" lon="12.6425346"><ele>213.60000000000002</ele><time>2026-04-11T08:18:11.94Z</time></trkpt><trkpt lat="43.8744834" lon="12.6424202"><ele>209.20000000000002</ele><time>2026-04-11T08:18:13.948Z</time></trkpt><trkpt lat="43.8744984" lon="12.6422857"><ele>204.8</ele><time>2026-04-11T08:18:15.938Z</time></trkpt><trkpt lat="43.8744813" lon="12.6421219"><ele>200.4</ele><time>2026-04-11T08:18:17.943Z</time></trkpt><trkpt lat="43.8744617" lon="12.6419804"><ele>196.0</ele><time>2026-04-11T08:18:19.938Z</time></trkpt><trkpt lat="43.8744506" lon="12.6418272"><ele>198.0</ele><time>2026-04-11T08:18:21.944Z</time></trkpt><trkpt lat="43.8744196" lon="12.6416869"><ele>200.0</ele><time>2026-04-11T08:18:23.931Z</time></trkpt><trkpt lat="43.8743413" lon="12.6416026"><ele>202.0</ele><time>2026-04-11T08:18:25.938Z</time></trkpt><trkpt lat="43.8742577" lon="12.6415579"><ele>204.0</ele><time>2026-04-11T08:18:27.95Z</time></trkpt><trkpt lat="43.8741637" lon="12.6415595"><ele>206.0</ele><time>2026-04-11T08:18:29.943Z</time></trkpt><trkpt lat="43.8740905" lon="12.6415985"><ele>206.00000000000003</ele><time>2026-04-11T08:18:31.937Z</time></trkpt><trkpt lat="43.8740189" lon="12.6416354"><ele>206.0</ele><time>2026-04-11T08:18:33.937Z</time></trkpt><trkpt lat="43.8739493" lon="12.6416101"><ele>206.0</ele><time>2026-04-11T08:18:35.937Z</time></trkpt><trkpt lat="43.8739242" lon="12.6415218"><ele>206.0</ele><time>2026-04-11T08:18:37.938Z</time></trkpt><trkpt lat="43.8739942" lon="12.6414371"><ele>206.00000000000003</ele><time>2026-04-11T08:18:40.938Z</time></trkpt><trkpt lat="43.8740463" lon="12.6413824"><ele>206.0</ele><time>2026-04-11T08:18:42.932Z</time></trkpt><trkpt lat="43.8741262" lon="12.6413194"><ele>206.00000000000003</ele><time>2026-04-11T08:18:45.941Z</time></trkpt><trkpt lat="43.8741892" lon="12.6412643"><ele>206.0</ele><time>2026-04-11T08:18:48.939Z</time></trkpt><trkpt lat="43.8742836" lon="12.6412323"><ele>206.0</ele><time>2026-04-11T08:18:51.937Z</time></trkpt><trkpt lat="43.874351" lon="12.6412062"><ele>206.0</ele><time>2026-04-11T08:18:52.938Z</time></trkpt><trkpt lat="43.8744548" lon="12.6411749"><ele>206.00000000000003</ele><time>2026-04-11T08:18:54.936Z</time></trkpt><trkpt lat="43.8745329" lon="12.6411519"><ele>206.0</ele><time>2026-04-11T08:18:56.939Z</time></trkpt><trkpt lat="43.8745958" lon="12.6411771"><ele>201.4</ele><time>2026-04-11T08:18:58.944Z</time></trkpt><trkpt lat="43.8746369" lon="12.6412762"><ele>196.8</ele><time>2026-04-11T08:19:00.937Z</time></trkpt><trkpt lat="43.8746826" lon="12.6413868"><ele>192.20000000000002</ele><time>2026-04-11T08:19:02.941Z</time></trkpt><trkpt lat="43.8747543" lon="12.6414903"><ele>187.60000000000002</ele><time>2026-04-11T08:19:04.942Z</time></trkpt><trkpt lat="43.8748476" lon="12.6416204"><ele>183.0</ele><time>2026-04-11T08:19:06.945Z</time></trkpt><trkpt lat="43.8749351" lon="12.6417441"><ele>183.0</ele><time>2026-04-11T08:19:08.946Z</time></trkpt><trkpt lat="43.8750198" lon="12.6418752"><ele>183.0</ele><time>2026-04-11T08:19:10.941Z</time></trkpt><trkpt lat="43.8750923" lon="12.6419716"><ele>183.0</ele><time>2026-04-11T08:19:12.937Z</time></trkpt><trkpt lat="43.8751726" lon="12.6420192"><ele>183.0</ele><time>2026-04-11T08:19:14.947Z</time></trkpt><trkpt lat="43.8752326" lon="12.6420507"><ele>183.0</ele><time>2026-04-11T08:19:15.94Z</time></trkpt><trkpt lat="43.8753437" lon="12.642099"><ele>178.16666666666666</ele><time>2026-04-11T08:19:17.936Z</time></trkpt><trkpt lat="43.8754188" lon="12.6422007"><ele>173.33333333333334</ele><time>2026-04-11T08:19:19.94Z</time></trkpt><trkpt lat="43.8754502" lon="12.6422767"><ele>168.5</ele><time>2026-04-11T08:19:20.938Z</time></trkpt><trkpt lat="43.8754953" lon="12.6423734"><ele>163.66666666666669</ele><time>2026-04-11T08:19:21.942Z</time></trkpt><trkpt lat="43.8755256" lon="12.6424599"><ele>158.83333333333334</ele><time>2026-04-11T08:19:22.935Z</time></trkpt><trkpt lat="43.8755423" lon="12.6425468"><ele>154.0</ele><time>2026-04-11T08:19:23.943Z</time></trkpt><trkpt lat="43.8755608" lon="12.6426398"><ele>154.0</ele><time>2026-04-11T08:19:24.939Z</time></trkpt><trkpt lat="43.87558" lon="12.6427256"><ele>154.0</ele><time>2026-04-11T08:19:25.942Z</time></trkpt><trkpt lat="43.8755944" lon="12.6428874"><ele>154.0</ele><time>2026-04-11T08:19:27.936Z</time></trkpt><trkpt lat="43.8755905" lon="12.6429762"><ele>154.0</ele><time>2026-04-11T08:19:28.946Z</time></trkpt><trkpt lat="43.8755791" lon="12.6431421"><ele>154.0</ele><time>2026-04-11T08:19:30.935Z</time></trkpt><trkpt lat="43.8755745" lon="12.6432844"><ele>154.2</ele><time>2026-04-11T08:19:32.945Z</time></trkpt><trkpt lat="43.8755874" lon="12.6434284"><ele>154.4</ele><time>2026-04-11T08:19:34.941Z</time></trkpt><trkpt lat="43.8756267" lon="12.6435816"><ele>154.6</ele><time>2026-04-11T08:19:36.94Z</time></trkpt><trkpt lat="43.8756933" lon="12.6436989"><ele>154.8</ele><time>2026-04-11T08:19:38.942Z</time></trkpt><trkpt lat="43.8757918" lon="12.6437712"><ele>155.0</ele><time>2026-04-11T08:19:40.945Z</time></trkpt><trkpt lat="43.8758899" lon="12.6438031"><ele>148.0</ele><time>2026-04-11T08:19:42.94Z</time></trkpt><trkpt lat="43.8759702" lon="12.6437694"><ele>141.0</ele><time>2026-04-11T08:19:44.937Z</time></trkpt><trkpt lat="43.8760361" lon="12.6437164"><ele>134.0</ele><time>2026-04-11T08:19:46.939Z</time></trkpt><trkpt lat="43.8761044" lon="12.6436322"><ele>127.0</ele><time>2026-04-11T08:19:48.938Z</time></trkpt><trkpt lat="43.8761262" lon="12.6434777"><ele>120.0</ele><time>2026-04-11T08:19:50.938Z</time></trkpt><trkpt lat="43.8761473" lon="12.6433077"><ele>120.0</ele><time>2026-04-11T08:19:52.942Z</time></trkpt><trkpt lat="43.8761708" lon="12.6432234"><ele>120.0</ele><time>2026-04-11T08:19:53.936Z</time></trkpt><trkpt lat="43.8761959" lon="12.6431411"><ele>120.0</ele><time>2026-04-11T08:19:54.943Z</time></trkpt><trkpt lat="43.8762529" lon="12.6430207"><ele>120.0</ele><time>2026-04-11T08:19:56.936Z</time></trkpt><trkpt lat="43.8762546" lon="12.6428755"><ele>120.0</ele><time>2026-04-11T08:19:58.944Z</time></trkpt><trkpt lat="43.8762361" lon="12.6427069"><ele>119.2</ele><time>2026-04-11T08:20:00.933Z</time></trkpt><trkpt lat="43.8762051" lon="12.6425671"><ele>118.4</ele><time>2026-04-11T08:20:02.94Z</time></trkpt><trkpt lat="43.8761829" lon="12.6424246"><ele>117.6</ele><time>2026-04-11T08:20:04.945Z</time></trkpt><trkpt lat="43.876206" lon="12.6422883"><ele>116.8</ele><time>2026-04-11T08:20:06.941Z</time></trkpt><trkpt lat="43.8762729" lon="12.6422402"><ele>116.0</ele><time>2026-04-11T08:20:09.934Z</time></trkpt><trkpt lat="43.8763267" lon="12.6423458"><ele>115.99999999999999</ele><time>2026-04-11T08:20:12.936Z</time></trkpt><trkpt lat="43.8763423" lon="12.6424477"><ele>116.0</ele><time>2026-04-11T08:20:14.935Z</time></trkpt><trkpt lat="43.8763787" lon="12.6425865"><ele>116.0</ele><time>2026-04-11T08:20:16.938Z</time></trkpt><trkpt lat="43.8764414" lon="12.642641"><ele>116.0</ele><time>2026-04-11T08:20:17.937Z</time></trkpt><trkpt lat="43.8764886" lon="12.6427026"><ele>115.99999999999999</ele><time>2026-04-11T08:20:18.937Z</time></trkpt><trkpt lat="43.8765821" lon="12.642799"><ele>116.0</ele><time>2026-04-11T08:20:20.943Z</time></trkpt><trkpt lat="43.8766397" lon="12.6428475"><ele>116.66666666666666</ele><time>2026-04-11T08:20:21.938Z</time></trkpt><trkpt lat="43.8766935" lon="12.6428942"><ele>117.33333333333333</ele><time>2026-04-11T08:20:22.936Z</time></trkpt><trkpt lat="43.8767887" lon="12.6430177"><ele>118.0</ele><time>2026-04-11T08:20:24.934Z</time></trkpt><trkpt lat="43.8768426" lon="12.6430672"><ele>118.66666666666666</ele><time>2026-04-11T08:20:25.938Z</time></trkpt><trkpt lat="43.8768946" lon="12.6431233"><ele>119.33333333333333</ele><time>2026-04-11T08:20:26.941Z</time></trkpt><trkpt lat="43.8769606" lon="12.6431903"><ele>120.0</ele><time>2026-04-11T08:20:28.94Z</time></trkpt><trkpt lat="43.8769723" lon="12.6430786"><ele>119.2</ele><time>2026-04-11T08:20:38.937Z</time></trkpt><trkpt lat="43.8769332" lon="12.6429908"><ele>118.4</ele><time>2026-04-11T08:20:40.945Z</time></trkpt><trkpt lat="43.8768687" lon="12.6429282"><ele>117.6</ele><time>2026-04-11T08:20:41.933Z</time></trkpt><trkpt lat="43.8767991" lon="12.6427979"><ele>116.8</ele><time>2026-04-11T08:20:43.943Z</time></trkpt><trkpt lat="43.8767568" lon="12.6426646"><ele>116.0</ele><time>2026-04-11T08:20:45.939Z</time></trkpt><trkpt lat="43.8767501" lon="12.6425581"><ele>115.99999999999999</ele><time>2026-04-11T08:20:47.933Z</time></trkpt><trkpt lat="43.8767273" lon="12.6424346"><ele>116.0</ele><time>2026-04-11T08:20:49.937Z</time></trkpt><trkpt lat="43.8766967" lon="12.6423009"><ele>116.0</ele><time>2026-04-11T08:20:51.938Z</time></trkpt><trkpt lat="43.8766682" lon="12.6422197"><ele>116.0</ele><time>2026-04-11T08:20:52.939Z</time></trkpt><trkpt lat="43.8766367" lon="12.6421395"><ele>115.99999999999999</ele><time>2026-04-11T08:20:53.936Z</time></trkpt><trkpt lat="43.8766107" lon="12.6420553"><ele>116.0</ele><time>2026-04-11T08:20:54.938Z</time></trkpt><trkpt lat="43.8765819" lon="12.6419751"><ele>115.33333333333333</ele><time>2026-04-11T08:20:55.946Z</time></trkpt><trkpt lat="43.8765544" lon="12.6418803"><ele>114.66666666666666</ele><time>2026-04-11T08:20:56.945Z</time></trkpt><trkpt lat="43.8765213" lon="12.6417907"><ele>114.0</ele><time>2026-04-11T08:20:57.947Z</time></trkpt><trkpt lat="43.8764594" lon="12.6416957"><ele>113.33333333333334</ele><time>2026-04-11T08:20:58.945Z</time></trkpt><trkpt lat="43.8763981" lon="12.641619"><ele>112.66666666666667</ele><time>2026-04-11T08:20:59.936Z</time></trkpt><trkpt lat="43.8763287" lon="12.6415458"><ele>112.0</ele><time>2026-04-11T08:21:00.946Z</time></trkpt><trkpt lat="43.8762799" lon="12.6414675"><ele>112.00000000000001</ele><time>2026-04-11T08:21:01.936Z</time></trkpt><trkpt lat="43.8762098" lon="12.6413851"><ele>112.0</ele><time>2026-04-11T08:21:02.936Z</time></trkpt><trkpt lat="43.8761576" lon="12.6412934"><ele>112.0</ele><time>2026-04-11T08:21:03.937Z</time></trkpt><trkpt lat="43.8760956" lon="12.6412126"><ele>112.0</ele><time>2026-04-11T08:21:04.937Z</time></trkpt><trkpt lat="43.8760545" lon="12.6411273"><ele>112.00000000000001</ele><time>2026-04-11T08:21:05.942Z</time></trkpt><trkpt lat="43.8760004" lon="12.6410283"><ele>112.0</ele><time>2026-04-11T08:21:06.938Z</time></trkpt><trkpt lat="43.8759623" lon="12.640929"><ele>112.85714285714286</ele><time>2026-04-11T08:21:07.931Z</time></trkpt><trkpt lat="43.8759238" lon="12.6408414"><ele>113.71428571428572</ele><time>2026-04-11T08:21:08.948Z</time></trkpt><trkpt lat="43.8758785" lon="12.6407546"><ele>114.57142857142857</ele><time>2026-04-11T08:21:09.939Z</time></trkpt><trkpt lat="43.8758401" lon="12.6406833"><ele>115.42857142857143</ele><time>2026-04-11T08:21:10.945Z</time></trkpt><trkpt lat="43.8758034" lon="12.6406013"><ele>116.28571428571429</ele><time>2026-04-11T08:21:11.939Z</time></trkpt><trkpt lat="43.8757725" lon="12.6405202"><ele>117.14285714285714</ele><time>2026-04-11T08:21:12.934Z</time></trkpt><trkpt lat="43.8757389" lon="12.6404232"><ele>118.0</ele><time>2026-04-11T08:21:13.941Z</time></trkpt><trkpt lat="43.8757102" lon="12.6403227"><ele>117.00000000000001</ele><time>2026-04-11T08:21:14.945Z</time></trkpt><trkpt lat="43.875673" lon="12.6402278"><ele>116.0</ele><time>2026-04-11T08:21:15.939Z</time></trkpt><trkpt lat="43.8756295" lon="12.640125"><ele>115.0</ele><time>2026-04-11T08:21:16.944Z</time></trkpt><trkpt lat="43.8755758" lon="12.6400323"><ele>114.0</ele><time>2026-04-11T08:21:17.939Z</time></trkpt><trkpt lat="43.875527" lon="12.6399375"><ele>113.00000000000001</ele><time>2026-04-11T08:21:18.941Z</time></trkpt><trkpt lat="43.8754795" lon="12.6398498"><ele>112.0</ele><time>2026-04-11T08:21:19.946Z</time></trkpt><trkpt lat="43.8754116" lon="12.6397587"><ele>112.00000000000001</ele><time>2026-04-11T08:21:20.942Z</time></trkpt><trkpt lat="43.8753494" lon="12.6396615"><ele>112.0</ele><time>2026-04-11T08:21:21.936Z</time></trkpt><trkpt lat="43.8752844" lon="12.6395939"><ele>112.0</ele><time>2026-04-11T08:21:22.946Z</time></trkpt><trkpt lat="43.8752189" lon="12.6394811"><ele>112.0</ele><time>2026-04-11T08:21:23.941Z</time></trkpt><trkpt lat="43.8751722" lon="12.6393907"><ele>112.00000000000001</ele><time>2026-04-11T08:21:24.943Z</time></trkpt><trkpt lat="43.8751208" lon="12.6393054"><ele>112.0</ele><time>2026-04-11T08:21:25.939Z</time></trkpt><trkpt lat="43.8750628" lon="12.6392125"><ele>113.19999999999999</ele><time>2026-04-11T08:21:26.935Z</time></trkpt><trkpt lat="43.8750018" lon="12.6391228"><ele>114.39999999999999</ele><time>2026-04-11T08:21:27.941Z</time></trkpt><trkpt lat="43.8749372" lon="12.6390276"><ele>115.60000000000001</ele><time>2026-04-11T08:21:28.936Z</time></trkpt><trkpt lat="43.8748794" lon="12.6389363"><ele>116.80000000000001</ele><time>2026-04-11T08:21:29.943Z</time></trkpt><trkpt lat="43.8748158" lon="12.6388521"><ele>118.0</ele><time>2026-04-11T08:21:30.937Z</time></trkpt><trkpt lat="43.8747478" lon="12.6387661"><ele>118.0</ele><time>2026-04-11T08:21:31.937Z</time></trkpt><trkpt lat="43.8746621" lon="12.6386964"><ele>118.00000000000001</ele><time>2026-04-11T08:21:32.938Z</time></trkpt><trkpt lat="43.8745759" lon="12.6386445"><ele>118.00000000000001</ele><time>2026-04-11T08:21:33.937Z</time></trkpt><trkpt lat="43.8744788" lon="12.6385972"><ele>118.0</ele><time>2026-04-11T08:21:34.941Z</time></trkpt><trkpt lat="43.8743958" lon="12.6385482"><ele>118.0</ele><time>2026-04-11T08:21:35.939Z</time></trkpt><trkpt lat="43.874309" lon="12.6384773"><ele>117.75</ele><time>2026-04-11T08:21:36.937Z</time></trkpt><trkpt lat="43.8742175" lon="12.6383939"><ele>117.5</ele><time>2026-04-11T08:21:37.937Z</time></trkpt><trkpt lat="43.8741148" lon="12.6383063"><ele>117.25</ele><time>2026-04-11T08:21:38.936Z</time></trkpt><trkpt lat="43.8740308" lon="12.6382174"><ele>117.0</ele><time>2026-04-11T08:21:39.938Z</time></trkpt><trkpt lat="43.8739234" lon="12.6381364"><ele>117.0</ele><time>2026-04-11T08:21:40.94Z</time></trkpt><trkpt lat="43.8738242" lon="12.6380396"><ele>117.0</ele><time>2026-04-11T08:21:41.933Z</time></trkpt><trkpt lat="43.8737343" lon="12.6379175"><ele>117.0</ele><time>2026-04-11T08:21:42.943Z</time></trkpt><trkpt lat="43.8736484" lon="12.6377874"><ele>117.0</ele><time>2026-04-11T08:21:43.949Z</time></trkpt><trkpt lat="43.8735576" lon="12.6376412"><ele>117.75</ele><time>2026-04-11T08:21:44.939Z</time></trkpt><trkpt lat="43.8734658" lon="12.6374996"><ele>118.5</ele><time>2026-04-11T08:21:45.939Z</time></trkpt><trkpt lat="43.873369" lon="12.6373574"><ele>119.25</ele><time>2026-04-11T08:21:46.938Z</time></trkpt><trkpt lat="43.873273" lon="12.6372101"><ele>120.0</ele><time>2026-04-11T08:21:47.936Z</time></trkpt><trkpt lat="43.873176" lon="12.6370623"><ele>119.5</ele><time>2026-04-11T08:21:48.94Z</time></trkpt><trkpt lat="43.8730951" lon="12.6369085"><ele>119.0</ele><time>2026-04-11T08:21:49.935Z</time></trkpt><trkpt lat="43.8730089" lon="12.6367554"><ele>118.5</ele><time>2026-04-11T08:21:50.941Z</time></trkpt><trkpt lat="43.8729256" lon="12.6365903"><ele>118.0</ele><time>2026-04-11T08:21:51.936Z</time></trkpt><trkpt lat="43.872843" lon="12.6364316"><ele>118.0</ele><time>2026-04-11T08:21:52.942Z</time></trkpt><trkpt lat="43.8727696" lon="12.6362693"><ele>118.0</ele><time>2026-04-11T08:21:53.935Z</time></trkpt><trkpt lat="43.8727042" lon="12.6361145"><ele>118.0</ele><time>2026-04-11T08:21:54.939Z</time></trkpt><trkpt lat="43.8726526" lon="12.635974"><ele>118.0</ele><time>2026-04-11T08:21:55.934Z</time></trkpt><trkpt lat="43.8726068" lon="12.6358483"><ele>118.0</ele><time>2026-04-11T08:21:56.942Z</time></trkpt><trkpt lat="43.8725554" lon="12.6357208"><ele>118.00000000000001</ele><time>2026-04-11T08:21:57.944Z</time></trkpt><trkpt lat="43.8725042" lon="12.6355956"><ele>118.00000000000001</ele><time>2026-04-11T08:21:58.938Z</time></trkpt><trkpt lat="43.8724457" lon="12.6354758"><ele>118.0</ele><time>2026-04-11T08:21:59.94Z</time></trkpt><trkpt lat="43.8723897" lon="12.6353567"><ele>118.0</ele><time>2026-04-11T08:22:00.942Z</time></trkpt><trkpt lat="43.8723346" lon="12.6352535"><ele>118.00000000000001</ele><time>2026-04-11T08:22:01.936Z</time></trkpt><trkpt lat="43.8722782" lon="12.6351546"><ele>118.0</ele><time>2026-04-11T08:22:02.943Z</time></trkpt><trkpt lat="43.8722176" lon="12.635053"><ele>118.0</ele><time>2026-04-11T08:22:03.944Z</time></trkpt><trkpt lat="43.8721577" lon="12.6349846"><ele>118.0</ele><time>2026-04-11T08:22:04.936Z</time></trkpt><trkpt lat="43.8720819" lon="12.6348998"><ele>118.00000000000001</ele><time>2026-04-11T08:22:05.944Z</time></trkpt><trkpt lat="43.8720109" lon="12.6348428"><ele>118.0</ele><time>2026-04-11T08:22:06.94Z</time></trkpt><trkpt lat="43.8719322" lon="12.6347857"><ele>118.00000000000001</ele><time>2026-04-11T08:22:07.945Z</time></trkpt><trkpt lat="43.8718601" lon="12.6347255"><ele>118.0</ele><time>2026-04-11T08:22:08.942Z</time></trkpt><trkpt lat="43.8718003" lon="12.6346743"><ele>118.0</ele><time>2026-04-11T08:22:09.945Z</time></trkpt><trkpt lat="43.8717408" lon="12.6346228"><ele>118.0</ele><time>2026-04-11T08:22:10.944Z</time></trkpt><trkpt lat="43.8716461" lon="12.6345419"><ele>118.00000000000001</ele><time>2026-04-11T08:22:12.937Z</time></trkpt><trkpt lat="43.8715626" lon="12.6344408"><ele>118.0</ele><time>2026-04-11T08:22:14.939Z</time></trkpt><trkpt lat="43.8715019" lon="12.6343718"><ele>118.50000000000001</ele><time>2026-04-11T08:22:15.947Z</time></trkpt><trkpt lat="43.8714502" lon="12.6343124"><ele>119.0</ele><time>2026-04-11T08:22:16.942Z</time></trkpt><trkpt lat="43.8713835" lon="12.6342423"><ele>119.5</ele><time>2026-04-11T08:22:17.933Z</time></trkpt><trkpt lat="43.8713186" lon="12.6341489"><ele>120.0</ele><time>2026-04-11T08:22:18.942Z</time></trkpt><trkpt lat="43.8712564" lon="12.6340642"><ele>120.50000000000001</ele><time>2026-04-11T08:22:19.943Z</time></trkpt><trkpt lat="43.8711766" lon="12.6339731"><ele>121.0</ele><time>2026-04-11T08:22:20.943Z</time></trkpt><trkpt lat="43.8711006" lon="12.6338871"><ele>121.0</ele><time>2026-04-11T08:22:21.931Z</time></trkpt><trkpt lat="43.8710215" lon="12.6337977"><ele>121.0</ele><time>2026-04-11T08:22:22.942Z</time></trkpt><trkpt lat="43.87094" lon="12.6337113"><ele>121.0</ele><time>2026-04-11T08:22:23.947Z</time></trkpt><trkpt lat="43.8708506" lon="12.6336194"><ele>121.0</ele><time>2026-04-11T08:22:24.938Z</time></trkpt><trkpt lat="43.8707746" lon="12.6335396"><ele>121.0</ele><time>2026-04-11T08:22:25.938Z</time></trkpt><trkpt lat="43.8707058" lon="12.6334484"><ele>121.50000000000001</ele><time>2026-04-11T08:22:26.943Z</time></trkpt><trkpt lat="43.8706446" lon="12.6333584"><ele>122.0</ele><time>2026-04-11T08:22:27.937Z</time></trkpt><trkpt lat="43.8705988" lon="12.633272"><ele>122.5</ele><time>2026-04-11T08:22:28.94Z</time></trkpt><trkpt lat="43.870554" lon="12.6331852"><ele>123.0</ele><time>2026-04-11T08:22:29.941Z</time></trkpt><trkpt lat="43.8705178" lon="12.6330676"><ele>123.50000000000001</ele><time>2026-04-11T08:22:30.937Z</time></trkpt><trkpt lat="43.870486" lon="12.6329518"><ele>124.0</ele><time>2026-04-11T08:22:31.941Z</time></trkpt><trkpt lat="43.8704468" lon="12.6328276"><ele>124.80000000000001</ele><time>2026-04-11T08:22:32.935Z</time></trkpt><trkpt lat="43.8704077" lon="12.6327055"><ele>125.60000000000001</ele><time>2026-04-11T08:22:33.932Z</time></trkpt><trkpt lat="43.8703678" lon="12.6325781"><ele>126.4</ele><time>2026-04-11T08:22:34.94Z</time></trkpt><trkpt lat="43.8703258" lon="12.6324433"><ele>127.2</ele><time>2026-04-11T08:22:35.944Z</time></trkpt><trkpt lat="43.8702909" lon="12.632325"><ele>128.0</ele><time>2026-04-11T08:22:36.944Z</time></trkpt><trkpt lat="43.8702465" lon="12.6322152"><ele>128.0</ele><time>2026-04-11T08:22:37.935Z</time></trkpt><trkpt lat="43.8702101" lon="12.6320884"><ele>128.0</ele><time>2026-04-11T08:22:38.941Z</time></trkpt><trkpt lat="43.8701639" lon="12.6319688"><ele>128.0</ele><time>2026-04-11T08:22:39.941Z</time></trkpt><trkpt lat="43.8701312" lon="12.6318578"><ele>128.0</ele><time>2026-04-11T08:22:40.934Z</time></trkpt><trkpt lat="43.8700863" lon="12.6317201"><ele>128.0</ele><time>2026-04-11T08:22:41.943Z</time></trkpt><trkpt lat="43.8700479" lon="12.6315794"><ele>128.0</ele><time>2026-04-11T08:22:42.941Z</time></trkpt><trkpt lat="43.8700028" lon="12.6314391"><ele>128.0</ele><time>2026-04-11T08:22:43.937Z</time></trkpt><trkpt lat="43.8699647" lon="12.6313215"><ele>128.0</ele><time>2026-04-11T08:22:44.94Z</time></trkpt><trkpt lat="43.8699247" lon="12.6312015"><ele>128.0</ele><time>2026-04-11T08:22:45.938Z</time></trkpt><trkpt lat="43.869883" lon="12.6310788"><ele>128.0</ele><time>2026-04-11T08:22:46.934Z</time></trkpt><trkpt lat="43.8698425" lon="12.6309556"><ele>128.0</ele><time>2026-04-11T08:22:47.935Z</time></trkpt><trkpt lat="43.8698009" lon="12.6308328"><ele>128.0</ele><time>2026-04-11T08:22:48.941Z</time></trkpt><trkpt lat="43.8697617" lon="12.6307031"><ele>128.0</ele><time>2026-04-11T08:22:49.936Z</time></trkpt><trkpt lat="43.8697217" lon="12.6305767"><ele>128.0</ele><time>2026-04-11T08:22:50.935Z</time></trkpt><trkpt lat="43.8696845" lon="12.6304481"><ele>128.0</ele><time>2026-04-11T08:22:51.935Z</time></trkpt><trkpt lat="43.8696496" lon="12.6303167"><ele>128.6</ele><time>2026-04-11T08:22:52.937Z</time></trkpt><trkpt lat="43.8696089" lon="12.6301847"><ele>129.20000000000002</ele><time>2026-04-11T08:22:53.936Z</time></trkpt><trkpt lat="43.869559" lon="12.6300576"><ele>129.8</ele><time>2026-04-11T08:22:54.941Z</time></trkpt><trkpt lat="43.8695103" lon="12.6299401"><ele>130.4</ele><time>2026-04-11T08:22:55.943Z</time></trkpt><trkpt lat="43.8694502" lon="12.6298385"><ele>131.0</ele><time>2026-04-11T08:22:56.942Z</time></trkpt><trkpt lat="43.8693892" lon="12.629729"><ele>131.0</ele><time>2026-04-11T08:22:57.936Z</time></trkpt><trkpt lat="43.8693321" lon="12.6296051"><ele>131.0</ele><time>2026-04-11T08:22:58.937Z</time></trkpt><trkpt lat="43.8692775" lon="12.629485"><ele>131.0</ele><time>2026-04-11T08:22:59.938Z</time></trkpt><trkpt lat="43.86923" lon="12.6293833"><ele>131.0</ele><time>2026-04-11T08:23:00.94Z</time></trkpt><trkpt lat="43.8691894" lon="12.6292893"><ele>131.0</ele><time>2026-04-11T08:23:01.943Z</time></trkpt><trkpt lat="43.8691493" lon="12.6292071"><ele>131.0</ele><time>2026-04-11T08:23:02.943Z</time></trkpt><trkpt lat="43.8690688" lon="12.6291164"><ele>130.0</ele><time>2026-04-11T08:23:04.937Z</time></trkpt><trkpt lat="43.8689719" lon="12.6291071"><ele>129.0</ele><time>2026-04-11T08:23:07.938Z</time></trkpt><trkpt lat="43.8688729" lon="12.6291423"><ele>128.0</ele><time>2026-04-11T08:23:09.94Z</time></trkpt><trkpt lat="43.8687515" lon="12.6291965"><ele>127.0</ele><time>2026-04-11T08:23:11.937Z</time></trkpt><trkpt lat="43.8686844" lon="12.6292227"><ele>126.0</ele><time>2026-04-11T08:23:12.944Z</time></trkpt><trkpt lat="43.8686174" lon="12.6292532"><ele>126.0</ele><time>2026-04-11T08:23:13.944Z</time></trkpt><trkpt lat="43.8685433" lon="12.6292796"><ele>126.0</ele><time>2026-04-11T08:23:14.936Z</time></trkpt><trkpt lat="43.868474" lon="12.6293111"><ele>126.0</ele><time>2026-04-11T08:23:15.936Z</time></trkpt><trkpt lat="43.8684013" lon="12.6293241"><ele>126.0</ele><time>2026-04-11T08:23:16.94Z</time></trkpt><trkpt lat="43.8683306" lon="12.6293516"><ele>126.0</ele><time>2026-04-11T08:23:17.939Z</time></trkpt><trkpt lat="43.8682103" lon="12.6293679"><ele>126.0</ele><time>2026-04-11T08:23:19.94Z</time></trkpt><trkpt lat="43.8681141" lon="12.6293743"><ele>126.4</ele><time>2026-04-11T08:23:21.933Z</time></trkpt><trkpt lat="43.8680015" lon="12.6293609"><ele>126.8</ele><time>2026-04-11T08:23:23.939Z</time></trkpt><trkpt lat="43.867884" lon="12.6293444"><ele>127.20000000000002</ele><time>2026-04-11T08:23:25.939Z</time></trkpt><trkpt lat="43.8677934" lon="12.6292944"><ele>127.60000000000001</ele><time>2026-04-11T08:23:27.944Z</time></trkpt><trkpt lat="43.8677139" lon="12.6292327"><ele>128.0</ele><time>2026-04-11T08:23:29.938Z</time></trkpt><trkpt lat="43.8676278" lon="12.6291951"><ele>128.0</ele><time>2026-04-11T08:23:31.943Z</time></trkpt><trkpt lat="43.8675522" lon="12.6291551"><ele>128.0</ele><time>2026-04-11T08:23:33.932Z</time></trkpt><trkpt lat="43.8674817" lon="12.6291256"><ele>128.0</ele><time>2026-04-11T08:24:39.938Z</time></trkpt><trkpt lat="43.8674193" lon="12.6290871"><ele>128.0</ele><time>2026-04-11T08:24:41.933Z</time></trkpt><trkpt lat="43.8673237" lon="12.6289916"><ele>128.0</ele><time>2026-04-11T08:24:43.934Z</time></trkpt><trkpt lat="43.8672422" lon="12.6288835"><ele>128.0</ele><time>2026-04-11T08:24:45.935Z</time></trkpt><trkpt lat="43.8671633" lon="12.6288076"><ele>128.0</ele><time>2026-04-11T08:24:47.936Z</time></trkpt><trkpt lat="43.8670776" lon="12.628812"><ele>128.0</ele><time>2026-04-11T08:24:49.931Z</time></trkpt><trkpt lat="43.8669842" lon="12.6288513"><ele>128.0</ele><time>2026-04-11T08:24:51.934Z</time></trkpt><trkpt lat="43.8668975" lon="12.6289167"><ele>128.0</ele><time>2026-04-11T08:24:53.936Z</time></trkpt><trkpt lat="43.8668021" lon="12.6289958"><ele>128.20000000000002</ele><time>2026-04-11T08:24:55.935Z</time></trkpt><trkpt lat="43.8667149" lon="12.6290628"><ele>128.4</ele><time>2026-04-11T08:24:57.936Z</time></trkpt><trkpt lat="43.8666506" lon="12.6291415"><ele>128.60000000000002</ele><time>2026-04-11T08:24:59.935Z</time></trkpt><trkpt lat="43.866581" lon="12.6292517"><ele>128.8</ele><time>2026-04-11T08:25:01.932Z</time></trkpt><trkpt lat="43.8664889" lon="12.6292695"><ele>129.0</ele><time>2026-04-11T08:25:03.932Z</time></trkpt><trkpt lat="43.8663934" lon="12.6292521"><ele>129.0</ele><time>2026-04-11T08:25:05.932Z</time></trkpt><trkpt lat="43.866301" lon="12.6291525"><ele>129.0</ele><time>2026-04-11T08:25:07.933Z</time></trkpt><trkpt lat="43.8662346" lon="12.629044"><ele>129.0</ele><time>2026-04-11T08:25:09.936Z</time></trkpt><trkpt lat="43.8661633" lon="12.6289547"><ele>129.0</ele><time>2026-04-11T08:25:11.935Z</time></trkpt><trkpt lat="43.8661051" lon="12.628903"><ele>129.0</ele><time>2026-04-11T08:25:15.933Z</time></trkpt><trkpt lat="43.866045" lon="12.6288601"><ele>129.0</ele><time>2026-04-11T08:25:17.934Z</time></trkpt><trkpt lat="43.8659828" lon="12.6288304"><ele>129.0</ele><time>2026-04-11T08:25:18.936Z</time></trkpt><trkpt lat="43.8659196" lon="12.6288072"><ele>129.0</ele><time>2026-04-11T08:25:19.933Z</time></trkpt><trkpt lat="43.8658525" lon="12.6287742"><ele>129.0</ele><time>2026-04-11T08:25:20.933Z</time></trkpt><trkpt lat="43.8657879" lon="12.6287518"><ele>129.0</ele><time>2026-04-11T08:25:21.935Z</time></trkpt><trkpt lat="43.8657224" lon="12.6287389"><ele>129.0</ele><time>2026-04-11T08:25:22.933Z</time></trkpt><trkpt lat="43.8656065" lon="12.6287572"><ele>129.83333333333334</ele><time>2026-04-11T08:25:24.931Z</time></trkpt><trkpt lat="43.8655344" lon="12.6287977"><ele>130.66666666666666</ele><time>2026-04-11T08:25:25.935Z</time></trkpt><trkpt lat="43.8654672" lon="12.6288379"><ele>131.5</ele><time>2026-04-11T08:25:26.934Z</time></trkpt><trkpt lat="43.8653991" lon="12.6288798"><ele>132.33333333333331</ele><time>2026-04-11T08:25:27.933Z</time></trkpt><trkpt lat="43.8653021" lon="12.6289132"><ele>133.16666666666666</ele><time>2026-04-11T08:25:29.935Z</time></trkpt><trkpt lat="43.8652173" lon="12.6289062"><ele>134.0</ele><time>2026-04-11T08:25:56.932Z</time></trkpt><trkpt lat="43.8651623" lon="12.6289811"><ele>134.2</ele><time>2026-04-11T08:29:55.93Z</time></trkpt><trkpt lat="43.8650696" lon="12.6290096"><ele>134.4</ele><time>2026-04-11T08:29:57.935Z</time></trkpt><trkpt lat="43.8649874" lon="12.6290383"><ele>134.6</ele><time>2026-04-11T08:29:59.937Z</time></trkpt><trkpt lat="43.8648962" lon="12.6291047"><ele>134.8</ele><time>2026-04-11T08:30:01.931Z</time></trkpt><trkpt lat="43.8648227" lon="12.6291681"><ele>135.0</ele><time>2026-04-11T08:30:03.933Z</time></trkpt><trkpt lat="43.8647516" lon="12.6292518"><ele>135.0</ele><time>2026-04-11T08:30:05.927Z</time></trkpt><trkpt lat="43.8646805" lon="12.6293385"><ele>135.0</ele><time>2026-04-11T08:30:07.932Z</time></trkpt><trkpt lat="43.8646096" lon="12.629421"><ele>135.0</ele><time>2026-04-11T08:30:09.934Z</time></trkpt><trkpt lat="43.8645312" lon="12.6295218"><ele>135.0</ele><time>2026-04-11T08:30:11.94Z</time></trkpt><trkpt lat="43.8644614" lon="12.6295665"><ele>135.0</ele><time>2026-04-11T08:30:13.934Z</time></trkpt><trkpt lat="43.8643829" lon="12.6296094"><ele>135.85714285714286</ele><time>2026-04-11T08:30:15.931Z</time></trkpt><trkpt lat="43.8643064" lon="12.6296188"><ele>136.7142857142857</ele><time>2026-04-11T08:30:17.932Z</time></trkpt><trkpt lat="43.864236" lon="12.6296423"><ele>137.57142857142856</ele><time>2026-04-11T08:30:19.94Z</time></trkpt><trkpt lat="43.8641726" lon="12.6296605"><ele>138.42857142857142</ele><time>2026-04-11T08:30:21.93Z</time></trkpt><trkpt lat="43.8641633" lon="12.6297485"><ele>139.28571428571428</ele><time>2026-04-11T08:36:48.935Z</time></trkpt><trkpt lat="43.8641028" lon="12.6297793"><ele>140.14285714285714</ele><time>2026-04-11T08:38:00.93Z</time></trkpt><trkpt lat="43.864135" lon="12.6297016"><ele>141.0</ele><time>2026-04-11T08:38:17.934Z</time></trkpt><trkpt lat="43.8642073" lon="12.6297037"><ele>141.0</ele><time>2026-04-11T08:38:43.93Z</time></trkpt><trkpt lat="43.8642752" lon="12.6296638"><ele>141.0</ele><time>2026-04-11T08:38:47.929Z</time></trkpt><trkpt lat="43.8643428" lon="12.6296398"><ele>141.0</ele><time>2026-04-11T08:38:52.931Z</time></trkpt><trkpt lat="43.8644087" lon="12.6296398"><ele>141.0</ele><time>2026-04-11T08:40:11.928Z</time></trkpt><trkpt lat="43.8644872" lon="12.6296372"><ele>141.0</ele><time>2026-04-11T08:40:22.93Z</time></trkpt><trkpt lat="43.864566" lon="12.6295938"><ele>141.0</ele><time>2026-04-11T08:40:24.927Z</time></trkpt><trkpt lat="43.8646439" lon="12.6295195"><ele>139.8</ele><time>2026-04-11T08:40:26.933Z</time></trkpt><trkpt lat="43.8646994" lon="12.6294019"><ele>138.6</ele><time>2026-04-11T08:40:27.927Z</time></trkpt><trkpt lat="43.8647576" lon="12.6293388"><ele>137.4</ele><time>2026-04-11T08:40:28.933Z</time></trkpt><trkpt lat="43.8648375" lon="12.6292333"><ele>136.2</ele><time>2026-04-11T08:40:30.927Z</time></trkpt><trkpt lat="43.8648951" lon="12.6291592"><ele>135.0</ele><time>2026-04-11T08:40:33.932Z</time></trkpt><trkpt lat="43.8649817" lon="12.6290779"><ele>135.0</ele><time>2026-04-11T08:40:35.929Z</time></trkpt><trkpt lat="43.865076" lon="12.6290074"><ele>135.0</ele><time>2026-04-11T08:40:37.93Z</time></trkpt><trkpt lat="43.8651663" lon="12.6289759"><ele>135.0</ele><time>2026-04-11T08:40:39.929Z</time></trkpt><trkpt lat="43.8652492" lon="12.6289422"><ele>135.0</ele><time>2026-04-11T08:40:41.932Z</time></trkpt><trkpt lat="43.8653247" lon="12.6289239"><ele>135.0</ele><time>2026-04-11T08:40:43.932Z</time></trkpt><trkpt lat="43.8653951" lon="12.6288797"><ele>135.0</ele><time>2026-04-11T08:40:45.931Z</time></trkpt><trkpt lat="43.8654823" lon="12.6288367"><ele>134.75</ele><time>2026-04-11T08:40:47.93Z</time></trkpt><trkpt lat="43.8655894" lon="12.6287634"><ele>134.5</ele><time>2026-04-11T08:40:49.936Z</time></trkpt><trkpt lat="43.8657032" lon="12.6287394"><ele>134.25</ele><time>2026-04-11T08:40:51.932Z</time></trkpt><trkpt lat="43.8658116" lon="12.6287591"><ele>134.0</ele><time>2026-04-11T08:40:53.938Z</time></trkpt><trkpt lat="43.8659321" lon="12.6288078"><ele>132.75</ele><time>2026-04-11T08:40:55.938Z</time></trkpt><trkpt lat="43.8660509" lon="12.6288643"><ele>131.5</ele><time>2026-04-11T08:40:57.932Z</time></trkpt><trkpt lat="43.8661605" lon="12.6289477"><ele>130.25</ele><time>2026-04-11T08:40:59.931Z</time></trkpt><trkpt lat="43.8662489" lon="12.6290512"><ele>129.0</ele><time>2026-04-11T08:41:01.931Z</time></trkpt><trkpt lat="43.8663351" lon="12.6291371"><ele>129.0</ele><time>2026-04-11T08:41:03.935Z</time></trkpt><trkpt lat="43.8664125" lon="12.6292335"><ele>129.0</ele><time>2026-04-11T08:41:05.931Z</time></trkpt><trkpt lat="43.8665079" lon="12.6292714"><ele>129.0</ele><time>2026-04-11T08:41:07.933Z</time></trkpt><trkpt lat="43.8666076" lon="12.6292328"><ele>129.0</ele><time>2026-04-11T08:41:10.939Z</time></trkpt><trkpt lat="43.8666656" lon="12.6291561"><ele>129.0</ele><time>2026-04-11T08:41:12.933Z</time></trkpt><trkpt lat="43.8667153" lon="12.6290701"><ele>129.0</ele><time>2026-04-11T08:41:14.941Z</time></trkpt><trkpt lat="43.8667774" lon="12.6290068"><ele>129.0</ele><time>2026-04-11T08:41:16.928Z</time></trkpt><trkpt lat="43.8668501" lon="12.6289463"><ele>129.0</ele><time>2026-04-11T08:41:18.937Z</time></trkpt><trkpt lat="43.8669351" lon="12.6288742"><ele>129.0</ele><time>2026-04-11T08:41:20.932Z</time></trkpt><trkpt lat="43.8670183" lon="12.6288172"><ele>129.0</ele><time>2026-04-11T08:41:22.932Z</time></trkpt><trkpt lat="43.8671061" lon="12.6287943"><ele>129.0</ele><time>2026-04-11T08:41:24.932Z</time></trkpt><trkpt lat="43.8671834" lon="12.6288145"><ele>128.8</ele><time>2026-04-11T08:41:26.93Z</time></trkpt><trkpt lat="43.8672488" lon="12.6288913"><ele>128.60000000000002</ele><time>2026-04-11T08:41:28.933Z</time></trkpt><trkpt lat="43.8673176" lon="12.6289749"><ele>128.4</ele><time>2026-04-11T08:41:30.933Z</time></trkpt><trkpt lat="43.8674009" lon="12.629043"><ele>128.20000000000002</ele><time>2026-04-11T08:41:32.927Z</time></trkpt><trkpt lat="43.8674912" lon="12.6290955"><ele>128.0</ele><time>2026-04-11T08:41:34.932Z</time></trkpt><trkpt lat="43.8675837" lon="12.6291435"><ele>128.0</ele><time>2026-04-11T08:41:36.93Z</time></trkpt><trkpt lat="43.8677009" lon="12.6292061"><ele>128.0</ele><time>2026-04-11T08:41:38.929Z</time></trkpt><trkpt lat="43.8677953" lon="12.6292699"><ele>128.0</ele><time>2026-04-11T08:41:40.936Z</time></trkpt><trkpt lat="43.8678814" lon="12.6293251"><ele>128.0</ele><time>2026-04-11T08:41:42.929Z</time></trkpt><trkpt lat="43.8679598" lon="12.6293464"><ele>128.0</ele><time>2026-04-11T08:41:45.928Z</time></trkpt><trkpt lat="43.8680263" lon="12.6293484"><ele>127.99999999999999</ele><time>2026-04-11T08:41:51.939Z</time></trkpt><trkpt lat="43.8681008" lon="12.6293447"><ele>128.0</ele><time>2026-04-11T08:42:32.932Z</time></trkpt><trkpt lat="43.8681843" lon="12.6293561"><ele>128.0</ele><time>2026-04-11T08:42:36.928Z</time></trkpt><trkpt lat="43.8682538" lon="12.6293554"><ele>128.0</ele><time>2026-04-11T08:42:38.93Z</time></trkpt><trkpt lat="43.8683424" lon="12.6293493"><ele>127.99999999999999</ele><time>2026-04-11T08:42:40.944Z</time></trkpt><trkpt lat="43.8684188" lon="12.6293408"><ele>128.0</ele><time>2026-04-11T08:42:42.936Z</time></trkpt><trkpt lat="43.868486" lon="12.6293202"><ele>127.66666666666666</ele><time>2026-04-11T08:42:44.93Z</time></trkpt><trkpt lat="43.8685543" lon="12.6292919"><ele>127.33333333333333</ele><time>2026-04-11T08:42:46.927Z</time></trkpt><trkpt lat="43.8686311" lon="12.6292737"><ele>127.0</ele><time>2026-04-11T08:42:48.935Z</time></trkpt><trkpt lat="43.8687149" lon="12.6292442"><ele>126.66666666666666</ele><time>2026-04-11T08:42:50.928Z</time></trkpt><trkpt lat="43.8687883" lon="12.6292089"><ele>126.33333333333333</ele><time>2026-04-11T08:42:52.929Z</time></trkpt><trkpt lat="43.8688687" lon="12.6291465"><ele>126.0</ele><time>2026-04-11T08:42:54.928Z</time></trkpt><trkpt lat="43.8689611" lon="12.6291149"><ele>126.0</ele><time>2026-04-11T08:42:56.927Z</time></trkpt><trkpt lat="43.8690558" lon="12.62912"><ele>126.0</ele><time>2026-04-11T08:42:59.928Z</time></trkpt><trkpt lat="43.8691127" lon="12.6291598"><ele>126.0</ele><time>2026-04-11T08:43:01.928Z</time></trkpt><trkpt lat="43.8691551" lon="12.6292372"><ele>126.0</ele><time>2026-04-11T08:43:03.924Z</time></trkpt><trkpt lat="43.8691933" lon="12.6293095"><ele>126.0</ele><time>2026-04-11T08:43:05.931Z</time></trkpt><trkpt lat="43.8692396" lon="12.629409"><ele>126.0</ele><time>2026-04-11T08:43:07.93Z</time></trkpt><trkpt lat="43.8693026" lon="12.6295386"><ele>127.0</ele><time>2026-04-11T08:43:09.925Z</time></trkpt><trkpt lat="43.8693434" lon="12.6296301"><ele>128.0</ele><time>2026-04-11T08:43:10.934Z</time></trkpt><trkpt lat="43.8693907" lon="12.6297367"><ele>129.0</ele><time>2026-04-11T08:43:11.932Z</time></trkpt><trkpt lat="43.8694414" lon="12.6298503"><ele>130.0</ele><time>2026-04-11T08:43:12.928Z</time></trkpt><trkpt lat="43.8694985" lon="12.6299674"><ele>131.0</ele><time>2026-04-11T08:43:13.927Z</time></trkpt><trkpt lat="43.8695511" lon="12.6301001"><ele>131.0</ele><time>2026-04-11T08:43:14.931Z</time></trkpt><trkpt lat="43.8695991" lon="12.6302308"><ele>131.0</ele><time>2026-04-11T08:43:15.933Z</time></trkpt><trkpt lat="43.8696423" lon="12.6303571"><ele>131.0</ele><time>2026-04-11T08:43:16.932Z</time></trkpt><trkpt lat="43.8696834" lon="12.6304837"><ele>131.0</ele><time>2026-04-11T08:43:17.931Z</time></trkpt><trkpt lat="43.8697158" lon="12.6305994"><ele>131.0</ele><time>2026-04-11T08:43:18.928Z</time></trkpt><trkpt lat="43.8697518" lon="12.6307178"><ele>130.4</ele><time>2026-04-11T08:43:19.931Z</time></trkpt><trkpt lat="43.8697893" lon="12.6308331"><ele>129.8</ele><time>2026-04-11T08:43:20.927Z</time></trkpt><trkpt lat="43.8698305" lon="12.6309491"><ele>129.20000000000002</ele><time>2026-04-11T08:43:21.932Z</time></trkpt><trkpt lat="43.8698701" lon="12.6310724"><ele>128.6</ele><time>2026-04-11T08:43:22.93Z</time></trkpt><trkpt lat="43.8699135" lon="12.6312009"><ele>128.0</ele><time>2026-04-11T08:43:23.928Z</time></trkpt><trkpt lat="43.8699542" lon="12.6313294"><ele>127.0</ele><time>2026-04-11T08:43:24.929Z</time></trkpt><trkpt lat="43.8699986" lon="12.6314614"><ele>126.00000000000001</ele><time>2026-04-11T08:43:25.927Z</time></trkpt><trkpt lat="43.8700425" lon="12.631594"><ele>125.00000000000001</ele><time>2026-04-11T08:43:26.933Z</time></trkpt><trkpt lat="43.8700845" lon="12.6317239"><ele>124.0</ele><time>2026-04-11T08:43:27.929Z</time></trkpt><trkpt lat="43.87012" lon="12.6318498"><ele>123.0</ele><time>2026-04-11T08:43:28.931Z</time></trkpt><trkpt lat="43.8701619" lon="12.6319668"><ele>124.0</ele><time>2026-04-11T08:43:29.93Z</time></trkpt><trkpt lat="43.8702104" lon="12.6320841"><ele>125.00000000000001</ele><time>2026-04-11T08:43:30.936Z</time></trkpt><trkpt lat="43.8702554" lon="12.6321959"><ele>126.00000000000001</ele><time>2026-04-11T08:43:31.93Z</time></trkpt><trkpt lat="43.8702805" lon="12.6323018"><ele>127.0</ele><time>2026-04-11T08:43:32.933Z</time></trkpt><trkpt lat="43.8703371" lon="12.6324352"><ele>128.0</ele><time>2026-04-11T08:43:33.93Z</time></trkpt><trkpt lat="43.8703795" lon="12.6325649"><ele>128.0</ele><time>2026-04-11T08:43:34.929Z</time></trkpt><trkpt lat="43.8704191" lon="12.6326864"><ele>128.0</ele><time>2026-04-11T08:43:35.935Z</time></trkpt><trkpt lat="43.8704589" lon="12.6328155"><ele>128.0</ele><time>2026-04-11T08:43:36.932Z</time></trkpt><trkpt lat="43.8704972" lon="12.6329415"><ele>128.0</ele><time>2026-04-11T08:43:37.93Z</time></trkpt><trkpt lat="43.8705314" lon="12.633067"><ele>128.0</ele><time>2026-04-11T08:43:38.931Z</time></trkpt><trkpt lat="43.8705754" lon="12.6331873"><ele>127.33333333333333</ele><time>2026-04-11T08:43:39.928Z</time></trkpt><trkpt lat="43.8706149" lon="12.6332849"><ele>126.66666666666666</ele><time>2026-04-11T08:43:40.933Z</time></trkpt><trkpt lat="43.8706617" lon="12.633382"><ele>126.0</ele><time>2026-04-11T08:43:41.926Z</time></trkpt><trkpt lat="43.870727" lon="12.6334731"><ele>125.33333333333334</ele><time>2026-04-11T08:43:42.927Z</time></trkpt><trkpt lat="43.8707916" lon="12.6335441"><ele>124.66666666666667</ele><time>2026-04-11T08:43:43.929Z</time></trkpt><trkpt lat="43.8708674" lon="12.6336269"><ele>124.0</ele><time>2026-04-11T08:43:44.932Z</time></trkpt><trkpt lat="43.8709385" lon="12.6336955"><ele>123.4</ele><time>2026-04-11T08:43:45.934Z</time></trkpt><trkpt lat="43.8710274" lon="12.6337828"><ele>122.80000000000001</ele><time>2026-04-11T08:43:46.929Z</time></trkpt><trkpt lat="43.8711106" lon="12.6338457"><ele>122.19999999999999</ele><time>2026-04-11T08:43:47.93Z</time></trkpt><trkpt lat="43.8711861" lon="12.6339366"><ele>121.6</ele><time>2026-04-11T08:43:48.932Z</time></trkpt><trkpt lat="43.8712511" lon="12.6340213"><ele>121.0</ele><time>2026-04-11T08:43:49.932Z</time></trkpt><trkpt lat="43.8713151" lon="12.6341071"><ele>121.00000000000001</ele><time>2026-04-11T08:43:50.931Z</time></trkpt><trkpt lat="43.8713855" lon="12.6342047"><ele>121.0</ele><time>2026-04-11T08:43:51.93Z</time></trkpt><trkpt lat="43.8714545" lon="12.6342914"><ele>121.0</ele><time>2026-04-11T08:43:52.926Z</time></trkpt><trkpt lat="43.8715104" lon="12.6343609"><ele>121.0</ele><time>2026-04-11T08:43:53.932Z</time></trkpt><trkpt lat="43.8715609" lon="12.634432"><ele>121.00000000000001</ele><time>2026-04-11T08:43:54.928Z</time></trkpt><trkpt lat="43.8716125" lon="12.6345139"><ele>121.0</ele><time>2026-04-11T08:43:56.927Z</time></trkpt><trkpt lat="43.8715756" lon="12.6346147"><ele>120.6</ele><time>2026-04-11T08:43:58.929Z</time></trkpt><trkpt lat="43.8714742" lon="12.63468"><ele>120.19999999999999</ele><time>2026-04-11T08:44:00.929Z</time></trkpt><trkpt lat="43.8713446" lon="12.6347602"><ele>119.80000000000001</ele><time>2026-04-11T08:44:02.935Z</time></trkpt><trkpt lat="43.8712695" lon="12.6347974"><ele>119.4</ele><time>2026-04-11T08:44:03.933Z</time></trkpt><trkpt lat="43.8711967" lon="12.6348229"><ele>119.0</ele><time>2026-04-11T08:44:04.931Z</time></trkpt><trkpt lat="43.8711252" lon="12.6348466"><ele>119.0</ele><time>2026-04-11T08:44:05.936Z</time></trkpt><trkpt lat="43.8710614" lon="12.634854"><ele>119.0</ele><time>2026-04-11T08:44:06.935Z</time></trkpt><trkpt lat="43.8709505" lon="12.6348271"><ele>119.0</ele><time>2026-04-11T08:44:08.932Z</time></trkpt><trkpt lat="43.8708391" lon="12.6347641"><ele>119.0</ele><time>2026-04-11T08:44:10.927Z</time></trkpt><trkpt lat="43.8707235" lon="12.6346887"><ele>119.0</ele><time>2026-04-11T08:44:12.929Z</time></trkpt><trkpt lat="43.8706617" lon="12.6346696"><ele>119.49999999999999</ele><time>2026-04-11T08:44:13.931Z</time></trkpt><trkpt lat="43.8705923" lon="12.6346603"><ele>120.0</ele><time>2026-04-11T08:44:14.935Z</time></trkpt><trkpt lat="43.870525" lon="12.6346688"><ele>120.5</ele><time>2026-04-11T08:44:15.935Z</time></trkpt><trkpt lat="43.8704502" lon="12.6346758"><ele>121.0</ele><time>2026-04-11T08:44:16.927Z</time></trkpt><trkpt lat="43.8703684" lon="12.634681"><ele>121.49999999999999</ele><time>2026-04-11T08:44:17.929Z</time></trkpt><trkpt lat="43.8702844" lon="12.6346914"><ele>122.0</ele><time>2026-04-11T08:44:18.933Z</time></trkpt><trkpt lat="43.870207" lon="12.6346946"><ele>121.99999999999999</ele><time>2026-04-11T08:44:19.932Z</time></trkpt><trkpt lat="43.8701267" lon="12.6346927"><ele>122.0</ele><time>2026-04-11T08:44:20.928Z</time></trkpt><trkpt lat="43.8700467" lon="12.6346912"><ele>122.0</ele><time>2026-04-11T08:44:21.93Z</time></trkpt><trkpt lat="43.8699649" lon="12.634687"><ele>122.0</ele><time>2026-04-11T08:44:22.932Z</time></trkpt><trkpt lat="43.8698846" lon="12.6347072"><ele>121.99999999999999</ele><time>2026-04-11T08:44:23.932Z</time></trkpt><trkpt lat="43.8698092" lon="12.6347485"><ele>122.0</ele><time>2026-04-11T08:44:24.927Z</time></trkpt><trkpt lat="43.869737" lon="12.6348078"><ele>122.16666666666666</ele><time>2026-04-11T08:44:25.928Z</time></trkpt><trkpt lat="43.8696773" lon="12.6348633"><ele>122.33333333333333</ele><time>2026-04-11T08:44:26.936Z</time></trkpt><trkpt lat="43.8696099" lon="12.6349347"><ele>122.5</ele><time>2026-04-11T08:44:27.932Z</time></trkpt><trkpt lat="43.8695359" lon="12.6350063"><ele>122.66666666666666</ele><time>2026-04-11T08:44:28.931Z</time></trkpt><trkpt lat="43.869479" lon="12.6350741"><ele>122.83333333333333</ele><time>2026-04-11T08:44:29.929Z</time></trkpt><trkpt lat="43.8694197" lon="12.6351321"><ele>123.0</ele><time>2026-04-11T08:44:30.938Z</time></trkpt><trkpt lat="43.869351" lon="12.6351958"><ele>123.0</ele><time>2026-04-11T08:44:31.927Z</time></trkpt><trkpt lat="43.8692787" lon="12.6352756"><ele>123.00000000000001</ele><time>2026-04-11T08:44:32.928Z</time></trkpt><trkpt lat="43.8692117" lon="12.6353595"><ele>123.00000000000001</ele><time>2026-04-11T08:44:33.929Z</time></trkpt><trkpt lat="43.8691418" lon="12.6354494"><ele>123.0</ele><time>2026-04-11T08:44:34.935Z</time></trkpt><trkpt lat="43.8690585" lon="12.6355547"><ele>123.0</ele><time>2026-04-11T08:44:35.929Z</time></trkpt><trkpt lat="43.8689954" lon="12.635658"><ele>125.80000000000001</ele><time>2026-04-11T08:44:36.93Z</time></trkpt><trkpt lat="43.8689174" lon="12.6357604"><ele>128.60000000000002</ele><time>2026-04-11T08:44:37.932Z</time></trkpt><trkpt lat="43.8688512" lon="12.6358675"><ele>131.39999999999998</ele><time>2026-04-11T08:44:38.933Z</time></trkpt><trkpt lat="43.8687817" lon="12.6359805"><ele>134.2</ele><time>2026-04-11T08:44:39.932Z</time></trkpt><trkpt lat="43.8687288" lon="12.6360599"><ele>137.0</ele><time>2026-04-11T08:44:40.93Z</time></trkpt><trkpt lat="43.86867" lon="12.6361656"><ele>138.66666666666666</ele><time>2026-04-11T08:44:41.93Z</time></trkpt><trkpt lat="43.8686057" lon="12.6362604"><ele>140.33333333333331</ele><time>2026-04-11T08:44:42.931Z</time></trkpt><trkpt lat="43.8685384" lon="12.6363452"><ele>142.0</ele><time>2026-04-11T08:44:43.933Z</time></trkpt><trkpt lat="43.8684743" lon="12.6364255"><ele>143.66666666666666</ele><time>2026-04-11T08:44:44.928Z</time></trkpt><trkpt lat="43.8684169" lon="12.6364931"><ele>145.33333333333334</ele><time>2026-04-11T08:44:45.929Z</time></trkpt><trkpt lat="43.8683711" lon="12.6365727"><ele>147.0</ele><time>2026-04-11T08:44:46.932Z</time></trkpt><trkpt lat="43.8683391" lon="12.6367638"><ele>147.0</ele><time>2026-04-11T08:44:48.931Z</time></trkpt><trkpt lat="43.8683425" lon="12.6368876"><ele>147.0</ele><time>2026-04-11T08:44:49.927Z</time></trkpt><trkpt lat="43.8683502" lon="12.6370093"><ele>147.0</ele><time>2026-04-11T08:44:50.932Z</time></trkpt><trkpt lat="43.8683773" lon="12.6371151"><ele>147.0</ele><time>2026-04-11T08:44:51.928Z</time></trkpt><trkpt lat="43.8684086" lon="12.6372062"><ele>147.0</ele><time>2026-04-11T08:44:52.935Z</time></trkpt><trkpt lat="43.868448" lon="12.6372791"><ele>147.0</ele><time>2026-04-11T08:44:53.932Z</time></trkpt><trkpt lat="43.8685024" lon="12.6373268"><ele>149.66666666666666</ele><time>2026-04-11T08:44:54.929Z</time></trkpt><trkpt lat="43.8685623" lon="12.6373735"><ele>152.33333333333334</ele><time>2026-04-11T08:44:55.935Z</time></trkpt><trkpt lat="43.8686287" lon="12.6373943"><ele>155.0</ele><time>2026-04-11T08:44:56.934Z</time></trkpt><trkpt lat="43.8687055" lon="12.6374229"><ele>157.66666666666669</ele><time>2026-04-11T08:44:57.929Z</time></trkpt><trkpt lat="43.8687861" lon="12.6374566"><ele>160.33333333333334</ele><time>2026-04-11T08:44:58.93Z</time></trkpt><trkpt lat="43.8688743" lon="12.6374993"><ele>163.0</ele><time>2026-04-11T08:44:59.934Z</time></trkpt><trkpt lat="43.8689608" lon="12.6375414"><ele>163.0</ele><time>2026-04-11T08:45:00.93Z</time></trkpt><trkpt lat="43.8690542" lon="12.6375764"><ele>163.0</ele><time>2026-04-11T08:45:01.929Z</time></trkpt><trkpt lat="43.869147" lon="12.6375979"><ele>163.0</ele><time>2026-04-11T08:45:02.929Z</time></trkpt><trkpt lat="43.869248" lon="12.637622"><ele>163.0</ele><time>2026-04-11T08:45:03.928Z</time></trkpt><trkpt lat="43.8693452" lon="12.6376273"><ele>163.0</ele><time>2026-04-11T08:45:04.929Z</time></trkpt><trkpt lat="43.8694464" lon="12.6376175"><ele>164.8</ele><time>2026-04-11T08:45:05.928Z</time></trkpt><trkpt lat="43.8695433" lon="12.6376118"><ele>166.60000000000002</ele><time>2026-04-11T08:45:06.929Z</time></trkpt><trkpt lat="43.8696347" lon="12.6376087"><ele>168.39999999999998</ele><time>2026-04-11T08:45:07.929Z</time></trkpt><trkpt lat="43.8697321" lon="12.6375906"><ele>170.2</ele><time>2026-04-11T08:45:08.926Z</time></trkpt><trkpt lat="43.8698244" lon="12.6375804"><ele>172.0</ele><time>2026-04-11T08:45:09.932Z</time></trkpt><trkpt lat="43.8699061" lon="12.6375775"><ele>172.0</ele><time>2026-04-11T08:45:10.927Z</time></trkpt><trkpt lat="43.8699826" lon="12.6375851"><ele>172.0</ele><time>2026-04-11T08:45:11.927Z</time></trkpt><trkpt lat="43.8700471" lon="12.6376004"><ele>172.0</ele><time>2026-04-11T08:45:12.929Z</time></trkpt><trkpt lat="43.870112" lon="12.6376196"><ele>172.0</ele><time>2026-04-11T08:45:13.932Z</time></trkpt><trkpt lat="43.8701976" lon="12.6377389"><ele>172.0</ele><time>2026-04-11T08:45:15.929Z</time></trkpt><trkpt lat="43.870227" lon="12.6378162"><ele>172.0</ele><time>2026-04-11T08:45:16.931Z</time></trkpt><trkpt lat="43.8702583" lon="12.6378946"><ele>175.33333333333334</ele><time>2026-04-11T08:45:17.932Z</time></trkpt><trkpt lat="43.8703009" lon="12.6379694"><ele>178.66666666666669</ele><time>2026-04-11T08:45:18.931Z</time></trkpt><trkpt lat="43.870376" lon="12.6380094"><ele>182.0</ele><time>2026-04-11T08:45:19.931Z</time></trkpt><trkpt lat="43.8704592" lon="12.6380404"><ele>185.33333333333334</ele><time>2026-04-11T08:45:20.931Z</time></trkpt><trkpt lat="43.8705426" lon="12.638066"><ele>188.66666666666666</ele><time>2026-04-11T08:45:21.929Z</time></trkpt><trkpt lat="43.870629" lon="12.6380955"><ele>192.0</ele><time>2026-04-11T08:45:22.928Z</time></trkpt><trkpt lat="43.8707076" lon="12.6381256"><ele>191.99999999999997</ele><time>2026-04-11T08:45:23.931Z</time></trkpt><trkpt lat="43.8707675" lon="12.638187"><ele>192.0</ele><time>2026-04-11T08:45:24.93Z</time></trkpt><trkpt lat="43.8708111" lon="12.6382726"><ele>192.0</ele><time>2026-04-11T08:45:25.928Z</time></trkpt><trkpt lat="43.8708501" lon="12.6383625"><ele>192.0</ele><time>2026-04-11T08:45:26.932Z</time></trkpt><trkpt lat="43.8708837" lon="12.6384433"><ele>192.0</ele><time>2026-04-11T08:45:27.928Z</time></trkpt><trkpt lat="43.8709106" lon="12.6385375"><ele>191.99999999999997</ele><time>2026-04-11T08:45:28.929Z</time></trkpt><trkpt lat="43.8709271" lon="12.6386311"><ele>192.0</ele><time>2026-04-11T08:45:29.927Z</time></trkpt><trkpt lat="43.8709487" lon="12.6387279"><ele>193.0</ele><time>2026-04-11T08:45:30.931Z</time></trkpt><trkpt lat="43.8709919" lon="12.6388753"><ele>194.0</ele><time>2026-04-11T08:45:32.929Z</time></trkpt><trkpt lat="43.8709825" lon="12.6390153"><ele>195.0</ele><time>2026-04-11T08:45:34.93Z</time></trkpt><trkpt lat="43.8709247" lon="12.6391238"><ele>196.0</ele><time>2026-04-11T08:45:36.931Z</time></trkpt><trkpt lat="43.8708615" lon="12.639142"><ele>197.0</ele><time>2026-04-11T08:45:37.93Z</time></trkpt><trkpt lat="43.8707972" lon="12.6391"><ele>198.0</ele><time>2026-04-11T08:45:38.928Z</time></trkpt><trkpt lat="43.8707256" lon="12.6390499"><ele>201.4</ele><time>2026-04-11T08:45:39.93Z</time></trkpt><trkpt lat="43.8706393" lon="12.6390003"><ele>204.8</ele><time>2026-04-11T08:45:40.924Z</time></trkpt><trkpt lat="43.8705576" lon="12.6389716"><ele>208.2</ele><time>2026-04-11T08:45:41.927Z</time></trkpt><trkpt lat="43.8704617" lon="12.63897"><ele>211.6</ele><time>2026-04-11T08:45:42.926Z</time></trkpt><trkpt lat="43.8703656" lon="12.6389787"><ele>215.0</ele><time>2026-04-11T08:45:43.928Z</time></trkpt><trkpt lat="43.8702732" lon="12.6390018"><ele>215.00000000000003</ele><time>2026-04-11T08:45:44.921Z</time></trkpt><trkpt lat="43.8701912" lon="12.63903"><ele>215.0</ele><time>2026-04-11T08:45:45.926Z</time></trkpt><trkpt lat="43.8701178" lon="12.6390613"><ele>215.0</ele><time>2026-04-11T08:45:46.933Z</time></trkpt><trkpt lat="43.8700442" lon="12.6390983"><ele>215.0</ele><time>2026-04-11T08:45:47.931Z</time></trkpt><trkpt lat="43.8699801" lon="12.6391394"><ele>215.00000000000003</ele><time>2026-04-11T08:45:48.926Z</time></trkpt><trkpt lat="43.8699156" lon="12.6391704"><ele>215.0</ele><time>2026-04-11T08:45:49.927Z</time></trkpt><trkpt lat="43.8698135" lon="12.639248"><ele>215.83333333333334</ele><time>2026-04-11T08:45:51.925Z</time></trkpt><trkpt lat="43.8697375" lon="12.6393146"><ele>216.66666666666669</ele><time>2026-04-11T08:45:53.931Z</time></trkpt><trkpt lat="43.8696635" lon="12.6393802"><ele>217.5</ele><time>2026-04-11T08:45:55.927Z</time></trkpt><trkpt lat="43.86959" lon="12.639449"><ele>218.33333333333331</ele><time>2026-04-11T08:45:57.924Z</time></trkpt><trkpt lat="43.8695336" lon="12.6395221"><ele>219.16666666666666</ele><time>2026-04-11T08:45:59.931Z</time></trkpt><trkpt lat="43.8695063" lon="12.6396154"><ele>220.0</ele><time>2026-04-11T08:46:01.928Z</time></trkpt><trkpt lat="43.8695089" lon="12.6397401"><ele>223.8</ele><time>2026-04-11T08:46:03.922Z</time></trkpt><trkpt lat="43.8695063" lon="12.6398993"><ele>227.6</ele><time>2026-04-11T08:46:05.929Z</time></trkpt><trkpt lat="43.8695004" lon="12.6399887"><ele>231.39999999999998</ele><time>2026-04-11T08:46:06.923Z</time></trkpt><trkpt lat="43.8694711" lon="12.6401554"><ele>235.2</ele><time>2026-04-11T08:46:08.931Z</time></trkpt><trkpt lat="43.8694371" lon="12.6402582"><ele>239.0</ele><time>2026-04-11T08:46:09.932Z</time></trkpt><trkpt lat="43.8693967" lon="12.6403701"><ele>239.0</ele><time>2026-04-11T08:46:10.927Z</time></trkpt><trkpt lat="43.8693585" lon="12.640472"><ele>238.99999999999997</ele><time>2026-04-11T08:46:11.928Z</time></trkpt><trkpt lat="43.8693062" lon="12.6405915"><ele>238.99999999999997</ele><time>2026-04-11T08:46:12.923Z</time></trkpt><trkpt lat="43.8692554" lon="12.6407207"><ele>239.0</ele><time>2026-04-11T08:46:13.93Z</time></trkpt><trkpt lat="43.8692055" lon="12.640846"><ele>239.0</ele><time>2026-04-11T08:46:14.931Z</time></trkpt><trkpt lat="43.869142" lon="12.6409662"><ele>239.00000000000003</ele><time>2026-04-11T08:46:15.927Z</time></trkpt><trkpt lat="43.8690753" lon="12.6410812"><ele>239.0</ele><time>2026-04-11T08:46:16.926Z</time></trkpt><trkpt lat="43.8690083" lon="12.6411902"><ele>239.0</ele><time>2026-04-11T08:46:17.937Z</time></trkpt><trkpt lat="43.8689579" lon="12.6412807"><ele>239.0</ele><time>2026-04-11T08:46:18.927Z</time></trkpt><trkpt lat="43.8689157" lon="12.6413658"><ele>239.00000000000003</ele><time>2026-04-11T08:46:19.928Z</time></trkpt><trkpt lat="43.8688839" lon="12.6414503"><ele>239.0</ele><time>2026-04-11T08:46:20.932Z</time></trkpt><trkpt lat="43.8688647" lon="12.6415376"><ele>241.28571428571433</ele><time>2026-04-11T08:46:21.927Z</time></trkpt><trkpt lat="43.8688593" lon="12.6416306"><ele>243.57142857142858</ele><time>2026-04-11T08:46:22.926Z</time></trkpt><trkpt lat="43.8688657" lon="12.6417249"><ele>245.8571428571429</ele><time>2026-04-11T08:46:23.932Z</time></trkpt><trkpt lat="43.8688762" lon="12.6418216"><ele>248.14285714285717</ele><time>2026-04-11T08:46:24.925Z</time></trkpt><trkpt lat="43.8688813" lon="12.6419255"><ele>250.42857142857144</ele><time>2026-04-11T08:46:25.93Z</time></trkpt><trkpt lat="43.8688875" lon="12.6420278"><ele>252.71428571428572</ele><time>2026-04-11T08:46:26.933Z</time></trkpt><trkpt lat="43.8688959" lon="12.6421393"><ele>255.0</ele><time>2026-04-11T08:46:27.931Z</time></trkpt><trkpt lat="43.8689011" lon="12.6422549"><ele>257.6</ele><time>2026-04-11T08:46:28.933Z</time></trkpt><trkpt lat="43.8688979" lon="12.6423668"><ele>260.2</ele><time>2026-04-11T08:46:29.93Z</time></trkpt><trkpt lat="43.8688857" lon="12.6424617"><ele>262.8</ele><time>2026-04-11T08:46:30.928Z</time></trkpt><trkpt lat="43.8688189" lon="12.6426146"><ele>265.4</ele><time>2026-04-11T08:46:32.927Z</time></trkpt><trkpt lat="43.8687638" lon="12.6426747"><ele>268.0</ele><time>2026-04-11T08:46:33.929Z</time></trkpt><trkpt lat="43.8686582" lon="12.642766"><ele>270.2</ele><time>2026-04-11T08:46:35.93Z</time></trkpt><trkpt lat="43.8685894" lon="12.6428659"><ele>272.4</ele><time>2026-04-11T08:46:37.928Z</time></trkpt><trkpt lat="43.8686307" lon="12.6429763"><ele>274.59999999999997</ele><time>2026-04-11T08:46:39.927Z</time></trkpt><trkpt lat="43.8687422" lon="12.6430543"><ele>276.8</ele><time>2026-04-11T08:46:41.927Z</time></trkpt><trkpt lat="43.8688303" lon="12.6430846"><ele>279.0</ele><time>2026-04-11T08:46:42.928Z</time></trkpt><trkpt lat="43.8689246" lon="12.6431205"><ele>279.0</ele><time>2026-04-11T08:46:43.925Z</time></trkpt><trkpt lat="43.8690314" lon="12.6431253"><ele>279.0</ele><time>2026-04-11T08:46:44.93Z</time></trkpt><trkpt lat="43.8691123" lon="12.6430938"><ele>279.0</ele><time>2026-04-11T08:46:45.925Z</time></trkpt><trkpt lat="43.869191" lon="12.6430216"><ele>279.0</ele><time>2026-04-11T08:46:46.926Z</time></trkpt><trkpt lat="43.8692692" lon="12.6429284"><ele>279.0</ele><time>2026-04-11T08:46:47.928Z</time></trkpt><trkpt lat="43.8693695" lon="12.6428099"><ele>282.5</ele><time>2026-04-11T08:46:48.929Z</time></trkpt><trkpt lat="43.869474" lon="12.6426782"><ele>286.0</ele><time>2026-04-11T08:46:49.924Z</time></trkpt><trkpt lat="43.8695734" lon="12.6425414"><ele>289.5</ele><time>2026-04-11T08:46:50.929Z</time></trkpt><trkpt lat="43.8696625" lon="12.6424242"><ele>293.0</ele><time>2026-04-11T08:46:51.929Z</time></trkpt><trkpt lat="43.8697391" lon="12.6423262"><ele>293.0</ele><time>2026-04-11T08:46:52.924Z</time></trkpt><trkpt lat="43.8698086" lon="12.642242"><ele>293.0</ele><time>2026-04-11T08:46:53.932Z</time></trkpt><trkpt lat="43.8698754" lon="12.6421711"><ele>293.0</ele><time>2026-04-11T08:46:54.932Z</time></trkpt><trkpt lat="43.8699329" lon="12.6421067"><ele>293.0</ele><time>2026-04-11T08:46:55.925Z</time></trkpt><trkpt lat="43.8699913" lon="12.6420567"><ele>293.0</ele><time>2026-04-11T08:46:56.933Z</time></trkpt><trkpt lat="43.8700552" lon="12.6420253"><ele>293.0</ele><time>2026-04-11T08:46:57.93Z</time></trkpt><trkpt lat="43.8701188" lon="12.6420098"><ele>291.83333333333337</ele><time>2026-04-11T08:46:58.926Z</time></trkpt><trkpt lat="43.8701821" lon="12.6420242"><ele>290.6666666666667</ele><time>2026-04-11T08:46:59.929Z</time></trkpt><trkpt lat="43.8702823" lon="12.6421166"><ele>289.5</ele><time>2026-04-11T08:47:01.931Z</time></trkpt><trkpt lat="43.8703238" lon="12.6421828"><ele>288.3333333333333</ele><time>2026-04-11T08:47:02.928Z</time></trkpt><trkpt lat="43.870357" lon="12.6422648"><ele>287.16666666666663</ele><time>2026-04-11T08:47:03.933Z</time></trkpt><trkpt lat="43.8703819" lon="12.642358"><ele>286.0</ele><time>2026-04-11T08:47:04.93Z</time></trkpt><trkpt lat="43.8704125" lon="12.642466"><ele>286.0</ele><time>2026-04-11T08:47:05.927Z</time></trkpt><trkpt lat="43.8704486" lon="12.6425876"><ele>286.0</ele><time>2026-04-11T08:47:06.93Z</time></trkpt><trkpt lat="43.870493" lon="12.6427157"><ele>286.0</ele><time>2026-04-11T08:47:07.928Z</time></trkpt><trkpt lat="43.870535" lon="12.6428318"><ele>286.0</ele><time>2026-04-11T08:47:08.929Z</time></trkpt><trkpt lat="43.8705583" lon="12.6429429"><ele>286.0</ele><time>2026-04-11T08:47:09.931Z</time></trkpt><trkpt lat="43.870576" lon="12.643058"><ele>286.6</ele><time>2026-04-11T08:47:10.931Z</time></trkpt><trkpt lat="43.8705817" lon="12.6431767"><ele>287.20000000000005</ele><time>2026-04-11T08:47:11.93Z</time></trkpt><trkpt lat="43.8705799" lon="12.6433062"><ele>287.79999999999995</ele><time>2026-04-11T08:47:12.934Z</time></trkpt><trkpt lat="43.8705714" lon="12.6434331"><ele>288.4</ele><time>2026-04-11T08:47:13.928Z</time></trkpt><trkpt lat="43.8705546" lon="12.6435607"><ele>289.0</ele><time>2026-04-11T08:47:14.928Z</time></trkpt><trkpt lat="43.8705394" lon="12.6436789"><ele>289.16666666666663</ele><time>2026-04-11T08:47:15.931Z</time></trkpt><trkpt lat="43.8705289" lon="12.6437951"><ele>289.3333333333333</ele><time>2026-04-11T08:47:16.928Z</time></trkpt><trkpt lat="43.870526" lon="12.6439051"><ele>289.5</ele><time>2026-04-11T08:47:17.934Z</time></trkpt><trkpt lat="43.8705284" lon="12.6440146"><ele>289.6666666666667</ele><time>2026-04-11T08:47:18.928Z</time></trkpt><trkpt lat="43.8705288" lon="12.6441273"><ele>289.83333333333337</ele><time>2026-04-11T08:47:19.948Z</time></trkpt><trkpt lat="43.8705374" lon="12.6442239"><ele>290.0</ele><time>2026-04-11T08:47:20.949Z</time></trkpt><trkpt lat="43.8705482" lon="12.644319"><ele>290.0</ele><time>2026-04-11T08:47:21.925Z</time></trkpt><trkpt lat="43.8705579" lon="12.6444073"><ele>290.0</ele><time>2026-04-11T08:47:22.942Z</time></trkpt><trkpt lat="43.8705667" lon="12.6444962"><ele>290.0</ele><time>2026-04-11T08:47:23.943Z</time></trkpt><trkpt lat="43.8705798" lon="12.6445827"><ele>290.0</ele><time>2026-04-11T08:47:24.931Z</time></trkpt><trkpt lat="43.8705701" lon="12.6447419"><ele>290.0</ele><time>2026-04-11T08:47:26.927Z</time></trkpt><trkpt lat="43.8705092" lon="12.6448712"><ele>290.0</ele><time>2026-04-11T08:47:28.929Z</time></trkpt><trkpt lat="43.8704078" lon="12.644954"><ele>290.4</ele><time>2026-04-11T08:47:30.933Z</time></trkpt><trkpt lat="43.8702791" lon="12.6449881"><ele>290.8</ele><time>2026-04-11T08:47:32.926Z</time></trkpt><trkpt lat="43.8702028" lon="12.6449844"><ele>291.2</ele><time>2026-04-11T08:47:33.929Z</time></trkpt><trkpt lat="43.8701232" lon="12.6449821"><ele>291.6</ele><time>2026-04-11T08:47:34.929Z</time></trkpt><trkpt lat="43.8700419" lon="12.644981"><ele>292.0</ele><time>2026-04-11T08:47:35.925Z</time></trkpt><trkpt lat="43.8699603" lon="12.644982"><ele>294.3333333333333</ele><time>2026-04-11T08:47:36.925Z</time></trkpt><trkpt lat="43.8698778" lon="12.6449808"><ele>296.66666666666663</ele><time>2026-04-11T08:47:37.928Z</time></trkpt><trkpt lat="43.8697957" lon="12.6449794"><ele>299.0</ele><time>2026-04-11T08:47:38.926Z</time></trkpt><trkpt lat="43.8697131" lon="12.6449781"><ele>301.3333333333333</ele><time>2026-04-11T08:47:39.936Z</time></trkpt><trkpt lat="43.8696293" lon="12.6449792"><ele>303.6666666666667</ele><time>2026-04-11T08:47:40.93Z</time></trkpt><trkpt lat="43.869541" lon="12.6449771"><ele>306.0</ele><time>2026-04-11T08:47:41.928Z</time></trkpt><trkpt lat="43.8694517" lon="12.6449732"><ele>306.0</ele><time>2026-04-11T08:47:42.927Z</time></trkpt><trkpt lat="43.8693648" lon="12.6449724"><ele>306.0</ele><time>2026-04-11T08:47:43.928Z</time></trkpt><trkpt lat="43.8692796" lon="12.6449647"><ele>306.0</ele><time>2026-04-11T08:47:44.931Z</time></trkpt><trkpt lat="43.8691927" lon="12.6449585"><ele>306.0</ele><time>2026-04-11T08:47:45.924Z</time></trkpt><trkpt lat="43.8691018" lon="12.6449661"><ele>306.0</ele><time>2026-04-11T08:47:46.926Z</time></trkpt><trkpt lat="43.8690111" lon="12.6449697"><ele>306.0</ele><time>2026-04-11T08:47:47.93Z</time></trkpt><trkpt lat="43.8689166" lon="12.6449685"><ele>306.1666666666667</ele><time>2026-04-11T08:47:48.925Z</time></trkpt><trkpt lat="43.8688343" lon="12.6449634"><ele>306.3333333333333</ele><time>2026-04-11T08:47:49.93Z</time></trkpt><trkpt lat="43.8687478" lon="12.6449607"><ele>306.5</ele><time>2026-04-11T08:47:50.929Z</time></trkpt><trkpt lat="43.8686661" lon="12.6449661"><ele>306.66666666666663</ele><time>2026-04-11T08:47:51.928Z</time></trkpt><trkpt lat="43.868576" lon="12.6449634"><ele>306.8333333333333</ele><time>2026-04-11T08:47:52.923Z</time></trkpt><trkpt lat="43.8684874" lon="12.6449592"><ele>307.0</ele><time>2026-04-11T08:47:53.929Z</time></trkpt><trkpt lat="43.8684108" lon="12.6449552"><ele>307.0</ele><time>2026-04-11T08:47:54.928Z</time></trkpt><trkpt lat="43.8683075" lon="12.6449629"><ele>307.0</ele><time>2026-04-11T08:47:55.926Z</time></trkpt><trkpt lat="43.8682023" lon="12.6449756"><ele>307.0</ele><time>2026-04-11T08:47:56.929Z</time></trkpt><trkpt lat="43.868098" lon="12.6449994"><ele>307.0</ele><time>2026-04-11T08:47:57.927Z</time></trkpt><trkpt lat="43.867995" lon="12.6450347"><ele>307.0</ele><time>2026-04-11T08:47:58.931Z</time></trkpt><trkpt lat="43.8678948" lon="12.6450554"><ele>307.0</ele><time>2026-04-11T08:47:59.932Z</time></trkpt><trkpt lat="43.867802" lon="12.6450883"><ele>307.0</ele><time>2026-04-11T08:48:00.925Z</time></trkpt><trkpt lat="43.867711" lon="12.6451116"><ele>307.0</ele><time>2026-04-11T08:48:01.934Z</time></trkpt><trkpt lat="43.8676149" lon="12.6451409"><ele>307.0</ele><time>2026-04-11T08:48:02.933Z</time></trkpt><trkpt lat="43.8675261" lon="12.6451632"><ele>307.0</ele><time>2026-04-11T08:48:03.924Z</time></trkpt><trkpt lat="43.8674459" lon="12.6451864"><ele>307.0</ele><time>2026-04-11T08:48:04.927Z</time></trkpt><trkpt lat="43.8673785" lon="12.6452066"><ele>307.0</ele><time>2026-04-11T08:48:05.929Z</time></trkpt><trkpt lat="43.8672961" lon="12.645241"><ele>307.0</ele><time>2026-04-11T08:48:07.931Z</time></trkpt><trkpt lat="43.867209" lon="12.6452567"><ele>307.0</ele><time>2026-04-11T08:48:10.927Z</time></trkpt><trkpt lat="43.867095" lon="12.6452652"><ele>307.0</ele><time>2026-04-11T08:48:12.921Z</time></trkpt><trkpt lat="43.8670261" lon="12.6452743"><ele>307.0</ele><time>2026-04-11T08:48:13.924Z</time></trkpt><trkpt lat="43.8669441" lon="12.6452914"><ele>307.5</ele><time>2026-04-11T08:48:14.928Z</time></trkpt><trkpt lat="43.8668683" lon="12.6453092"><ele>308.0</ele><time>2026-04-11T08:48:15.924Z</time></trkpt><trkpt lat="43.8667892" lon="12.6453355"><ele>308.5</ele><time>2026-04-11T08:48:16.926Z</time></trkpt><trkpt lat="43.8667058" lon="12.6453649"><ele>309.0</ele><time>2026-04-11T08:48:17.927Z</time></trkpt><trkpt lat="43.8666226" lon="12.6453898"><ele>309.5</ele><time>2026-04-11T08:48:18.928Z</time></trkpt><trkpt lat="43.8665302" lon="12.6454294"><ele>310.0</ele><time>2026-04-11T08:48:19.925Z</time></trkpt><trkpt lat="43.8664376" lon="12.6454725"><ele>310.0</ele><time>2026-04-11T08:48:20.934Z</time></trkpt><trkpt lat="43.8663436" lon="12.6455196"><ele>310.0</ele><time>2026-04-11T08:48:21.927Z</time></trkpt><trkpt lat="43.8662585" lon="12.6455699"><ele>310.0</ele><time>2026-04-11T08:48:22.925Z</time></trkpt><trkpt lat="43.8661667" lon="12.6456186"><ele>310.0</ele><time>2026-04-11T08:48:23.934Z</time></trkpt><trkpt lat="43.8660814" lon="12.6456682"><ele>310.0</ele><time>2026-04-11T08:48:24.925Z</time></trkpt><trkpt lat="43.8659894" lon="12.6457341"><ele>310.6</ele><time>2026-04-11T08:48:25.926Z</time></trkpt><trkpt lat="43.8659052" lon="12.6457973"><ele>311.2</ele><time>2026-04-11T08:48:26.931Z</time></trkpt><trkpt lat="43.8658288" lon="12.645852"><ele>311.8</ele><time>2026-04-11T08:48:27.929Z</time></trkpt><trkpt lat="43.8657399" lon="12.6459202"><ele>312.4</ele><time>2026-04-11T08:48:28.924Z</time></trkpt><trkpt lat="43.8656327" lon="12.6459748"><ele>313.0</ele><time>2026-04-11T08:48:29.93Z</time></trkpt><trkpt lat="43.865574" lon="12.6460289"><ele>313.0</ele><time>2026-04-11T08:48:30.927Z</time></trkpt><trkpt lat="43.8654923" lon="12.6460807"><ele>313.0</ele><time>2026-04-11T08:48:31.93Z</time></trkpt><trkpt lat="43.8654096" lon="12.6461352"><ele>313.0</ele><time>2026-04-11T08:48:32.93Z</time></trkpt><trkpt lat="43.8653426" lon="12.6461941"><ele>313.0</ele><time>2026-04-11T08:48:33.928Z</time></trkpt><trkpt lat="43.8652915" lon="12.646248"><ele>313.0</ele><time>2026-04-11T08:48:34.924Z</time></trkpt><trkpt lat="43.865237" lon="12.6462918"><ele>313.0</ele><time>2026-04-11T08:48:35.927Z</time></trkpt><trkpt lat="43.865167" lon="12.646335"><ele>313.8</ele><time>2026-04-11T08:48:36.929Z</time></trkpt><trkpt lat="43.8650918" lon="12.6463867"><ele>314.6</ele><time>2026-04-11T08:48:37.927Z</time></trkpt><trkpt lat="43.8650079" lon="12.6464299"><ele>315.4</ele><time>2026-04-11T08:48:38.93Z</time></trkpt><trkpt lat="43.8649148" lon="12.6465052"><ele>316.2</ele><time>2026-04-11T08:48:39.928Z</time></trkpt><trkpt lat="43.864825" lon="12.6465538"><ele>317.0</ele><time>2026-04-11T08:48:40.929Z</time></trkpt><trkpt lat="43.8647173" lon="12.6466058"><ele>317.0</ele><time>2026-04-11T08:48:41.932Z</time></trkpt><trkpt lat="43.8646107" lon="12.6466493"><ele>317.0</ele><time>2026-04-11T08:48:42.929Z</time></trkpt><trkpt lat="43.8644924" lon="12.6466888"><ele>317.0</ele><time>2026-04-11T08:48:43.932Z</time></trkpt><trkpt lat="43.8643642" lon="12.6467254"><ele>317.0</ele><time>2026-04-11T08:48:44.929Z</time></trkpt><trkpt lat="43.8642361" lon="12.6467666"><ele>316.75</ele><time>2026-04-11T08:48:45.93Z</time></trkpt><trkpt lat="43.8641167" lon="12.6468186"><ele>316.5</ele><time>2026-04-11T08:48:46.928Z</time></trkpt><trkpt lat="43.8639933" lon="12.6468755"><ele>316.25</ele><time>2026-04-11T08:48:47.93Z</time></trkpt><trkpt lat="43.8638756" lon="12.6469657"><ele>316.0</ele><time>2026-04-11T08:48:48.93Z</time></trkpt><trkpt lat="43.8637668" lon="12.6470484"><ele>316.75</ele><time>2026-04-11T08:48:49.929Z</time></trkpt><trkpt lat="43.8636548" lon="12.6471325"><ele>317.5</ele><time>2026-04-11T08:48:50.929Z</time></trkpt><trkpt lat="43.8635332" lon="12.6471979"><ele>318.25</ele><time>2026-04-11T08:48:51.925Z</time></trkpt><trkpt lat="43.863416" lon="12.6472768"><ele>319.0</ele><time>2026-04-11T08:48:52.928Z</time></trkpt><trkpt lat="43.8632847" lon="12.6473516"><ele>320.5</ele><time>2026-04-11T08:48:53.927Z</time></trkpt><trkpt lat="43.8631556" lon="12.6474193"><ele>322.0</ele><time>2026-04-11T08:48:54.929Z</time></trkpt><trkpt lat="43.8630293" lon="12.647477"><ele>323.5</ele><time>2026-04-11T08:48:55.932Z</time></trkpt><trkpt lat="43.8629033" lon="12.6475216"><ele>325.0</ele><time>2026-04-11T08:48:56.926Z</time></trkpt><trkpt lat="43.8627589" lon="12.64757"><ele>325.0</ele><time>2026-04-11T08:48:57.928Z</time></trkpt><trkpt lat="43.8626618" lon="12.6476265"><ele>325.0</ele><time>2026-04-11T08:48:58.933Z</time></trkpt><trkpt lat="43.8625308" lon="12.6476886"><ele>325.0</ele><time>2026-04-11T08:48:59.929Z</time></trkpt><trkpt lat="43.8623835" lon="12.6477968"><ele>325.0</ele><time>2026-04-11T08:49:00.926Z</time></trkpt><trkpt lat="43.8622711" lon="12.6479034"><ele>325.0</ele><time>2026-04-11T08:49:01.93Z</time></trkpt><trkpt lat="43.8621387" lon="12.6480172"><ele>325.0</ele><time>2026-04-11T08:49:02.932Z</time></trkpt><trkpt lat="43.8620349" lon="12.6481265"><ele>325.0</ele><time>2026-04-11T08:49:03.928Z</time></trkpt><trkpt lat="43.8619125" lon="12.6482257"><ele>325.0</ele><time>2026-04-11T08:49:04.93Z</time></trkpt><trkpt lat="43.8617866" lon="12.6482796"><ele>322.75</ele><time>2026-04-11T08:49:05.929Z</time></trkpt><trkpt lat="43.861665" lon="12.6483327"><ele>320.5</ele><time>2026-04-11T08:49:06.926Z</time></trkpt><trkpt lat="43.8615543" lon="12.6484029"><ele>318.25</ele><time>2026-04-11T08:49:07.931Z</time></trkpt><trkpt lat="43.861441" lon="12.6484666"><ele>316.0</ele><time>2026-04-11T08:49:08.929Z</time></trkpt><trkpt lat="43.8613212" lon="12.6485294"><ele>316.0</ele><time>2026-04-11T08:49:09.927Z</time></trkpt><trkpt lat="43.8612143" lon="12.6485907"><ele>316.0</ele><time>2026-04-11T08:49:10.929Z</time></trkpt><trkpt lat="43.8611032" lon="12.6486407"><ele>316.0</ele><time>2026-04-11T08:49:11.929Z</time></trkpt><trkpt lat="43.8609911" lon="12.6486881"><ele>316.0</ele><time>2026-04-11T08:49:12.927Z</time></trkpt><trkpt lat="43.8608736" lon="12.6487146"><ele>320.75</ele><time>2026-04-11T08:49:13.931Z</time></trkpt><trkpt lat="43.8607587" lon="12.6487263"><ele>325.5</ele><time>2026-04-11T08:49:14.928Z</time></trkpt><trkpt lat="43.8606314" lon="12.648728"><ele>330.25</ele><time>2026-04-11T08:49:15.927Z</time></trkpt><trkpt lat="43.8605057" lon="12.6487463"><ele>335.0</ele><time>2026-04-11T08:49:16.933Z</time></trkpt><trkpt lat="43.8603766" lon="12.6488046"><ele>335.0</ele><time>2026-04-11T08:49:17.927Z</time></trkpt><trkpt lat="43.860254" lon="12.6488683"><ele>335.0</ele><time>2026-04-11T08:49:18.923Z</time></trkpt><trkpt lat="43.8601278" lon="12.6489339"><ele>335.0</ele><time>2026-04-11T08:49:19.928Z</time></trkpt><trkpt lat="43.8600089" lon="12.649011"><ele>335.0</ele><time>2026-04-11T08:49:20.923Z</time></trkpt><trkpt lat="43.8598644" lon="12.6490412"><ele>337.25</ele><time>2026-04-11T08:49:21.938Z</time></trkpt><trkpt lat="43.8597297" lon="12.6490712"><ele>339.5</ele><time>2026-04-11T08:49:22.935Z</time></trkpt><trkpt lat="43.8595913" lon="12.6490972"><ele>341.75</ele><time>2026-04-11T08:49:23.93Z</time></trkpt><trkpt lat="43.859439" lon="12.6491253"><ele>344.0</ele><time>2026-04-11T08:49:24.932Z</time></trkpt><trkpt lat="43.8592968" lon="12.6491464"><ele>344.5</ele><time>2026-04-11T08:49:25.928Z</time></trkpt><trkpt lat="43.8591557" lon="12.6491735"><ele>345.0</ele><time>2026-04-11T08:49:26.924Z</time></trkpt><trkpt lat="43.8590149" lon="12.6491881"><ele>345.5</ele><time>2026-04-11T08:49:27.93Z</time></trkpt><trkpt lat="43.8588752" lon="12.6492024"><ele>346.0</ele><time>2026-04-11T08:49:28.928Z</time></trkpt><trkpt lat="43.8587491" lon="12.6491947"><ele>346.0</ele><time>2026-04-11T08:49:29.928Z</time></trkpt><trkpt lat="43.8586222" lon="12.6491753"><ele>346.0</ele><time>2026-04-11T08:49:30.933Z</time></trkpt><trkpt lat="43.8584932" lon="12.6491552"><ele>346.0</ele><time>2026-04-11T08:49:31.927Z</time></trkpt><trkpt lat="43.8583669" lon="12.6491474"><ele>346.0</ele><time>2026-04-11T08:49:32.928Z</time></trkpt><trkpt lat="43.8582475" lon="12.6491634"><ele>346.25</ele><time>2026-04-11T08:49:33.929Z</time></trkpt><trkpt lat="43.858135" lon="12.6492051"><ele>346.5</ele><time>2026-04-11T08:49:34.924Z</time></trkpt><trkpt lat="43.8580266" lon="12.6492663"><ele>346.75</ele><time>2026-04-11T08:49:35.928Z</time></trkpt><trkpt lat="43.8579259" lon="12.6493497"><ele>347.0</ele><time>2026-04-11T08:49:36.928Z</time></trkpt><trkpt lat="43.8578172" lon="12.6494408"><ele>346.75</ele><time>2026-04-11T08:49:37.923Z</time></trkpt><trkpt lat="43.8577014" lon="12.6495369"><ele>346.5</ele><time>2026-04-11T08:49:38.931Z</time></trkpt><trkpt lat="43.8575825" lon="12.6496296"><ele>346.25</ele><time>2026-04-11T08:49:39.925Z</time></trkpt><trkpt lat="43.8574629" lon="12.6497106"><ele>346.0</ele><time>2026-04-11T08:49:40.926Z</time></trkpt><trkpt lat="43.8573481" lon="12.649784"><ele>346.0</ele><time>2026-04-11T08:49:41.928Z</time></trkpt><trkpt lat="43.8572336" lon="12.6498369"><ele>346.0</ele><time>2026-04-11T08:49:42.927Z</time></trkpt><trkpt lat="43.8571096" lon="12.6498821"><ele>346.0</ele><time>2026-04-11T08:49:43.927Z</time></trkpt><trkpt lat="43.856989" lon="12.6499292"><ele>346.0</ele><time>2026-04-11T08:49:44.937Z</time></trkpt><trkpt lat="43.8568644" lon="12.6499951"><ele>346.5</ele><time>2026-04-11T08:49:45.925Z</time></trkpt><trkpt lat="43.8567489" lon="12.6500757"><ele>347.0</ele><time>2026-04-11T08:49:46.926Z</time></trkpt><trkpt lat="43.8566345" lon="12.6501655"><ele>347.5</ele><time>2026-04-11T08:49:47.931Z</time></trkpt><trkpt lat="43.8565197" lon="12.6502571"><ele>348.0</ele><time>2026-04-11T08:49:48.928Z</time></trkpt><trkpt lat="43.8564175" lon="12.6503577"><ele>348.0</ele><time>2026-04-11T08:49:49.925Z</time></trkpt><trkpt lat="43.8563191" lon="12.650458"><ele>348.0</ele><time>2026-04-11T08:49:50.939Z</time></trkpt><trkpt lat="43.8562247" lon="12.6505649"><ele>348.0</ele><time>2026-04-11T08:49:51.927Z</time></trkpt><trkpt lat="43.8561485" lon="12.6506815"><ele>348.0</ele><time>2026-04-11T08:49:52.932Z</time></trkpt><trkpt lat="43.8560666" lon="12.6508011"><ele>348.0</ele><time>2026-04-11T08:49:53.928Z</time></trkpt><trkpt lat="43.8559932" lon="12.6509325"><ele>348.0</ele><time>2026-04-11T08:49:54.933Z</time></trkpt><trkpt lat="43.8559445" lon="12.651072"><ele>348.0</ele><time>2026-04-11T08:49:55.93Z</time></trkpt><trkpt lat="43.8558948" lon="12.6512109"><ele>348.0</ele><time>2026-04-11T08:49:56.925Z</time></trkpt><trkpt lat="43.8558568" lon="12.6513325"><ele>348.0</ele><time>2026-04-11T08:49:57.927Z</time></trkpt><trkpt lat="43.8558362" lon="12.6514456"><ele>350.3333333333333</ele><time>2026-04-11T08:49:58.929Z</time></trkpt><trkpt lat="43.8558101" lon="12.6515469"><ele>352.6666666666667</ele><time>2026-04-11T08:49:59.925Z</time></trkpt><trkpt lat="43.8557781" lon="12.6516787"><ele>355.0</ele><time>2026-04-11T08:50:01.927Z</time></trkpt><trkpt lat="43.8557519" lon="12.6517634"><ele>357.33333333333337</ele><time>2026-04-11T08:50:05.931Z</time></trkpt><trkpt lat="43.8557035" lon="12.6518592"><ele>359.6666666666667</ele><time>2026-04-11T08:50:47.933Z</time></trkpt><trkpt lat="43.8556691" lon="12.651968"><ele>362.0</ele><time>2026-04-11T08:50:50.935Z</time></trkpt><trkpt lat="43.85566" lon="12.6520788"><ele>362.0</ele><time>2026-04-11T08:50:51.926Z</time></trkpt><trkpt lat="43.8556494" lon="12.6521898"><ele>362.0</ele><time>2026-04-11T08:50:52.934Z</time></trkpt><trkpt lat="43.8556291" lon="12.6523028"><ele>362.0</ele><time>2026-04-11T08:50:53.931Z</time></trkpt><trkpt lat="43.8556189" lon="12.6524211"><ele>362.0</ele><time>2026-04-11T08:50:54.931Z</time></trkpt><trkpt lat="43.8556069" lon="12.6525519"><ele>362.0</ele><time>2026-04-11T08:50:55.929Z</time></trkpt><trkpt lat="43.8556042" lon="12.652683"><ele>362.0</ele><time>2026-04-11T08:50:56.931Z</time></trkpt><trkpt lat="43.8555982" lon="12.6528313"><ele>363.0</ele><time>2026-04-11T08:50:57.934Z</time></trkpt><trkpt lat="43.8555939" lon="12.6529791"><ele>364.0</ele><time>2026-04-11T08:50:58.932Z</time></trkpt><trkpt lat="43.8555902" lon="12.653146"><ele>365.0</ele><time>2026-04-11T08:50:59.931Z</time></trkpt><trkpt lat="43.8555808" lon="12.6532985"><ele>366.0</ele><time>2026-04-11T08:51:00.93Z</time></trkpt><trkpt lat="43.8555831" lon="12.6534408"><ele>367.0</ele><time>2026-04-11T08:51:01.93Z</time></trkpt><trkpt lat="43.8555834" lon="12.6535787"><ele>368.8</ele><time>2026-04-11T08:51:02.933Z</time></trkpt><trkpt lat="43.8555829" lon="12.6537175"><ele>370.6</ele><time>2026-04-11T08:51:03.933Z</time></trkpt><trkpt lat="43.855603" lon="12.6538569"><ele>372.40000000000003</ele><time>2026-04-11T08:51:04.936Z</time></trkpt><trkpt lat="43.8556509" lon="12.6539883"><ele>374.20000000000005</ele><time>2026-04-11T08:51:05.93Z</time></trkpt><trkpt lat="43.8556893" lon="12.6541168"><ele>376.0</ele><time>2026-04-11T08:51:06.934Z</time></trkpt><trkpt lat="43.8557449" lon="12.6542393"><ele>376.0</ele><time>2026-04-11T08:51:07.931Z</time></trkpt><trkpt lat="43.855813" lon="12.6543661"><ele>376.0</ele><time>2026-04-11T08:51:08.927Z</time></trkpt><trkpt lat="43.855879" lon="12.6544728"><ele>376.0</ele><time>2026-04-11T08:51:09.932Z</time></trkpt><trkpt lat="43.8559533" lon="12.6545694"><ele>376.0</ele><time>2026-04-11T08:51:10.936Z</time></trkpt><trkpt lat="43.8560452" lon="12.654646"><ele>376.0</ele><time>2026-04-11T08:51:11.928Z</time></trkpt><trkpt lat="43.856118" lon="12.6546929"><ele>376.4</ele><time>2026-04-11T08:51:12.932Z</time></trkpt><trkpt lat="43.856223" lon="12.654745"><ele>376.8</ele><time>2026-04-11T08:51:13.936Z</time></trkpt><trkpt lat="43.8563286" lon="12.6547902"><ele>377.2</ele><time>2026-04-11T08:51:14.927Z</time></trkpt><trkpt lat="43.856422" lon="12.6548376"><ele>377.59999999999997</ele><time>2026-04-11T08:51:15.931Z</time></trkpt><trkpt lat="43.8565102" lon="12.6549037"><ele>378.0</ele><time>2026-04-11T08:51:16.932Z</time></trkpt><trkpt lat="43.8565935" lon="12.6549977"><ele>378.0</ele><time>2026-04-11T08:51:17.93Z</time></trkpt><trkpt lat="43.8566272" lon="12.6550793"><ele>378.0</ele><time>2026-04-11T08:51:18.934Z</time></trkpt><trkpt lat="43.8566802" lon="12.6551921"><ele>378.0</ele><time>2026-04-11T08:51:19.936Z</time></trkpt><trkpt lat="43.8566977" lon="12.6553136"><ele>378.0</ele><time>2026-04-11T08:51:20.93Z</time></trkpt><trkpt lat="43.8566999" lon="12.6554633"><ele>378.0</ele><time>2026-04-11T08:51:21.928Z</time></trkpt><trkpt lat="43.8567108" lon="12.6556168"><ele>375.75</ele><time>2026-04-11T08:51:22.926Z</time></trkpt><trkpt lat="43.8567126" lon="12.6557828"><ele>373.5</ele><time>2026-04-11T08:51:23.929Z</time></trkpt><trkpt lat="43.8567332" lon="12.6559654"><ele>371.25</ele><time>2026-04-11T08:51:24.929Z</time></trkpt><trkpt lat="43.8567549" lon="12.6561309"><ele>369.0</ele><time>2026-04-11T08:51:25.932Z</time></trkpt><trkpt lat="43.8568065" lon="12.6562657"><ele>369.0</ele><time>2026-04-11T08:51:26.933Z</time></trkpt><trkpt lat="43.8568682" lon="12.6563753"><ele>369.0</ele><time>2026-04-11T08:51:27.935Z</time></trkpt><trkpt lat="43.8569514" lon="12.656463"><ele>369.0</ele><time>2026-04-11T08:51:28.932Z</time></trkpt><trkpt lat="43.8570462" lon="12.656538"><ele>369.0</ele><time>2026-04-11T08:51:29.927Z</time></trkpt><trkpt lat="43.8571413" lon="12.6566066"><ele>369.0</ele><time>2026-04-11T08:51:30.929Z</time></trkpt><trkpt lat="43.8572258" lon="12.6566824"><ele>369.0</ele><time>2026-04-11T08:51:31.922Z</time></trkpt><trkpt lat="43.857301" lon="12.6567726"><ele>369.0</ele><time>2026-04-11T08:51:32.925Z</time></trkpt><trkpt lat="43.857365" lon="12.6568686"><ele>369.0</ele><time>2026-04-11T08:51:33.926Z</time></trkpt><trkpt lat="43.8573223" lon="12.656984"><ele>369.0</ele><time>2026-04-11T08:51:34.931Z</time></trkpt><trkpt lat="43.8573008" lon="12.6570871"><ele>369.0</ele><time>2026-04-11T08:51:35.927Z</time></trkpt><trkpt lat="43.8572635" lon="12.6571959"><ele>370.1666666666667</ele><time>2026-04-11T08:51:36.929Z</time></trkpt><trkpt lat="43.857206" lon="12.6572685"><ele>371.3333333333333</ele><time>2026-04-11T08:51:37.931Z</time></trkpt><trkpt lat="43.8571058" lon="12.6573986"><ele>372.5</ele><time>2026-04-11T08:51:39.932Z</time></trkpt><trkpt lat="43.8570633" lon="12.6574733"><ele>373.66666666666663</ele><time>2026-04-11T08:51:41.936Z</time></trkpt><trkpt lat="43.8570746" lon="12.6575788"><ele>374.8333333333333</ele><time>2026-04-11T08:52:11.93Z</time></trkpt><trkpt lat="43.8570098" lon="12.6576459"><ele>376.0</ele><time>2026-04-11T08:52:14.934Z</time></trkpt><trkpt lat="43.8570831" lon="12.6576384"><ele>376.0</ele><time>2026-04-11T08:52:18.932Z</time></trkpt><trkpt lat="43.8572027" lon="12.6573364"><ele>376.0</ele><time>2026-04-11T08:52:20.934Z</time></trkpt><trkpt lat="43.8572436" lon="12.6572084"><ele>376.0</ele><time>2026-04-11T08:52:21.935Z</time></trkpt><trkpt lat="43.857276" lon="12.6571029"><ele>376.0</ele><time>2026-04-11T08:52:22.935Z</time></trkpt><trkpt lat="43.8573122" lon="12.6570146"><ele>374.6</ele><time>2026-04-11T08:52:23.926Z</time></trkpt><trkpt lat="43.8573211" lon="12.6568291"><ele>373.20000000000005</ele><time>2026-04-11T08:52:25.932Z</time></trkpt><trkpt lat="43.8572407" lon="12.6567461"><ele>371.79999999999995</ele><time>2026-04-11T08:52:26.929Z</time></trkpt><trkpt lat="43.8571713" lon="12.6566745"><ele>370.4</ele><time>2026-04-11T08:52:27.934Z</time></trkpt><trkpt lat="43.8571011" lon="12.6566109"><ele>369.0</ele><time>2026-04-11T08:52:28.93Z</time></trkpt><trkpt lat="43.8570037" lon="12.6565557"><ele>369.0</ele><time>2026-04-11T08:52:29.929Z</time></trkpt><trkpt lat="43.856901" lon="12.6564606"><ele>369.0</ele><time>2026-04-11T08:52:30.933Z</time></trkpt><trkpt lat="43.856812" lon="12.6563403"><ele>369.0</ele><time>2026-04-11T08:52:31.931Z</time></trkpt><trkpt lat="43.8567626" lon="12.656184"><ele>369.0</ele><time>2026-04-11T08:52:32.927Z</time></trkpt><trkpt lat="43.8567374" lon="12.6560069"><ele>371.25</ele><time>2026-04-11T08:52:33.928Z</time></trkpt><trkpt lat="43.8567291" lon="12.6558258"><ele>373.5</ele><time>2026-04-11T08:52:34.933Z</time></trkpt><trkpt lat="43.8567239" lon="12.655642"><ele>375.75</ele><time>2026-04-11T08:52:35.929Z</time></trkpt><trkpt lat="43.856724" lon="12.6554535"><ele>378.0</ele><time>2026-04-11T08:52:36.934Z</time></trkpt><trkpt lat="43.8567344" lon="12.6552692"><ele>378.0</ele><time>2026-04-11T08:52:37.93Z</time></trkpt><trkpt lat="43.8567293" lon="12.6550986"><ele>378.0</ele><time>2026-04-11T08:52:38.936Z</time></trkpt><trkpt lat="43.8567044" lon="12.6549804"><ele>378.0</ele><time>2026-04-11T08:52:39.923Z</time></trkpt><trkpt lat="43.8566499" lon="12.6548513"><ele>378.0</ele><time>2026-04-11T08:52:40.93Z</time></trkpt><trkpt lat="43.8565409" lon="12.654772"><ele>378.0</ele><time>2026-04-11T08:52:41.931Z</time></trkpt><trkpt lat="43.8563715" lon="12.6547711"><ele>378.0</ele><time>2026-04-11T08:52:42.929Z</time></trkpt><trkpt lat="43.8562369" lon="12.6547171"><ele>378.0</ele><time>2026-04-11T08:52:43.936Z</time></trkpt><trkpt lat="43.8561224" lon="12.6546424"><ele>378.0</ele><time>2026-04-11T08:52:44.928Z</time></trkpt><trkpt lat="43.8560002" lon="12.6545551"><ele>378.0</ele><time>2026-04-11T08:52:45.94Z</time></trkpt><trkpt lat="43.8558964" lon="12.6544391"><ele>377.5</ele><time>2026-04-11T08:52:46.928Z</time></trkpt><trkpt lat="43.8558149" lon="12.6542992"><ele>377.0</ele><time>2026-04-11T08:52:47.935Z</time></trkpt><trkpt lat="43.8557405" lon="12.6541475"><ele>376.5</ele><time>2026-04-11T08:52:48.931Z</time></trkpt><trkpt lat="43.8556757" lon="12.6539869"><ele>376.0</ele><time>2026-04-11T08:52:49.93Z</time></trkpt><trkpt lat="43.8556417" lon="12.6538277"><ele>376.0</ele><time>2026-04-11T08:52:50.94Z</time></trkpt><trkpt lat="43.8556225" lon="12.6536488"><ele>376.0</ele><time>2026-04-11T08:52:51.937Z</time></trkpt><trkpt lat="43.8556073" lon="12.6534672"><ele>376.0</ele><time>2026-04-11T08:52:52.932Z</time></trkpt><trkpt lat="43.8556041" lon="12.6532829"><ele>376.0</ele><time>2026-04-11T08:52:53.924Z</time></trkpt><trkpt lat="43.8556027" lon="12.6531073"><ele>373.75</ele><time>2026-04-11T08:52:54.935Z</time></trkpt><trkpt lat="43.8556083" lon="12.652929"><ele>371.5</ele><time>2026-04-11T08:52:55.93Z</time></trkpt><trkpt lat="43.8556139" lon="12.6527544"><ele>369.25</ele><time>2026-04-11T08:52:56.936Z</time></trkpt><trkpt lat="43.855623" lon="12.6525844"><ele>367.0</ele><time>2026-04-11T08:52:57.925Z</time></trkpt><trkpt lat="43.8556278" lon="12.6524267"><ele>365.75</ele><time>2026-04-11T08:52:58.933Z</time></trkpt><trkpt lat="43.85564" lon="12.6522666"><ele>364.5</ele><time>2026-04-11T08:52:59.932Z</time></trkpt><trkpt lat="43.8556545" lon="12.652106"><ele>363.25</ele><time>2026-04-11T08:53:00.93Z</time></trkpt><trkpt lat="43.8556706" lon="12.6519416"><ele>362.0</ele><time>2026-04-11T08:53:01.933Z</time></trkpt><trkpt lat="43.8556891" lon="12.6517591"><ele>362.0</ele><time>2026-04-11T08:53:02.933Z</time></trkpt><trkpt lat="43.8557086" lon="12.6515822"><ele>362.0</ele><time>2026-04-11T08:53:03.931Z</time></trkpt><trkpt lat="43.8557311" lon="12.6513963"><ele>362.0</ele><time>2026-04-11T08:53:04.929Z</time></trkpt><trkpt lat="43.855754" lon="12.6512082"><ele>362.0</ele><time>2026-04-11T08:53:05.934Z</time></trkpt><trkpt lat="43.85578" lon="12.6510197"><ele>361.75</ele><time>2026-04-11T08:53:06.928Z</time></trkpt><trkpt lat="43.8557985" lon="12.6508318"><ele>361.5</ele><time>2026-04-11T08:53:07.932Z</time></trkpt><trkpt lat="43.8558169" lon="12.6506438"><ele>361.25</ele><time>2026-04-11T08:53:08.936Z</time></trkpt><trkpt lat="43.8558359" lon="12.6504565"><ele>361.0</ele><time>2026-04-11T08:53:09.926Z</time></trkpt><trkpt lat="43.8558451" lon="12.6502796"><ele>361.0</ele><time>2026-04-11T08:53:10.93Z</time></trkpt><trkpt lat="43.8558374" lon="12.6501053"><ele>361.0</ele><time>2026-04-11T08:53:11.931Z</time></trkpt><trkpt lat="43.8557935" lon="12.6499383"><ele>361.0</ele><time>2026-04-11T08:53:12.93Z</time></trkpt><trkpt lat="43.8557368" lon="12.6497707"><ele>361.0</ele><time>2026-04-11T08:53:13.932Z</time></trkpt><trkpt lat="43.855673" lon="12.649615"><ele>361.20000000000005</ele><time>2026-04-11T08:53:14.93Z</time></trkpt><trkpt lat="43.8556328" lon="12.6494459"><ele>361.40000000000003</ele><time>2026-04-11T08:53:15.932Z</time></trkpt><trkpt lat="43.855604" lon="12.6492937"><ele>361.6</ele><time>2026-04-11T08:53:16.931Z</time></trkpt><trkpt lat="43.8555958" lon="12.6491526"><ele>361.8</ele><time>2026-04-11T08:53:17.934Z</time></trkpt><trkpt lat="43.8556052" lon="12.6490255"><ele>362.0</ele><time>2026-04-11T08:53:18.931Z</time></trkpt><trkpt lat="43.8556496" lon="12.6489151"><ele>362.0</ele><time>2026-04-11T08:53:19.939Z</time></trkpt><trkpt lat="43.8557013" lon="12.6488188"><ele>362.0</ele><time>2026-04-11T08:53:20.936Z</time></trkpt><trkpt lat="43.8557676" lon="12.6487345"><ele>362.0</ele><time>2026-04-11T08:53:21.931Z</time></trkpt><trkpt lat="43.8558653" lon="12.6486883"><ele>362.0</ele><time>2026-04-11T08:53:22.926Z</time></trkpt><trkpt lat="43.8559716" lon="12.6486415"><ele>362.0</ele><time>2026-04-11T08:53:23.932Z</time></trkpt><trkpt lat="43.8560816" lon="12.6485851"><ele>362.0</ele><time>2026-04-11T08:53:24.93Z</time></trkpt><trkpt lat="43.8561922" lon="12.6485104"><ele>362.0</ele><time>2026-04-11T08:53:25.934Z</time></trkpt><trkpt lat="43.8562911" lon="12.6484052"><ele>362.0</ele><time>2026-04-11T08:53:26.931Z</time></trkpt><trkpt lat="43.8563511" lon="12.6482745"><ele>362.0</ele><time>2026-04-11T08:53:27.93Z</time></trkpt><trkpt lat="43.8564097" lon="12.6481311"><ele>362.0</ele><time>2026-04-11T08:53:28.935Z</time></trkpt><trkpt lat="43.8564745" lon="12.6479818"><ele>362.0</ele><time>2026-04-11T08:53:29.935Z</time></trkpt><trkpt lat="43.8564641" lon="12.6478196"><ele>362.0</ele><time>2026-04-11T08:53:30.935Z</time></trkpt><trkpt lat="43.8564761" lon="12.647648"><ele>362.0</ele><time>2026-04-11T08:53:31.932Z</time></trkpt><trkpt lat="43.8564697" lon="12.6474786"><ele>361.20000000000005</ele><time>2026-04-11T08:53:32.931Z</time></trkpt><trkpt lat="43.8564616" lon="12.6473269"><ele>360.4</ele><time>2026-04-11T08:53:33.93Z</time></trkpt><trkpt lat="43.856463" lon="12.6471906"><ele>359.6</ele><time>2026-04-11T08:53:34.94Z</time></trkpt><trkpt lat="43.8564826" lon="12.6470509"><ele>358.79999999999995</ele><time>2026-04-11T08:53:35.929Z</time></trkpt><trkpt lat="43.8565373" lon="12.6469274"><ele>358.0</ele><time>2026-04-11T08:53:36.93Z</time></trkpt><trkpt lat="43.8566197" lon="12.6468322"><ele>356.5</ele><time>2026-04-11T08:53:37.928Z</time></trkpt><trkpt lat="43.856728" lon="12.6467509"><ele>355.0</ele><time>2026-04-11T08:53:38.933Z</time></trkpt><trkpt lat="43.8568503" lon="12.6466785"><ele>353.5</ele><time>2026-04-11T08:53:39.933Z</time></trkpt><trkpt lat="43.8569647" lon="12.6465903"><ele>352.0</ele><time>2026-04-11T08:53:40.931Z</time></trkpt><trkpt lat="43.8570625" lon="12.6464796"><ele>352.0</ele><time>2026-04-11T08:53:41.927Z</time></trkpt><trkpt lat="43.8571444" lon="12.6463658"><ele>352.0</ele><time>2026-04-11T08:53:42.931Z</time></trkpt><trkpt lat="43.8571785" lon="12.6462027"><ele>352.0</ele><time>2026-04-11T08:53:43.929Z</time></trkpt><trkpt lat="43.8571783" lon="12.6460334"><ele>352.0</ele><time>2026-04-11T08:53:44.933Z</time></trkpt><trkpt lat="43.8571558" lon="12.6458672"><ele>352.25</ele><time>2026-04-11T08:53:45.927Z</time></trkpt><trkpt lat="43.8571238" lon="12.6456982"><ele>352.5</ele><time>2026-04-11T08:53:46.933Z</time></trkpt><trkpt lat="43.8570817" lon="12.6455322"><ele>352.75</ele><time>2026-04-11T08:53:47.93Z</time></trkpt><trkpt lat="43.857033" lon="12.6453648"><ele>353.0</ele><time>2026-04-11T08:53:48.926Z</time></trkpt><trkpt lat="43.8569858" lon="12.645206"><ele>353.0</ele><time>2026-04-11T08:53:49.934Z</time></trkpt><trkpt lat="43.856941" lon="12.6450609"><ele>353.0</ele><time>2026-04-11T08:53:50.934Z</time></trkpt><trkpt lat="43.8568983" lon="12.6449242"><ele>353.0</ele><time>2026-04-11T08:53:51.929Z</time></trkpt><trkpt lat="43.8568377" lon="12.6448052"><ele>353.0</ele><time>2026-04-11T08:53:52.93Z</time></trkpt><trkpt lat="43.8567591" lon="12.644716"><ele>353.0</ele><time>2026-04-11T08:53:53.925Z</time></trkpt><trkpt lat="43.8566798" lon="12.6446386"><ele>353.59999999999997</ele><time>2026-04-11T08:53:54.932Z</time></trkpt><trkpt lat="43.8565923" lon="12.6445659"><ele>354.2</ele><time>2026-04-11T08:53:55.939Z</time></trkpt><trkpt lat="43.8564977" lon="12.6444831"><ele>354.8</ele><time>2026-04-11T08:53:56.932Z</time></trkpt><trkpt lat="43.8564112" lon="12.6443819"><ele>355.4</ele><time>2026-04-11T08:53:57.928Z</time></trkpt><trkpt lat="43.8563409" lon="12.6442671"><ele>356.0</ele><time>2026-04-11T08:53:58.929Z</time></trkpt><trkpt lat="43.856265" lon="12.6441377"><ele>356.0</ele><time>2026-04-11T08:53:59.932Z</time></trkpt><trkpt lat="43.8561898" lon="12.6440261"><ele>356.0</ele><time>2026-04-11T08:54:00.928Z</time></trkpt><trkpt lat="43.8560618" lon="12.643947"><ele>356.0</ele><time>2026-04-11T08:54:01.935Z</time></trkpt><trkpt lat="43.8559453" lon="12.6438885"><ele>356.0</ele><time>2026-04-11T08:54:02.934Z</time></trkpt><trkpt lat="43.8558246" lon="12.6438419"><ele>354.6</ele><time>2026-04-11T08:54:03.934Z</time></trkpt><trkpt lat="43.85571" lon="12.6438004"><ele>353.20000000000005</ele><time>2026-04-11T08:54:04.932Z</time></trkpt><trkpt lat="43.8556214" lon="12.6437461"><ele>351.79999999999995</ele><time>2026-04-11T08:54:05.932Z</time></trkpt><trkpt lat="43.8555319" lon="12.6436984"><ele>350.4</ele><time>2026-04-11T08:54:06.935Z</time></trkpt><trkpt lat="43.8554724" lon="12.6436011"><ele>349.0</ele><time>2026-04-11T08:54:07.936Z</time></trkpt><trkpt lat="43.8554269" lon="12.6434945"><ele>349.0</ele><time>2026-04-11T08:54:08.929Z</time></trkpt><trkpt lat="43.8554014" lon="12.6433516"><ele>349.0</ele><time>2026-04-11T08:54:09.931Z</time></trkpt><trkpt lat="43.8553872" lon="12.6431809"><ele>349.0</ele><time>2026-04-11T08:54:10.936Z</time></trkpt><trkpt lat="43.8553624" lon="12.6429908"><ele>349.0</ele><time>2026-04-11T08:54:11.93Z</time></trkpt><trkpt lat="43.8553179" lon="12.6427828"><ele>351.25</ele><time>2026-04-11T08:54:12.928Z</time></trkpt><trkpt lat="43.8552733" lon="12.6425788"><ele>353.5</ele><time>2026-04-11T08:54:13.937Z</time></trkpt><trkpt lat="43.855209" lon="12.6423999"><ele>355.75</ele><time>2026-04-11T08:54:14.934Z</time></trkpt><trkpt lat="43.8551342" lon="12.6422314"><ele>358.0</ele><time>2026-04-11T08:54:15.928Z</time></trkpt><trkpt lat="43.8550569" lon="12.6420649"><ele>354.25</ele><time>2026-04-11T08:54:16.926Z</time></trkpt><trkpt lat="43.8549757" lon="12.6419197"><ele>350.5</ele><time>2026-04-11T08:54:17.937Z</time></trkpt><trkpt lat="43.85488" lon="12.6418099"><ele>346.75</ele><time>2026-04-11T08:54:18.936Z</time></trkpt><trkpt lat="43.8547902" lon="12.6417182"><ele>343.0</ele><time>2026-04-11T08:54:19.934Z</time></trkpt><trkpt lat="43.8546925" lon="12.6416421"><ele>343.0</ele><time>2026-04-11T08:54:20.934Z</time></trkpt><trkpt lat="43.8546252" lon="12.6415504"><ele>343.0</ele><time>2026-04-11T08:54:21.93Z</time></trkpt><trkpt lat="43.8545712" lon="12.6414386"><ele>343.0</ele><time>2026-04-11T08:54:22.93Z</time></trkpt><trkpt lat="43.8545319" lon="12.64131"><ele>343.0</ele><time>2026-04-11T08:54:23.932Z</time></trkpt><trkpt lat="43.8545118" lon="12.6411599"><ele>343.0</ele><time>2026-04-11T08:54:24.928Z</time></trkpt><trkpt lat="43.8545191" lon="12.6409869"><ele>346.0</ele><time>2026-04-11T08:54:25.933Z</time></trkpt><trkpt lat="43.854531" lon="12.6408165"><ele>349.0</ele><time>2026-04-11T08:54:26.961Z</time></trkpt><trkpt lat="43.8545546" lon="12.6406658"><ele>352.0</ele><time>2026-04-11T08:54:27.933Z</time></trkpt><trkpt lat="43.8545408" lon="12.640507"><ele>355.0</ele><time>2026-04-11T08:54:28.927Z</time></trkpt><trkpt lat="43.8545089" lon="12.6403689"><ele>355.5</ele><time>2026-04-11T08:54:29.936Z</time></trkpt><trkpt lat="43.8544571" lon="12.6402375"><ele>356.0</ele><time>2026-04-11T08:54:30.93Z</time></trkpt><trkpt lat="43.8543915" lon="12.6401044"><ele>356.5</ele><time>2026-04-11T08:54:31.935Z</time></trkpt><trkpt lat="43.8543097" lon="12.6399879"><ele>357.0</ele><time>2026-04-11T08:54:32.933Z</time></trkpt><trkpt lat="43.8542276" lon="12.6398781"><ele>353.0</ele><time>2026-04-11T08:54:33.926Z</time></trkpt><trkpt lat="43.8541527" lon="12.6397547"><ele>349.0</ele><time>2026-04-11T08:54:34.931Z</time></trkpt><trkpt lat="43.8540928" lon="12.6396359"><ele>345.0</ele><time>2026-04-11T08:54:35.931Z</time></trkpt><trkpt lat="43.8540387" lon="12.6395238"><ele>341.0</ele><time>2026-04-11T08:54:36.93Z</time></trkpt><trkpt lat="43.8539917" lon="12.6394303"><ele>337.0</ele><time>2026-04-11T08:54:37.933Z</time></trkpt><trkpt lat="43.8539595" lon="12.6393549"><ele>337.0</ele><time>2026-04-11T08:54:38.934Z</time></trkpt><trkpt lat="43.8538965" lon="12.6392618"><ele>337.0</ele><time>2026-04-11T08:54:40.928Z</time></trkpt><trkpt lat="43.853831" lon="12.6392009"><ele>337.0</ele><time>2026-04-11T08:54:42.93Z</time></trkpt><trkpt lat="43.8537478" lon="12.6390956"><ele>337.0</ele><time>2026-04-11T08:54:44.933Z</time></trkpt><trkpt lat="43.853657" lon="12.6390205"><ele>337.0</ele><time>2026-04-11T08:54:46.931Z</time></trkpt><trkpt lat="43.8534704" lon="12.6390943"><ele>333.8</ele><time>2026-04-11T08:54:48.933Z</time></trkpt><trkpt lat="43.8533799" lon="12.6391515"><ele>330.6</ele><time>2026-04-11T08:54:49.927Z</time></trkpt><trkpt lat="43.8533009" lon="12.6392026"><ele>327.40000000000003</ele><time>2026-04-11T08:54:50.928Z</time></trkpt><trkpt lat="43.8532355" lon="12.6392449"><ele>324.20000000000005</ele><time>2026-04-11T08:54:51.931Z</time></trkpt><trkpt lat="43.853115" lon="12.6393042"><ele>321.0</ele><time>2026-04-11T08:54:53.933Z</time></trkpt><trkpt lat="43.8530543" lon="12.6393297"><ele>321.0</ele><time>2026-04-11T08:54:54.937Z</time></trkpt><trkpt lat="43.8529538" lon="12.6393911"><ele>321.0</ele><time>2026-04-11T08:54:56.927Z</time></trkpt><trkpt lat="43.852881" lon="12.6394288"><ele>321.0</ele><time>2026-04-11T08:54:59.929Z</time></trkpt><trkpt lat="43.8528157" lon="12.6394385"><ele>321.0</ele><time>2026-04-11T08:57:09.93Z</time></trkpt><trkpt lat="43.8528856" lon="12.6394571"><ele>321.0</ele><time>2026-04-11T08:57:15.927Z</time></trkpt><trkpt lat="43.8529997" lon="12.6393692"><ele>321.0</ele><time>2026-04-11T08:57:17.931Z</time></trkpt><trkpt lat="43.853104" lon="12.6393169"><ele>321.0</ele><time>2026-04-11T08:57:19.94Z</time></trkpt><trkpt lat="43.8532014" lon="12.6392409"><ele>321.0</ele><time>2026-04-11T08:57:21.93Z</time></trkpt><trkpt lat="43.8533043" lon="12.639181"><ele>321.0</ele><time>2026-04-11T08:57:23.931Z</time></trkpt><trkpt lat="43.8533646" lon="12.6391474"><ele>321.0</ele><time>2026-04-11T08:57:24.935Z</time></trkpt><trkpt lat="43.8534623" lon="12.6390943"><ele>324.20000000000005</ele><time>2026-04-11T08:57:26.933Z</time></trkpt><trkpt lat="43.8535552" lon="12.6390589"><ele>327.40000000000003</ele><time>2026-04-11T08:57:28.935Z</time></trkpt><trkpt lat="43.8536342" lon="12.6390562"><ele>330.6</ele><time>2026-04-11T08:57:30.932Z</time></trkpt><trkpt lat="43.8537289" lon="12.6391288"><ele>333.8</ele><time>2026-04-11T08:57:32.932Z</time></trkpt><trkpt lat="43.8538139" lon="12.6392266"><ele>337.0</ele><time>2026-04-11T08:57:34.926Z</time></trkpt><trkpt lat="43.8538593" lon="12.6391618"><ele>337.0</ele><time>2026-04-11T08:57:39.935Z</time></trkpt><trkpt lat="43.8538122" lon="12.6390638"><ele>337.0</ele><time>2026-04-11T08:57:41.931Z</time></trkpt><trkpt lat="43.8537467" lon="12.6389162"><ele>337.0</ele><time>2026-04-11T08:57:43.932Z</time></trkpt><trkpt lat="43.8537126" lon="12.638833"><ele>337.0</ele><time>2026-04-11T08:57:44.929Z</time></trkpt><trkpt lat="43.8536718" lon="12.6387476"><ele>337.0</ele><time>2026-04-11T08:57:45.928Z</time></trkpt><trkpt lat="43.8536406" lon="12.6386523"><ele>337.0</ele><time>2026-04-11T08:57:46.928Z</time></trkpt><trkpt lat="43.8536053" lon="12.6384683"><ele>334.6</ele><time>2026-04-11T08:57:48.932Z</time></trkpt><trkpt lat="43.8536824" lon="12.638415"><ele>332.20000000000005</ele><time>2026-04-11T08:57:49.93Z</time></trkpt><trkpt lat="43.8537506" lon="12.6383473"><ele>329.8</ele><time>2026-04-11T08:57:50.934Z</time></trkpt><trkpt lat="43.8538362" lon="12.6383005"><ele>327.4</ele><time>2026-04-11T08:57:51.929Z</time></trkpt><trkpt lat="43.8539464" lon="12.6382792"><ele>325.0</ele><time>2026-04-11T08:57:52.93Z</time></trkpt><trkpt lat="43.8540608" lon="12.6382729"><ele>325.0</ele><time>2026-04-11T08:57:53.927Z</time></trkpt><trkpt lat="43.8541954" lon="12.6383284"><ele>325.0</ele><time>2026-04-11T08:57:54.932Z</time></trkpt><trkpt lat="43.8543141" lon="12.6383829"><ele>325.0</ele><time>2026-04-11T08:57:55.931Z</time></trkpt><trkpt lat="43.8544213" lon="12.6384265"><ele>325.0</ele><time>2026-04-11T08:57:56.933Z</time></trkpt><trkpt lat="43.8545248" lon="12.6384538"><ele>326.8</ele><time>2026-04-11T08:57:57.931Z</time></trkpt><trkpt lat="43.8546228" lon="12.6384494"><ele>328.6</ele><time>2026-04-11T08:57:58.933Z</time></trkpt><trkpt lat="43.8547092" lon="12.6384038"><ele>330.4</ele><time>2026-04-11T08:57:59.927Z</time></trkpt><trkpt lat="43.8547881" lon="12.638305"><ele>332.2</ele><time>2026-04-11T08:58:00.929Z</time></trkpt><trkpt lat="43.8548597" lon="12.6382156"><ele>334.0</ele><time>2026-04-11T08:58:01.938Z</time></trkpt><trkpt lat="43.8549044" lon="12.6380338"><ele>334.0</ele><time>2026-04-11T08:58:02.932Z</time></trkpt><trkpt lat="43.8549516" lon="12.6378637"><ele>334.0</ele><time>2026-04-11T08:58:03.93Z</time></trkpt><trkpt lat="43.8549992" lon="12.6376949"><ele>334.0</ele><time>2026-04-11T08:58:04.931Z</time></trkpt><trkpt lat="43.8550568" lon="12.637532"><ele>334.0</ele><time>2026-04-11T08:58:05.93Z</time></trkpt><trkpt lat="43.85511" lon="12.637377"><ele>334.75</ele><time>2026-04-11T08:58:06.936Z</time></trkpt><trkpt lat="43.8551632" lon="12.6372241"><ele>335.5</ele><time>2026-04-11T08:58:07.928Z</time></trkpt><trkpt lat="43.8552177" lon="12.6370751"><ele>336.25</ele><time>2026-04-11T08:58:08.932Z</time></trkpt><trkpt lat="43.855257" lon="12.6369135"><ele>337.0</ele><time>2026-04-11T08:58:09.927Z</time></trkpt><trkpt lat="43.8552818" lon="12.6367531"><ele>335.5</ele><time>2026-04-11T08:58:10.926Z</time></trkpt><trkpt lat="43.8552724" lon="12.6366125"><ele>334.0</ele><time>2026-04-11T08:58:11.928Z</time></trkpt><trkpt lat="43.8552416" lon="12.6364432"><ele>332.5</ele><time>2026-04-11T08:58:12.936Z</time></trkpt><trkpt lat="43.8551867" lon="12.636293"><ele>331.0</ele><time>2026-04-11T08:58:13.931Z</time></trkpt><trkpt lat="43.8551319" lon="12.6361638"><ele>326.0</ele><time>2026-04-11T08:58:14.925Z</time></trkpt><trkpt lat="43.8550555" lon="12.6360362"><ele>321.0</ele><time>2026-04-11T08:58:15.931Z</time></trkpt><trkpt lat="43.8549868" lon="12.6359151"><ele>316.0</ele><time>2026-04-11T08:58:16.93Z</time></trkpt><trkpt lat="43.8549137" lon="12.6357863"><ele>311.0</ele><time>2026-04-11T08:58:17.93Z</time></trkpt><trkpt lat="43.854844" lon="12.6356549"><ele>311.0</ele><time>2026-04-11T08:58:18.933Z</time></trkpt><trkpt lat="43.8547828" lon="12.6355219"><ele>311.0</ele><time>2026-04-11T08:58:19.939Z</time></trkpt><trkpt lat="43.8547337" lon="12.6353633"><ele>311.0</ele><time>2026-04-11T08:58:20.931Z</time></trkpt><trkpt lat="43.8546816" lon="12.6352127"><ele>311.0</ele><time>2026-04-11T08:58:21.929Z</time></trkpt><trkpt lat="43.8546303" lon="12.635059"><ele>311.2</ele><time>2026-04-11T08:58:22.938Z</time></trkpt><trkpt lat="43.8546001" lon="12.6349256"><ele>311.40000000000003</ele><time>2026-04-11T08:58:23.928Z</time></trkpt><trkpt lat="43.8545623" lon="12.6347991"><ele>311.6</ele><time>2026-04-11T08:58:24.935Z</time></trkpt><trkpt lat="43.8545315" lon="12.6346666"><ele>311.8</ele><time>2026-04-11T08:58:25.932Z</time></trkpt><trkpt lat="43.8545103" lon="12.6345273"><ele>312.0</ele><time>2026-04-11T08:58:26.927Z</time></trkpt><trkpt lat="43.8544874" lon="12.6343898"><ele>310.0</ele><time>2026-04-11T08:58:27.931Z</time></trkpt><trkpt lat="43.8544713" lon="12.6342418"><ele>308.0</ele><time>2026-04-11T08:58:28.934Z</time></trkpt><trkpt lat="43.8544603" lon="12.6340933"><ele>306.0</ele><time>2026-04-11T08:58:29.929Z</time></trkpt><trkpt lat="43.8544485" lon="12.6339658"><ele>304.0</ele><time>2026-04-11T08:58:30.926Z</time></trkpt><trkpt lat="43.8544444" lon="12.6338524"><ele>302.0</ele><time>2026-04-11T08:58:31.924Z</time></trkpt><trkpt lat="43.8544754" lon="12.6337607"><ele>302.0</ele><time>2026-04-11T08:58:32.929Z</time></trkpt><trkpt lat="43.8545362" lon="12.6337004"><ele>302.0</ele><time>2026-04-11T08:58:33.93Z</time></trkpt><trkpt lat="43.8546113" lon="12.633675"><ele>302.0</ele><time>2026-04-11T08:58:34.934Z</time></trkpt><trkpt lat="43.8546914" lon="12.6336775"><ele>302.0</ele><time>2026-04-11T08:58:35.929Z</time></trkpt><trkpt lat="43.854805" lon="12.6336166"><ele>302.0</ele><time>2026-04-11T08:58:37.925Z</time></trkpt><trkpt lat="43.8547847" lon="12.6335021"><ele>302.0</ele><time>2026-04-11T08:58:38.933Z</time></trkpt><trkpt lat="43.8547406" lon="12.633423"><ele>298.75</ele><time>2026-04-11T08:58:39.928Z</time></trkpt><trkpt lat="43.8546637" lon="12.6333579"><ele>295.5</ele><time>2026-04-11T08:58:40.927Z</time></trkpt><trkpt lat="43.8545375" lon="12.6332906"><ele>292.25</ele><time>2026-04-11T08:58:41.936Z</time></trkpt><trkpt lat="43.8544293" lon="12.6332294"><ele>289.0</ele><time>2026-04-11T08:58:42.932Z</time></trkpt><trkpt lat="43.8543227" lon="12.633187"><ele>288.2</ele><time>2026-04-11T08:58:43.931Z</time></trkpt><trkpt lat="43.854229" lon="12.6331517"><ele>287.4</ele><time>2026-04-11T08:58:44.93Z</time></trkpt><trkpt lat="43.8541306" lon="12.633126"><ele>286.6</ele><time>2026-04-11T08:58:45.936Z</time></trkpt><trkpt lat="43.8540363" lon="12.6331136"><ele>285.8</ele><time>2026-04-11T08:58:46.929Z</time></trkpt><trkpt lat="43.8539498" lon="12.6331273"><ele>285.0</ele><time>2026-04-11T08:58:47.93Z</time></trkpt><trkpt lat="43.8538707" lon="12.6332091"><ele>285.0</ele><time>2026-04-11T08:58:48.938Z</time></trkpt><trkpt lat="43.8538261" lon="12.6333084"><ele>285.0</ele><time>2026-04-11T08:58:49.934Z</time></trkpt><trkpt lat="43.853788" lon="12.6333948"><ele>285.0</ele><time>2026-04-11T08:58:50.933Z</time></trkpt><trkpt lat="43.8537127" lon="12.6335048"><ele>285.0</ele><time>2026-04-11T08:58:52.929Z</time></trkpt><trkpt lat="43.853614" lon="12.6334239"><ele>285.0</ele><time>2026-04-11T08:58:54.928Z</time></trkpt><trkpt lat="43.8535837" lon="12.633321"><ele>285.0</ele><time>2026-04-11T08:58:55.932Z</time></trkpt><trkpt lat="43.8535582" lon="12.6331943"><ele>285.0</ele><time>2026-04-11T08:58:56.928Z</time></trkpt><trkpt lat="43.8535311" lon="12.6330653"><ele>285.0</ele><time>2026-04-11T08:58:57.929Z</time></trkpt><trkpt lat="43.8535082" lon="12.6329364"><ele>285.0</ele><time>2026-04-11T08:58:58.933Z</time></trkpt><trkpt lat="43.8534909" lon="12.6328186"><ele>285.0</ele><time>2026-04-11T08:58:59.93Z</time></trkpt><trkpt lat="43.8534846" lon="12.6327236"><ele>285.0</ele><time>2026-04-11T08:59:00.93Z</time></trkpt><trkpt lat="43.8534796" lon="12.6325837"><ele>282.57142857142856</ele><time>2026-04-11T08:59:02.931Z</time></trkpt><trkpt lat="43.8534198" lon="12.6325528"><ele>280.14285714285717</ele><time>2026-04-11T08:59:05.927Z</time></trkpt><trkpt lat="43.8533785" lon="12.6326222"><ele>277.7142857142857</ele><time>2026-04-11T08:59:08.93Z</time></trkpt><trkpt lat="43.8533458" lon="12.6327122"><ele>275.2857142857143</ele><time>2026-04-11T08:59:11.929Z</time></trkpt><trkpt lat="43.8533174" lon="12.6328127"><ele>272.85714285714283</ele><time>2026-04-11T08:59:13.933Z</time></trkpt><trkpt lat="43.8532828" lon="12.6329244"><ele>270.42857142857144</ele><time>2026-04-11T08:59:15.926Z</time></trkpt><trkpt lat="43.8532485" lon="12.6330261"><ele>268.0</ele><time>2026-04-11T08:59:17.928Z</time></trkpt><trkpt lat="43.8532192" lon="12.6331325"><ele>268.0</ele><time>2026-04-11T08:59:19.933Z</time></trkpt><trkpt lat="43.8532036" lon="12.6332536"><ele>268.0</ele><time>2026-04-11T08:59:21.928Z</time></trkpt><trkpt lat="43.8531853" lon="12.6333735"><ele>268.0</ele><time>2026-04-11T08:59:24.927Z</time></trkpt><trkpt lat="43.8532046" lon="12.6334836"><ele>268.0</ele><time>2026-04-11T08:59:26.932Z</time></trkpt><trkpt lat="43.8532047" lon="12.6336171"><ele>268.0</ele><time>2026-04-11T08:59:28.931Z</time></trkpt><trkpt lat="43.8531984" lon="12.633712"><ele>268.0</ele><time>2026-04-11T08:59:29.937Z</time></trkpt><trkpt lat="43.8531692" lon="12.6338641"><ele>268.0</ele><time>2026-04-11T08:59:31.93Z</time></trkpt><trkpt lat="43.8531171" lon="12.634009"><ele>268.0</ele><time>2026-04-11T08:59:33.94Z</time></trkpt><trkpt lat="43.8531013" lon="12.6340951"><ele>268.0</ele><time>2026-04-11T08:59:34.927Z</time></trkpt><trkpt lat="43.8530801" lon="12.6341932"><ele>268.0</ele><time>2026-04-11T08:59:35.928Z</time></trkpt><trkpt lat="43.8530627" lon="12.6342994"><ele>268.0</ele><time>2026-04-11T08:59:36.93Z</time></trkpt><trkpt lat="43.8530495" lon="12.6344019"><ele>268.0</ele><time>2026-04-11T08:59:37.929Z</time></trkpt><trkpt lat="43.8530429" lon="12.6345052"><ele>268.0</ele><time>2026-04-11T08:59:38.93Z</time></trkpt><trkpt lat="43.8530374" lon="12.6346113"><ele>268.0</ele><time>2026-04-11T08:59:39.936Z</time></trkpt><trkpt lat="43.8530185" lon="12.6347432"><ele>268.0</ele><time>2026-04-11T08:59:41.927Z</time></trkpt><trkpt lat="43.8530543" lon="12.6345949"><ele>268.0</ele><time>2026-04-11T08:59:50.926Z</time></trkpt><trkpt lat="43.8530598" lon="12.634487"><ele>268.0</ele><time>2026-04-11T08:59:51.93Z</time></trkpt><trkpt lat="43.8530751" lon="12.6343624"><ele>267.5</ele><time>2026-04-11T08:59:52.93Z</time></trkpt><trkpt lat="43.8530989" lon="12.6342287"><ele>267.0</ele><time>2026-04-11T08:59:53.925Z</time></trkpt><trkpt lat="43.8531322" lon="12.6340655"><ele>266.5</ele><time>2026-04-11T08:59:54.932Z</time></trkpt><trkpt lat="43.853172" lon="12.6339022"><ele>266.0</ele><time>2026-04-11T08:59:55.929Z</time></trkpt><trkpt lat="43.8532078" lon="12.6337333"><ele>266.40000000000003</ele><time>2026-04-11T08:59:56.929Z</time></trkpt><trkpt lat="43.8532175" lon="12.6335518"><ele>266.8</ele><time>2026-04-11T08:59:57.929Z</time></trkpt><trkpt lat="43.8532082" lon="12.6333943"><ele>267.20000000000005</ele><time>2026-04-11T08:59:58.936Z</time></trkpt><trkpt lat="43.8532117" lon="12.6332549"><ele>267.6</ele><time>2026-04-11T08:59:59.929Z</time></trkpt><trkpt lat="43.8532193" lon="12.6331197"><ele>268.0</ele><time>2026-04-11T09:00:00.928Z</time></trkpt><trkpt lat="43.8532407" lon="12.632981"><ele>268.0</ele><time>2026-04-11T09:00:01.925Z</time></trkpt><trkpt lat="43.8532767" lon="12.6328647"><ele>268.0</ele><time>2026-04-11T09:00:02.93Z</time></trkpt><trkpt lat="43.8533298" lon="12.6327418"><ele>268.0</ele><time>2026-04-11T09:00:03.932Z</time></trkpt><trkpt lat="43.8533663" lon="12.6326418"><ele>268.0</ele><time>2026-04-11T09:00:04.934Z</time></trkpt><trkpt lat="43.8534144" lon="12.6325495"><ele>268.0</ele><time>2026-04-11T09:00:06.93Z</time></trkpt><trkpt lat="43.8534532" lon="12.6324706"><ele>268.0</ele><time>2026-04-11T09:00:13.927Z</time></trkpt><trkpt lat="43.8535099" lon="12.6322924"><ele>267.4</ele><time>2026-04-11T09:00:15.932Z</time></trkpt><trkpt lat="43.8535503" lon="12.6321849"><ele>266.8</ele><time>2026-04-11T09:00:16.935Z</time></trkpt><trkpt lat="43.8535934" lon="12.6320695"><ele>266.2</ele><time>2026-04-11T09:00:17.93Z</time></trkpt><trkpt lat="43.8536341" lon="12.6319576"><ele>265.6</ele><time>2026-04-11T09:00:18.926Z</time></trkpt><trkpt lat="43.8536649" lon="12.63182"><ele>265.0</ele><time>2026-04-11T09:00:19.933Z</time></trkpt><trkpt lat="43.8536628" lon="12.6316538"><ele>265.0</ele><time>2026-04-11T09:00:20.928Z</time></trkpt><trkpt lat="43.8536666" lon="12.6314867"><ele>265.0</ele><time>2026-04-11T09:00:21.933Z</time></trkpt><trkpt lat="43.8536795" lon="12.6313124"><ele>265.0</ele><time>2026-04-11T09:00:22.934Z</time></trkpt><trkpt lat="43.8536939" lon="12.631127"><ele>265.0</ele><time>2026-04-11T09:00:23.941Z</time></trkpt><trkpt lat="43.8537087" lon="12.6309357"><ele>263.0</ele><time>2026-04-11T09:00:24.93Z</time></trkpt><trkpt lat="43.8537219" lon="12.6307392"><ele>261.0</ele><time>2026-04-11T09:00:25.927Z</time></trkpt><trkpt lat="43.8537386" lon="12.6305505"><ele>259.0</ele><time>2026-04-11T09:00:26.929Z</time></trkpt><trkpt lat="43.8537522" lon="12.6303605"><ele>257.0</ele><time>2026-04-11T09:00:27.923Z</time></trkpt><trkpt lat="43.8537624" lon="12.630178"><ele>256.75</ele><time>2026-04-11T09:00:28.927Z</time></trkpt><trkpt lat="43.8537623" lon="12.6300102"><ele>256.5</ele><time>2026-04-11T09:00:29.925Z</time></trkpt><trkpt lat="43.853722" lon="12.6298437"><ele>256.25</ele><time>2026-04-11T09:00:30.932Z</time></trkpt><trkpt lat="43.8536636" lon="12.6296757"><ele>256.0</ele><time>2026-04-11T09:00:31.934Z</time></trkpt><trkpt lat="43.8535991" lon="12.6295192"><ele>255.75</ele><time>2026-04-11T09:00:32.932Z</time></trkpt><trkpt lat="43.8535342" lon="12.6293554"><ele>255.5</ele><time>2026-04-11T09:00:33.931Z</time></trkpt><trkpt lat="43.8534716" lon="12.6291797"><ele>255.25</ele><time>2026-04-11T09:00:34.932Z</time></trkpt><trkpt lat="43.8534264" lon="12.6289974"><ele>255.0</ele><time>2026-04-11T09:00:35.939Z</time></trkpt><trkpt lat="43.8533707" lon="12.6288098"><ele>257.0</ele><time>2026-04-11T09:00:36.931Z</time></trkpt><trkpt lat="43.8533079" lon="12.6286272"><ele>259.0</ele><time>2026-04-11T09:00:37.931Z</time></trkpt><trkpt lat="43.8532332" lon="12.6284557"><ele>261.0</ele><time>2026-04-11T09:00:38.936Z</time></trkpt><trkpt lat="43.8531539" lon="12.6282784"><ele>263.0</ele><time>2026-04-11T09:00:39.931Z</time></trkpt><trkpt lat="43.8530684" lon="12.6281033"><ele>263.0</ele><time>2026-04-11T09:00:40.928Z</time></trkpt><trkpt lat="43.8529771" lon="12.6279281"><ele>263.0</ele><time>2026-04-11T09:00:41.936Z</time></trkpt><trkpt lat="43.8528835" lon="12.6277409"><ele>263.0</ele><time>2026-04-11T09:00:42.933Z</time></trkpt><trkpt lat="43.8527939" lon="12.6275638"><ele>262.6666666666667</ele><time>2026-04-11T09:00:43.927Z</time></trkpt><trkpt lat="43.8527132" lon="12.6273996"><ele>262.3333333333333</ele><time>2026-04-11T09:00:44.933Z</time></trkpt><trkpt lat="43.852626" lon="12.6272233"><ele>262.0</ele><time>2026-04-11T09:00:45.934Z</time></trkpt><trkpt lat="43.8525507" lon="12.6270378"><ele>262.66666666666663</ele><time>2026-04-11T09:00:46.929Z</time></trkpt><trkpt lat="43.8524852" lon="12.6268412"><ele>263.3333333333333</ele><time>2026-04-11T09:00:47.936Z</time></trkpt><trkpt lat="43.852411" lon="12.6266512"><ele>264.0</ele><time>2026-04-11T09:00:48.934Z</time></trkpt><trkpt lat="43.8523478" lon="12.6264608"><ele>264.0</ele><time>2026-04-11T09:00:49.934Z</time></trkpt><trkpt lat="43.8522788" lon="12.62628"><ele>264.0</ele><time>2026-04-11T09:00:50.935Z</time></trkpt><trkpt lat="43.8522068" lon="12.6261106"><ele>264.0</ele><time>2026-04-11T09:00:51.934Z</time></trkpt><trkpt lat="43.8521248" lon="12.6259537"><ele>264.0</ele><time>2026-04-11T09:00:52.936Z</time></trkpt><trkpt lat="43.8520402" lon="12.6258031"><ele>264.0</ele><time>2026-04-11T09:00:53.933Z</time></trkpt><trkpt lat="43.8519459" lon="12.6256497"><ele>264.0</ele><time>2026-04-11T09:00:54.935Z</time></trkpt><trkpt lat="43.8518465" lon="12.6255008"><ele>264.0</ele><time>2026-04-11T09:00:55.926Z</time></trkpt><trkpt lat="43.851742" lon="12.6253607"><ele>264.0</ele><time>2026-04-11T09:00:56.928Z</time></trkpt><trkpt lat="43.8516276" lon="12.6252293"><ele>265.3333333333333</ele><time>2026-04-11T09:00:57.93Z</time></trkpt><trkpt lat="43.8515076" lon="12.6251019"><ele>266.66666666666663</ele><time>2026-04-11T09:00:58.935Z</time></trkpt><trkpt lat="43.8513876" lon="12.6249737"><ele>268.0</ele><time>2026-04-11T09:00:59.934Z</time></trkpt><trkpt lat="43.8512599" lon="12.6248467"><ele>268.0</ele><time>2026-04-11T09:01:00.931Z</time></trkpt><trkpt lat="43.8511461" lon="12.6247214"><ele>268.0</ele><time>2026-04-11T09:01:01.932Z</time></trkpt><trkpt lat="43.8510498" lon="12.6245972"><ele>268.0</ele><time>2026-04-11T09:01:02.929Z</time></trkpt><trkpt lat="43.8509522" lon="12.6244492"><ele>268.0</ele><time>2026-04-11T09:01:03.94Z</time></trkpt><trkpt lat="43.8508569" lon="12.6242964"><ele>270.25</ele><time>2026-04-11T09:01:04.935Z</time></trkpt><trkpt lat="43.8507629" lon="12.6241366"><ele>272.5</ele><time>2026-04-11T09:01:05.932Z</time></trkpt><trkpt lat="43.8506663" lon="12.623973"><ele>274.75</ele><time>2026-04-11T09:01:06.931Z</time></trkpt><trkpt lat="43.8505782" lon="12.6238114"><ele>277.0</ele><time>2026-04-11T09:01:07.935Z</time></trkpt><trkpt lat="43.8505187" lon="12.6236356"><ele>277.0</ele><time>2026-04-11T09:01:08.931Z</time></trkpt><trkpt lat="43.850486" lon="12.6234418"><ele>277.0</ele><time>2026-04-11T09:01:09.929Z</time></trkpt><trkpt lat="43.8504695" lon="12.6232404"><ele>277.0</ele><time>2026-04-11T09:01:10.936Z</time></trkpt><trkpt lat="43.8504537" lon="12.623031"><ele>277.0</ele><time>2026-04-11T09:01:11.931Z</time></trkpt><trkpt lat="43.850438" lon="12.6228176"><ele>277.0</ele><time>2026-04-11T09:01:12.931Z</time></trkpt><trkpt lat="43.8504182" lon="12.6226027"><ele>277.0</ele><time>2026-04-11T09:01:13.932Z</time></trkpt><trkpt lat="43.8504008" lon="12.6223911"><ele>277.0</ele><time>2026-04-11T09:01:14.931Z</time></trkpt><trkpt lat="43.8503929" lon="12.6221746"><ele>279.0</ele><time>2026-04-11T09:01:15.934Z</time></trkpt><trkpt lat="43.8503938" lon="12.6219555"><ele>281.0</ele><time>2026-04-11T09:01:16.928Z</time></trkpt><trkpt lat="43.850398" lon="12.6217347"><ele>283.0</ele><time>2026-04-11T09:01:17.932Z</time></trkpt><trkpt lat="43.850413" lon="12.6215161"><ele>283.0</ele><time>2026-04-11T09:01:18.933Z</time></trkpt><trkpt lat="43.8504271" lon="12.6213086"><ele>283.0</ele><time>2026-04-11T09:01:19.929Z</time></trkpt><trkpt lat="43.850442" lon="12.6211051"><ele>283.0</ele><time>2026-04-11T09:01:20.932Z</time></trkpt><trkpt lat="43.8504562" lon="12.6209074"><ele>283.0</ele><time>2026-04-11T09:01:21.933Z</time></trkpt><trkpt lat="43.8504665" lon="12.6207112"><ele>284.75</ele><time>2026-04-11T09:01:22.929Z</time></trkpt><trkpt lat="43.8504777" lon="12.6205245"><ele>286.5</ele><time>2026-04-11T09:01:23.925Z</time></trkpt><trkpt lat="43.8504723" lon="12.6203531"><ele>288.25</ele><time>2026-04-11T09:01:24.933Z</time></trkpt><trkpt lat="43.8504552" lon="12.6202029"><ele>290.0</ele><time>2026-04-11T09:01:25.932Z</time></trkpt><trkpt lat="43.8504148" lon="12.6200809"><ele>290.25</ele><time>2026-04-11T09:01:26.925Z</time></trkpt><trkpt lat="43.8503614" lon="12.619971"><ele>290.5</ele><time>2026-04-11T09:01:27.939Z</time></trkpt><trkpt lat="43.8502557" lon="12.6198795"><ele>290.75</ele><time>2026-04-11T09:01:28.938Z</time></trkpt><trkpt lat="43.8501406" lon="12.6198061"><ele>291.0</ele><time>2026-04-11T09:01:29.931Z</time></trkpt><trkpt lat="43.8500187" lon="12.6197478"><ele>294.0</ele><time>2026-04-11T09:01:30.93Z</time></trkpt><trkpt lat="43.8498874" lon="12.6196954"><ele>297.0</ele><time>2026-04-11T09:01:31.937Z</time></trkpt><trkpt lat="43.8497673" lon="12.6196474"><ele>300.0</ele><time>2026-04-11T09:01:32.932Z</time></trkpt><trkpt lat="43.8496108" lon="12.6196704"><ele>303.0</ele><time>2026-04-11T09:01:33.926Z</time></trkpt><trkpt lat="43.8494745" lon="12.6196691"><ele>303.0</ele><time>2026-04-11T09:01:34.933Z</time></trkpt><trkpt lat="43.8493408" lon="12.6196494"><ele>303.0</ele><time>2026-04-11T09:01:35.932Z</time></trkpt><trkpt lat="43.8492125" lon="12.6196214"><ele>303.0</ele><time>2026-04-11T09:01:36.932Z</time></trkpt><trkpt lat="43.8490969" lon="12.6195581"><ele>303.0</ele><time>2026-04-11T09:01:37.938Z</time></trkpt><trkpt lat="43.84899" lon="12.6194866"><ele>303.0</ele><time>2026-04-11T09:01:38.929Z</time></trkpt><trkpt lat="43.8488915" lon="12.6194046"><ele>303.0</ele><time>2026-04-11T09:01:39.935Z</time></trkpt><trkpt lat="43.8487923" lon="12.6193172"><ele>303.0</ele><time>2026-04-11T09:01:40.934Z</time></trkpt><trkpt lat="43.8487254" lon="12.6192227"><ele>303.0</ele><time>2026-04-11T09:01:41.93Z</time></trkpt><trkpt lat="43.8486359" lon="12.6191286"><ele>303.0</ele><time>2026-04-11T09:01:42.929Z</time></trkpt><trkpt lat="43.8485554" lon="12.6190377"><ele>303.0</ele><time>2026-04-11T09:01:43.935Z</time></trkpt><trkpt lat="43.8484739" lon="12.6189414"><ele>303.0</ele><time>2026-04-11T09:01:44.931Z</time></trkpt><trkpt lat="43.8483858" lon="12.6188356"><ele>303.0</ele><time>2026-04-11T09:01:45.932Z</time></trkpt><trkpt lat="43.848304" lon="12.6187216"><ele>303.0</ele><time>2026-04-11T09:01:46.937Z</time></trkpt><trkpt lat="43.8482229" lon="12.6186096"><ele>304.25</ele><time>2026-04-11T09:01:47.931Z</time></trkpt><trkpt lat="43.8481347" lon="12.6184835"><ele>305.5</ele><time>2026-04-11T09:01:48.94Z</time></trkpt><trkpt lat="43.8480466" lon="12.6183497"><ele>306.75</ele><time>2026-04-11T09:01:49.927Z</time></trkpt><trkpt lat="43.8479525" lon="12.6182181"><ele>308.0</ele><time>2026-04-11T09:01:50.938Z</time></trkpt><trkpt lat="43.8478577" lon="12.6180812"><ele>308.0</ele><time>2026-04-11T09:01:51.937Z</time></trkpt><trkpt lat="43.8477639" lon="12.6179468"><ele>308.0</ele><time>2026-04-11T09:01:52.927Z</time></trkpt><trkpt lat="43.8476769" lon="12.6178095"><ele>308.0</ele><time>2026-04-11T09:01:53.926Z</time></trkpt><trkpt lat="43.847588" lon="12.6176654"><ele>308.0</ele><time>2026-04-11T09:01:54.931Z</time></trkpt><trkpt lat="43.8474939" lon="12.6175271"><ele>308.25</ele><time>2026-04-11T09:01:55.931Z</time></trkpt><trkpt lat="43.8474087" lon="12.617381"><ele>308.5</ele><time>2026-04-11T09:01:56.932Z</time></trkpt><trkpt lat="43.8473171" lon="12.6172325"><ele>308.75</ele><time>2026-04-11T09:01:57.931Z</time></trkpt><trkpt lat="43.8472277" lon="12.6170802"><ele>309.0</ele><time>2026-04-11T09:01:58.929Z</time></trkpt><trkpt lat="43.8471452" lon="12.6169246"><ele>309.0</ele><time>2026-04-11T09:01:59.933Z</time></trkpt><trkpt lat="43.8470642" lon="12.6167674"><ele>309.0</ele><time>2026-04-11T09:02:00.935Z</time></trkpt><trkpt lat="43.8469882" lon="12.6166082"><ele>309.0</ele><time>2026-04-11T09:02:01.929Z</time></trkpt><trkpt lat="43.8469124" lon="12.6164426"><ele>309.0</ele><time>2026-04-11T09:02:02.932Z</time></trkpt><trkpt lat="43.8468317" lon="12.6162894"><ele>311.5</ele><time>2026-04-11T09:02:03.931Z</time></trkpt><trkpt lat="43.8467443" lon="12.6161315"><ele>314.0</ele><time>2026-04-11T09:02:04.928Z</time></trkpt><trkpt lat="43.8466773" lon="12.6159706"><ele>316.5</ele><time>2026-04-11T09:02:05.93Z</time></trkpt><trkpt lat="43.846608" lon="12.6158066"><ele>319.0</ele><time>2026-04-11T09:02:06.94Z</time></trkpt><trkpt lat="43.8465444" lon="12.6156336"><ele>319.0</ele><time>2026-04-11T09:02:07.926Z</time></trkpt><trkpt lat="43.8464794" lon="12.6154726"><ele>319.0</ele><time>2026-04-11T09:02:08.929Z</time></trkpt><trkpt lat="43.8464188" lon="12.6153007"><ele>319.0</ele><time>2026-04-11T09:02:09.934Z</time></trkpt><trkpt lat="43.8463597" lon="12.6151201"><ele>319.0</ele><time>2026-04-11T09:02:10.931Z</time></trkpt><trkpt lat="43.8463147" lon="12.6149358"><ele>319.25</ele><time>2026-04-11T09:02:11.93Z</time></trkpt><trkpt lat="43.8462854" lon="12.614752"><ele>319.5</ele><time>2026-04-11T09:02:12.928Z</time></trkpt><trkpt lat="43.8462508" lon="12.614564"><ele>319.75</ele><time>2026-04-11T09:02:13.93Z</time></trkpt><trkpt lat="43.8462113" lon="12.6143799"><ele>320.0</ele><time>2026-04-11T09:02:14.938Z</time></trkpt><trkpt lat="43.8461736" lon="12.614181"><ele>320.25</ele><time>2026-04-11T09:02:15.931Z</time></trkpt><trkpt lat="43.8461316" lon="12.6140257"><ele>320.5</ele><time>2026-04-11T09:02:16.934Z</time></trkpt><trkpt lat="43.8460823" lon="12.6138741"><ele>320.75</ele><time>2026-04-11T09:02:17.93Z</time></trkpt><trkpt lat="43.8459874" lon="12.6137347"><ele>321.0</ele><time>2026-04-11T09:02:18.933Z</time></trkpt><trkpt lat="43.8459223" lon="12.6135936"><ele>324.5</ele><time>2026-04-11T09:02:19.929Z</time></trkpt><trkpt lat="43.8458232" lon="12.6134577"><ele>328.0</ele><time>2026-04-11T09:02:20.932Z</time></trkpt><trkpt lat="43.8457216" lon="12.613339"><ele>331.5</ele><time>2026-04-11T09:02:21.927Z</time></trkpt><trkpt lat="43.8456069" lon="12.6132232"><ele>335.0</ele><time>2026-04-11T09:02:22.932Z</time></trkpt><trkpt lat="43.845488" lon="12.6131123"><ele>335.0</ele><time>2026-04-11T09:02:23.931Z</time></trkpt><trkpt lat="43.8453772" lon="12.6130076"><ele>335.0</ele><time>2026-04-11T09:02:24.936Z</time></trkpt><trkpt lat="43.8452711" lon="12.6128951"><ele>335.0</ele><time>2026-04-11T09:02:25.934Z</time></trkpt><trkpt lat="43.8451573" lon="12.6127743"><ele>335.0</ele><time>2026-04-11T09:02:26.931Z</time></trkpt><trkpt lat="43.8450572" lon="12.6126537"><ele>336.75</ele><time>2026-04-11T09:02:27.932Z</time></trkpt><trkpt lat="43.8449515" lon="12.6125102"><ele>338.5</ele><time>2026-04-11T09:02:28.934Z</time></trkpt><trkpt lat="43.844851" lon="12.6123696"><ele>340.25</ele><time>2026-04-11T09:02:29.93Z</time></trkpt><trkpt lat="43.8447632" lon="12.6122234"><ele>342.0</ele><time>2026-04-11T09:02:30.926Z</time></trkpt><trkpt lat="43.8446844" lon="12.6120724"><ele>341.75</ele><time>2026-04-11T09:02:31.929Z</time></trkpt><trkpt lat="43.8446021" lon="12.6119065"><ele>341.5</ele><time>2026-04-11T09:02:32.932Z</time></trkpt><trkpt lat="43.8445131" lon="12.6117417"><ele>341.25</ele><time>2026-04-11T09:02:33.933Z</time></trkpt><trkpt lat="43.8444294" lon="12.6115937"><ele>341.0</ele><time>2026-04-11T09:02:34.937Z</time></trkpt><trkpt lat="43.8443462" lon="12.6114438"><ele>341.5</ele><time>2026-04-11T09:02:35.93Z</time></trkpt><trkpt lat="43.8442598" lon="12.6112807"><ele>342.0</ele><time>2026-04-11T09:02:36.926Z</time></trkpt><trkpt lat="43.844172" lon="12.6111217"><ele>342.5</ele><time>2026-04-11T09:02:37.935Z</time></trkpt><trkpt lat="43.8440834" lon="12.6109665"><ele>343.0</ele><time>2026-04-11T09:02:38.934Z</time></trkpt><trkpt lat="43.843984" lon="12.610824"><ele>343.0</ele><time>2026-04-11T09:02:39.928Z</time></trkpt><trkpt lat="43.8438853" lon="12.6106966"><ele>343.0</ele><time>2026-04-11T09:02:40.934Z</time></trkpt><trkpt lat="43.8437771" lon="12.6105787"><ele>343.0</ele><time>2026-04-11T09:02:41.929Z</time></trkpt><trkpt lat="43.8436704" lon="12.6104715"><ele>343.0</ele><time>2026-04-11T09:02:42.926Z</time></trkpt><trkpt lat="43.8435581" lon="12.6103679"><ele>346.0</ele><time>2026-04-11T09:02:43.935Z</time></trkpt><trkpt lat="43.8434453" lon="12.6102743"><ele>349.0</ele><time>2026-04-11T09:02:44.936Z</time></trkpt><trkpt lat="43.8433303" lon="12.6101846"><ele>352.0</ele><time>2026-04-11T09:02:45.932Z</time></trkpt><trkpt lat="43.8432134" lon="12.610096"><ele>355.0</ele><time>2026-04-11T09:02:46.926Z</time></trkpt><trkpt lat="43.8430961" lon="12.6100128"><ele>355.0</ele><time>2026-04-11T09:02:47.932Z</time></trkpt><trkpt lat="43.8429772" lon="12.6099328"><ele>355.0</ele><time>2026-04-11T09:02:48.926Z</time></trkpt><trkpt lat="43.8428498" lon="12.6098665"><ele>355.0</ele><time>2026-04-11T09:02:49.926Z</time></trkpt><trkpt lat="43.8427221" lon="12.6098016"><ele>355.0</ele><time>2026-04-11T09:02:50.929Z</time></trkpt><trkpt lat="43.8425892" lon="12.6097445"><ele>356.75</ele><time>2026-04-11T09:02:51.924Z</time></trkpt><trkpt lat="43.8424589" lon="12.6096817"><ele>358.5</ele><time>2026-04-11T09:02:52.932Z</time></trkpt><trkpt lat="43.8423295" lon="12.6096021"><ele>360.25</ele><time>2026-04-11T09:02:53.935Z</time></trkpt><trkpt lat="43.842206" lon="12.6095044"><ele>362.0</ele><time>2026-04-11T09:02:54.927Z</time></trkpt><trkpt lat="43.8420868" lon="12.609401"><ele>362.0</ele><time>2026-04-11T09:02:55.926Z</time></trkpt><trkpt lat="43.8419669" lon="12.6092943"><ele>362.0</ele><time>2026-04-11T09:02:56.936Z</time></trkpt><trkpt lat="43.8418471" lon="12.6091796"><ele>362.0</ele><time>2026-04-11T09:02:57.931Z</time></trkpt><trkpt lat="43.8417295" lon="12.609063"><ele>362.0</ele><time>2026-04-11T09:02:58.933Z</time></trkpt><trkpt lat="43.8416208" lon="12.608941"><ele>364.0</ele><time>2026-04-11T09:02:59.934Z</time></trkpt><trkpt lat="43.8415055" lon="12.6088006"><ele>366.0</ele><time>2026-04-11T09:03:00.93Z</time></trkpt><trkpt lat="43.8414062" lon="12.6086661"><ele>368.0</ele><time>2026-04-11T09:03:01.93Z</time></trkpt><trkpt lat="43.8413371" lon="12.6085263"><ele>370.0</ele><time>2026-04-11T09:03:02.928Z</time></trkpt><trkpt lat="43.8412719" lon="12.6083772"><ele>370.0</ele><time>2026-04-11T09:03:03.935Z</time></trkpt><trkpt lat="43.8412818" lon="12.6082021"><ele>370.0</ele><time>2026-04-11T09:03:04.931Z</time></trkpt><trkpt lat="43.8412885" lon="12.6080168"><ele>370.0</ele><time>2026-04-11T09:03:05.923Z</time></trkpt><trkpt lat="43.8413024" lon="12.607829"><ele>370.0</ele><time>2026-04-11T09:03:06.934Z</time></trkpt><trkpt lat="43.8413131" lon="12.6076429"><ele>370.0</ele><time>2026-04-11T09:03:07.933Z</time></trkpt><trkpt lat="43.8413199" lon="12.6074571"><ele>370.0</ele><time>2026-04-11T09:03:08.936Z</time></trkpt><trkpt lat="43.8413145" lon="12.6072753"><ele>370.0</ele><time>2026-04-11T09:03:09.935Z</time></trkpt><trkpt lat="43.8412898" lon="12.6070907"><ele>370.0</ele><time>2026-04-11T09:03:10.938Z</time></trkpt><trkpt lat="43.8412669" lon="12.6069213"><ele>369.5</ele><time>2026-04-11T09:03:11.928Z</time></trkpt><trkpt lat="43.8412367" lon="12.6067467"><ele>369.0</ele><time>2026-04-11T09:03:12.935Z</time></trkpt><trkpt lat="43.8412221" lon="12.6065759"><ele>368.5</ele><time>2026-04-11T09:03:13.926Z</time></trkpt><trkpt lat="43.8411803" lon="12.6064085"><ele>368.0</ele><time>2026-04-11T09:03:14.939Z</time></trkpt><trkpt lat="43.8411488" lon="12.6062437"><ele>366.0</ele><time>2026-04-11T09:03:15.934Z</time></trkpt><trkpt lat="43.8410984" lon="12.6060882"><ele>364.0</ele><time>2026-04-11T09:03:16.932Z</time></trkpt><trkpt lat="43.8410368" lon="12.6059443"><ele>362.0</ele><time>2026-04-11T09:03:17.928Z</time></trkpt><trkpt lat="43.8409519" lon="12.6058196"><ele>360.0</ele><time>2026-04-11T09:03:18.929Z</time></trkpt><trkpt lat="43.8408594" lon="12.6056968"><ele>364.75</ele><time>2026-04-11T09:03:19.932Z</time></trkpt><trkpt lat="43.8407695" lon="12.6055664"><ele>369.5</ele><time>2026-04-11T09:03:20.925Z</time></trkpt><trkpt lat="43.8406851" lon="12.60544"><ele>374.25</ele><time>2026-04-11T09:03:21.924Z</time></trkpt><trkpt lat="43.8406085" lon="12.6053033"><ele>379.0</ele><time>2026-04-11T09:03:22.931Z</time></trkpt><trkpt lat="43.8405392" lon="12.605166"><ele>379.0</ele><time>2026-04-11T09:03:23.934Z</time></trkpt><trkpt lat="43.8404828" lon="12.6050341"><ele>379.0</ele><time>2026-04-11T09:03:24.929Z</time></trkpt><trkpt lat="43.8404265" lon="12.6049074"><ele>379.0</ele><time>2026-04-11T09:03:25.939Z</time></trkpt><trkpt lat="43.840374" lon="12.6047766"><ele>379.0</ele><time>2026-04-11T09:03:26.934Z</time></trkpt><trkpt lat="43.8403286" lon="12.6046422"><ele>379.0</ele><time>2026-04-11T09:03:27.934Z</time></trkpt><trkpt lat="43.8402942" lon="12.6045064"><ele>379.0</ele><time>2026-04-11T09:03:28.932Z</time></trkpt><trkpt lat="43.840262" lon="12.6043613"><ele>379.0</ele><time>2026-04-11T09:03:29.933Z</time></trkpt><trkpt lat="43.8402273" lon="12.6042281"><ele>379.0</ele><time>2026-04-11T09:03:30.934Z</time></trkpt><trkpt lat="43.8402035" lon="12.6041081"><ele>379.0</ele><time>2026-04-11T09:03:31.931Z</time></trkpt><trkpt lat="43.8401757" lon="12.6039787"><ele>379.0</ele><time>2026-04-11T09:03:32.932Z</time></trkpt><trkpt lat="43.8401657" lon="12.603846"><ele>379.0</ele><time>2026-04-11T09:03:33.932Z</time></trkpt><trkpt lat="43.8401538" lon="12.6037101"><ele>379.0</ele><time>2026-04-11T09:03:34.933Z</time></trkpt><trkpt lat="43.840149" lon="12.6035753"><ele>379.0</ele><time>2026-04-11T09:03:35.933Z</time></trkpt><trkpt lat="43.8401498" lon="12.6034372"><ele>379.0</ele><time>2026-04-11T09:03:36.931Z</time></trkpt><trkpt lat="43.8401541" lon="12.6032954"><ele>379.0</ele><time>2026-04-11T09:03:37.939Z</time></trkpt><trkpt lat="43.8401608" lon="12.6031613"><ele>379.66666666666663</ele><time>2026-04-11T09:03:38.93Z</time></trkpt><trkpt lat="43.840168" lon="12.6030372"><ele>380.3333333333333</ele><time>2026-04-11T09:03:39.931Z</time></trkpt><trkpt lat="43.8401725" lon="12.6029182"><ele>381.0</ele><time>2026-04-11T09:03:40.932Z</time></trkpt><trkpt lat="43.8401754" lon="12.6028196"><ele>381.6666666666667</ele><time>2026-04-11T09:03:41.928Z</time></trkpt><trkpt lat="43.8401801" lon="12.6027175"><ele>382.33333333333337</ele><time>2026-04-11T09:03:42.933Z</time></trkpt><trkpt lat="43.8401668" lon="12.6026144"><ele>383.0</ele><time>2026-04-11T09:03:45.93Z</time></trkpt><trkpt lat="43.8401948" lon="12.6025213"><ele>385.79999999999995</ele><time>2026-04-11T09:03:47.931Z</time></trkpt><trkpt lat="43.8402353" lon="12.6023734"><ele>388.6</ele><time>2026-04-11T09:03:49.937Z</time></trkpt><trkpt lat="43.8402751" lon="12.6022683"><ele>391.4</ele><time>2026-04-11T09:03:50.93Z</time></trkpt><trkpt lat="43.8403218" lon="12.6021542"><ele>394.20000000000005</ele><time>2026-04-11T09:03:51.928Z</time></trkpt><trkpt lat="43.840367" lon="12.6020228"><ele>397.0</ele><time>2026-04-11T09:03:52.937Z</time></trkpt><trkpt lat="43.840411" lon="12.6018926"><ele>397.8</ele><time>2026-04-11T09:03:53.927Z</time></trkpt><trkpt lat="43.8404518" lon="12.6017613"><ele>398.6</ele><time>2026-04-11T09:03:54.934Z</time></trkpt><trkpt lat="43.840499" lon="12.6016366"><ele>399.40000000000003</ele><time>2026-04-11T09:03:55.935Z</time></trkpt><trkpt lat="43.8405436" lon="12.6015107"><ele>400.20000000000005</ele><time>2026-04-11T09:03:56.926Z</time></trkpt><trkpt lat="43.8405858" lon="12.6013812"><ele>401.0</ele><time>2026-04-11T09:03:57.936Z</time></trkpt><trkpt lat="43.840629" lon="12.601251"><ele>400.6</ele><time>2026-04-11T09:03:58.93Z</time></trkpt><trkpt lat="43.8406784" lon="12.6011204"><ele>400.20000000000005</ele><time>2026-04-11T09:03:59.929Z</time></trkpt><trkpt lat="43.8407217" lon="12.6009831"><ele>399.79999999999995</ele><time>2026-04-11T09:04:00.931Z</time></trkpt><trkpt lat="43.8407793" lon="12.6008495"><ele>399.4</ele><time>2026-04-11T09:04:01.94Z</time></trkpt><trkpt lat="43.8408265" lon="12.6007071"><ele>399.0</ele><time>2026-04-11T09:04:02.93Z</time></trkpt><trkpt lat="43.8408782" lon="12.600573"><ele>399.0</ele><time>2026-04-11T09:04:03.938Z</time></trkpt><trkpt lat="43.8409357" lon="12.6004375"><ele>399.0</ele><time>2026-04-11T09:04:04.931Z</time></trkpt><trkpt lat="43.8409866" lon="12.6002998"><ele>399.0</ele><time>2026-04-11T09:04:05.93Z</time></trkpt><trkpt lat="43.8410394" lon="12.6001601"><ele>399.0</ele><time>2026-04-11T09:04:06.93Z</time></trkpt><trkpt lat="43.8410894" lon="12.6000205"><ele>399.4</ele><time>2026-04-11T09:04:07.93Z</time></trkpt><trkpt lat="43.8411344" lon="12.5998886"><ele>399.79999999999995</ele><time>2026-04-11T09:04:08.929Z</time></trkpt><trkpt lat="43.8411875" lon="12.5997546"><ele>400.20000000000005</ele><time>2026-04-11T09:04:09.93Z</time></trkpt><trkpt lat="43.841233" lon="12.5996205"><ele>400.6</ele><time>2026-04-11T09:04:10.938Z</time></trkpt><trkpt lat="43.841279" lon="12.5994929"><ele>401.0</ele><time>2026-04-11T09:04:11.929Z</time></trkpt><trkpt lat="43.841327" lon="12.5993623"><ele>401.0</ele><time>2026-04-11T09:04:12.93Z</time></trkpt><trkpt lat="43.8413725" lon="12.5992301"><ele>401.0</ele><time>2026-04-11T09:04:13.922Z</time></trkpt><trkpt lat="43.8414176" lon="12.5990965"><ele>401.0</ele><time>2026-04-11T09:04:14.926Z</time></trkpt><trkpt lat="43.8414633" lon="12.5989589"><ele>401.0</ele><time>2026-04-11T09:04:15.935Z</time></trkpt><trkpt lat="43.8415114" lon="12.5988288"><ele>401.0</ele><time>2026-04-11T09:04:16.934Z</time></trkpt><trkpt lat="43.841553" lon="12.5986935"><ele>401.6</ele><time>2026-04-11T09:04:17.93Z</time></trkpt><trkpt lat="43.8416027" lon="12.5985566"><ele>402.20000000000005</ele><time>2026-04-11T09:04:18.929Z</time></trkpt><trkpt lat="43.8416496" lon="12.5984169"><ele>402.79999999999995</ele><time>2026-04-11T09:04:19.931Z</time></trkpt><trkpt lat="43.8416991" lon="12.5982796"><ele>403.4</ele><time>2026-04-11T09:04:20.927Z</time></trkpt><trkpt lat="43.8417495" lon="12.598136"><ele>404.0</ele><time>2026-04-11T09:04:21.933Z</time></trkpt><trkpt lat="43.8417958" lon="12.5979872"><ele>403.0</ele><time>2026-04-11T09:04:22.934Z</time></trkpt><trkpt lat="43.8418543" lon="12.5978364"><ele>402.0</ele><time>2026-04-11T09:04:23.936Z</time></trkpt><trkpt lat="43.8419059" lon="12.5976875"><ele>401.0</ele><time>2026-04-11T09:04:24.929Z</time></trkpt><trkpt lat="43.8419576" lon="12.5975425"><ele>400.0</ele><time>2026-04-11T09:04:25.931Z</time></trkpt><trkpt lat="43.8420126" lon="12.5973909"><ele>400.0</ele><time>2026-04-11T09:04:26.924Z</time></trkpt><trkpt lat="43.8420674" lon="12.597243"><ele>400.0</ele><time>2026-04-11T09:04:27.928Z</time></trkpt><trkpt lat="43.8421208" lon="12.5970942"><ele>400.0</ele><time>2026-04-11T09:04:28.936Z</time></trkpt><trkpt lat="43.8421768" lon="12.5969504"><ele>400.0</ele><time>2026-04-11T09:04:29.936Z</time></trkpt><trkpt lat="43.842232" lon="12.5968208"><ele>401.2</ele><time>2026-04-11T09:04:30.935Z</time></trkpt><trkpt lat="43.8422876" lon="12.5966955"><ele>402.4</ele><time>2026-04-11T09:04:31.933Z</time></trkpt><trkpt lat="43.8423421" lon="12.5965702"><ele>403.6</ele><time>2026-04-11T09:04:32.934Z</time></trkpt><trkpt lat="43.8423952" lon="12.59644"><ele>404.8</ele><time>2026-04-11T09:04:33.93Z</time></trkpt><trkpt lat="43.8424507" lon="12.5963269"><ele>406.0</ele><time>2026-04-11T09:04:34.932Z</time></trkpt><trkpt lat="43.842504" lon="12.5962087"><ele>405.6</ele><time>2026-04-11T09:04:35.93Z</time></trkpt><trkpt lat="43.8425565" lon="12.5960936"><ele>405.20000000000005</ele><time>2026-04-11T09:04:36.931Z</time></trkpt><trkpt lat="43.8426117" lon="12.5959865"><ele>404.79999999999995</ele><time>2026-04-11T09:04:37.932Z</time></trkpt><trkpt lat="43.8426643" lon="12.5958702"><ele>404.4</ele><time>2026-04-11T09:04:38.931Z</time></trkpt><trkpt lat="43.8427128" lon="12.5957517"><ele>404.0</ele><time>2026-04-11T09:04:39.926Z</time></trkpt><trkpt lat="43.8427622" lon="12.5956533"><ele>404.0</ele><time>2026-04-11T09:04:40.928Z</time></trkpt><trkpt lat="43.8428198" lon="12.5955553"><ele>404.0</ele><time>2026-04-11T09:04:41.931Z</time></trkpt><trkpt lat="43.8428744" lon="12.5954484"><ele>404.0</ele><time>2026-04-11T09:04:42.931Z</time></trkpt><trkpt lat="43.842928" lon="12.5953433"><ele>404.0</ele><time>2026-04-11T09:04:43.93Z</time></trkpt><trkpt lat="43.8429828" lon="12.5952419"><ele>404.0</ele><time>2026-04-11T09:04:44.934Z</time></trkpt><trkpt lat="43.8430473" lon="12.5951435"><ele>405.99999999999994</ele><time>2026-04-11T09:04:45.932Z</time></trkpt><trkpt lat="43.8431056" lon="12.5950618"><ele>408.0</ele><time>2026-04-11T09:04:46.929Z</time></trkpt><trkpt lat="43.8431661" lon="12.5949789"><ele>410.0</ele><time>2026-04-11T09:04:47.937Z</time></trkpt><trkpt lat="43.8432241" lon="12.5948991"><ele>412.0</ele><time>2026-04-11T09:04:48.935Z</time></trkpt><trkpt lat="43.8432836" lon="12.5948179"><ele>413.99999999999994</ele><time>2026-04-11T09:04:49.932Z</time></trkpt><trkpt lat="43.8433344" lon="12.594742"><ele>416.0</ele><time>2026-04-11T09:04:50.932Z</time></trkpt><trkpt lat="43.8433908" lon="12.5946624"><ele>416.0</ele><time>2026-04-11T09:04:51.929Z</time></trkpt><trkpt lat="43.8434397" lon="12.5945828"><ele>416.0</ele><time>2026-04-11T09:04:52.928Z</time></trkpt><trkpt lat="43.8434984" lon="12.5945079"><ele>416.0</ele><time>2026-04-11T09:04:53.93Z</time></trkpt><trkpt lat="43.8435568" lon="12.5944361"><ele>416.0</ele><time>2026-04-11T09:04:54.929Z</time></trkpt><trkpt lat="43.8436099" lon="12.5943603"><ele>416.0</ele><time>2026-04-11T09:04:55.933Z</time></trkpt><trkpt lat="43.8436553" lon="12.5942883"><ele>416.0</ele><time>2026-04-11T09:04:56.932Z</time></trkpt><trkpt lat="43.8437026" lon="12.5942194"><ele>416.0</ele><time>2026-04-11T09:04:57.933Z</time></trkpt><trkpt lat="43.8437842" lon="12.5941101"><ele>416.16666666666663</ele><time>2026-04-11T09:04:59.933Z</time></trkpt><trkpt lat="43.8438311" lon="12.5940386"><ele>416.3333333333333</ele><time>2026-04-11T09:05:01.932Z</time></trkpt><trkpt lat="43.8438609" lon="12.5939617"><ele>416.5</ele><time>2026-04-11T09:05:04.934Z</time></trkpt><trkpt lat="43.8439278" lon="12.5938564"><ele>416.66666666666663</ele><time>2026-04-11T09:05:07.93Z</time></trkpt><trkpt lat="43.8439978" lon="12.5937676"><ele>416.8333333333333</ele><time>2026-04-11T09:05:09.93Z</time></trkpt><trkpt lat="43.8441083" lon="12.5937165"><ele>417.0</ele><time>2026-04-11T09:05:11.931Z</time></trkpt><trkpt lat="43.8442063" lon="12.5936555"><ele>416.6</ele><time>2026-04-11T09:05:13.935Z</time></trkpt><trkpt lat="43.8442647" lon="12.5936102"><ele>416.20000000000005</ele><time>2026-04-11T09:05:14.932Z</time></trkpt><trkpt lat="43.8443691" lon="12.5935246"><ele>415.8</ele><time>2026-04-11T09:05:16.93Z</time></trkpt><trkpt lat="43.8444534" lon="12.5934549"><ele>415.4</ele><time>2026-04-11T09:05:18.931Z</time></trkpt><trkpt lat="43.844556" lon="12.5933981"><ele>415.0</ele><time>2026-04-11T09:05:20.934Z</time></trkpt><trkpt lat="43.8446368" lon="12.5933488"><ele>415.0</ele><time>2026-04-11T09:05:22.93Z</time></trkpt><trkpt lat="43.8447251" lon="12.5932837"><ele>415.0</ele><time>2026-04-11T09:05:24.927Z</time></trkpt><trkpt lat="43.8448259" lon="12.5932155"><ele>415.0</ele><time>2026-04-11T09:05:26.933Z</time></trkpt><trkpt lat="43.8448888" lon="12.5931712"><ele>415.0</ele><time>2026-04-11T09:05:27.934Z</time></trkpt><trkpt lat="43.8449728" lon="12.5931137"><ele>415.0</ele><time>2026-04-11T09:05:28.932Z</time></trkpt><trkpt lat="43.8450565" lon="12.5930612"><ele>414.8</ele><time>2026-04-11T09:05:29.93Z</time></trkpt><trkpt lat="43.8451503" lon="12.5930023"><ele>414.6</ele><time>2026-04-11T09:05:30.924Z</time></trkpt><trkpt lat="43.8452463" lon="12.5929433"><ele>414.4</ele><time>2026-04-11T09:05:31.923Z</time></trkpt><trkpt lat="43.8453402" lon="12.5928857"><ele>414.2</ele><time>2026-04-11T09:05:32.929Z</time></trkpt><trkpt lat="43.84544" lon="12.5928355"><ele>414.0</ele><time>2026-04-11T09:05:33.93Z</time></trkpt><trkpt lat="43.8455319" lon="12.5927809"><ele>414.0</ele><time>2026-04-11T09:05:34.929Z</time></trkpt><trkpt lat="43.8456225" lon="12.5927239"><ele>414.0</ele><time>2026-04-11T09:05:35.93Z</time></trkpt><trkpt lat="43.8457056" lon="12.5926713"><ele>414.0</ele><time>2026-04-11T09:05:36.93Z</time></trkpt><trkpt lat="43.8457804" lon="12.5926132"><ele>414.0</ele><time>2026-04-11T09:05:37.926Z</time></trkpt><trkpt lat="43.8458354" lon="12.5925395"><ele>414.0</ele><time>2026-04-11T09:05:38.927Z</time></trkpt><trkpt lat="43.8458668" lon="12.5924419"><ele>414.0</ele><time>2026-04-11T09:05:39.926Z</time></trkpt><trkpt lat="43.845886" lon="12.5923444"><ele>414.0</ele><time>2026-04-11T09:05:40.932Z</time></trkpt><trkpt lat="43.8459134" lon="12.592218"><ele>414.0</ele><time>2026-04-11T09:05:41.928Z</time></trkpt><trkpt lat="43.8458056" lon="12.5921399"><ele>414.0</ele><time>2026-04-11T09:05:42.932Z</time></trkpt><trkpt lat="43.8457222" lon="12.5920689"><ele>414.0</ele><time>2026-04-11T09:05:43.929Z</time></trkpt><trkpt lat="43.8456296" lon="12.5920097"><ele>414.0</ele><time>2026-04-11T09:05:44.931Z</time></trkpt><trkpt lat="43.8455345" lon="12.5919501"><ele>414.0</ele><time>2026-04-11T09:05:45.933Z</time></trkpt><trkpt lat="43.8454314" lon="12.5918835"><ele>414.0</ele><time>2026-04-11T09:05:46.926Z</time></trkpt><trkpt lat="43.8453323" lon="12.5918154"><ele>414.0</ele><time>2026-04-11T09:05:47.923Z</time></trkpt><trkpt lat="43.845238" lon="12.5917519"><ele>414.0</ele><time>2026-04-11T09:05:48.93Z</time></trkpt><trkpt lat="43.8451507" lon="12.5916966"><ele>414.0</ele><time>2026-04-11T09:05:49.933Z</time></trkpt><trkpt lat="43.8450743" lon="12.5916256"><ele>414.0</ele><time>2026-04-11T09:05:50.932Z</time></trkpt><trkpt lat="43.8450186" lon="12.5915192"><ele>414.0</ele><time>2026-04-11T09:05:51.926Z</time></trkpt><trkpt lat="43.8450039" lon="12.5914033"><ele>414.0</ele><time>2026-04-11T09:05:52.924Z</time></trkpt><trkpt lat="43.8450377" lon="12.591293"><ele>414.0</ele><time>2026-04-11T09:05:53.928Z</time></trkpt><trkpt lat="43.8451029" lon="12.5912064"><ele>414.0</ele><time>2026-04-11T09:05:54.931Z</time></trkpt><trkpt lat="43.845191" lon="12.5911276"><ele>411.5</ele><time>2026-04-11T09:05:55.929Z</time></trkpt><trkpt lat="43.8452857" lon="12.5910555"><ele>409.0</ele><time>2026-04-11T09:05:56.937Z</time></trkpt><trkpt lat="43.845403" lon="12.5909648"><ele>406.5</ele><time>2026-04-11T09:05:57.929Z</time></trkpt><trkpt lat="43.8455182" lon="12.5908735"><ele>404.0</ele><time>2026-04-11T09:05:58.929Z</time></trkpt><trkpt lat="43.8456312" lon="12.5907858"><ele>404.0</ele><time>2026-04-11T09:05:59.932Z</time></trkpt><trkpt lat="43.8457489" lon="12.5906879"><ele>404.0</ele><time>2026-04-11T09:06:00.928Z</time></trkpt><trkpt lat="43.8458645" lon="12.590601"><ele>404.0</ele><time>2026-04-11T09:06:01.936Z</time></trkpt><trkpt lat="43.8459766" lon="12.5905166"><ele>404.0</ele><time>2026-04-11T09:06:02.942Z</time></trkpt><trkpt lat="43.8460885" lon="12.5904464"><ele>403.25</ele><time>2026-04-11T09:06:03.933Z</time></trkpt><trkpt lat="43.8462021" lon="12.5903844"><ele>402.5</ele><time>2026-04-11T09:06:04.94Z</time></trkpt><trkpt lat="43.8463265" lon="12.5903309"><ele>401.75</ele><time>2026-04-11T09:06:05.934Z</time></trkpt><trkpt lat="43.8464568" lon="12.5903107"><ele>401.0</ele><time>2026-04-11T09:06:06.937Z</time></trkpt><trkpt lat="43.8465865" lon="12.5902836"><ele>398.5</ele><time>2026-04-11T09:06:07.938Z</time></trkpt><trkpt lat="43.8467138" lon="12.5902627"><ele>396.0</ele><time>2026-04-11T09:06:08.93Z</time></trkpt><trkpt lat="43.8468345" lon="12.5902362"><ele>393.5</ele><time>2026-04-11T09:06:09.933Z</time></trkpt><trkpt lat="43.8469562" lon="12.5901756"><ele>391.0</ele><time>2026-04-11T09:06:10.928Z</time></trkpt><trkpt lat="43.8470484" lon="12.5900867"><ele>390.20000000000005</ele><time>2026-04-11T09:06:11.93Z</time></trkpt><trkpt lat="43.847137" lon="12.5899912"><ele>389.40000000000003</ele><time>2026-04-11T09:06:12.933Z</time></trkpt><trkpt lat="43.8472112" lon="12.5898688"><ele>388.6</ele><time>2026-04-11T09:06:13.93Z</time></trkpt><trkpt lat="43.8472729" lon="12.5897682"><ele>387.8</ele><time>2026-04-11T09:06:14.932Z</time></trkpt><trkpt lat="43.8473256" lon="12.5896741"><ele>387.0</ele><time>2026-04-11T09:06:15.936Z</time></trkpt><trkpt lat="43.847375" lon="12.5895898"><ele>387.0</ele><time>2026-04-11T09:06:16.931Z</time></trkpt><trkpt lat="43.8474267" lon="12.5895191"><ele>387.0</ele><time>2026-04-11T09:06:17.933Z</time></trkpt><trkpt lat="43.8474852" lon="12.5893714"><ele>387.0</ele><time>2026-04-11T09:06:19.933Z</time></trkpt><trkpt lat="43.8474875" lon="12.5892736"><ele>387.0</ele><time>2026-04-11T09:06:20.931Z</time></trkpt><trkpt lat="43.8474784" lon="12.5891753"><ele>387.0</ele><time>2026-04-11T09:06:21.928Z</time></trkpt><trkpt lat="43.8474536" lon="12.5890885"><ele>387.0</ele><time>2026-04-11T09:06:22.929Z</time></trkpt><trkpt lat="43.847372" lon="12.5889794"><ele>386.1666666666667</ele><time>2026-04-11T09:06:24.937Z</time></trkpt><trkpt lat="43.8473032" lon="12.5889689"><ele>385.3333333333333</ele><time>2026-04-11T09:06:25.927Z</time></trkpt><trkpt lat="43.8472335" lon="12.5889913"><ele>384.5</ele><time>2026-04-11T09:06:26.928Z</time></trkpt><trkpt lat="43.8471567" lon="12.5890193"><ele>383.66666666666663</ele><time>2026-04-11T09:06:27.928Z</time></trkpt><trkpt lat="43.8470751" lon="12.5890476"><ele>382.8333333333333</ele><time>2026-04-11T09:06:28.935Z</time></trkpt><trkpt lat="43.8469829" lon="12.5890677"><ele>382.0</ele><time>2026-04-11T09:06:29.93Z</time></trkpt><trkpt lat="43.8468941" lon="12.5890867"><ele>382.0</ele><time>2026-04-11T09:06:30.928Z</time></trkpt><trkpt lat="43.8467964" lon="12.5890896"><ele>382.0</ele><time>2026-04-11T09:06:31.933Z</time></trkpt><trkpt lat="43.8467064" lon="12.5890829"><ele>382.0</ele><time>2026-04-11T09:06:32.93Z</time></trkpt><trkpt lat="43.8466098" lon="12.5890661"><ele>382.0</ele><time>2026-04-11T09:06:33.935Z</time></trkpt><trkpt lat="43.8465137" lon="12.5890514"><ele>382.0</ele><time>2026-04-11T09:06:34.928Z</time></trkpt><trkpt lat="43.8464328" lon="12.5890369"><ele>381.0</ele><time>2026-04-11T09:06:35.93Z</time></trkpt><trkpt lat="43.8463539" lon="12.5890182"><ele>380.0</ele><time>2026-04-11T09:06:36.935Z</time></trkpt><trkpt lat="43.8462807" lon="12.5889981"><ele>379.0</ele><time>2026-04-11T09:06:37.935Z</time></trkpt><trkpt lat="43.8462102" lon="12.5889529"><ele>378.0</ele><time>2026-04-11T09:06:38.93Z</time></trkpt><trkpt lat="43.8461553" lon="12.5888745"><ele>377.0</ele><time>2026-04-11T09:06:39.932Z</time></trkpt><trkpt lat="43.8461124" lon="12.5887593"><ele>376.0</ele><time>2026-04-11T09:06:40.932Z</time></trkpt><trkpt lat="43.8460834" lon="12.588608"><ele>372.5</ele><time>2026-04-11T09:06:41.933Z</time></trkpt><trkpt lat="43.8460742" lon="12.5884335"><ele>369.0</ele><time>2026-04-11T09:06:42.925Z</time></trkpt><trkpt lat="43.8460581" lon="12.5882475"><ele>365.5</ele><time>2026-04-11T09:06:43.936Z</time></trkpt><trkpt lat="43.8460337" lon="12.5880473"><ele>362.0</ele><time>2026-04-11T09:06:44.933Z</time></trkpt><trkpt lat="43.8460102" lon="12.5878451"><ele>359.25</ele><time>2026-04-11T09:06:45.928Z</time></trkpt><trkpt lat="43.8459923" lon="12.587646"><ele>356.5</ele><time>2026-04-11T09:06:46.938Z</time></trkpt><trkpt lat="43.8459819" lon="12.5874475"><ele>353.75</ele><time>2026-04-11T09:06:47.931Z</time></trkpt><trkpt lat="43.8459786" lon="12.5872512"><ele>351.0</ele><time>2026-04-11T09:06:48.932Z</time></trkpt><trkpt lat="43.84598" lon="12.5870564"><ele>348.25</ele><time>2026-04-11T09:06:49.935Z</time></trkpt><trkpt lat="43.8459808" lon="12.5868659"><ele>345.5</ele><time>2026-04-11T09:06:50.936Z</time></trkpt><trkpt lat="43.845982" lon="12.586677"><ele>342.75</ele><time>2026-04-11T09:06:51.926Z</time></trkpt><trkpt lat="43.8459896" lon="12.5864826"><ele>340.0</ele><time>2026-04-11T09:06:52.936Z</time></trkpt><trkpt lat="43.8459811" lon="12.586291"><ele>338.5</ele><time>2026-04-11T09:06:53.933Z</time></trkpt><trkpt lat="43.8459669" lon="12.586104"><ele>337.0</ele><time>2026-04-11T09:06:54.93Z</time></trkpt><trkpt lat="43.8459531" lon="12.5859283"><ele>335.5</ele><time>2026-04-11T09:06:55.927Z</time></trkpt><trkpt lat="43.8459331" lon="12.5857448"><ele>334.0</ele><time>2026-04-11T09:06:56.929Z</time></trkpt><trkpt lat="43.8459024" lon="12.5855729"><ele>333.6</ele><time>2026-04-11T09:06:57.934Z</time></trkpt><trkpt lat="43.845875" lon="12.5854123"><ele>333.2</ele><time>2026-04-11T09:06:58.924Z</time></trkpt><trkpt lat="43.8458515" lon="12.5852496"><ele>332.8</ele><time>2026-04-11T09:06:59.935Z</time></trkpt><trkpt lat="43.8458771" lon="12.5851228"><ele>332.40000000000003</ele><time>2026-04-11T09:07:00.936Z</time></trkpt><trkpt lat="43.8459118" lon="12.5850236"><ele>332.0</ele><time>2026-04-11T09:07:01.931Z</time></trkpt><trkpt lat="43.8459679" lon="12.5849415"><ele>330.8</ele><time>2026-04-11T09:07:02.927Z</time></trkpt><trkpt lat="43.8460461" lon="12.5848643"><ele>329.6</ele><time>2026-04-11T09:07:03.93Z</time></trkpt><trkpt lat="43.8461395" lon="12.5847858"><ele>328.40000000000003</ele><time>2026-04-11T09:07:04.926Z</time></trkpt><trkpt lat="43.8462386" lon="12.5847138"><ele>327.20000000000005</ele><time>2026-04-11T09:07:05.936Z</time></trkpt><trkpt lat="43.846349" lon="12.5846394"><ele>326.0</ele><time>2026-04-11T09:07:06.931Z</time></trkpt><trkpt lat="43.8464625" lon="12.5845506"><ele>324.5</ele><time>2026-04-11T09:07:07.929Z</time></trkpt><trkpt lat="43.846573" lon="12.5844622"><ele>323.0</ele><time>2026-04-11T09:07:08.93Z</time></trkpt><trkpt lat="43.846669" lon="12.5843662"><ele>321.5</ele><time>2026-04-11T09:07:09.93Z</time></trkpt><trkpt lat="43.8467593" lon="12.5842633"><ele>320.0</ele><time>2026-04-11T09:07:10.934Z</time></trkpt><trkpt lat="43.8468478" lon="12.5841641"><ele>319.0</ele><time>2026-04-11T09:07:11.927Z</time></trkpt><trkpt lat="43.8469461" lon="12.584068"><ele>318.0</ele><time>2026-04-11T09:07:12.931Z</time></trkpt><trkpt lat="43.8470469" lon="12.5839817"><ele>317.0</ele><time>2026-04-11T09:07:13.925Z</time></trkpt><trkpt lat="43.8471524" lon="12.5838958"><ele>316.0</ele><time>2026-04-11T09:07:14.93Z</time></trkpt><trkpt lat="43.8472594" lon="12.5838047"><ele>316.0</ele><time>2026-04-11T09:07:15.935Z</time></trkpt><trkpt lat="43.8473669" lon="12.5837197"><ele>316.0</ele><time>2026-04-11T09:07:16.935Z</time></trkpt><trkpt lat="43.8474756" lon="12.5836315"><ele>316.0</ele><time>2026-04-11T09:07:17.929Z</time></trkpt><trkpt lat="43.847584" lon="12.5835419"><ele>316.0</ele><time>2026-04-11T09:07:18.934Z</time></trkpt><trkpt lat="43.8476925" lon="12.5834446"><ele>313.5</ele><time>2026-04-11T09:07:19.93Z</time></trkpt><trkpt lat="43.8478043" lon="12.5833497"><ele>311.0</ele><time>2026-04-11T09:07:20.928Z</time></trkpt><trkpt lat="43.8479173" lon="12.5832483"><ele>308.5</ele><time>2026-04-11T09:07:21.931Z</time></trkpt><trkpt lat="43.8480423" lon="12.5831492"><ele>306.0</ele><time>2026-04-11T09:07:22.929Z</time></trkpt><trkpt lat="43.848164" lon="12.5830526"><ele>306.0</ele><time>2026-04-11T09:07:23.929Z</time></trkpt><trkpt lat="43.8482737" lon="12.582958"><ele>306.0</ele><time>2026-04-11T09:07:24.933Z</time></trkpt><trkpt lat="43.8483801" lon="12.582878"><ele>306.0</ele><time>2026-04-11T09:07:25.932Z</time></trkpt><trkpt lat="43.8484867" lon="12.5827997"><ele>306.0</ele><time>2026-04-11T09:07:26.928Z</time></trkpt><trkpt lat="43.8485869" lon="12.5827134"><ele>304.8</ele><time>2026-04-11T09:07:27.932Z</time></trkpt><trkpt lat="43.8486909" lon="12.5826395"><ele>303.6</ele><time>2026-04-11T09:07:28.927Z</time></trkpt><trkpt lat="43.8487817" lon="12.5825803"><ele>302.4</ele><time>2026-04-11T09:07:29.929Z</time></trkpt><trkpt lat="43.8488655" lon="12.5825184"><ele>301.2</ele><time>2026-04-11T09:07:30.935Z</time></trkpt><trkpt lat="43.8489341" lon="12.5824397"><ele>300.0</ele><time>2026-04-11T09:07:31.932Z</time></trkpt><trkpt lat="43.848983" lon="12.5823257"><ele>300.0</ele><time>2026-04-11T09:07:32.927Z</time></trkpt><trkpt lat="43.8490086" lon="12.5821969"><ele>300.0</ele><time>2026-04-11T09:07:33.932Z</time></trkpt><trkpt lat="43.8490282" lon="12.5820559"><ele>300.0</ele><time>2026-04-11T09:07:34.931Z</time></trkpt><trkpt lat="43.8490206" lon="12.5819001"><ele>300.0</ele><time>2026-04-11T09:07:35.928Z</time></trkpt><trkpt lat="43.8489818" lon="12.5817309"><ele>300.0</ele><time>2026-04-11T09:07:36.934Z</time></trkpt><trkpt lat="43.8489262" lon="12.5815327"><ele>297.25</ele><time>2026-04-11T09:07:37.943Z</time></trkpt><trkpt lat="43.8488809" lon="12.5813533"><ele>294.5</ele><time>2026-04-11T09:07:38.93Z</time></trkpt><trkpt lat="43.8488311" lon="12.5811699"><ele>291.75</ele><time>2026-04-11T09:07:39.931Z</time></trkpt><trkpt lat="43.8487852" lon="12.5809883"><ele>289.0</ele><time>2026-04-11T09:07:40.936Z</time></trkpt><trkpt lat="43.8487431" lon="12.5808092"><ele>287.5</ele><time>2026-04-11T09:07:41.93Z</time></trkpt><trkpt lat="43.8486972" lon="12.5806354"><ele>286.0</ele><time>2026-04-11T09:07:42.924Z</time></trkpt><trkpt lat="43.8486533" lon="12.5804612"><ele>284.5</ele><time>2026-04-11T09:07:43.932Z</time></trkpt><trkpt lat="43.8486156" lon="12.5802946"><ele>283.0</ele><time>2026-04-11T09:07:44.929Z</time></trkpt><trkpt lat="43.848576" lon="12.5801361"><ele>281.5</ele><time>2026-04-11T09:07:45.925Z</time></trkpt><trkpt lat="43.848493" lon="12.579976"><ele>280.0</ele><time>2026-04-11T09:07:46.927Z</time></trkpt><trkpt lat="43.8483982" lon="12.5798585"><ele>278.5</ele><time>2026-04-11T09:07:47.933Z</time></trkpt><trkpt lat="43.8482928" lon="12.5797528"><ele>277.0</ele><time>2026-04-11T09:07:48.937Z</time></trkpt><trkpt lat="43.8481863" lon="12.5796596"><ele>276.5</ele><time>2026-04-11T09:07:49.935Z</time></trkpt><trkpt lat="43.8480839" lon="12.5795586"><ele>276.0</ele><time>2026-04-11T09:07:50.926Z</time></trkpt><trkpt lat="43.8479754" lon="12.5794529"><ele>275.5</ele><time>2026-04-11T09:07:51.925Z</time></trkpt><trkpt lat="43.8478697" lon="12.5793512"><ele>275.0</ele><time>2026-04-11T09:07:52.935Z</time></trkpt><trkpt lat="43.8477629" lon="12.5792444"><ele>273.0</ele><time>2026-04-11T09:07:53.932Z</time></trkpt><trkpt lat="43.8476546" lon="12.5791428"><ele>271.0</ele><time>2026-04-11T09:07:54.934Z</time></trkpt><trkpt lat="43.8475436" lon="12.5790518"><ele>269.0</ele><time>2026-04-11T09:07:55.932Z</time></trkpt><trkpt lat="43.8474334" lon="12.5789615"><ele>267.0</ele><time>2026-04-11T09:07:56.932Z</time></trkpt><trkpt lat="43.8473198" lon="12.5788769"><ele>266.25</ele><time>2026-04-11T09:07:57.933Z</time></trkpt><trkpt lat="43.8472058" lon="12.5787937"><ele>265.5</ele><time>2026-04-11T09:07:58.932Z</time></trkpt><trkpt lat="43.8470981" lon="12.5787139"><ele>264.75</ele><time>2026-04-11T09:07:59.931Z</time></trkpt><trkpt lat="43.8469913" lon="12.5786504"><ele>264.0</ele><time>2026-04-11T09:08:00.931Z</time></trkpt><trkpt lat="43.8469045" lon="12.5785863"><ele>262.5</ele><time>2026-04-11T09:08:01.932Z</time></trkpt><trkpt lat="43.8468252" lon="12.5785335"><ele>261.0</ele><time>2026-04-11T09:08:02.933Z</time></trkpt><trkpt lat="43.8467669" lon="12.5784742"><ele>259.5</ele><time>2026-04-11T09:08:03.934Z</time></trkpt><trkpt lat="43.8467234" lon="12.5784086"><ele>258.0</ele><time>2026-04-11T09:08:04.931Z</time></trkpt><trkpt lat="43.8466987" lon="12.5782355"><ele>256.5</ele><time>2026-04-11T09:08:06.928Z</time></trkpt><trkpt lat="43.8467264" lon="12.578156"><ele>255.0</ele><time>2026-04-11T09:08:07.932Z</time></trkpt><trkpt lat="43.846776" lon="12.5780974"><ele>255.0</ele><time>2026-04-11T09:08:08.936Z</time></trkpt><trkpt lat="43.8468415" lon="12.5780438"><ele>255.0</ele><time>2026-04-11T09:08:09.927Z</time></trkpt><trkpt lat="43.8469136" lon="12.5779905"><ele>255.0</ele><time>2026-04-11T09:08:10.937Z</time></trkpt><trkpt lat="43.8469912" lon="12.5779269"><ele>255.0</ele><time>2026-04-11T09:08:11.929Z</time></trkpt><trkpt lat="43.847078" lon="12.5778457"><ele>255.0</ele><time>2026-04-11T09:08:12.925Z</time></trkpt><trkpt lat="43.847173" lon="12.5777677"><ele>252.8</ele><time>2026-04-11T09:08:13.926Z</time></trkpt><trkpt lat="43.8472609" lon="12.5776917"><ele>250.6</ele><time>2026-04-11T09:08:14.933Z</time></trkpt><trkpt lat="43.8473587" lon="12.5776332"><ele>248.39999999999998</ele><time>2026-04-11T09:08:15.937Z</time></trkpt><trkpt lat="43.847458" lon="12.5775804"><ele>246.2</ele><time>2026-04-11T09:08:16.933Z</time></trkpt><trkpt lat="43.8475626" lon="12.5775315"><ele>244.0</ele><time>2026-04-11T09:08:17.925Z</time></trkpt><trkpt lat="43.8476693" lon="12.5774797"><ele>243.75</ele><time>2026-04-11T09:08:18.932Z</time></trkpt><trkpt lat="43.8477751" lon="12.5774247"><ele>243.5</ele><time>2026-04-11T09:08:19.929Z</time></trkpt><trkpt lat="43.8478788" lon="12.5773645"><ele>243.25</ele><time>2026-04-11T09:08:20.932Z</time></trkpt><trkpt lat="43.847978" lon="12.5772792"><ele>243.0</ele><time>2026-04-11T09:08:21.928Z</time></trkpt><trkpt lat="43.8480668" lon="12.5771859"><ele>243.0</ele><time>2026-04-11T09:08:22.931Z</time></trkpt><trkpt lat="43.8481607" lon="12.577084"><ele>243.0</ele><time>2026-04-11T09:08:23.929Z</time></trkpt><trkpt lat="43.8482457" lon="12.5769389"><ele>243.0</ele><time>2026-04-11T09:08:24.93Z</time></trkpt><trkpt lat="43.8483291" lon="12.576813"><ele>243.0</ele><time>2026-04-11T09:08:25.931Z</time></trkpt><trkpt lat="43.8484207" lon="12.576682"><ele>239.75</ele><time>2026-04-11T09:08:26.934Z</time></trkpt><trkpt lat="43.8485122" lon="12.5765507"><ele>236.5</ele><time>2026-04-11T09:08:27.932Z</time></trkpt><trkpt lat="43.8486031" lon="12.5764071"><ele>233.25</ele><time>2026-04-11T09:08:28.928Z</time></trkpt><trkpt lat="43.8486895" lon="12.5762743"><ele>230.0</ele><time>2026-04-11T09:08:29.922Z</time></trkpt><trkpt lat="43.8487785" lon="12.5761381"><ele>226.25</ele><time>2026-04-11T09:08:30.931Z</time></trkpt><trkpt lat="43.8488644" lon="12.5760161"><ele>222.5</ele><time>2026-04-11T09:08:31.931Z</time></trkpt><trkpt lat="43.8489509" lon="12.5758799"><ele>218.75</ele><time>2026-04-11T09:08:32.931Z</time></trkpt><trkpt lat="43.8490357" lon="12.5757485"><ele>215.0</ele><time>2026-04-11T09:08:33.927Z</time></trkpt><trkpt lat="43.8491214" lon="12.5756141"><ele>215.0</ele><time>2026-04-11T09:08:34.932Z</time></trkpt><trkpt lat="43.8492004" lon="12.5754739"><ele>215.0</ele><time>2026-04-11T09:08:35.932Z</time></trkpt><trkpt lat="43.849284" lon="12.5753361"><ele>215.0</ele><time>2026-04-11T09:08:36.932Z</time></trkpt><trkpt lat="43.8493657" lon="12.575179"><ele>215.0</ele><time>2026-04-11T09:08:37.931Z</time></trkpt><trkpt lat="43.8494396" lon="12.5750385"><ele>212.5</ele><time>2026-04-11T09:08:38.933Z</time></trkpt><trkpt lat="43.8495176" lon="12.5748935"><ele>210.0</ele><time>2026-04-11T09:08:39.93Z</time></trkpt><trkpt lat="43.8495889" lon="12.5747454"><ele>207.5</ele><time>2026-04-11T09:08:40.935Z</time></trkpt><trkpt lat="43.8496675" lon="12.5746002"><ele>205.0</ele><time>2026-04-11T09:08:41.93Z</time></trkpt><trkpt lat="43.8497425" lon="12.5744468"><ele>205.0</ele><time>2026-04-11T09:08:42.926Z</time></trkpt><trkpt lat="43.8498153" lon="12.5743225"><ele>205.0</ele><time>2026-04-11T09:08:43.934Z</time></trkpt><trkpt lat="43.8498766" lon="12.5741957"><ele>205.0</ele><time>2026-04-11T09:08:44.932Z</time></trkpt><trkpt lat="43.849944" lon="12.5740791"><ele>205.0</ele><time>2026-04-11T09:08:45.933Z</time></trkpt><trkpt lat="43.8500046" lon="12.5739586"><ele>205.0</ele><time>2026-04-11T09:08:46.928Z</time></trkpt><trkpt lat="43.850078" lon="12.573833"><ele>205.0</ele><time>2026-04-11T09:08:47.928Z</time></trkpt><trkpt lat="43.8501565" lon="12.573716"><ele>205.0</ele><time>2026-04-11T09:08:48.929Z</time></trkpt><trkpt lat="43.8502432" lon="12.5736051"><ele>205.0</ele><time>2026-04-11T09:08:49.934Z</time></trkpt><trkpt lat="43.8503326" lon="12.5734986"><ele>205.0</ele><time>2026-04-11T09:08:50.93Z</time></trkpt><trkpt lat="43.8504153" lon="12.5734015"><ele>205.33333333333331</ele><time>2026-04-11T09:08:51.927Z</time></trkpt><trkpt lat="43.8504922" lon="12.5733126"><ele>205.66666666666666</ele><time>2026-04-11T09:08:52.933Z</time></trkpt><trkpt lat="43.8505689" lon="12.573226"><ele>206.0</ele><time>2026-04-11T09:08:53.931Z</time></trkpt><trkpt lat="43.8506284" lon="12.5731482"><ele>206.33333333333331</ele><time>2026-04-11T09:08:54.929Z</time></trkpt><trkpt lat="43.850675" lon="12.5730774"><ele>206.66666666666666</ele><time>2026-04-11T09:08:55.925Z</time></trkpt><trkpt lat="43.8507465" lon="12.5729875"><ele>207.0</ele><time>2026-04-11T09:08:57.923Z</time></trkpt><trkpt lat="43.8508287" lon="12.5729977"><ele>207.0</ele><time>2026-04-11T09:08:59.926Z</time></trkpt><trkpt lat="43.8509101" lon="12.5731409"><ele>207.0</ele><time>2026-04-11T09:09:01.933Z</time></trkpt><trkpt lat="43.850946" lon="12.5732368"><ele>207.0</ele><time>2026-04-11T09:09:02.927Z</time></trkpt><trkpt lat="43.8509908" lon="12.5733505"><ele>207.0</ele><time>2026-04-11T09:09:03.941Z</time></trkpt><trkpt lat="43.8510462" lon="12.5734813"><ele>207.0</ele><time>2026-04-11T09:09:04.928Z</time></trkpt><trkpt lat="43.851099" lon="12.5736255"><ele>206.5</ele><time>2026-04-11T09:09:05.934Z</time></trkpt><trkpt lat="43.8511571" lon="12.5737633"><ele>206.0</ele><time>2026-04-11T09:09:06.934Z</time></trkpt><trkpt lat="43.8512276" lon="12.5739066"><ele>205.5</ele><time>2026-04-11T09:09:07.929Z</time></trkpt><trkpt lat="43.8513044" lon="12.5740543"><ele>205.0</ele><time>2026-04-11T09:09:08.931Z</time></trkpt><trkpt lat="43.8513963" lon="12.5741974"><ele>205.0</ele><time>2026-04-11T09:09:09.936Z</time></trkpt><trkpt lat="43.8514887" lon="12.5743339"><ele>205.0</ele><time>2026-04-11T09:09:10.928Z</time></trkpt><trkpt lat="43.8515845" lon="12.5744759"><ele>205.0</ele><time>2026-04-11T09:09:11.928Z</time></trkpt><trkpt lat="43.8516906" lon="12.5746238"><ele>205.0</ele><time>2026-04-11T09:09:12.931Z</time></trkpt><trkpt lat="43.8517958" lon="12.5747652"><ele>206.75</ele><time>2026-04-11T09:09:13.924Z</time></trkpt><trkpt lat="43.8519" lon="12.5748784"><ele>208.5</ele><time>2026-04-11T09:09:14.932Z</time></trkpt><trkpt lat="43.8520165" lon="12.57498"><ele>210.25</ele><time>2026-04-11T09:09:15.937Z</time></trkpt><trkpt lat="43.8521459" lon="12.5750609"><ele>212.0</ele><time>2026-04-11T09:09:16.935Z</time></trkpt><trkpt lat="43.8522763" lon="12.5751474"><ele>212.0</ele><time>2026-04-11T09:09:17.928Z</time></trkpt><trkpt lat="43.8523807" lon="12.5752618"><ele>212.0</ele><time>2026-04-11T09:09:18.928Z</time></trkpt><trkpt lat="43.8524989" lon="12.5753564"><ele>212.0</ele><time>2026-04-11T09:09:19.933Z</time></trkpt><trkpt lat="43.8525687" lon="12.575584"><ele>212.0</ele><time>2026-04-11T09:09:20.934Z</time></trkpt><trkpt lat="43.8526607" lon="12.5757756"><ele>213.0</ele><time>2026-04-11T09:09:21.93Z</time></trkpt><trkpt lat="43.8527504" lon="12.5759653"><ele>214.0</ele><time>2026-04-11T09:09:22.933Z</time></trkpt><trkpt lat="43.8528839" lon="12.5761767"><ele>215.0</ele><time>2026-04-11T09:09:23.934Z</time></trkpt><trkpt lat="43.8529935" lon="12.5763865"><ele>209.66666666666669</ele><time>2026-04-11T09:09:24.935Z</time></trkpt><trkpt lat="43.853122" lon="12.5765999"><ele>204.33333333333331</ele><time>2026-04-11T09:09:25.928Z</time></trkpt><trkpt lat="43.8532476" lon="12.5768304"><ele>199.0</ele><time>2026-04-11T09:09:26.93Z</time></trkpt><trkpt lat="43.8533763" lon="12.5770699"><ele>199.66666666666666</ele><time>2026-04-11T09:09:27.932Z</time></trkpt><trkpt lat="43.853505" lon="12.5772994"><ele>200.33333333333331</ele><time>2026-04-11T09:09:28.93Z</time></trkpt><trkpt lat="43.8536179" lon="12.5775125"><ele>201.0</ele><time>2026-04-11T09:09:29.936Z</time></trkpt><trkpt lat="43.8537272" lon="12.5777258"><ele>197.33333333333334</ele><time>2026-04-11T09:09:30.928Z</time></trkpt><trkpt lat="43.8538345" lon="12.5779335"><ele>193.66666666666669</ele><time>2026-04-11T09:09:31.927Z</time></trkpt><trkpt lat="43.8539434" lon="12.5781344"><ele>190.0</ele><time>2026-04-11T09:09:32.926Z</time></trkpt><trkpt lat="43.8540542" lon="12.5783228"><ele>190.0</ele><time>2026-04-11T09:09:33.937Z</time></trkpt><trkpt lat="43.8541818" lon="12.5784984"><ele>190.0</ele><time>2026-04-11T09:09:34.928Z</time></trkpt><trkpt lat="43.8543198" lon="12.5786702"><ele>190.0</ele><time>2026-04-11T09:09:35.928Z</time></trkpt><trkpt lat="43.8544727" lon="12.5788393"><ele>190.0</ele><time>2026-04-11T09:09:36.931Z</time></trkpt><trkpt lat="43.8546247" lon="12.5790179"><ele>190.0</ele><time>2026-04-11T09:09:37.93Z</time></trkpt><trkpt lat="43.8547736" lon="12.5791884"><ele>190.0</ele><time>2026-04-11T09:09:38.924Z</time></trkpt><trkpt lat="43.8549149" lon="12.5793433"><ele>190.0</ele><time>2026-04-11T09:09:39.932Z</time></trkpt><trkpt lat="43.855045" lon="12.5794966"><ele>190.0</ele><time>2026-04-11T09:09:40.934Z</time></trkpt><trkpt lat="43.8551595" lon="12.5796438"><ele>190.0</ele><time>2026-04-11T09:09:41.928Z</time></trkpt><trkpt lat="43.8552782" lon="12.5797716"><ele>190.0</ele><time>2026-04-11T09:09:42.933Z</time></trkpt><trkpt lat="43.8554063" lon="12.5798945"><ele>190.0</ele><time>2026-04-11T09:09:43.926Z</time></trkpt><trkpt lat="43.8555485" lon="12.579996"><ele>190.0</ele><time>2026-04-11T09:09:44.931Z</time></trkpt><trkpt lat="43.8557002" lon="12.5800852"><ele>190.0</ele><time>2026-04-11T09:09:45.928Z</time></trkpt><trkpt lat="43.8558626" lon="12.5801617"><ele>190.0</ele><time>2026-04-11T09:09:46.923Z</time></trkpt><trkpt lat="43.8560206" lon="12.5802339"><ele>190.0</ele><time>2026-04-11T09:09:47.926Z</time></trkpt><trkpt lat="43.8561734" lon="12.5803006"><ele>188.25</ele><time>2026-04-11T09:09:48.931Z</time></trkpt><trkpt lat="43.8563152" lon="12.5803604"><ele>186.5</ele><time>2026-04-11T09:09:49.931Z</time></trkpt><trkpt lat="43.8564568" lon="12.5804195"><ele>184.75</ele><time>2026-04-11T09:09:50.927Z</time></trkpt><trkpt lat="43.8565954" lon="12.5804836"><ele>183.0</ele><time>2026-04-11T09:09:51.93Z</time></trkpt><trkpt lat="43.8567059" lon="12.5805486"><ele>184.16666666666666</ele><time>2026-04-11T09:09:52.926Z</time></trkpt><trkpt lat="43.8567934" lon="12.5805973"><ele>185.33333333333334</ele><time>2026-04-11T09:09:53.928Z</time></trkpt><trkpt lat="43.8568667" lon="12.5806313"><ele>186.5</ele><time>2026-04-11T09:09:54.933Z</time></trkpt><trkpt lat="43.8569572" lon="12.5806769"><ele>187.66666666666669</ele><time>2026-04-11T09:09:56.931Z</time></trkpt><trkpt lat="43.8570348" lon="12.5807229"><ele>188.83333333333334</ele><time>2026-04-11T09:09:59.929Z</time></trkpt><trkpt lat="43.8571165" lon="12.5807687"><ele>190.0</ele><time>2026-04-11T09:10:01.933Z</time></trkpt><trkpt lat="43.8572061" lon="12.5808769"><ele>190.0</ele><time>2026-04-11T09:10:03.932Z</time></trkpt><trkpt lat="43.8572642" lon="12.5810077"><ele>190.0</ele><time>2026-04-11T09:10:05.932Z</time></trkpt><trkpt lat="43.8573103" lon="12.5811248"><ele>190.0</ele><time>2026-04-11T09:10:07.926Z</time></trkpt><trkpt lat="43.8573464" lon="12.5812333"><ele>190.0</ele><time>2026-04-11T09:10:10.929Z</time></trkpt><trkpt lat="43.857431" lon="12.5812955"><ele>190.0</ele><time>2026-04-11T09:12:59.926Z</time></trkpt><trkpt lat="43.8574772" lon="12.5813727"><ele>188.83333333333334</ele><time>2026-04-11T09:13:00.927Z</time></trkpt><trkpt lat="43.8575231" lon="12.5814363"><ele>187.66666666666669</ele><time>2026-04-11T09:13:01.925Z</time></trkpt><trkpt lat="43.8575836" lon="12.5815045"><ele>186.5</ele><time>2026-04-11T09:13:02.931Z</time></trkpt><trkpt lat="43.8576504" lon="12.5815743"><ele>185.33333333333334</ele><time>2026-04-11T09:13:03.929Z</time></trkpt><trkpt lat="43.8577212" lon="12.581663"><ele>184.16666666666666</ele><time>2026-04-11T09:13:04.924Z</time></trkpt><trkpt lat="43.8578085" lon="12.5817583"><ele>183.0</ele><time>2026-04-11T09:13:05.929Z</time></trkpt><trkpt lat="43.8578935" lon="12.5818677"><ele>183.0</ele><time>2026-04-11T09:13:06.928Z</time></trkpt><trkpt lat="43.8579746" lon="12.5819735"><ele>183.0</ele><time>2026-04-11T09:13:07.935Z</time></trkpt><trkpt lat="43.8580615" lon="12.5820717"><ele>183.0</ele><time>2026-04-11T09:13:08.936Z</time></trkpt><trkpt lat="43.8581451" lon="12.5821807"><ele>183.0</ele><time>2026-04-11T09:13:09.928Z</time></trkpt><trkpt lat="43.8582312" lon="12.5822922"><ele>183.75</ele><time>2026-04-11T09:13:10.933Z</time></trkpt><trkpt lat="43.8583176" lon="12.5824047"><ele>184.5</ele><time>2026-04-11T09:13:11.936Z</time></trkpt><trkpt lat="43.8584084" lon="12.5825195"><ele>185.25</ele><time>2026-04-11T09:13:12.94Z</time></trkpt><trkpt lat="43.8585048" lon="12.5826346"><ele>186.0</ele><time>2026-04-11T09:13:13.927Z</time></trkpt><trkpt lat="43.8586067" lon="12.5827664"><ele>183.75</ele><time>2026-04-11T09:13:14.932Z</time></trkpt><trkpt lat="43.8587103" lon="12.5828973"><ele>181.5</ele><time>2026-04-11T09:13:15.927Z</time></trkpt><trkpt lat="43.8588191" lon="12.5830259"><ele>179.25</ele><time>2026-04-11T09:13:16.928Z</time></trkpt><trkpt lat="43.8589325" lon="12.5831534"><ele>177.0</ele><time>2026-04-11T09:13:17.93Z</time></trkpt><trkpt lat="43.8590366" lon="12.5832777"><ele>177.0</ele><time>2026-04-11T09:13:18.933Z</time></trkpt><trkpt lat="43.8591431" lon="12.5834044"><ele>177.0</ele><time>2026-04-11T09:13:19.935Z</time></trkpt><trkpt lat="43.8592714" lon="12.5835085"><ele>177.0</ele><time>2026-04-11T09:13:20.93Z</time></trkpt><trkpt lat="43.8593777" lon="12.5836475"><ele>177.0</ele><time>2026-04-11T09:13:21.933Z</time></trkpt><trkpt lat="43.8594845" lon="12.583783"><ele>175.33333333333334</ele><time>2026-04-11T09:13:22.926Z</time></trkpt><trkpt lat="43.8595988" lon="12.5839326"><ele>173.66666666666669</ele><time>2026-04-11T09:13:23.926Z</time></trkpt><trkpt lat="43.8597185" lon="12.5840693"><ele>172.0</ele><time>2026-04-11T09:13:24.931Z</time></trkpt><trkpt lat="43.8598229" lon="12.5842233"><ele>172.0</ele><time>2026-04-11T09:13:25.929Z</time></trkpt><trkpt lat="43.8599452" lon="12.5843569"><ele>172.0</ele><time>2026-04-11T09:13:26.93Z</time></trkpt><trkpt lat="43.8600628" lon="12.5844835"><ele>172.0</ele><time>2026-04-11T09:13:27.936Z</time></trkpt><trkpt lat="43.8601797" lon="12.5846149"><ele>170.33333333333334</ele><time>2026-04-11T09:13:28.936Z</time></trkpt><trkpt lat="43.8603174" lon="12.5847041"><ele>168.66666666666666</ele><time>2026-04-11T09:13:29.931Z</time></trkpt><trkpt lat="43.8604515" lon="12.5848009"><ele>167.0</ele><time>2026-04-11T09:13:30.928Z</time></trkpt><trkpt lat="43.8606002" lon="12.5849032"><ele>167.0</ele><time>2026-04-11T09:13:31.933Z</time></trkpt><trkpt lat="43.8607444" lon="12.5850036"><ele>167.0</ele><time>2026-04-11T09:13:32.925Z</time></trkpt><trkpt lat="43.8608877" lon="12.5851061"><ele>167.0</ele><time>2026-04-11T09:13:33.93Z</time></trkpt><trkpt lat="43.861032" lon="12.5852047"><ele>167.33333333333331</ele><time>2026-04-11T09:13:34.939Z</time></trkpt><trkpt lat="43.8611726" lon="12.5853085"><ele>167.66666666666666</ele><time>2026-04-11T09:13:35.93Z</time></trkpt><trkpt lat="43.8613202" lon="12.5854145"><ele>168.0</ele><time>2026-04-11T09:13:36.93Z</time></trkpt><trkpt lat="43.8614766" lon="12.5855141"><ele>168.0</ele><time>2026-04-11T09:13:37.927Z</time></trkpt><trkpt lat="43.8616281" lon="12.5856014"><ele>168.0</ele><time>2026-04-11T09:13:38.935Z</time></trkpt><trkpt lat="43.8617912" lon="12.5856867"><ele>168.0</ele><time>2026-04-11T09:13:39.929Z</time></trkpt><trkpt lat="43.8619461" lon="12.5857839"><ele>168.0</ele><time>2026-04-11T09:13:40.939Z</time></trkpt><trkpt lat="43.8621014" lon="12.5858666"><ele>168.0</ele><time>2026-04-11T09:13:41.931Z</time></trkpt><trkpt lat="43.8622651" lon="12.5859477"><ele>168.0</ele><time>2026-04-11T09:13:42.935Z</time></trkpt><trkpt lat="43.862434" lon="12.5860367"><ele>168.0</ele><time>2026-04-11T09:13:43.933Z</time></trkpt><trkpt lat="43.862595" lon="12.5861216"><ele>168.0</ele><time>2026-04-11T09:13:44.933Z</time></trkpt><trkpt lat="43.8627469" lon="12.5862065"><ele>168.0</ele><time>2026-04-11T09:13:45.927Z</time></trkpt><trkpt lat="43.8629024" lon="12.5862815"><ele>166.33333333333334</ele><time>2026-04-11T09:13:46.931Z</time></trkpt><trkpt lat="43.8630479" lon="12.5863425"><ele>164.66666666666669</ele><time>2026-04-11T09:13:47.925Z</time></trkpt><trkpt lat="43.8632101" lon="12.5864252"><ele>163.0</ele><time>2026-04-11T09:13:48.932Z</time></trkpt><trkpt lat="43.8633507" lon="12.5864873"><ele>163.5</ele><time>2026-04-11T09:13:49.933Z</time></trkpt><trkpt lat="43.8634895" lon="12.586547"><ele>164.0</ele><time>2026-04-11T09:13:50.932Z</time></trkpt><trkpt lat="43.8636183" lon="12.5866022"><ele>164.5</ele><time>2026-04-11T09:13:51.933Z</time></trkpt><trkpt lat="43.8637546" lon="12.5866534"><ele>165.0</ele><time>2026-04-11T09:13:52.928Z</time></trkpt><trkpt lat="43.8638889" lon="12.586696"><ele>165.0</ele><time>2026-04-11T09:13:53.924Z</time></trkpt><trkpt lat="43.8639838" lon="12.5867415"><ele>165.0</ele><time>2026-04-11T09:13:54.932Z</time></trkpt><trkpt lat="43.8640803" lon="12.5867815"><ele>165.0</ele><time>2026-04-11T09:13:55.929Z</time></trkpt><trkpt lat="43.864184" lon="12.586814"><ele>165.0</ele><time>2026-04-11T09:13:56.927Z</time></trkpt><trkpt lat="43.8642709" lon="12.5868378"><ele>165.0</ele><time>2026-04-11T09:13:57.93Z</time></trkpt><trkpt lat="43.8643391" lon="12.5868534"><ele>166.16666666666666</ele><time>2026-04-11T09:13:58.927Z</time></trkpt><trkpt lat="43.8644332" lon="12.5868739"><ele>167.33333333333334</ele><time>2026-04-11T09:14:00.93Z</time></trkpt><trkpt lat="43.8644998" lon="12.5868973"><ele>168.5</ele><time>2026-04-11T09:14:02.924Z</time></trkpt><trkpt lat="43.8645235" lon="12.5868145"><ele>169.66666666666669</ele><time>2026-04-11T09:14:04.928Z</time></trkpt><trkpt lat="43.8645137" lon="12.5866866"><ele>170.83333333333334</ele><time>2026-04-11T09:14:07.927Z</time></trkpt><trkpt lat="43.8644931" lon="12.5865743"><ele>172.0</ele><time>2026-04-11T09:14:09.932Z</time></trkpt><trkpt lat="43.86447" lon="12.5864624"><ele>172.0</ele><time>2026-04-11T09:14:11.929Z</time></trkpt><trkpt lat="43.8644455" lon="12.5863501"><ele>172.0</ele><time>2026-04-11T09:14:13.931Z</time></trkpt><trkpt lat="43.8644274" lon="12.5862403"><ele>172.0</ele><time>2026-04-11T09:14:15.925Z</time></trkpt><trkpt lat="43.8644172" lon="12.5861416"><ele>172.0</ele><time>2026-04-11T09:14:17.932Z</time></trkpt><trkpt lat="43.8644156" lon="12.5860303"><ele>172.0</ele><time>2026-04-11T09:14:19.931Z</time></trkpt><trkpt lat="43.8644579" lon="12.585909"><ele>172.0</ele><time>2026-04-11T09:14:21.935Z</time></trkpt><trkpt lat="43.8645067" lon="12.5857997"><ele>173.8</ele><time>2026-04-11T09:14:23.934Z</time></trkpt><trkpt lat="43.8645654" lon="12.5856736"><ele>175.6</ele><time>2026-04-11T09:14:25.934Z</time></trkpt><trkpt lat="43.8645697" lon="12.5855314"><ele>177.4</ele><time>2026-04-11T09:14:27.931Z</time></trkpt><trkpt lat="43.8645222" lon="12.5854054"><ele>179.20000000000002</ele><time>2026-04-11T09:14:29.931Z</time></trkpt><trkpt lat="43.8644375" lon="12.5853481"><ele>181.0</ele><time>2026-04-11T09:14:31.928Z</time></trkpt><trkpt lat="43.8643261" lon="12.585308"><ele>180.83333333333334</ele><time>2026-04-11T09:14:33.929Z</time></trkpt><trkpt lat="43.8642108" lon="12.5852386"><ele>180.66666666666669</ele><time>2026-04-11T09:14:35.929Z</time></trkpt><trkpt lat="43.8641455" lon="12.5852292"><ele>180.5</ele><time>2026-04-11T09:14:36.93Z</time></trkpt><trkpt lat="43.8640777" lon="12.585195"><ele>180.33333333333334</ele><time>2026-04-11T09:14:37.928Z</time></trkpt><trkpt lat="43.863998" lon="12.5851963"><ele>180.16666666666666</ele><time>2026-04-11T09:14:38.932Z</time></trkpt><trkpt lat="43.8639226" lon="12.5852021"><ele>180.0</ele><time>2026-04-11T09:14:39.935Z</time></trkpt><trkpt lat="43.8638488" lon="12.5852177"><ele>180.0</ele><time>2026-04-11T09:14:40.928Z</time></trkpt><trkpt lat="43.8637727" lon="12.5852296"><ele>180.0</ele><time>2026-04-11T09:14:41.933Z</time></trkpt><trkpt lat="43.8636958" lon="12.5852333"><ele>180.0</ele><time>2026-04-11T09:14:42.935Z</time></trkpt><trkpt lat="43.8636077" lon="12.5852425"><ele>180.0</ele><time>2026-04-11T09:14:43.928Z</time></trkpt><trkpt lat="43.8635303" lon="12.5852506"><ele>180.0</ele><time>2026-04-11T09:14:44.927Z</time></trkpt><trkpt lat="43.8634569" lon="12.5852406"><ele>180.0</ele><time>2026-04-11T09:14:45.93Z</time></trkpt><trkpt lat="43.8633841" lon="12.5852292"><ele>181.28571428571428</ele><time>2026-04-11T09:14:46.929Z</time></trkpt><trkpt lat="43.863317" lon="12.5852067"><ele>182.57142857142858</ele><time>2026-04-11T09:14:47.927Z</time></trkpt><trkpt lat="43.863256" lon="12.585179"><ele>183.85714285714286</ele><time>2026-04-11T09:14:48.932Z</time></trkpt><trkpt lat="43.8631919" lon="12.5851446"><ele>185.14285714285714</ele><time>2026-04-11T09:14:49.927Z</time></trkpt><trkpt lat="43.8631258" lon="12.5851057"><ele>186.42857142857144</ele><time>2026-04-11T09:14:50.923Z</time></trkpt><trkpt lat="43.8630621" lon="12.5850597"><ele>187.71428571428572</ele><time>2026-04-11T09:14:51.931Z</time></trkpt><trkpt lat="43.8629994" lon="12.5850072"><ele>189.0</ele><time>2026-04-11T09:14:52.927Z</time></trkpt><trkpt lat="43.8629309" lon="12.584961"><ele>189.0</ele><time>2026-04-11T09:14:53.927Z</time></trkpt><trkpt lat="43.8628577" lon="12.5849219"><ele>189.0</ele><time>2026-04-11T09:14:54.928Z</time></trkpt><trkpt lat="43.8627843" lon="12.584881"><ele>189.0</ele><time>2026-04-11T09:14:55.93Z</time></trkpt><trkpt lat="43.8627115" lon="12.5848462"><ele>189.0</ele><time>2026-04-11T09:14:56.926Z</time></trkpt><trkpt lat="43.8626395" lon="12.5848055"><ele>189.0</ele><time>2026-04-11T09:14:57.936Z</time></trkpt><trkpt lat="43.8625762" lon="12.5847794"><ele>189.0</ele><time>2026-04-11T09:14:58.924Z</time></trkpt><trkpt lat="43.8624999" lon="12.5847547"><ele>188.0</ele><time>2026-04-11T09:14:59.93Z</time></trkpt><trkpt lat="43.8624305" lon="12.58473"><ele>187.0</ele><time>2026-04-11T09:15:00.931Z</time></trkpt><trkpt lat="43.8623608" lon="12.5846839"><ele>186.0</ele><time>2026-04-11T09:15:01.921Z</time></trkpt><trkpt lat="43.8622874" lon="12.5846361"><ele>185.0</ele><time>2026-04-11T09:15:02.932Z</time></trkpt><trkpt lat="43.8622244" lon="12.5845947"><ele>184.0</ele><time>2026-04-11T09:15:03.928Z</time></trkpt><trkpt lat="43.8621653" lon="12.5845436"><ele>183.0</ele><time>2026-04-11T09:15:04.933Z</time></trkpt><trkpt lat="43.862105" lon="12.5844964"><ele>182.0</ele><time>2026-04-11T09:15:05.933Z</time></trkpt><trkpt lat="43.8620474" lon="12.5844547"><ele>186.6</ele><time>2026-04-11T09:15:06.93Z</time></trkpt><trkpt lat="43.8619583" lon="12.5843422"><ele>191.2</ele><time>2026-04-11T09:15:08.933Z</time></trkpt><trkpt lat="43.8619343" lon="12.5842099"><ele>195.8</ele><time>2026-04-11T09:15:10.929Z</time></trkpt><trkpt lat="43.8619851" lon="12.584086"><ele>200.4</ele><time>2026-04-11T09:15:12.924Z</time></trkpt><trkpt lat="43.8620424" lon="12.5840406"><ele>205.0</ele><time>2026-04-11T09:15:13.926Z</time></trkpt><trkpt lat="43.8621571" lon="12.5839922"><ele>205.0</ele><time>2026-04-11T09:15:15.935Z</time></trkpt><trkpt lat="43.8622259" lon="12.5839992"><ele>205.0</ele><time>2026-04-11T09:15:16.925Z</time></trkpt><trkpt lat="43.8622951" lon="12.5840298"><ele>205.0</ele><time>2026-04-11T09:15:17.928Z</time></trkpt><trkpt lat="43.8623594" lon="12.5840597"><ele>205.0</ele><time>2026-04-11T09:15:18.925Z</time></trkpt><trkpt lat="43.8624177" lon="12.5840954"><ele>205.0</ele><time>2026-04-11T09:15:19.931Z</time></trkpt><trkpt lat="43.8624969" lon="12.5841401"><ele>205.0</ele><time>2026-04-11T09:15:20.931Z</time></trkpt><trkpt lat="43.8625724" lon="12.5841818"><ele>205.0</ele><time>2026-04-11T09:15:21.94Z</time></trkpt><trkpt lat="43.8626659" lon="12.5842314"><ele>206.99999999999997</ele><time>2026-04-11T09:15:22.924Z</time></trkpt><trkpt lat="43.8627501" lon="12.5842763"><ele>209.0</ele><time>2026-04-11T09:15:23.926Z</time></trkpt><trkpt lat="43.8628309" lon="12.5843224"><ele>211.0</ele><time>2026-04-11T09:15:24.926Z</time></trkpt><trkpt lat="43.8629124" lon="12.584361"><ele>213.0</ele><time>2026-04-11T09:15:25.929Z</time></trkpt><trkpt lat="43.8629889" lon="12.5844044"><ele>214.99999999999997</ele><time>2026-04-11T09:15:26.933Z</time></trkpt><trkpt lat="43.8630762" lon="12.5844371"><ele>217.0</ele><time>2026-04-11T09:15:27.921Z</time></trkpt><trkpt lat="43.8631596" lon="12.5844838"><ele>217.0</ele><time>2026-04-11T09:15:28.927Z</time></trkpt><trkpt lat="43.8632189" lon="12.5845243"><ele>217.0</ele><time>2026-04-11T09:15:29.928Z</time></trkpt><trkpt lat="43.8633297" lon="12.5845492"><ele>217.0</ele><time>2026-04-11T09:15:31.929Z</time></trkpt><trkpt lat="43.8634335" lon="12.5844868"><ele>217.0</ele><time>2026-04-11T09:15:33.927Z</time></trkpt><trkpt lat="43.8634865" lon="12.5843695"><ele>217.0</ele><time>2026-04-11T09:15:35.929Z</time></trkpt><trkpt lat="43.8634372" lon="12.5842732"><ele>216.99999999999997</ele><time>2026-04-11T09:15:37.931Z</time></trkpt><trkpt lat="43.8633788" lon="12.5842297"><ele>217.0</ele><time>2026-04-11T09:15:38.929Z</time></trkpt><trkpt lat="43.8632655" lon="12.5841465"><ele>217.0</ele><time>2026-04-11T09:15:40.923Z</time></trkpt><trkpt lat="43.8631902" lon="12.584119"><ele>217.0</ele><time>2026-04-11T09:15:41.928Z</time></trkpt><trkpt lat="43.8631176" lon="12.5840754"><ele>216.99999999999997</ele><time>2026-04-11T09:15:42.929Z</time></trkpt><trkpt lat="43.8630474" lon="12.5840536"><ele>217.0</ele><time>2026-04-11T09:15:43.928Z</time></trkpt><trkpt lat="43.8629724" lon="12.5840253"><ele>217.0</ele><time>2026-04-11T09:15:44.925Z</time></trkpt><trkpt lat="43.862915" lon="12.5839786"><ele>217.0</ele><time>2026-04-11T09:15:45.931Z</time></trkpt><trkpt lat="43.8628533" lon="12.5839453"><ele>217.0</ele><time>2026-04-11T09:15:46.923Z</time></trkpt><trkpt lat="43.8627879" lon="12.5838855"><ele>217.0</ele><time>2026-04-11T09:15:47.926Z</time></trkpt><trkpt lat="43.8627307" lon="12.5838079"><ele>217.0</ele><time>2026-04-11T09:15:48.935Z</time></trkpt><trkpt lat="43.8626736" lon="12.5837626"><ele>217.0</ele><time>2026-04-11T09:15:49.929Z</time></trkpt><trkpt lat="43.8626221" lon="12.5837011"><ele>217.0</ele><time>2026-04-11T09:15:50.932Z</time></trkpt><trkpt lat="43.8625592" lon="12.5836443"><ele>219.0</ele><time>2026-04-11T09:15:51.922Z</time></trkpt><trkpt lat="43.8625041" lon="12.5835825"><ele>221.0</ele><time>2026-04-11T09:15:52.927Z</time></trkpt><trkpt lat="43.8624491" lon="12.5835275"><ele>223.0</ele><time>2026-04-11T09:15:53.936Z</time></trkpt><trkpt lat="43.8623923" lon="12.583479"><ele>225.0</ele><time>2026-04-11T09:15:54.932Z</time></trkpt><trkpt lat="43.8623301" lon="12.5834285"><ele>227.0</ele><time>2026-04-11T09:15:55.929Z</time></trkpt><trkpt lat="43.8622669" lon="12.5833698"><ele>229.0</ele><time>2026-04-11T09:15:56.926Z</time></trkpt><trkpt lat="43.8622059" lon="12.5833159"><ele>231.0</ele><time>2026-04-11T09:15:57.932Z</time></trkpt><trkpt lat="43.8621436" lon="12.5832553"><ele>231.0</ele><time>2026-04-11T09:15:58.926Z</time></trkpt><trkpt lat="43.8620862" lon="12.5831973"><ele>231.0</ele><time>2026-04-11T09:15:59.933Z</time></trkpt><trkpt lat="43.8620271" lon="12.5831375"><ele>231.0</ele><time>2026-04-11T09:16:00.925Z</time></trkpt><trkpt lat="43.8619268" lon="12.583046"><ele>231.0</ele><time>2026-04-11T09:16:02.93Z</time></trkpt><trkpt lat="43.8618742" lon="12.5829978"><ele>231.0</ele><time>2026-04-11T09:16:03.927Z</time></trkpt><trkpt lat="43.8618221" lon="12.5829477"><ele>231.0</ele><time>2026-04-11T09:16:04.924Z</time></trkpt><trkpt lat="43.8617195" lon="12.5828442"><ele>231.28571428571428</ele><time>2026-04-11T09:16:06.93Z</time></trkpt><trkpt lat="43.8616695" lon="12.5827838"><ele>231.57142857142856</ele><time>2026-04-11T09:16:07.933Z</time></trkpt><trkpt lat="43.861618" lon="12.5827192"><ele>231.85714285714286</ele><time>2026-04-11T09:16:08.931Z</time></trkpt><trkpt lat="43.861574" lon="12.5826483"><ele>232.14285714285714</ele><time>2026-04-11T09:16:09.929Z</time></trkpt><trkpt lat="43.8615319" lon="12.5825829"><ele>232.42857142857142</ele><time>2026-04-11T09:16:10.936Z</time></trkpt><trkpt lat="43.8614709" lon="12.5825197"><ele>232.71428571428572</ele><time>2026-04-11T09:16:11.932Z</time></trkpt><trkpt lat="43.86142" lon="12.5824598"><ele>233.0</ele><time>2026-04-11T09:16:12.928Z</time></trkpt><trkpt lat="43.8613659" lon="12.5824011"><ele>233.00000000000003</ele><time>2026-04-11T09:16:13.938Z</time></trkpt><trkpt lat="43.8613082" lon="12.5823356"><ele>233.0</ele><time>2026-04-11T09:16:14.931Z</time></trkpt><trkpt lat="43.8612515" lon="12.5822658"><ele>233.0</ele><time>2026-04-11T09:16:15.926Z</time></trkpt><trkpt lat="43.8611928" lon="12.5822116"><ele>233.0</ele><time>2026-04-11T09:16:16.931Z</time></trkpt><trkpt lat="43.8611348" lon="12.5821709"><ele>233.00000000000003</ele><time>2026-04-11T09:16:17.926Z</time></trkpt><trkpt lat="43.8610848" lon="12.5821143"><ele>233.0</ele><time>2026-04-11T09:16:18.93Z</time></trkpt><trkpt lat="43.861019" lon="12.5819801"><ele>236.00000000000003</ele><time>2026-04-11T09:16:20.927Z</time></trkpt><trkpt lat="43.8610546" lon="12.5818385"><ele>239.0</ele><time>2026-04-11T09:16:22.927Z</time></trkpt><trkpt lat="43.8610993" lon="12.5816889"><ele>242.0</ele><time>2026-04-11T09:16:24.931Z</time></trkpt><trkpt lat="43.8611283" lon="12.5816105"><ele>245.0</ele><time>2026-04-11T09:16:25.929Z</time></trkpt><trkpt lat="43.8611557" lon="12.5815265"><ele>248.00000000000003</ele><time>2026-04-11T09:16:26.93Z</time></trkpt><trkpt lat="43.8611928" lon="12.5814531"><ele>251.0</ele><time>2026-04-11T09:16:27.931Z</time></trkpt><trkpt lat="43.861284" lon="12.5813864"><ele>251.0</ele><time>2026-04-11T09:16:29.929Z</time></trkpt><trkpt lat="43.8613523" lon="12.5814589"><ele>251.00000000000003</ele><time>2026-04-11T09:16:31.928Z</time></trkpt><trkpt lat="43.8613469" lon="12.5815753"><ele>251.00000000000003</ele><time>2026-04-11T09:16:33.931Z</time></trkpt><trkpt lat="43.8613237" lon="12.581736"><ele>251.0</ele><time>2026-04-11T09:16:35.929Z</time></trkpt><trkpt lat="43.8613487" lon="12.5819"><ele>251.0</ele><time>2026-04-11T09:16:37.935Z</time></trkpt><trkpt lat="43.8614241" lon="12.5819218"><ele>251.00000000000003</ele><time>2026-04-11T09:16:39.926Z</time></trkpt><trkpt lat="43.8614779" lon="12.5818104"><ele>251.0</ele><time>2026-04-11T09:16:41.932Z</time></trkpt><trkpt lat="43.8614934" lon="12.5817252"><ele>251.0</ele><time>2026-04-11T09:16:42.932Z</time></trkpt><trkpt lat="43.8615315" lon="12.5815598"><ele>251.0</ele><time>2026-04-11T09:16:44.932Z</time></trkpt><trkpt lat="43.8615587" lon="12.5814792"><ele>251.00000000000003</ele><time>2026-04-11T09:16:45.929Z</time></trkpt><trkpt lat="43.8615777" lon="12.5813955"><ele>251.0</ele><time>2026-04-11T09:16:46.929Z</time></trkpt><trkpt lat="43.8616023" lon="12.5813052"><ele>251.00000000000003</ele><time>2026-04-11T09:16:47.928Z</time></trkpt><trkpt lat="43.8616176" lon="12.5812177"><ele>251.0</ele><time>2026-04-11T09:16:48.935Z</time></trkpt><trkpt lat="43.8616373" lon="12.5811289"><ele>251.0</ele><time>2026-04-11T09:16:49.925Z</time></trkpt><trkpt lat="43.8616585" lon="12.5809608"><ele>251.0</ele><time>2026-04-11T09:16:51.933Z</time></trkpt><trkpt lat="43.8616856" lon="12.5808762"><ele>251.00000000000003</ele><time>2026-04-11T09:16:52.931Z</time></trkpt><trkpt lat="43.8617115" lon="12.5807723"><ele>251.0</ele><time>2026-04-11T09:16:53.93Z</time></trkpt><trkpt lat="43.8617412" lon="12.5806769"><ele>250.66666666666669</ele><time>2026-04-11T09:16:54.931Z</time></trkpt><trkpt lat="43.8617659" lon="12.5805865"><ele>250.33333333333334</ele><time>2026-04-11T09:16:55.933Z</time></trkpt><trkpt lat="43.8617869" lon="12.5804838"><ele>250.0</ele><time>2026-04-11T09:16:56.932Z</time></trkpt><trkpt lat="43.861816" lon="12.5804001"><ele>249.66666666666669</ele><time>2026-04-11T09:16:57.926Z</time></trkpt><trkpt lat="43.8618544" lon="12.580254"><ele>249.33333333333334</ele><time>2026-04-11T09:16:59.926Z</time></trkpt><trkpt lat="43.8619016" lon="12.5801539"><ele>249.0</ele><time>2026-04-11T09:17:01.926Z</time></trkpt><trkpt lat="43.8619838" lon="12.5800811"><ele>253.0</ele><time>2026-04-11T09:17:03.929Z</time></trkpt><trkpt lat="43.8620654" lon="12.5800834"><ele>257.0</ele><time>2026-04-11T09:17:05.935Z</time></trkpt><trkpt lat="43.862141" lon="12.5801855"><ele>261.0</ele><time>2026-04-11T09:17:07.927Z</time></trkpt><trkpt lat="43.8621849" lon="12.5802985"><ele>265.0</ele><time>2026-04-11T09:17:09.936Z</time></trkpt><trkpt lat="43.8621927" lon="12.5804125"><ele>269.0</ele><time>2026-04-11T09:17:11.93Z</time></trkpt><trkpt lat="43.862189" lon="12.5805329"><ele>273.0</ele><time>2026-04-11T09:17:13.926Z</time></trkpt><trkpt lat="43.8621748" lon="12.5806964"><ele>273.14285714285717</ele><time>2026-04-11T09:17:15.931Z</time></trkpt><trkpt lat="43.862167" lon="12.5807995"><ele>273.2857142857143</ele><time>2026-04-11T09:17:16.928Z</time></trkpt><trkpt lat="43.8621543" lon="12.5809059"><ele>273.42857142857144</ele><time>2026-04-11T09:17:17.933Z</time></trkpt><trkpt lat="43.8621451" lon="12.5810087"><ele>273.57142857142856</ele><time>2026-04-11T09:17:18.93Z</time></trkpt><trkpt lat="43.8621354" lon="12.5811146"><ele>273.7142857142857</ele><time>2026-04-11T09:17:19.935Z</time></trkpt><trkpt lat="43.8621329" lon="12.5812084"><ele>273.8571428571429</ele><time>2026-04-11T09:17:20.931Z</time></trkpt><trkpt lat="43.8621232" lon="12.5813015"><ele>274.0</ele><time>2026-04-11T09:17:21.927Z</time></trkpt><trkpt lat="43.8621127" lon="12.5814589"><ele>274.0</ele><time>2026-04-11T09:17:23.927Z</time></trkpt><trkpt lat="43.8621489" lon="12.5816055"><ele>274.0</ele><time>2026-04-11T09:17:25.928Z</time></trkpt><trkpt lat="43.8622322" lon="12.5817161"><ele>274.0</ele><time>2026-04-11T09:17:27.926Z</time></trkpt><trkpt lat="43.8623353" lon="12.5817973"><ele>274.0</ele><time>2026-04-11T09:17:29.929Z</time></trkpt><trkpt lat="43.8624526" lon="12.5818778"><ele>274.0</ele><time>2026-04-11T09:17:31.931Z</time></trkpt><trkpt lat="43.8625248" lon="12.5819134"><ele>274.0</ele><time>2026-04-11T09:17:32.934Z</time></trkpt><trkpt lat="43.8625828" lon="12.5819588"><ele>274.0</ele><time>2026-04-11T09:17:33.932Z</time></trkpt><trkpt lat="43.8626482" lon="12.5820031"><ele>274.0</ele><time>2026-04-11T09:17:34.925Z</time></trkpt><trkpt lat="43.8627056" lon="12.5820512"><ele>274.0</ele><time>2026-04-11T09:17:35.934Z</time></trkpt><trkpt lat="43.862763" lon="12.5821045"><ele>274.0</ele><time>2026-04-11T09:17:36.93Z</time></trkpt><trkpt lat="43.8628619" lon="12.5822037"><ele>272.59999999999997</ele><time>2026-04-11T09:17:38.944Z</time></trkpt><trkpt lat="43.8629557" lon="12.5822729"><ele>271.2</ele><time>2026-04-11T09:17:40.93Z</time></trkpt><trkpt lat="43.8630681" lon="12.58231"><ele>269.79999999999995</ele><time>2026-04-11T09:17:42.929Z</time></trkpt><trkpt lat="43.8631838" lon="12.5822795"><ele>268.4</ele><time>2026-04-11T09:17:44.935Z</time></trkpt><trkpt lat="43.8632461" lon="12.5822344"><ele>267.0</ele><time>2026-04-11T09:17:45.934Z</time></trkpt><trkpt lat="43.8633483" lon="12.5821288"><ele>267.0</ele><time>2026-04-11T09:17:47.926Z</time></trkpt><trkpt lat="43.8633974" lon="12.5820607"><ele>267.0</ele><time>2026-04-11T09:17:48.932Z</time></trkpt><trkpt lat="43.8634601" lon="12.581917"><ele>267.0</ele><time>2026-04-11T09:17:50.934Z</time></trkpt><trkpt lat="43.863507" lon="12.5818392"><ele>267.0</ele><time>2026-04-11T09:17:51.934Z</time></trkpt><trkpt lat="43.8635499" lon="12.5817674"><ele>267.0</ele><time>2026-04-11T09:17:52.931Z</time></trkpt><trkpt lat="43.8635976" lon="12.5816947"><ele>267.0</ele><time>2026-04-11T09:17:53.923Z</time></trkpt><trkpt lat="43.8636426" lon="12.5816193"><ele>266.1666666666667</ele><time>2026-04-11T09:17:54.933Z</time></trkpt><trkpt lat="43.863699" lon="12.5815508"><ele>265.3333333333333</ele><time>2026-04-11T09:17:55.931Z</time></trkpt><trkpt lat="43.863747" lon="12.5814827"><ele>264.5</ele><time>2026-04-11T09:17:56.924Z</time></trkpt><trkpt lat="43.8637966" lon="12.581418"><ele>263.66666666666663</ele><time>2026-04-11T09:17:57.932Z</time></trkpt><trkpt lat="43.8638522" lon="12.5812785"><ele>262.8333333333333</ele><time>2026-04-11T09:17:59.927Z</time></trkpt><trkpt lat="43.8638586" lon="12.581171"><ele>262.0</ele><time>2026-04-11T09:18:01.933Z</time></trkpt><trkpt lat="43.8637616" lon="12.5811182"><ele>262.0</ele><time>2026-04-11T09:18:03.931Z</time></trkpt><trkpt lat="43.8636694" lon="12.5811309"><ele>262.0</ele><time>2026-04-11T09:18:05.927Z</time></trkpt><trkpt lat="43.8635805" lon="12.581221"><ele>262.0</ele><time>2026-04-11T09:18:07.927Z</time></trkpt><trkpt lat="43.8634939" lon="12.5813297"><ele>262.0</ele><time>2026-04-11T09:18:09.923Z</time></trkpt><trkpt lat="43.8634437" lon="12.5813829"><ele>262.0</ele><time>2026-04-11T09:18:10.933Z</time></trkpt><trkpt lat="43.8633859" lon="12.5814729"><ele>266.0</ele><time>2026-04-11T09:18:11.933Z</time></trkpt><trkpt lat="43.8633263" lon="12.5815116"><ele>270.0</ele><time>2026-04-11T09:18:12.933Z</time></trkpt><trkpt lat="43.8632619" lon="12.5815618"><ele>274.0</ele><time>2026-04-11T09:18:13.934Z</time></trkpt><trkpt lat="43.8631569" lon="12.5815952"><ele>278.0</ele><time>2026-04-11T09:18:15.939Z</time></trkpt><trkpt lat="43.8630686" lon="12.5815461"><ele>282.0</ele><time>2026-04-11T09:18:17.93Z</time></trkpt><trkpt lat="43.8630255" lon="12.581445"><ele>286.0</ele><time>2026-04-11T09:18:19.931Z</time></trkpt><trkpt lat="43.8630707" lon="12.5813111"><ele>288.6</ele><time>2026-04-11T09:18:21.929Z</time></trkpt><trkpt lat="43.8630981" lon="12.5811701"><ele>291.20000000000005</ele><time>2026-04-11T09:18:23.927Z</time></trkpt><trkpt lat="43.8631429" lon="12.5810143"><ele>293.79999999999995</ele><time>2026-04-11T09:18:25.923Z</time></trkpt><trkpt lat="43.8631884" lon="12.5808486"><ele>296.4</ele><time>2026-04-11T09:18:27.931Z</time></trkpt><trkpt lat="43.863211" lon="12.580761"><ele>299.0</ele><time>2026-04-11T09:18:28.922Z</time></trkpt><trkpt lat="43.8632417" lon="12.5806725"><ele>299.0</ele><time>2026-04-11T09:18:29.93Z</time></trkpt><trkpt lat="43.8632641" lon="12.5805835"><ele>299.0</ele><time>2026-04-11T09:18:30.925Z</time></trkpt><trkpt lat="43.8632987" lon="12.5804203"><ele>299.0</ele><time>2026-04-11T09:18:32.929Z</time></trkpt><trkpt lat="43.8633397" lon="12.5802708"><ele>299.0</ele><time>2026-04-11T09:18:34.932Z</time></trkpt><trkpt lat="43.8633775" lon="12.5801184"><ele>299.0</ele><time>2026-04-11T09:18:36.931Z</time></trkpt><trkpt lat="43.8634177" lon="12.5799749"><ele>301.0</ele><time>2026-04-11T09:18:38.923Z</time></trkpt><trkpt lat="43.8634675" lon="12.5798292"><ele>303.0</ele><time>2026-04-11T09:18:40.936Z</time></trkpt><trkpt lat="43.863526" lon="12.579703"><ele>305.0</ele><time>2026-04-11T09:18:42.925Z</time></trkpt><trkpt lat="43.8635931" lon="12.5795809"><ele>307.0</ele><time>2026-04-11T09:18:44.924Z</time></trkpt><trkpt lat="43.8636313" lon="12.579507"><ele>309.0</ele><time>2026-04-11T09:18:45.932Z</time></trkpt><trkpt lat="43.8636695" lon="12.5794336"><ele>310.8333333333333</ele><time>2026-04-11T09:18:46.928Z</time></trkpt><trkpt lat="43.8637484" lon="12.579284"><ele>312.6666666666667</ele><time>2026-04-11T09:18:48.932Z</time></trkpt><trkpt lat="43.8637875" lon="12.5792026"><ele>314.5</ele><time>2026-04-11T09:18:49.929Z</time></trkpt><trkpt lat="43.8638146" lon="12.5791213"><ele>316.33333333333337</ele><time>2026-04-11T09:18:50.932Z</time></trkpt><trkpt lat="43.8638437" lon="12.5790293"><ele>318.1666666666667</ele><time>2026-04-11T09:18:51.93Z</time></trkpt><trkpt lat="43.8638717" lon="12.5789411"><ele>320.0</ele><time>2026-04-11T09:18:52.926Z</time></trkpt><trkpt lat="43.8638965" lon="12.5788433"><ele>320.0</ele><time>2026-04-11T09:18:53.931Z</time></trkpt><trkpt lat="43.8639296" lon="12.578749"><ele>320.0</ele><time>2026-04-11T09:18:54.934Z</time></trkpt><trkpt lat="43.8639594" lon="12.5786577"><ele>320.0</ele><time>2026-04-11T09:18:55.931Z</time></trkpt><trkpt lat="43.8639915" lon="12.5785767"><ele>320.0</ele><time>2026-04-11T09:18:56.93Z</time></trkpt><trkpt lat="43.8640258" lon="12.5784997"><ele>320.0</ele><time>2026-04-11T09:18:57.93Z</time></trkpt><trkpt lat="43.8640701" lon="12.5784195"><ele>320.0</ele><time>2026-04-11T09:18:58.933Z</time></trkpt><trkpt lat="43.8641103" lon="12.5783499"><ele>320.0</ele><time>2026-04-11T09:18:59.927Z</time></trkpt><trkpt lat="43.8641555" lon="12.5782812"><ele>319.83333333333337</ele><time>2026-04-11T09:19:00.931Z</time></trkpt><trkpt lat="43.8641989" lon="12.5782088"><ele>319.6666666666667</ele><time>2026-04-11T09:19:01.933Z</time></trkpt><trkpt lat="43.8642633" lon="12.5780687"><ele>319.5</ele><time>2026-04-11T09:19:03.926Z</time></trkpt><trkpt lat="43.8643102" lon="12.5779774"><ele>319.3333333333333</ele><time>2026-04-11T09:19:04.93Z</time></trkpt><trkpt lat="43.8643574" lon="12.5779084"><ele>319.16666666666663</ele><time>2026-04-11T09:19:05.935Z</time></trkpt><trkpt lat="43.864396" lon="12.5778368"><ele>319.0</ele><time>2026-04-11T09:19:06.934Z</time></trkpt><trkpt lat="43.864438" lon="12.5777686"><ele>321.0</ele><time>2026-04-11T09:19:07.932Z</time></trkpt><trkpt lat="43.8645028" lon="12.577651"><ele>323.0</ele><time>2026-04-11T09:19:09.934Z</time></trkpt><trkpt lat="43.8645733" lon="12.5776111"><ele>325.0</ele><time>2026-04-11T09:19:11.929Z</time></trkpt><trkpt lat="43.8646275" lon="12.5776984"><ele>327.0</ele><time>2026-04-11T09:19:13.925Z</time></trkpt><trkpt lat="43.8646041" lon="12.5777978"><ele>329.0</ele><time>2026-04-11T09:19:15.927Z</time></trkpt><trkpt lat="43.8645776" lon="12.5778937"><ele>331.0</ele><time>2026-04-11T09:19:17.928Z</time></trkpt><trkpt lat="43.8645499" lon="12.5780116"><ele>331.0</ele><time>2026-04-11T09:19:19.932Z</time></trkpt><trkpt lat="43.8645394" lon="12.5781334"><ele>331.0</ele><time>2026-04-11T09:19:21.933Z</time></trkpt><trkpt lat="43.8646176" lon="12.5782117"><ele>331.0</ele><time>2026-04-11T09:19:24.929Z</time></trkpt><trkpt lat="43.8646931" lon="12.5781804"><ele>331.0</ele><time>2026-04-11T09:19:26.924Z</time></trkpt><trkpt lat="43.8647366" lon="12.5780969"><ele>331.0</ele><time>2026-04-11T09:19:28.933Z</time></trkpt><trkpt lat="43.8647673" lon="12.578009"><ele>331.0</ele><time>2026-04-11T09:19:30.927Z</time></trkpt><trkpt lat="43.8647943" lon="12.5779053"><ele>331.3333333333333</ele><time>2026-04-11T09:19:32.93Z</time></trkpt><trkpt lat="43.8648023" lon="12.5777684"><ele>331.66666666666663</ele><time>2026-04-11T09:19:34.93Z</time></trkpt><trkpt lat="43.8648385" lon="12.5776584"><ele>332.0</ele><time>2026-04-11T09:19:36.938Z</time></trkpt><trkpt lat="43.8649031" lon="12.577598"><ele>332.3333333333333</ele><time>2026-04-11T09:19:38.935Z</time></trkpt><trkpt lat="43.8649846" lon="12.577543"><ele>332.6666666666667</ele><time>2026-04-11T09:19:40.931Z</time></trkpt><trkpt lat="43.8650727" lon="12.5775087"><ele>333.0</ele><time>2026-04-11T09:19:42.929Z</time></trkpt><trkpt lat="43.8651635" lon="12.5774649"><ele>332.2</ele><time>2026-04-11T09:19:44.935Z</time></trkpt><trkpt lat="43.8652387" lon="12.5774128"><ele>331.4</ele><time>2026-04-11T09:19:46.927Z</time></trkpt><trkpt lat="43.8653099" lon="12.5773561"><ele>330.59999999999997</ele><time>2026-04-11T09:19:48.926Z</time></trkpt><trkpt lat="43.8653709" lon="12.5773278"><ele>329.79999999999995</ele><time>2026-04-11T09:19:50.928Z</time></trkpt><trkpt lat="43.8654695" lon="12.5772495"><ele>329.0</ele><time>2026-04-11T09:19:53.926Z</time></trkpt><trkpt lat="43.8655576" lon="12.5771532"><ele>329.0</ele><time>2026-04-11T09:19:55.93Z</time></trkpt><trkpt lat="43.8656452" lon="12.5770709"><ele>329.0</ele><time>2026-04-11T09:19:57.935Z</time></trkpt><trkpt lat="43.8657364" lon="12.5769708"><ele>329.0</ele><time>2026-04-11T09:19:59.925Z</time></trkpt><trkpt lat="43.8658134" lon="12.5768462"><ele>329.0</ele><time>2026-04-11T09:20:01.931Z</time></trkpt><trkpt lat="43.8658986" lon="12.5767305"><ele>332.0</ele><time>2026-04-11T09:20:03.934Z</time></trkpt><trkpt lat="43.865962" lon="12.5766379"><ele>335.0</ele><time>2026-04-11T09:20:05.93Z</time></trkpt><trkpt lat="43.8660325" lon="12.5766454"><ele>338.0</ele><time>2026-04-11T09:20:07.932Z</time></trkpt><trkpt lat="43.8661115" lon="12.5767235"><ele>341.0</ele><time>2026-04-11T09:20:09.929Z</time></trkpt><trkpt lat="43.8662013" lon="12.5767836"><ele>344.0</ele><time>2026-04-11T09:20:11.937Z</time></trkpt><trkpt lat="43.866309" lon="12.5768135"><ele>344.0</ele><time>2026-04-11T09:20:13.93Z</time></trkpt><trkpt lat="43.8664392" lon="12.5768484"><ele>344.0</ele><time>2026-04-11T09:20:15.934Z</time></trkpt><trkpt lat="43.8665149" lon="12.5768544"><ele>344.0</ele><time>2026-04-11T09:20:16.932Z</time></trkpt><trkpt lat="43.8665887" lon="12.5768441"><ele>344.0</ele><time>2026-04-11T09:20:17.922Z</time></trkpt><trkpt lat="43.8666568" lon="12.5768188"><ele>344.0</ele><time>2026-04-11T09:20:18.927Z</time></trkpt><trkpt lat="43.8667275" lon="12.5767865"><ele>344.0</ele><time>2026-04-11T09:20:19.928Z</time></trkpt><trkpt lat="43.8668026" lon="12.5767478"><ele>341.7142857142857</ele><time>2026-04-11T09:20:20.938Z</time></trkpt><trkpt lat="43.8668766" lon="12.5767107"><ele>339.42857142857144</ele><time>2026-04-11T09:20:21.935Z</time></trkpt><trkpt lat="43.8669498" lon="12.5766711"><ele>337.1428571428571</ele><time>2026-04-11T09:20:22.931Z</time></trkpt><trkpt lat="43.8670244" lon="12.5766298"><ele>334.8571428571429</ele><time>2026-04-11T09:20:23.931Z</time></trkpt><trkpt lat="43.8670967" lon="12.5765926"><ele>332.57142857142856</ele><time>2026-04-11T09:20:24.93Z</time></trkpt><trkpt lat="43.8671593" lon="12.5765534"><ele>330.2857142857143</ele><time>2026-04-11T09:20:25.926Z</time></trkpt><trkpt lat="43.8672183" lon="12.5765177"><ele>328.0</ele><time>2026-04-11T09:20:26.927Z</time></trkpt><trkpt lat="43.8672787" lon="12.5764809"><ele>328.0</ele><time>2026-04-11T09:20:27.935Z</time></trkpt><trkpt lat="43.8673764" lon="12.5763918"><ele>328.0</ele><time>2026-04-11T09:20:29.935Z</time></trkpt><trkpt lat="43.8674417" lon="12.5762518"><ele>328.0</ele><time>2026-04-11T09:20:31.926Z</time></trkpt><trkpt lat="43.8675204" lon="12.5761671"><ele>328.0</ele><time>2026-04-11T09:20:33.934Z</time></trkpt><trkpt lat="43.8676366" lon="12.5761652"><ele>330.71428571428567</ele><time>2026-04-11T09:20:35.928Z</time></trkpt><trkpt lat="43.8677012" lon="12.5761723"><ele>333.42857142857144</ele><time>2026-04-11T09:20:36.928Z</time></trkpt><trkpt lat="43.8677686" lon="12.5761674"><ele>336.1428571428571</ele><time>2026-04-11T09:20:37.93Z</time></trkpt><trkpt lat="43.8678402" lon="12.5761461"><ele>338.85714285714283</ele><time>2026-04-11T09:20:38.937Z</time></trkpt><trkpt lat="43.8679107" lon="12.5761177"><ele>341.57142857142856</ele><time>2026-04-11T09:20:39.934Z</time></trkpt><trkpt lat="43.8679802" lon="12.5760859"><ele>344.2857142857143</ele><time>2026-04-11T09:20:40.927Z</time></trkpt><trkpt lat="43.8680439" lon="12.5760544"><ele>347.0</ele><time>2026-04-11T09:20:41.928Z</time></trkpt><trkpt lat="43.8681047" lon="12.5760178"><ele>347.0</ele><time>2026-04-11T09:20:42.925Z</time></trkpt><trkpt lat="43.8682088" lon="12.575947"><ele>347.0</ele><time>2026-04-11T09:20:44.932Z</time></trkpt><trkpt lat="43.8683102" lon="12.5758793"><ele>347.0</ele><time>2026-04-11T09:20:46.928Z</time></trkpt><trkpt lat="43.8684277" lon="12.5758323"><ele>347.0</ele><time>2026-04-11T09:20:48.924Z</time></trkpt><trkpt lat="43.8684915" lon="12.5758062"><ele>347.0</ele><time>2026-04-11T09:20:49.926Z</time></trkpt><trkpt lat="43.8686123" lon="12.5757305"><ele>347.1666666666667</ele><time>2026-04-11T09:20:51.934Z</time></trkpt><trkpt lat="43.8686753" lon="12.5756808"><ele>347.33333333333337</ele><time>2026-04-11T09:20:52.933Z</time></trkpt><trkpt lat="43.8687408" lon="12.5756315"><ele>347.5</ele><time>2026-04-11T09:20:53.93Z</time></trkpt><trkpt lat="43.8688067" lon="12.5755597"><ele>347.6666666666667</ele><time>2026-04-11T09:20:54.931Z</time></trkpt><trkpt lat="43.8688606" lon="12.5755034"><ele>347.8333333333333</ele><time>2026-04-11T09:20:55.931Z</time></trkpt><trkpt lat="43.8689522" lon="12.575419"><ele>348.0</ele><time>2026-04-11T09:20:57.924Z</time></trkpt><trkpt lat="43.869061" lon="12.5753821"><ele>348.0</ele><time>2026-04-11T09:20:59.933Z</time></trkpt><trkpt lat="43.8691785" lon="12.5754356"><ele>348.0</ele><time>2026-04-11T09:21:01.937Z</time></trkpt><trkpt lat="43.8692227" lon="12.5754996"><ele>348.0</ele><time>2026-04-11T09:21:02.933Z</time></trkpt><trkpt lat="43.8692619" lon="12.5755764"><ele>348.0</ele><time>2026-04-11T09:21:03.934Z</time></trkpt><trkpt lat="43.8692892" lon="12.5756656"><ele>348.0</ele><time>2026-04-11T09:21:04.927Z</time></trkpt><trkpt lat="43.8693108" lon="12.5757627"><ele>348.0</ele><time>2026-04-11T09:21:05.93Z</time></trkpt><trkpt lat="43.8693333" lon="12.5758451"><ele>347.2</ele><time>2026-04-11T09:21:06.93Z</time></trkpt><trkpt lat="43.8693902" lon="12.5759646"><ele>346.4</ele><time>2026-04-11T09:21:08.933Z</time></trkpt><trkpt lat="43.8694679" lon="12.576086"><ele>345.59999999999997</ele><time>2026-04-11T09:21:10.926Z</time></trkpt><trkpt lat="43.8695359" lon="12.5761251"><ele>344.79999999999995</ele><time>2026-04-11T09:21:11.929Z</time></trkpt><trkpt lat="43.8696096" lon="12.5761694"><ele>344.0</ele><time>2026-04-11T09:21:12.929Z</time></trkpt><trkpt lat="43.8696819" lon="12.5762132"><ele>344.0</ele><time>2026-04-11T09:21:13.923Z</time></trkpt><trkpt lat="43.8697435" lon="12.5762568"><ele>344.0</ele><time>2026-04-11T09:21:14.924Z</time></trkpt><trkpt lat="43.8698101" lon="12.5763153"><ele>344.0</ele><time>2026-04-11T09:21:15.929Z</time></trkpt><trkpt lat="43.869893" lon="12.5763544"><ele>344.0</ele><time>2026-04-11T09:21:16.929Z</time></trkpt><trkpt lat="43.8699772" lon="12.5763955"><ele>344.0</ele><time>2026-04-11T09:21:17.926Z</time></trkpt><trkpt lat="43.8700569" lon="12.5764489"><ele>344.0</ele><time>2026-04-11T09:21:18.926Z</time></trkpt><trkpt lat="43.8701334" lon="12.5765006"><ele>345.7142857142857</ele><time>2026-04-11T09:21:19.926Z</time></trkpt><trkpt lat="43.8702117" lon="12.5765417"><ele>347.42857142857144</ele><time>2026-04-11T09:21:20.928Z</time></trkpt><trkpt lat="43.8702798" lon="12.5765452"><ele>349.1428571428571</ele><time>2026-04-11T09:21:21.935Z</time></trkpt><trkpt lat="43.8703437" lon="12.576557"><ele>350.8571428571429</ele><time>2026-04-11T09:21:22.922Z</time></trkpt><trkpt lat="43.8704098" lon="12.5765625"><ele>352.57142857142856</ele><time>2026-04-11T09:21:23.934Z</time></trkpt><trkpt lat="43.8704777" lon="12.5765768"><ele>354.2857142857143</ele><time>2026-04-11T09:21:24.929Z</time></trkpt><trkpt lat="43.8705501" lon="12.5766026"><ele>356.0</ele><time>2026-04-11T09:21:25.927Z</time></trkpt><trkpt lat="43.8705996" lon="12.5766598"><ele>356.0</ele><time>2026-04-11T09:21:26.932Z</time></trkpt><trkpt lat="43.8706408" lon="12.5767277"><ele>356.0</ele><time>2026-04-11T09:21:27.936Z</time></trkpt><trkpt lat="43.8706926" lon="12.5768699"><ele>356.0</ele><time>2026-04-11T09:21:29.926Z</time></trkpt><trkpt lat="43.8706904" lon="12.5769682"><ele>356.0</ele><time>2026-04-11T09:21:30.929Z</time></trkpt><trkpt lat="43.8706977" lon="12.5770606"><ele>356.0</ele><time>2026-04-11T09:21:31.925Z</time></trkpt><trkpt lat="43.8707102" lon="12.5771674"><ele>356.0</ele><time>2026-04-11T09:21:32.924Z</time></trkpt><trkpt lat="43.8707266" lon="12.5772886"><ele>353.20000000000005</ele><time>2026-04-11T09:21:33.93Z</time></trkpt><trkpt lat="43.8707523" lon="12.577415"><ele>350.40000000000003</ele><time>2026-04-11T09:21:34.926Z</time></trkpt><trkpt lat="43.870787" lon="12.5775283"><ele>347.6</ele><time>2026-04-11T09:21:35.927Z</time></trkpt><trkpt lat="43.8708291" lon="12.577652"><ele>344.8</ele><time>2026-04-11T09:21:36.927Z</time></trkpt><trkpt lat="43.8708717" lon="12.5777683"><ele>342.0</ele><time>2026-04-11T09:21:37.926Z</time></trkpt><trkpt lat="43.8709016" lon="12.5778881"><ele>341.8333333333333</ele><time>2026-04-11T09:21:38.925Z</time></trkpt><trkpt lat="43.8709091" lon="12.5779929"><ele>341.6666666666667</ele><time>2026-04-11T09:21:39.931Z</time></trkpt><trkpt lat="43.8709045" lon="12.5780936"><ele>341.5</ele><time>2026-04-11T09:21:40.926Z</time></trkpt><trkpt lat="43.8708886" lon="12.5782083"><ele>341.33333333333337</ele><time>2026-04-11T09:21:41.926Z</time></trkpt><trkpt lat="43.8708766" lon="12.5783187"><ele>341.1666666666667</ele><time>2026-04-11T09:21:42.925Z</time></trkpt><trkpt lat="43.870864" lon="12.5784513"><ele>341.0</ele><time>2026-04-11T09:21:43.928Z</time></trkpt><trkpt lat="43.8708585" lon="12.5785771"><ele>340.6</ele><time>2026-04-11T09:21:44.927Z</time></trkpt><trkpt lat="43.8708644" lon="12.5786857"><ele>340.20000000000005</ele><time>2026-04-11T09:21:45.931Z</time></trkpt><trkpt lat="43.8708659" lon="12.5787938"><ele>339.79999999999995</ele><time>2026-04-11T09:21:46.931Z</time></trkpt><trkpt lat="43.8708701" lon="12.5788812"><ele>339.4</ele><time>2026-04-11T09:21:47.929Z</time></trkpt><trkpt lat="43.8708992" lon="12.5790298"><ele>339.0</ele><time>2026-04-11T09:21:49.929Z</time></trkpt><trkpt lat="43.8709742" lon="12.5791666"><ele>340.6</ele><time>2026-04-11T09:21:51.93Z</time></trkpt><trkpt lat="43.8710277" lon="12.5792299"><ele>342.2</ele><time>2026-04-11T09:21:52.923Z</time></trkpt><trkpt lat="43.8710829" lon="12.5792829"><ele>343.8</ele><time>2026-04-11T09:21:53.932Z</time></trkpt><trkpt lat="43.8711775" lon="12.5793697"><ele>345.40000000000003</ele><time>2026-04-11T09:21:55.929Z</time></trkpt><trkpt lat="43.8712813" lon="12.5794323"><ele>347.0</ele><time>2026-04-11T09:21:57.928Z</time></trkpt><trkpt lat="43.8713673" lon="12.5794604"><ele>347.0</ele><time>2026-04-11T09:21:59.928Z</time></trkpt><trkpt lat="43.871458" lon="12.5794574"><ele>347.0</ele><time>2026-04-11T09:22:01.928Z</time></trkpt><trkpt lat="43.8715695" lon="12.579417"><ele>347.0</ele><time>2026-04-11T09:22:03.929Z</time></trkpt><trkpt lat="43.8716323" lon="12.5793949"><ele>347.0</ele><time>2026-04-11T09:22:04.926Z</time></trkpt><trkpt lat="43.871747" lon="12.5793678"><ele>347.0</ele><time>2026-04-11T09:22:06.923Z</time></trkpt><trkpt lat="43.8718562" lon="12.5793212"><ele>348.40000000000003</ele><time>2026-04-11T09:22:08.925Z</time></trkpt><trkpt lat="43.8719679" lon="12.5792749"><ele>349.8</ele><time>2026-04-11T09:22:10.931Z</time></trkpt><trkpt lat="43.8720578" lon="12.5792469"><ele>351.2</ele><time>2026-04-11T09:22:12.925Z</time></trkpt><trkpt lat="43.872138" lon="12.5792347"><ele>352.6</ele><time>2026-04-11T09:22:14.927Z</time></trkpt><trkpt lat="43.8722246" lon="12.5791994"><ele>354.0</ele><time>2026-04-11T09:22:16.927Z</time></trkpt><trkpt lat="43.8723295" lon="12.5791726"><ele>354.0</ele><time>2026-04-11T09:22:18.926Z</time></trkpt><trkpt lat="43.8724342" lon="12.5791534"><ele>354.0</ele><time>2026-04-11T09:22:20.926Z</time></trkpt><trkpt lat="43.8725477" lon="12.5790986"><ele>354.0</ele><time>2026-04-11T09:22:22.923Z</time></trkpt><trkpt lat="43.8726554" lon="12.5790447"><ele>354.0</ele><time>2026-04-11T09:22:24.923Z</time></trkpt><trkpt lat="43.872761" lon="12.5790299"><ele>354.0</ele><time>2026-04-11T09:22:26.928Z</time></trkpt><trkpt lat="43.8728533" lon="12.5790315"><ele>355.2</ele><time>2026-04-11T09:22:28.925Z</time></trkpt><trkpt lat="43.872942" lon="12.5790526"><ele>356.4</ele><time>2026-04-11T09:22:30.927Z</time></trkpt><trkpt lat="43.8730341" lon="12.5791024"><ele>357.6</ele><time>2026-04-11T09:22:32.925Z</time></trkpt><trkpt lat="43.8731382" lon="12.5791465"><ele>358.8</ele><time>2026-04-11T09:22:34.931Z</time></trkpt><trkpt lat="43.8732464" lon="12.5791456"><ele>360.0</ele><time>2026-04-11T09:22:36.929Z</time></trkpt><trkpt lat="43.8733505" lon="12.5791101"><ele>360.6</ele><time>2026-04-11T09:22:38.927Z</time></trkpt><trkpt lat="43.8734579" lon="12.5790785"><ele>361.2</ele><time>2026-04-11T09:22:40.924Z</time></trkpt><trkpt lat="43.8735713" lon="12.579032"><ele>361.79999999999995</ele><time>2026-04-11T09:22:42.925Z</time></trkpt><trkpt lat="43.8736797" lon="12.578997"><ele>362.4</ele><time>2026-04-11T09:22:44.925Z</time></trkpt><trkpt lat="43.8737823" lon="12.5789593"><ele>363.0</ele><time>2026-04-11T09:22:46.925Z</time></trkpt><trkpt lat="43.8738852" lon="12.5789041"><ele>363.0</ele><time>2026-04-11T09:22:48.932Z</time></trkpt><trkpt lat="43.8739979" lon="12.5788501"><ele>363.0</ele><time>2026-04-11T09:22:50.926Z</time></trkpt><trkpt lat="43.8741105" lon="12.5788049"><ele>363.0</ele><time>2026-04-11T09:22:52.923Z</time></trkpt><trkpt lat="43.8742267" lon="12.5787675"><ele>363.0</ele><time>2026-04-11T09:22:54.935Z</time></trkpt><trkpt lat="43.8743345" lon="12.5787312"><ele>363.2</ele><time>2026-04-11T09:22:56.932Z</time></trkpt><trkpt lat="43.874432" lon="12.578674"><ele>363.4</ele><time>2026-04-11T09:22:58.933Z</time></trkpt><trkpt lat="43.8745123" lon="12.5785859"><ele>363.59999999999997</ele><time>2026-04-11T09:23:00.925Z</time></trkpt><trkpt lat="43.8745661" lon="12.5784734"><ele>363.79999999999995</ele><time>2026-04-11T09:23:02.928Z</time></trkpt><trkpt lat="43.8745822" lon="12.5783531"><ele>364.0</ele><time>2026-04-11T09:23:04.928Z</time></trkpt><trkpt lat="43.8745156" lon="12.5782625"><ele>364.0</ele><time>2026-04-11T09:23:06.927Z</time></trkpt><trkpt lat="43.8744562" lon="12.5781514"><ele>364.0</ele><time>2026-04-11T09:23:08.926Z</time></trkpt><trkpt lat="43.8744014" lon="12.5780414"><ele>364.0</ele><time>2026-04-11T09:23:10.933Z</time></trkpt><trkpt lat="43.8743376" lon="12.5779427"><ele>364.0</ele><time>2026-04-11T09:23:12.923Z</time></trkpt><trkpt lat="43.8742742" lon="12.5778504"><ele>364.0</ele><time>2026-04-11T09:23:14.923Z</time></trkpt><trkpt lat="43.8742132" lon="12.5777468"><ele>369.0</ele><time>2026-04-11T09:23:16.931Z</time></trkpt><trkpt lat="43.8741453" lon="12.5776394"><ele>374.0</ele><time>2026-04-11T09:23:18.928Z</time></trkpt><trkpt lat="43.8740699" lon="12.5775075"><ele>379.0</ele><time>2026-04-11T09:23:20.924Z</time></trkpt><trkpt lat="43.8739948" lon="12.5773659"><ele>384.0</ele><time>2026-04-11T09:23:22.925Z</time></trkpt><trkpt lat="43.8739351" lon="12.5772244"><ele>384.0</ele><time>2026-04-11T09:23:24.926Z</time></trkpt><trkpt lat="43.8738712" lon="12.5770908"><ele>384.0</ele><time>2026-04-11T09:23:26.926Z</time></trkpt><trkpt lat="43.873777" lon="12.5769533"><ele>384.0</ele><time>2026-04-11T09:23:28.935Z</time></trkpt><trkpt lat="43.8737263" lon="12.5768803"><ele>384.0</ele><time>2026-04-11T09:23:29.925Z</time></trkpt><trkpt lat="43.8736737" lon="12.5768089"><ele>384.0</ele><time>2026-04-11T09:23:30.922Z</time></trkpt><trkpt lat="43.8736124" lon="12.5767195"><ele>385.1666666666667</ele><time>2026-04-11T09:23:31.927Z</time></trkpt><trkpt lat="43.8735507" lon="12.576628"><ele>386.33333333333337</ele><time>2026-04-11T09:23:32.933Z</time></trkpt><trkpt lat="43.8734994" lon="12.576537"><ele>387.5</ele><time>2026-04-11T09:23:33.925Z</time></trkpt><trkpt lat="43.8734525" lon="12.5764502"><ele>388.6666666666667</ele><time>2026-04-11T09:23:34.934Z</time></trkpt><trkpt lat="43.8734023" lon="12.5763633"><ele>389.83333333333337</ele><time>2026-04-11T09:23:35.928Z</time></trkpt><trkpt lat="43.8733487" lon="12.5762688"><ele>391.0</ele><time>2026-04-11T09:23:36.925Z</time></trkpt><trkpt lat="43.873306" lon="12.5761937"><ele>389.5</ele><time>2026-04-11T09:23:37.929Z</time></trkpt><trkpt lat="43.8732616" lon="12.5761085"><ele>388.0</ele><time>2026-04-11T09:23:38.926Z</time></trkpt><trkpt lat="43.8731796" lon="12.5759654"><ele>386.5</ele><time>2026-04-11T09:23:40.934Z</time></trkpt><trkpt lat="43.8731121" lon="12.5758179"><ele>385.0</ele><time>2026-04-11T09:23:42.931Z</time></trkpt><trkpt lat="43.8730437" lon="12.575657"><ele>385.0</ele><time>2026-04-11T09:23:44.927Z</time></trkpt><trkpt lat="43.8729955" lon="12.575561"><ele>385.0</ele><time>2026-04-11T09:23:45.927Z</time></trkpt><trkpt lat="43.872954" lon="12.5754681"><ele>385.0</ele><time>2026-04-11T09:23:46.932Z</time></trkpt><trkpt lat="43.8729171" lon="12.5753883"><ele>385.0</ele><time>2026-04-11T09:23:47.924Z</time></trkpt><trkpt lat="43.8728778" lon="12.5753133"><ele>385.0</ele><time>2026-04-11T09:23:48.929Z</time></trkpt><trkpt lat="43.8728344" lon="12.5752356"><ele>385.0</ele><time>2026-04-11T09:23:49.93Z</time></trkpt><trkpt lat="43.872802" lon="12.5751562"><ele>385.0</ele><time>2026-04-11T09:23:50.933Z</time></trkpt><trkpt lat="43.8727254" lon="12.5750159"><ele>384.2</ele><time>2026-04-11T09:23:52.93Z</time></trkpt><trkpt lat="43.8726334" lon="12.5749132"><ele>383.4</ele><time>2026-04-11T09:23:54.926Z</time></trkpt><trkpt lat="43.8725446" lon="12.5748473"><ele>382.6</ele><time>2026-04-11T09:23:56.921Z</time></trkpt><trkpt lat="43.8724426" lon="12.5747387"><ele>381.8</ele><time>2026-04-11T09:23:58.93Z</time></trkpt><trkpt lat="43.8723854" lon="12.5746824"><ele>381.0</ele><time>2026-04-11T09:23:59.933Z</time></trkpt><trkpt lat="43.8723329" lon="12.5746265"><ele>383.1666666666667</ele><time>2026-04-11T09:24:00.924Z</time></trkpt><trkpt lat="43.8722822" lon="12.5745702"><ele>385.33333333333337</ele><time>2026-04-11T09:24:01.933Z</time></trkpt><trkpt lat="43.8722297" lon="12.5745076"><ele>387.5</ele><time>2026-04-11T09:24:02.933Z</time></trkpt><trkpt lat="43.8721447" lon="12.5744062"><ele>389.6666666666667</ele><time>2026-04-11T09:24:04.929Z</time></trkpt><trkpt lat="43.8720563" lon="12.574285"><ele>391.83333333333337</ele><time>2026-04-11T09:24:06.926Z</time></trkpt><trkpt lat="43.872" lon="12.5742237"><ele>394.0</ele><time>2026-04-11T09:24:07.922Z</time></trkpt><trkpt lat="43.8719099" lon="12.5741026"><ele>396.2</ele><time>2026-04-11T09:24:09.928Z</time></trkpt><trkpt lat="43.8718279" lon="12.5739926"><ele>398.4</ele><time>2026-04-11T09:24:11.931Z</time></trkpt><trkpt lat="43.8717502" lon="12.5738433"><ele>400.6</ele><time>2026-04-11T09:24:13.931Z</time></trkpt><trkpt lat="43.8716863" lon="12.5737906"><ele>402.8</ele><time>2026-04-11T09:24:14.928Z</time></trkpt><trkpt lat="43.8716327" lon="12.5737172"><ele>405.0</ele><time>2026-04-11T09:24:15.925Z</time></trkpt><trkpt lat="43.8715773" lon="12.5736372"><ele>407.2</ele><time>2026-04-11T09:24:16.932Z</time></trkpt><trkpt lat="43.8715069" lon="12.573502"><ele>409.4</ele><time>2026-04-11T09:24:18.933Z</time></trkpt><trkpt lat="43.871465" lon="12.5733303"><ele>411.6</ele><time>2026-04-11T09:24:20.931Z</time></trkpt><trkpt lat="43.8714104" lon="12.5731737"><ele>413.8</ele><time>2026-04-11T09:24:22.926Z</time></trkpt><trkpt lat="43.8713898" lon="12.5730906"><ele>416.0</ele><time>2026-04-11T09:24:23.933Z</time></trkpt><trkpt lat="43.8713581" lon="12.5730027"><ele>415.99999999999994</ele><time>2026-04-11T09:24:24.927Z</time></trkpt><trkpt lat="43.8713295" lon="12.5729227"><ele>416.0</ele><time>2026-04-11T09:24:25.928Z</time></trkpt><trkpt lat="43.871281" lon="12.5727561"><ele>416.0</ele><time>2026-04-11T09:24:27.931Z</time></trkpt><trkpt lat="43.8712664" lon="12.5726698"><ele>416.0</ele><time>2026-04-11T09:24:28.928Z</time></trkpt><trkpt lat="43.8712403" lon="12.5725884"><ele>415.99999999999994</ele><time>2026-04-11T09:24:29.933Z</time></trkpt><trkpt lat="43.8712182" lon="12.5725013"><ele>416.0</ele><time>2026-04-11T09:24:30.933Z</time></trkpt><trkpt lat="43.8711942" lon="12.5724157"><ele>416.66666666666663</ele><time>2026-04-11T09:24:31.923Z</time></trkpt><trkpt lat="43.8711649" lon="12.5723311"><ele>417.3333333333333</ele><time>2026-04-11T09:24:32.928Z</time></trkpt><trkpt lat="43.871141" lon="12.5722456"><ele>418.0</ele><time>2026-04-11T09:24:33.929Z</time></trkpt><trkpt lat="43.8710981" lon="12.5721309"><ele>418.66666666666663</ele><time>2026-04-11T09:24:35.929Z</time></trkpt><trkpt lat="43.871045" lon="12.5720456"><ele>419.3333333333333</ele><time>2026-04-11T09:24:38.927Z</time></trkpt><trkpt lat="43.8710095" lon="12.5719628"><ele>420.0</ele><time>2026-04-11T09:25:37.927Z</time></trkpt><trkpt lat="43.8709893" lon="12.5718667"><ele>420.3333333333333</ele><time>2026-04-11T09:25:39.924Z</time></trkpt><trkpt lat="43.8709587" lon="12.571748"><ele>420.66666666666663</ele><time>2026-04-11T09:25:41.931Z</time></trkpt><trkpt lat="43.8709278" lon="12.5716445"><ele>421.0</ele><time>2026-04-11T09:25:42.926Z</time></trkpt><trkpt lat="43.8709091" lon="12.5715551"><ele>421.3333333333333</ele><time>2026-04-11T09:25:43.932Z</time></trkpt><trkpt lat="43.870885" lon="12.571463"><ele>421.66666666666663</ele><time>2026-04-11T09:25:44.925Z</time></trkpt><trkpt lat="43.8708613" lon="12.57137"><ele>422.0</ele><time>2026-04-11T09:25:45.932Z</time></trkpt><trkpt lat="43.8708398" lon="12.5712746"><ele>422.3333333333333</ele><time>2026-04-11T09:25:46.926Z</time></trkpt><trkpt lat="43.8708307" lon="12.5711827"><ele>422.66666666666663</ele><time>2026-04-11T09:25:47.924Z</time></trkpt><trkpt lat="43.8708156" lon="12.5710854"><ele>423.0</ele><time>2026-04-11T09:25:48.927Z</time></trkpt><trkpt lat="43.8708156" lon="12.5709858"><ele>423.33333333333337</ele><time>2026-04-11T09:25:49.929Z</time></trkpt><trkpt lat="43.8708238" lon="12.5708745"><ele>423.6666666666667</ele><time>2026-04-11T09:25:50.929Z</time></trkpt><trkpt lat="43.8708257" lon="12.5707553"><ele>424.0</ele><time>2026-04-11T09:25:51.931Z</time></trkpt><trkpt lat="43.8708277" lon="12.5706488"><ele>424.00000000000006</ele><time>2026-04-11T09:25:52.924Z</time></trkpt><trkpt lat="43.8708258" lon="12.5705392"><ele>424.0</ele><time>2026-04-11T09:25:53.927Z</time></trkpt><trkpt lat="43.8708286" lon="12.5704278"><ele>424.0</ele><time>2026-04-11T09:25:54.932Z</time></trkpt><trkpt lat="43.8708275" lon="12.5703288"><ele>424.0</ele><time>2026-04-11T09:25:55.931Z</time></trkpt><trkpt lat="43.8708308" lon="12.5702274"><ele>424.00000000000006</ele><time>2026-04-11T09:25:56.937Z</time></trkpt><trkpt lat="43.8708314" lon="12.5701341"><ele>424.0</ele><time>2026-04-11T09:25:57.932Z</time></trkpt><trkpt lat="43.8708288" lon="12.569982"><ele>424.0</ele><time>2026-04-11T09:25:59.926Z</time></trkpt><trkpt lat="43.8708196" lon="12.5698381"><ele>424.0</ele><time>2026-04-11T09:26:01.929Z</time></trkpt><trkpt lat="43.8707952" lon="12.5696725"><ele>424.0</ele><time>2026-04-11T09:26:03.924Z</time></trkpt><trkpt lat="43.8707426" lon="12.5695118"><ele>424.0</ele><time>2026-04-11T09:26:05.93Z</time></trkpt><trkpt lat="43.8707077" lon="12.569424"><ele>424.0</ele><time>2026-04-11T09:26:06.924Z</time></trkpt><trkpt lat="43.8706705" lon="12.5693458"><ele>424.0</ele><time>2026-04-11T09:26:07.923Z</time></trkpt><trkpt lat="43.87063" lon="12.5692625"><ele>424.0</ele><time>2026-04-11T09:26:08.928Z</time></trkpt><trkpt lat="43.8705918" lon="12.5691736"><ele>424.0</ele><time>2026-04-11T09:26:09.926Z</time></trkpt><trkpt lat="43.8705512" lon="12.5690931"><ele>424.0</ele><time>2026-04-11T09:26:10.926Z</time></trkpt><trkpt lat="43.8705143" lon="12.5690059"><ele>424.0</ele><time>2026-04-11T09:26:11.924Z</time></trkpt><trkpt lat="43.8704764" lon="12.5689266"><ele>424.0</ele><time>2026-04-11T09:26:12.923Z</time></trkpt><trkpt lat="43.8704394" lon="12.5688392"><ele>424.0</ele><time>2026-04-11T09:26:13.931Z</time></trkpt><trkpt lat="43.8704056" lon="12.5687464"><ele>423.50000000000006</ele><time>2026-04-11T09:26:14.926Z</time></trkpt><trkpt lat="43.870376" lon="12.5686513"><ele>423.0</ele><time>2026-04-11T09:26:15.929Z</time></trkpt><trkpt lat="43.8703402" lon="12.5685649"><ele>422.5</ele><time>2026-04-11T09:26:16.925Z</time></trkpt><trkpt lat="43.8703039" lon="12.5684678"><ele>422.0</ele><time>2026-04-11T09:26:17.931Z</time></trkpt><trkpt lat="43.8702713" lon="12.5683724"><ele>421.50000000000006</ele><time>2026-04-11T09:26:18.934Z</time></trkpt><trkpt lat="43.870237" lon="12.5682771"><ele>421.0</ele><time>2026-04-11T09:26:19.928Z</time></trkpt><trkpt lat="43.8702037" lon="12.5681826"><ele>421.00000000000006</ele><time>2026-04-11T09:26:20.93Z</time></trkpt><trkpt lat="43.8701689" lon="12.5680875"><ele>421.0</ele><time>2026-04-11T09:26:21.927Z</time></trkpt><trkpt lat="43.8701418" lon="12.5680083"><ele>421.0</ele><time>2026-04-11T09:26:22.937Z</time></trkpt><trkpt lat="43.8701043" lon="12.5679107"><ele>421.0</ele><time>2026-04-11T09:26:23.927Z</time></trkpt><trkpt lat="43.870072" lon="12.5678142"><ele>421.00000000000006</ele><time>2026-04-11T09:26:24.929Z</time></trkpt><trkpt lat="43.8700367" lon="12.5677102"><ele>421.0</ele><time>2026-04-11T09:26:25.933Z</time></trkpt><trkpt lat="43.8699989" lon="12.5676074"><ele>420.6666666666667</ele><time>2026-04-11T09:26:26.929Z</time></trkpt><trkpt lat="43.8699642" lon="12.5675126"><ele>420.33333333333337</ele><time>2026-04-11T09:26:27.929Z</time></trkpt><trkpt lat="43.8699117" lon="12.5673326"><ele>420.0</ele><time>2026-04-11T09:26:29.931Z</time></trkpt><trkpt lat="43.8698761" lon="12.5672274"><ele>419.66666666666663</ele><time>2026-04-11T09:26:30.928Z</time></trkpt><trkpt lat="43.8698389" lon="12.5671322"><ele>419.3333333333333</ele><time>2026-04-11T09:26:31.935Z</time></trkpt><trkpt lat="43.8698096" lon="12.5670492"><ele>419.0</ele><time>2026-04-11T09:26:32.926Z</time></trkpt><trkpt lat="43.869786" lon="12.5669652"><ele>418.1428571428571</ele><time>2026-04-11T09:26:33.935Z</time></trkpt><trkpt lat="43.869747" lon="12.5668506"><ele>417.2857142857143</ele><time>2026-04-11T09:26:35.93Z</time></trkpt><trkpt lat="43.8697197" lon="12.5667511"><ele>416.42857142857144</ele><time>2026-04-11T09:26:38.93Z</time></trkpt><trkpt lat="43.8696785" lon="12.5666796"><ele>415.57142857142856</ele><time>2026-04-11T09:27:03.924Z</time></trkpt><trkpt lat="43.8696321" lon="12.5666197"><ele>414.7142857142857</ele><time>2026-04-11T09:33:48.928Z</time></trkpt><trkpt lat="43.8696171" lon="12.5665335"><ele>413.85714285714283</ele><time>2026-04-11T09:33:51.922Z</time></trkpt><trkpt lat="43.869601" lon="12.5664161"><ele>413.0</ele><time>2026-04-11T09:33:53.927Z</time></trkpt><trkpt lat="43.8695774" lon="12.5663285"><ele>413.0</ele><time>2026-04-11T09:33:55.93Z</time></trkpt><trkpt lat="43.869542" lon="12.5662497"><ele>413.0</ele><time>2026-04-11T09:34:02.923Z</time></trkpt><trkpt lat="43.8695111" lon="12.5661545"><ele>413.0</ele><time>2026-04-11T09:34:03.923Z</time></trkpt><trkpt lat="43.8694826" lon="12.5660757"><ele>413.0</ele><time>2026-04-11T09:34:04.93Z</time></trkpt><trkpt lat="43.8694474" lon="12.5659872"><ele>413.0</ele><time>2026-04-11T09:34:05.925Z</time></trkpt><trkpt lat="43.8694041" lon="12.565894"><ele>413.0</ele><time>2026-04-11T09:34:06.928Z</time></trkpt><trkpt lat="43.8693625" lon="12.565792"><ele>413.0</ele><time>2026-04-11T09:34:07.929Z</time></trkpt><trkpt lat="43.8693269" lon="12.5657085"><ele>412.14285714285717</ele><time>2026-04-11T09:34:08.925Z</time></trkpt><trkpt lat="43.869285" lon="12.5656367"><ele>411.2857142857143</ele><time>2026-04-11T09:34:09.932Z</time></trkpt><trkpt lat="43.8692393" lon="12.5655676"><ele>410.42857142857144</ele><time>2026-04-11T09:34:10.931Z</time></trkpt><trkpt lat="43.8691932" lon="12.5654828"><ele>409.57142857142856</ele><time>2026-04-11T09:34:11.932Z</time></trkpt><trkpt lat="43.869151" lon="12.5654048"><ele>408.7142857142857</ele><time>2026-04-11T09:34:12.928Z</time></trkpt><trkpt lat="43.8691131" lon="12.5653212"><ele>407.8571428571429</ele><time>2026-04-11T09:34:13.921Z</time></trkpt><trkpt lat="43.8690665" lon="12.5652245"><ele>407.0</ele><time>2026-04-11T09:34:14.927Z</time></trkpt><trkpt lat="43.8690216" lon="12.5651373"><ele>410.99999999999994</ele><time>2026-04-11T09:34:15.929Z</time></trkpt><trkpt lat="43.8689794" lon="12.5650434"><ele>415.0</ele><time>2026-04-11T09:34:16.924Z</time></trkpt><trkpt lat="43.8689353" lon="12.5649425"><ele>419.0</ele><time>2026-04-11T09:34:17.932Z</time></trkpt><trkpt lat="43.8688891" lon="12.5648365"><ele>423.0</ele><time>2026-04-11T09:34:18.938Z</time></trkpt><trkpt lat="43.8688366" lon="12.5647286"><ele>426.99999999999994</ele><time>2026-04-11T09:34:19.921Z</time></trkpt><trkpt lat="43.8687916" lon="12.5646162"><ele>431.0</ele><time>2026-04-11T09:34:20.935Z</time></trkpt><trkpt lat="43.8687442" lon="12.5645233"><ele>430.8333333333333</ele><time>2026-04-11T09:34:21.934Z</time></trkpt><trkpt lat="43.8687013" lon="12.5644279"><ele>430.66666666666663</ele><time>2026-04-11T09:34:22.932Z</time></trkpt><trkpt lat="43.8686619" lon="12.5643326"><ele>430.5</ele><time>2026-04-11T09:34:23.934Z</time></trkpt><trkpt lat="43.8686286" lon="12.5642527"><ele>430.33333333333337</ele><time>2026-04-11T09:34:24.927Z</time></trkpt><trkpt lat="43.8685703" lon="12.5641349"><ele>430.1666666666667</ele><time>2026-04-11T09:34:26.932Z</time></trkpt><trkpt lat="43.868507" lon="12.5639974"><ele>430.0</ele><time>2026-04-11T09:34:28.93Z</time></trkpt><trkpt lat="43.8684318" lon="12.5638466"><ele>430.00000000000006</ele><time>2026-04-11T09:34:30.926Z</time></trkpt><trkpt lat="43.8683874" lon="12.5637652"><ele>430.0</ele><time>2026-04-11T09:34:31.943Z</time></trkpt><trkpt lat="43.8683429" lon="12.5636755"><ele>430.0</ele><time>2026-04-11T09:34:32.938Z</time></trkpt><trkpt lat="43.8682955" lon="12.5635914"><ele>430.0</ele><time>2026-04-11T09:34:33.93Z</time></trkpt><trkpt lat="43.8682492" lon="12.5635062"><ele>430.00000000000006</ele><time>2026-04-11T09:34:34.927Z</time></trkpt><trkpt lat="43.8682018" lon="12.5634271"><ele>430.0</ele><time>2026-04-11T09:34:35.928Z</time></trkpt><trkpt lat="43.8681546" lon="12.5633558"><ele>431.00000000000006</ele><time>2026-04-11T09:34:36.929Z</time></trkpt><trkpt lat="43.8680747" lon="12.5632217"><ele>432.0</ele><time>2026-04-11T09:34:38.927Z</time></trkpt><trkpt lat="43.8680376" lon="12.563142"><ele>433.0</ele><time>2026-04-11T09:34:39.925Z</time></trkpt><trkpt lat="43.8679916" lon="12.5630674"><ele>434.0</ele><time>2026-04-11T09:34:40.931Z</time></trkpt><trkpt lat="43.8679398" lon="12.562995"><ele>435.00000000000006</ele><time>2026-04-11T09:34:41.931Z</time></trkpt><trkpt lat="43.8678896" lon="12.562924"><ele>436.0</ele><time>2026-04-11T09:34:42.927Z</time></trkpt><trkpt lat="43.8678363" lon="12.5628539"><ele>436.1666666666667</ele><time>2026-04-11T09:34:43.935Z</time></trkpt><trkpt lat="43.8677815" lon="12.5627844"><ele>436.33333333333337</ele><time>2026-04-11T09:34:44.925Z</time></trkpt><trkpt lat="43.8677221" lon="12.5627257"><ele>436.5</ele><time>2026-04-11T09:34:45.931Z</time></trkpt><trkpt lat="43.8676526" lon="12.5626617"><ele>436.66666666666663</ele><time>2026-04-11T09:34:46.926Z</time></trkpt><trkpt lat="43.8675829" lon="12.5626"><ele>436.8333333333333</ele><time>2026-04-11T09:34:47.925Z</time></trkpt><trkpt lat="43.867505" lon="12.5625559"><ele>437.0</ele><time>2026-04-11T09:34:48.925Z</time></trkpt><trkpt lat="43.8674272" lon="12.5625227"><ele>436.99999999999994</ele><time>2026-04-11T09:34:49.923Z</time></trkpt><trkpt lat="43.8673516" lon="12.5624859"><ele>437.0</ele><time>2026-04-11T09:34:50.921Z</time></trkpt><trkpt lat="43.8672781" lon="12.5624426"><ele>437.0</ele><time>2026-04-11T09:34:51.923Z</time></trkpt><trkpt lat="43.8672103" lon="12.5624131"><ele>437.0</ele><time>2026-04-11T09:34:52.925Z</time></trkpt><trkpt lat="43.8671077" lon="12.5623615"><ele>436.99999999999994</ele><time>2026-04-11T09:34:54.924Z</time></trkpt><trkpt lat="43.8670365" lon="12.5623199"><ele>437.0</ele><time>2026-04-11T09:34:56.93Z</time></trkpt><trkpt lat="43.8669381" lon="12.5622719"><ele>437.0</ele><time>2026-04-11T09:34:58.93Z</time></trkpt><trkpt lat="43.8668371" lon="12.5622027"><ele>437.00000000000006</ele><time>2026-04-11T09:35:00.925Z</time></trkpt><trkpt lat="43.8667162" lon="12.5621481"><ele>437.00000000000006</ele><time>2026-04-11T09:35:02.929Z</time></trkpt><trkpt lat="43.86665" lon="12.5621188"><ele>437.0</ele><time>2026-04-11T09:35:03.92Z</time></trkpt><trkpt lat="43.8665857" lon="12.5620884"><ele>437.0</ele><time>2026-04-11T09:35:04.93Z</time></trkpt><trkpt lat="43.8665138" lon="12.562054"><ele>437.4285714285714</ele><time>2026-04-11T09:35:05.924Z</time></trkpt><trkpt lat="43.8664438" lon="12.5620188"><ele>437.8571428571429</ele><time>2026-04-11T09:35:06.926Z</time></trkpt><trkpt lat="43.8663712" lon="12.5619811"><ele>438.2857142857143</ele><time>2026-04-11T09:35:07.934Z</time></trkpt><trkpt lat="43.8663029" lon="12.5619349"><ele>438.71428571428567</ele><time>2026-04-11T09:35:08.922Z</time></trkpt><trkpt lat="43.8662391" lon="12.5618933"><ele>439.1428571428571</ele><time>2026-04-11T09:35:09.925Z</time></trkpt><trkpt lat="43.866176" lon="12.5618587"><ele>439.57142857142856</ele><time>2026-04-11T09:35:10.924Z</time></trkpt><trkpt lat="43.8661102" lon="12.5618326"><ele>440.0</ele><time>2026-04-11T09:35:11.922Z</time></trkpt><trkpt lat="43.8659993" lon="12.5617902"><ele>439.66666666666663</ele><time>2026-04-11T09:35:13.929Z</time></trkpt><trkpt lat="43.8659197" lon="12.5617631"><ele>439.3333333333333</ele><time>2026-04-11T09:35:15.925Z</time></trkpt><trkpt lat="43.8658487" lon="12.5617213"><ele>439.0</ele><time>2026-04-11T09:35:17.923Z</time></trkpt><trkpt lat="43.8657905" lon="12.5616685"><ele>438.66666666666663</ele><time>2026-04-11T09:35:19.924Z</time></trkpt><trkpt lat="43.8657288" lon="12.5616271"><ele>438.3333333333333</ele><time>2026-04-11T09:35:21.925Z</time></trkpt><trkpt lat="43.8656409" lon="12.5615767"><ele>438.0</ele><time>2026-04-11T09:35:24.925Z</time></trkpt><trkpt lat="43.8655675" lon="12.5615628"><ele>438.0</ele><time>2026-04-11T09:35:26.924Z</time></trkpt><trkpt lat="43.8654916" lon="12.561527"><ele>438.0</ele><time>2026-04-11T09:35:28.926Z</time></trkpt><trkpt lat="43.8654171" lon="12.5614724"><ele>438.0</ele><time>2026-04-11T09:35:30.924Z</time></trkpt><trkpt lat="43.8653498" lon="12.5614268"><ele>438.0</ele><time>2026-04-11T09:35:32.919Z</time></trkpt><trkpt lat="43.8652706" lon="12.5613913"><ele>438.0</ele><time>2026-04-11T09:35:39.925Z</time></trkpt><trkpt lat="43.8651797" lon="12.561287"><ele>438.0</ele><time>2026-04-11T09:35:41.922Z</time></trkpt><trkpt lat="43.8651412" lon="12.5612079"><ele>439.0</ele><time>2026-04-11T09:35:42.926Z</time></trkpt><trkpt lat="43.8651012" lon="12.5611272"><ele>440.0</ele><time>2026-04-11T09:35:43.925Z</time></trkpt><trkpt lat="43.8650634" lon="12.561041"><ele>441.0</ele><time>2026-04-11T09:35:44.922Z</time></trkpt><trkpt lat="43.8650341" lon="12.5609463"><ele>442.0</ele><time>2026-04-11T09:35:45.924Z</time></trkpt><trkpt lat="43.8650076" lon="12.5608545"><ele>443.0</ele><time>2026-04-11T09:35:46.927Z</time></trkpt><trkpt lat="43.8649771" lon="12.5607633"><ele>444.0</ele><time>2026-04-11T09:35:47.925Z</time></trkpt><trkpt lat="43.8649387" lon="12.5606587"><ele>445.0</ele><time>2026-04-11T09:35:48.931Z</time></trkpt><trkpt lat="43.8649022" lon="12.560568"><ele>445.00000000000006</ele><time>2026-04-11T09:35:49.927Z</time></trkpt><trkpt lat="43.8648596" lon="12.5604815"><ele>445.0</ele><time>2026-04-11T09:35:50.923Z</time></trkpt><trkpt lat="43.8648169" lon="12.5603846"><ele>445.0</ele><time>2026-04-11T09:35:51.922Z</time></trkpt><trkpt lat="43.8647805" lon="12.5602847"><ele>445.0</ele><time>2026-04-11T09:35:52.931Z</time></trkpt><trkpt lat="43.8647415" lon="12.5601822"><ele>445.00000000000006</ele><time>2026-04-11T09:35:53.932Z</time></trkpt><trkpt lat="43.8647042" lon="12.5600858"><ele>445.0</ele><time>2026-04-11T09:35:54.923Z</time></trkpt><trkpt lat="43.8646685" lon="12.5599833"><ele>445.8571428571429</ele><time>2026-04-11T09:35:55.918Z</time></trkpt><trkpt lat="43.8646325" lon="12.5598914"><ele>446.71428571428567</ele><time>2026-04-11T09:35:56.931Z</time></trkpt><trkpt lat="43.8645924" lon="12.5598039"><ele>447.57142857142856</ele><time>2026-04-11T09:35:57.926Z</time></trkpt><trkpt lat="43.8645581" lon="12.5597185"><ele>448.42857142857144</ele><time>2026-04-11T09:35:58.923Z</time></trkpt><trkpt lat="43.8645268" lon="12.5596414"><ele>449.28571428571433</ele><time>2026-04-11T09:35:59.929Z</time></trkpt><trkpt lat="43.8644919" lon="12.5595534"><ele>450.1428571428571</ele><time>2026-04-11T09:36:00.926Z</time></trkpt><trkpt lat="43.8644602" lon="12.5594583"><ele>451.0</ele><time>2026-04-11T09:36:01.928Z</time></trkpt><trkpt lat="43.864436" lon="12.5593675"><ele>451.0</ele><time>2026-04-11T09:36:02.93Z</time></trkpt><trkpt lat="43.864408" lon="12.5592765"><ele>451.0</ele><time>2026-04-11T09:36:03.933Z</time></trkpt><trkpt lat="43.864365" lon="12.559183"><ele>451.0</ele><time>2026-04-11T09:36:04.928Z</time></trkpt><trkpt lat="43.8643375" lon="12.5591019"><ele>451.0</ele><time>2026-04-11T09:36:05.926Z</time></trkpt><trkpt lat="43.864306" lon="12.5590101"><ele>451.0</ele><time>2026-04-11T09:36:06.926Z</time></trkpt><trkpt lat="43.8642731" lon="12.5589088"><ele>451.0</ele><time>2026-04-11T09:36:07.927Z</time></trkpt><trkpt lat="43.8642443" lon="12.5588225"><ele>451.0</ele><time>2026-04-11T09:36:08.93Z</time></trkpt><trkpt lat="43.8641885" lon="12.558675"><ele>452.42857142857144</ele><time>2026-04-11T09:36:10.926Z</time></trkpt><trkpt lat="43.8641584" lon="12.5585884"><ele>453.8571428571429</ele><time>2026-04-11T09:36:11.927Z</time></trkpt><trkpt lat="43.8641283" lon="12.55851"><ele>455.28571428571433</ele><time>2026-04-11T09:36:12.93Z</time></trkpt><trkpt lat="43.8641029" lon="12.5584293"><ele>456.7142857142857</ele><time>2026-04-11T09:36:13.929Z</time></trkpt><trkpt lat="43.8640729" lon="12.5583471"><ele>458.1428571428572</ele><time>2026-04-11T09:36:14.93Z</time></trkpt><trkpt lat="43.8640425" lon="12.5582572"><ele>459.5714285714286</ele><time>2026-04-11T09:36:15.928Z</time></trkpt><trkpt lat="43.8640125" lon="12.5581733"><ele>461.0</ele><time>2026-04-11T09:36:16.926Z</time></trkpt><trkpt lat="43.8639708" lon="12.558081"><ele>461.0</ele><time>2026-04-11T09:36:17.923Z</time></trkpt><trkpt lat="43.8639443" lon="12.5579856"><ele>461.00000000000006</ele><time>2026-04-11T09:36:18.929Z</time></trkpt><trkpt lat="43.8639257" lon="12.5578936"><ele>461.0</ele><time>2026-04-11T09:36:19.931Z</time></trkpt><trkpt lat="43.8639153" lon="12.5578073"><ele>461.0</ele><time>2026-04-11T09:36:20.926Z</time></trkpt><trkpt lat="43.8639096" lon="12.5577104"><ele>461.00000000000006</ele><time>2026-04-11T09:36:21.93Z</time></trkpt><trkpt lat="43.8639118" lon="12.5576141"><ele>461.0</ele><time>2026-04-11T09:36:22.927Z</time></trkpt><trkpt lat="43.8639166" lon="12.5575239"><ele>461.0</ele><time>2026-04-11T09:36:23.924Z</time></trkpt><trkpt lat="43.8639383" lon="12.5574235"><ele>461.4</ele><time>2026-04-11T09:36:24.928Z</time></trkpt><trkpt lat="43.8639591" lon="12.5573249"><ele>461.8</ele><time>2026-04-11T09:36:25.924Z</time></trkpt><trkpt lat="43.8639924" lon="12.5572244"><ele>462.19999999999993</ele><time>2026-04-11T09:36:26.928Z</time></trkpt><trkpt lat="43.8640307" lon="12.5571382"><ele>462.59999999999997</ele><time>2026-04-11T09:36:27.919Z</time></trkpt><trkpt lat="43.8640946" lon="12.5569858"><ele>463.0</ele><time>2026-04-11T09:36:29.926Z</time></trkpt><trkpt lat="43.8641507" lon="12.5568567"><ele>463.0</ele><time>2026-04-11T09:36:31.925Z</time></trkpt><trkpt lat="43.8641965" lon="12.5567273"><ele>462.99999999999994</ele><time>2026-04-11T09:36:33.931Z</time></trkpt><trkpt lat="43.8642283" lon="12.5565846"><ele>462.99999999999994</ele><time>2026-04-11T09:36:35.923Z</time></trkpt><trkpt lat="43.8642676" lon="12.5564213"><ele>463.0</ele><time>2026-04-11T09:36:37.925Z</time></trkpt><trkpt lat="43.8642949" lon="12.5563312"><ele>463.0</ele><time>2026-04-11T09:36:38.931Z</time></trkpt><trkpt lat="43.864315" lon="12.5562455"><ele>466.2</ele><time>2026-04-11T09:36:39.925Z</time></trkpt><trkpt lat="43.8643429" lon="12.5561553"><ele>469.4</ele><time>2026-04-11T09:36:40.924Z</time></trkpt><trkpt lat="43.8643707" lon="12.5560583"><ele>472.59999999999997</ele><time>2026-04-11T09:36:41.926Z</time></trkpt><trkpt lat="43.8643965" lon="12.5559681"><ele>475.79999999999995</ele><time>2026-04-11T09:36:42.929Z</time></trkpt><trkpt lat="43.8644588" lon="12.5558225"><ele>479.0</ele><time>2026-04-11T09:36:44.925Z</time></trkpt><trkpt lat="43.864523" lon="12.5556722"><ele>479.0</ele><time>2026-04-11T09:36:46.922Z</time></trkpt><trkpt lat="43.8645564" lon="12.5555862"><ele>479.0</ele><time>2026-04-11T09:36:47.926Z</time></trkpt><trkpt lat="43.8646065" lon="12.5554255"><ele>479.0</ele><time>2026-04-11T09:36:49.924Z</time></trkpt><trkpt lat="43.8646648" lon="12.5552687"><ele>479.0</ele><time>2026-04-11T09:36:51.927Z</time></trkpt><trkpt lat="43.8646822" lon="12.5551813"><ele>479.0</ele><time>2026-04-11T09:36:52.925Z</time></trkpt><trkpt lat="43.8647031" lon="12.555088"><ele>478.99999999999994</ele><time>2026-04-11T09:36:53.922Z</time></trkpt><trkpt lat="43.8647172" lon="12.5549994"><ele>479.0</ele><time>2026-04-11T09:36:54.921Z</time></trkpt><trkpt lat="43.864727" lon="12.5549049"><ele>479.0</ele><time>2026-04-11T09:36:55.921Z</time></trkpt><trkpt lat="43.8647391" lon="12.5548154"><ele>479.0</ele><time>2026-04-11T09:36:56.928Z</time></trkpt><trkpt lat="43.8647433" lon="12.5547256"><ele>478.99999999999994</ele><time>2026-04-11T09:36:57.922Z</time></trkpt><trkpt lat="43.8647098" lon="12.5545548"><ele>479.0</ele><time>2026-04-11T09:36:59.93Z</time></trkpt><trkpt lat="43.8646758" lon="12.5544183"><ele>479.6</ele><time>2026-04-11T09:37:01.924Z</time></trkpt><trkpt lat="43.8646164" lon="12.5543125"><ele>480.2</ele><time>2026-04-11T09:37:03.923Z</time></trkpt><trkpt lat="43.8645623" lon="12.5542593"><ele>480.80000000000007</ele><time>2026-04-11T09:37:04.926Z</time></trkpt><trkpt lat="43.8645085" lon="12.5542069"><ele>481.40000000000003</ele><time>2026-04-11T09:37:05.929Z</time></trkpt><trkpt lat="43.8644042" lon="12.5541208"><ele>482.0</ele><time>2026-04-11T09:37:07.925Z</time></trkpt><trkpt lat="43.8643039" lon="12.5540506"><ele>481.3333333333333</ele><time>2026-04-11T09:37:09.926Z</time></trkpt><trkpt lat="43.8642238" lon="12.5539821"><ele>480.66666666666663</ele><time>2026-04-11T09:37:11.931Z</time></trkpt><trkpt lat="43.8641481" lon="12.5539349"><ele>480.0</ele><time>2026-04-11T09:37:14.921Z</time></trkpt><trkpt lat="43.8640666" lon="12.5539202"><ele>479.33333333333337</ele><time>2026-04-11T09:37:27.922Z</time></trkpt><trkpt lat="43.8639844" lon="12.553842"><ele>478.6666666666667</ele><time>2026-04-11T09:37:29.923Z</time></trkpt><trkpt lat="43.8639316" lon="12.5537831"><ele>478.0</ele><time>2026-04-11T09:37:30.922Z</time></trkpt><trkpt lat="43.8638323" lon="12.5536999"><ele>479.1428571428572</ele><time>2026-04-11T09:37:32.929Z</time></trkpt><trkpt lat="43.8637766" lon="12.5536586"><ele>480.28571428571433</ele><time>2026-04-11T09:37:33.927Z</time></trkpt><trkpt lat="43.8637185" lon="12.5536051"><ele>481.42857142857144</ele><time>2026-04-11T09:37:34.923Z</time></trkpt><trkpt lat="43.8636569" lon="12.5535535"><ele>482.5714285714286</ele><time>2026-04-11T09:37:35.926Z</time></trkpt><trkpt lat="43.8635941" lon="12.5534817"><ele>483.7142857142858</ele><time>2026-04-11T09:37:36.919Z</time></trkpt><trkpt lat="43.8635442" lon="12.5534117"><ele>484.85714285714283</ele><time>2026-04-11T09:37:37.918Z</time></trkpt><trkpt lat="43.8634915" lon="12.5533381"><ele>486.0</ele><time>2026-04-11T09:37:38.926Z</time></trkpt><trkpt lat="43.8634476" lon="12.5532596"><ele>486.0</ele><time>2026-04-11T09:37:39.927Z</time></trkpt><trkpt lat="43.8634008" lon="12.5531796"><ele>486.0</ele><time>2026-04-11T09:37:40.924Z</time></trkpt><trkpt lat="43.8633568" lon="12.5530898"><ele>486.0</ele><time>2026-04-11T09:37:41.926Z</time></trkpt><trkpt lat="43.8633064" lon="12.5530015"><ele>486.0</ele><time>2026-04-11T09:37:42.925Z</time></trkpt><trkpt lat="43.8632567" lon="12.5529086"><ele>486.0</ele><time>2026-04-11T09:37:43.924Z</time></trkpt><trkpt lat="43.8632071" lon="12.5528249"><ele>486.0</ele><time>2026-04-11T09:37:44.927Z</time></trkpt><trkpt lat="43.8631543" lon="12.5527449"><ele>486.0</ele><time>2026-04-11T09:37:45.925Z</time></trkpt><trkpt lat="43.8630929" lon="12.5526809"><ele>486.0</ele><time>2026-04-11T09:37:46.93Z</time></trkpt><trkpt lat="43.863037" lon="12.5526203"><ele>486.0</ele><time>2026-04-11T09:37:47.929Z</time></trkpt><trkpt lat="43.86297" lon="12.5525194"><ele>486.0</ele><time>2026-04-11T09:37:49.922Z</time></trkpt><trkpt lat="43.8629034" lon="12.5524299"><ele>486.0</ele><time>2026-04-11T09:37:51.922Z</time></trkpt><trkpt lat="43.8628371" lon="12.5523099"><ele>486.0</ele><time>2026-04-11T09:37:53.927Z</time></trkpt><trkpt lat="43.8627232" lon="12.5521733"><ele>486.0</ele><time>2026-04-11T09:37:55.933Z</time></trkpt><trkpt lat="43.8626474" lon="12.5520976"><ele>486.0</ele><time>2026-04-11T09:37:56.93Z</time></trkpt><trkpt lat="43.8625753" lon="12.5520167"><ele>486.0</ele><time>2026-04-11T09:37:57.932Z</time></trkpt><trkpt lat="43.8624985" lon="12.5519372"><ele>486.0</ele><time>2026-04-11T09:37:58.923Z</time></trkpt><trkpt lat="43.8624208" lon="12.5518514"><ele>486.0</ele><time>2026-04-11T09:37:59.928Z</time></trkpt><trkpt lat="43.8623512" lon="12.5517687"><ele>486.5</ele><time>2026-04-11T09:38:00.931Z</time></trkpt><trkpt lat="43.8622908" lon="12.5516923"><ele>487.0</ele><time>2026-04-11T09:38:01.922Z</time></trkpt><trkpt lat="43.8622289" lon="12.5516144"><ele>487.5</ele><time>2026-04-11T09:38:02.923Z</time></trkpt><trkpt lat="43.8621672" lon="12.5515407"><ele>488.0</ele><time>2026-04-11T09:38:03.932Z</time></trkpt><trkpt lat="43.8620991" lon="12.5514813"><ele>488.5</ele><time>2026-04-11T09:38:04.926Z</time></trkpt><trkpt lat="43.8620351" lon="12.5514352"><ele>489.0</ele><time>2026-04-11T09:38:05.928Z</time></trkpt><trkpt lat="43.8619604" lon="12.5513824"><ele>489.0</ele><time>2026-04-11T09:38:06.932Z</time></trkpt><trkpt lat="43.8618901" lon="12.5513253"><ele>489.0</ele><time>2026-04-11T09:38:07.93Z</time></trkpt><trkpt lat="43.8618312" lon="12.5512569"><ele>489.0</ele><time>2026-04-11T09:38:08.924Z</time></trkpt><trkpt lat="43.8617634" lon="12.5511941"><ele>489.0</ele><time>2026-04-11T09:38:09.924Z</time></trkpt><trkpt lat="43.8616946" lon="12.5511284"><ele>489.0</ele><time>2026-04-11T09:38:10.928Z</time></trkpt><trkpt lat="43.861624" lon="12.5510619"><ele>489.0</ele><time>2026-04-11T09:38:11.92Z</time></trkpt><trkpt lat="43.8615572" lon="12.5509866"><ele>489.0</ele><time>2026-04-11T09:38:12.925Z</time></trkpt><trkpt lat="43.8614959" lon="12.5509099"><ele>489.0</ele><time>2026-04-11T09:38:13.925Z</time></trkpt><trkpt lat="43.8614292" lon="12.550824"><ele>489.0</ele><time>2026-04-11T09:38:14.921Z</time></trkpt><trkpt lat="43.8613624" lon="12.5507393"><ele>489.0</ele><time>2026-04-11T09:38:15.922Z</time></trkpt><trkpt lat="43.8612944" lon="12.5506656"><ele>489.0</ele><time>2026-04-11T09:38:16.916Z</time></trkpt><trkpt lat="43.8612237" lon="12.5505976"><ele>489.0</ele><time>2026-04-11T09:38:17.932Z</time></trkpt><trkpt lat="43.8611641" lon="12.5505298"><ele>489.0</ele><time>2026-04-11T09:38:18.927Z</time></trkpt><trkpt lat="43.8611032" lon="12.5504672"><ele>489.0</ele><time>2026-04-11T09:38:19.922Z</time></trkpt><trkpt lat="43.8610461" lon="12.5504061"><ele>489.0</ele><time>2026-04-11T09:38:20.923Z</time></trkpt><trkpt lat="43.86099" lon="12.5503494"><ele>489.0</ele><time>2026-04-11T09:38:21.931Z</time></trkpt><trkpt lat="43.860898" lon="12.550246"><ele>489.0</ele><time>2026-04-11T09:38:23.924Z</time></trkpt><trkpt lat="43.8608274" lon="12.5501505"><ele>489.0</ele><time>2026-04-11T09:38:25.916Z</time></trkpt><trkpt lat="43.8607777" lon="12.5500857"><ele>489.0</ele><time>2026-04-11T09:38:27.923Z</time></trkpt><trkpt lat="43.8607458" lon="12.5499978"><ele>489.0</ele><time>2026-04-11T09:41:40.925Z</time></trkpt><trkpt lat="43.8607551" lon="12.5499107"><ele>489.0</ele><time>2026-04-11T09:41:44.929Z</time></trkpt><trkpt lat="43.8608131" lon="12.5498224"><ele>489.0</ele><time>2026-04-11T09:41:48.926Z</time></trkpt><trkpt lat="43.8608836" lon="12.5497796"><ele>489.0</ele><time>2026-04-11T09:41:50.923Z</time></trkpt><trkpt lat="43.8609863" lon="12.5497402"><ele>489.0</ele><time>2026-04-11T09:41:52.921Z</time></trkpt><trkpt lat="43.8611118" lon="12.5496696"><ele>489.0</ele><time>2026-04-11T09:41:54.922Z</time></trkpt><trkpt lat="43.8611796" lon="12.5496373"><ele>489.0</ele><time>2026-04-11T09:41:55.923Z</time></trkpt><trkpt lat="43.8612583" lon="12.5495914"><ele>489.0</ele><time>2026-04-11T09:41:56.924Z</time></trkpt><trkpt lat="43.8613489" lon="12.5495371"><ele>489.0</ele><time>2026-04-11T09:41:57.926Z</time></trkpt><trkpt lat="43.8614384" lon="12.5494825"><ele>489.0</ele><time>2026-04-11T09:41:58.925Z</time></trkpt><trkpt lat="43.8615358" lon="12.5494182"><ele>489.0</ele><time>2026-04-11T09:41:59.92Z</time></trkpt><trkpt lat="43.8616383" lon="12.5493379"><ele>489.0</ele><time>2026-04-11T09:42:00.927Z</time></trkpt><trkpt lat="43.8617351" lon="12.5492564"><ele>489.0</ele><time>2026-04-11T09:42:01.92Z</time></trkpt><trkpt lat="43.8618435" lon="12.5491527"><ele>489.0</ele><time>2026-04-11T09:42:02.93Z</time></trkpt><trkpt lat="43.8619529" lon="12.5490551"><ele>490.0</ele><time>2026-04-11T09:42:03.921Z</time></trkpt><trkpt lat="43.8620468" lon="12.5489541"><ele>491.0</ele><time>2026-04-11T09:42:04.917Z</time></trkpt><trkpt lat="43.8621451" lon="12.5488548"><ele>492.0</ele><time>2026-04-11T09:42:05.919Z</time></trkpt><trkpt lat="43.862236" lon="12.5487542"><ele>493.0</ele><time>2026-04-11T09:42:06.927Z</time></trkpt><trkpt lat="43.8623175" lon="12.5486639"><ele>493.00000000000006</ele><time>2026-04-11T09:42:07.92Z</time></trkpt><trkpt lat="43.8623855" lon="12.5485678"><ele>493.0</ele><time>2026-04-11T09:42:08.923Z</time></trkpt><trkpt lat="43.8624547" lon="12.5484807"><ele>493.0</ele><time>2026-04-11T09:42:09.931Z</time></trkpt><trkpt lat="43.8625054" lon="12.5483963"><ele>493.0</ele><time>2026-04-11T09:42:10.919Z</time></trkpt><trkpt lat="43.8625546" lon="12.54832"><ele>493.00000000000006</ele><time>2026-04-11T09:42:11.928Z</time></trkpt><trkpt lat="43.8626025" lon="12.5482433"><ele>493.0</ele><time>2026-04-11T09:42:12.931Z</time></trkpt><trkpt lat="43.8626452" lon="12.5481497"><ele>495.4</ele><time>2026-04-11T09:42:13.925Z</time></trkpt><trkpt lat="43.8626782" lon="12.5480303"><ele>497.79999999999995</ele><time>2026-04-11T09:42:14.918Z</time></trkpt><trkpt lat="43.862688" lon="12.5478991"><ele>500.2</ele><time>2026-04-11T09:42:15.923Z</time></trkpt><trkpt lat="43.8626727" lon="12.5477594"><ele>502.6</ele><time>2026-04-11T09:42:16.928Z</time></trkpt><trkpt lat="43.8626605" lon="12.5476178"><ele>505.0</ele><time>2026-04-11T09:42:17.921Z</time></trkpt><trkpt lat="43.8626734" lon="12.5474861"><ele>505.00000000000006</ele><time>2026-04-11T09:42:18.924Z</time></trkpt><trkpt lat="43.8627066" lon="12.5473702"><ele>505.0</ele><time>2026-04-11T09:42:19.925Z</time></trkpt><trkpt lat="43.8627536" lon="12.5472671"><ele>505.0</ele><time>2026-04-11T09:42:20.919Z</time></trkpt><trkpt lat="43.862803" lon="12.5471777"><ele>505.0</ele><time>2026-04-11T09:42:21.926Z</time></trkpt><trkpt lat="43.8628405" lon="12.5470871"><ele>505.00000000000006</ele><time>2026-04-11T09:42:22.921Z</time></trkpt><trkpt lat="43.8628672" lon="12.547005"><ele>505.0</ele><time>2026-04-11T09:42:23.92Z</time></trkpt><trkpt lat="43.8628629" lon="12.5468335"><ele>505.0</ele><time>2026-04-11T09:42:25.928Z</time></trkpt><trkpt lat="43.862819" lon="12.5467528"><ele>505.0</ele><time>2026-04-11T09:42:26.922Z</time></trkpt><trkpt lat="43.8627615" lon="12.5466733"><ele>505.0</ele><time>2026-04-11T09:42:27.921Z</time></trkpt><trkpt lat="43.8626498" lon="12.5466134"><ele>505.0</ele><time>2026-04-11T09:42:28.928Z</time></trkpt><trkpt lat="43.8625398" lon="12.5465305"><ele>505.0</ele><time>2026-04-11T09:42:29.927Z</time></trkpt><trkpt lat="43.8624319" lon="12.5464342"><ele>505.5</ele><time>2026-04-11T09:42:30.926Z</time></trkpt><trkpt lat="43.8623312" lon="12.546335"><ele>506.0</ele><time>2026-04-11T09:42:31.928Z</time></trkpt><trkpt lat="43.862229" lon="12.5462262"><ele>506.5</ele><time>2026-04-11T09:42:32.926Z</time></trkpt><trkpt lat="43.8621348" lon="12.5461166"><ele>507.0</ele><time>2026-04-11T09:42:33.923Z</time></trkpt><trkpt lat="43.8620393" lon="12.5459991"><ele>507.0</ele><time>2026-04-11T09:42:34.924Z</time></trkpt><trkpt lat="43.861946" lon="12.5458569"><ele>507.0</ele><time>2026-04-11T09:42:35.92Z</time></trkpt><trkpt lat="43.8618633" lon="12.5457214"><ele>507.0</ele><time>2026-04-11T09:42:36.923Z</time></trkpt><trkpt lat="43.8617972" lon="12.5455918"><ele>507.0</ele><time>2026-04-11T09:42:37.926Z</time></trkpt><trkpt lat="43.8617418" lon="12.5454742"><ele>507.1666666666667</ele><time>2026-04-11T09:42:38.923Z</time></trkpt><trkpt lat="43.8616964" lon="12.5453632"><ele>507.33333333333337</ele><time>2026-04-11T09:42:39.924Z</time></trkpt><trkpt lat="43.8616588" lon="12.5452486"><ele>507.5</ele><time>2026-04-11T09:42:40.928Z</time></trkpt><trkpt lat="43.8616252" lon="12.5451307"><ele>507.6666666666667</ele><time>2026-04-11T09:42:41.923Z</time></trkpt><trkpt lat="43.861594" lon="12.5450217"><ele>507.83333333333337</ele><time>2026-04-11T09:42:42.921Z</time></trkpt><trkpt lat="43.8615688" lon="12.5449329"><ele>508.0</ele><time>2026-04-11T09:42:43.931Z</time></trkpt><trkpt lat="43.8615643" lon="12.5448309"><ele>508.00000000000006</ele><time>2026-04-11T09:42:44.921Z</time></trkpt><trkpt lat="43.8615662" lon="12.5447304"><ele>508.0</ele><time>2026-04-11T09:42:45.924Z</time></trkpt><trkpt lat="43.8615779" lon="12.5446239"><ele>508.0</ele><time>2026-04-11T09:42:46.925Z</time></trkpt><trkpt lat="43.8616046" lon="12.5445198"><ele>508.0</ele><time>2026-04-11T09:42:47.928Z</time></trkpt><trkpt lat="43.8616494" lon="12.5444253"><ele>508.00000000000006</ele><time>2026-04-11T09:42:48.92Z</time></trkpt><trkpt lat="43.8617137" lon="12.544342"><ele>508.0</ele><time>2026-04-11T09:42:49.927Z</time></trkpt><trkpt lat="43.8618015" lon="12.5442807"><ele>510.1666666666667</ele><time>2026-04-11T09:42:50.924Z</time></trkpt><trkpt lat="43.8618859" lon="12.5442376"><ele>512.3333333333334</ele><time>2026-04-11T09:42:51.93Z</time></trkpt><trkpt lat="43.8619586" lon="12.5442089"><ele>514.5</ele><time>2026-04-11T09:42:52.923Z</time></trkpt><trkpt lat="43.8620232" lon="12.5441567"><ele>516.6666666666666</ele><time>2026-04-11T09:42:53.923Z</time></trkpt><trkpt lat="43.8620814" lon="12.5440975"><ele>518.8333333333333</ele><time>2026-04-11T09:42:54.932Z</time></trkpt><trkpt lat="43.8621258" lon="12.5439934"><ele>521.0</ele><time>2026-04-11T09:42:55.921Z</time></trkpt><trkpt lat="43.8621626" lon="12.5438746"><ele>521.0</ele><time>2026-04-11T09:42:56.927Z</time></trkpt><trkpt lat="43.8622071" lon="12.5437437"><ele>521.0</ele><time>2026-04-11T09:42:57.924Z</time></trkpt><trkpt lat="43.8622761" lon="12.5436079"><ele>521.0</ele><time>2026-04-11T09:42:58.922Z</time></trkpt><trkpt lat="43.862362" lon="12.5434707"><ele>521.0</ele><time>2026-04-11T09:42:59.929Z</time></trkpt><trkpt lat="43.8624653" lon="12.5433205"><ele>521.75</ele><time>2026-04-11T09:43:00.917Z</time></trkpt><trkpt lat="43.8625693" lon="12.5431862"><ele>522.5</ele><time>2026-04-11T09:43:01.931Z</time></trkpt><trkpt lat="43.8626694" lon="12.543064"><ele>523.25</ele><time>2026-04-11T09:43:02.924Z</time></trkpt><trkpt lat="43.8627405" lon="12.5429346"><ele>524.0</ele><time>2026-04-11T09:43:03.926Z</time></trkpt><trkpt lat="43.8627872" lon="12.5427992"><ele>525.6666666666666</ele><time>2026-04-11T09:43:04.927Z</time></trkpt><trkpt lat="43.862808" lon="12.5426778"><ele>527.3333333333333</ele><time>2026-04-11T09:43:05.926Z</time></trkpt><trkpt lat="43.8628107" lon="12.5425578"><ele>529.0</ele><time>2026-04-11T09:43:06.918Z</time></trkpt><trkpt lat="43.8627793" lon="12.542434"><ele>530.6666666666666</ele><time>2026-04-11T09:43:07.923Z</time></trkpt><trkpt lat="43.8627377" lon="12.5423326"><ele>532.3333333333334</ele><time>2026-04-11T09:43:08.925Z</time></trkpt><trkpt lat="43.8626825" lon="12.5422325"><ele>534.0</ele><time>2026-04-11T09:43:09.927Z</time></trkpt><trkpt lat="43.8626266" lon="12.5421283"><ele>531.4</ele><time>2026-04-11T09:43:10.927Z</time></trkpt><trkpt lat="43.8625477" lon="12.5420078"><ele>528.8</ele><time>2026-04-11T09:43:11.928Z</time></trkpt><trkpt lat="43.8624755" lon="12.5418903"><ele>526.2</ele><time>2026-04-11T09:43:12.926Z</time></trkpt><trkpt lat="43.8624194" lon="12.5417821"><ele>523.6</ele><time>2026-04-11T09:43:13.927Z</time></trkpt><trkpt lat="43.8623935" lon="12.5416852"><ele>521.0</ele><time>2026-04-11T09:43:14.931Z</time></trkpt><trkpt lat="43.8623983" lon="12.5415979"><ele>521.0</ele><time>2026-04-11T09:43:15.919Z</time></trkpt><trkpt lat="43.8624309" lon="12.5415067"><ele>521.0</ele><time>2026-04-11T09:43:16.922Z</time></trkpt><trkpt lat="43.8624803" lon="12.5414343"><ele>521.0</ele><time>2026-04-11T09:43:17.921Z</time></trkpt><trkpt lat="43.8625404" lon="12.5413463"><ele>521.0</ele><time>2026-04-11T09:43:18.929Z</time></trkpt><trkpt lat="43.8625907" lon="12.5412369"><ele>521.0</ele><time>2026-04-11T09:43:19.921Z</time></trkpt><trkpt lat="43.8626374" lon="12.5411207"><ele>521.0</ele><time>2026-04-11T09:43:20.934Z</time></trkpt><trkpt lat="43.8626752" lon="12.5410151"><ele>521.1666666666666</ele><time>2026-04-11T09:43:21.92Z</time></trkpt><trkpt lat="43.8627097" lon="12.5408975"><ele>521.3333333333333</ele><time>2026-04-11T09:43:22.92Z</time></trkpt><trkpt lat="43.8627292" lon="12.5407766"><ele>521.5</ele><time>2026-04-11T09:43:23.923Z</time></trkpt><trkpt lat="43.8627428" lon="12.5406547"><ele>521.6666666666666</ele><time>2026-04-11T09:43:24.92Z</time></trkpt><trkpt lat="43.8627542" lon="12.5405398"><ele>521.8333333333334</ele><time>2026-04-11T09:43:25.919Z</time></trkpt><trkpt lat="43.8627706" lon="12.540428"><ele>522.0</ele><time>2026-04-11T09:43:26.925Z</time></trkpt><trkpt lat="43.862801" lon="12.5403201"><ele>518.25</ele><time>2026-04-11T09:43:27.924Z</time></trkpt><trkpt lat="43.8628389" lon="12.5402265"><ele>514.5</ele><time>2026-04-11T09:43:28.926Z</time></trkpt><trkpt lat="43.8629836" lon="12.54007"><ele>510.75</ele><time>2026-04-11T09:43:30.923Z</time></trkpt><trkpt lat="43.8630539" lon="12.5399713"><ele>507.0</ele><time>2026-04-11T09:43:31.926Z</time></trkpt><trkpt lat="43.8631021" lon="12.53986"><ele>507.0</ele><time>2026-04-11T09:43:32.928Z</time></trkpt><trkpt lat="43.8631139" lon="12.5397439"><ele>507.0</ele><time>2026-04-11T09:43:33.923Z</time></trkpt><trkpt lat="43.8631153" lon="12.5396396"><ele>507.0</ele><time>2026-04-11T09:43:34.927Z</time></trkpt><trkpt lat="43.8631108" lon="12.5395503"><ele>507.0</ele><time>2026-04-11T09:43:35.924Z</time></trkpt><trkpt lat="43.8630341" lon="12.5394655"><ele>507.0</ele><time>2026-04-11T09:43:37.934Z</time></trkpt><trkpt lat="43.8629369" lon="12.539547"><ele>507.0</ele><time>2026-04-11T09:43:39.932Z</time></trkpt><trkpt lat="43.8628879" lon="12.5396518"><ele>507.0</ele><time>2026-04-11T09:43:40.93Z</time></trkpt><trkpt lat="43.8628358" lon="12.5397538"><ele>507.00000000000006</ele><time>2026-04-11T09:43:41.919Z</time></trkpt><trkpt lat="43.862789" lon="12.5398306"><ele>507.00000000000006</ele><time>2026-04-11T09:43:42.923Z</time></trkpt><trkpt lat="43.8626875" lon="12.5398574"><ele>507.0</ele><time>2026-04-11T09:43:44.93Z</time></trkpt><trkpt lat="43.86264" lon="12.53972"><ele>507.0</ele><time>2026-04-11T09:43:46.926Z</time></trkpt><trkpt lat="43.8626695" lon="12.5396103"><ele>505.40000000000003</ele><time>2026-04-11T09:43:47.925Z</time></trkpt><trkpt lat="43.8627148" lon="12.5394847"><ele>503.80000000000007</ele><time>2026-04-11T09:43:48.921Z</time></trkpt><trkpt lat="43.8627867" lon="12.5393524"><ele>502.2</ele><time>2026-04-11T09:43:49.93Z</time></trkpt><trkpt lat="43.8628535" lon="12.5392189"><ele>500.6</ele><time>2026-04-11T09:43:50.932Z</time></trkpt><trkpt lat="43.8629058" lon="12.5390827"><ele>499.0</ele><time>2026-04-11T09:43:51.934Z</time></trkpt><trkpt lat="43.8629577" lon="12.5389399"><ele>499.0</ele><time>2026-04-11T09:43:52.932Z</time></trkpt><trkpt lat="43.8630039" lon="12.5388021"><ele>499.0</ele><time>2026-04-11T09:43:53.93Z</time></trkpt><trkpt lat="43.8630437" lon="12.5386632"><ele>499.0</ele><time>2026-04-11T09:43:54.932Z</time></trkpt><trkpt lat="43.8630841" lon="12.538525"><ele>499.0</ele><time>2026-04-11T09:43:55.927Z</time></trkpt><trkpt lat="43.8631086" lon="12.5383929"><ele>499.0</ele><time>2026-04-11T09:43:56.934Z</time></trkpt><trkpt lat="43.8631121" lon="12.5382624"><ele>496.4</ele><time>2026-04-11T09:43:57.92Z</time></trkpt><trkpt lat="43.8630918" lon="12.5381482"><ele>493.79999999999995</ele><time>2026-04-11T09:43:58.918Z</time></trkpt><trkpt lat="43.8630382" lon="12.5380678"><ele>491.20000000000005</ele><time>2026-04-11T09:43:59.922Z</time></trkpt><trkpt lat="43.8629487" lon="12.5380164"><ele>488.6</ele><time>2026-04-11T09:44:00.926Z</time></trkpt><trkpt lat="43.8628477" lon="12.5379819"><ele>486.0</ele><time>2026-04-11T09:44:01.923Z</time></trkpt><trkpt lat="43.8627287" lon="12.5379529"><ele>485.75</ele><time>2026-04-11T09:44:02.929Z</time></trkpt><trkpt lat="43.8625973" lon="12.5379259"><ele>485.5</ele><time>2026-04-11T09:44:03.93Z</time></trkpt><trkpt lat="43.8624513" lon="12.5378935"><ele>485.25</ele><time>2026-04-11T09:44:04.925Z</time></trkpt><trkpt lat="43.8623036" lon="12.537861"><ele>485.0</ele><time>2026-04-11T09:44:05.927Z</time></trkpt><trkpt lat="43.8621614" lon="12.5378277"><ele>483.75</ele><time>2026-04-11T09:44:06.924Z</time></trkpt><trkpt lat="43.8620243" lon="12.5377901"><ele>482.5</ele><time>2026-04-11T09:44:07.918Z</time></trkpt><trkpt lat="43.8618961" lon="12.5377501"><ele>481.25</ele><time>2026-04-11T09:44:08.92Z</time></trkpt><trkpt lat="43.8617756" lon="12.5377102"><ele>480.0</ele><time>2026-04-11T09:44:09.921Z</time></trkpt><trkpt lat="43.8616707" lon="12.5376726"><ele>480.0</ele><time>2026-04-11T09:44:10.935Z</time></trkpt><trkpt lat="43.8615812" lon="12.5376398"><ele>480.0</ele><time>2026-04-11T09:44:11.932Z</time></trkpt><trkpt lat="43.8615056" lon="12.537601"><ele>480.0</ele><time>2026-04-11T09:44:12.921Z</time></trkpt><trkpt lat="43.8614529" lon="12.5375296"><ele>480.0</ele><time>2026-04-11T09:44:13.93Z</time></trkpt><trkpt lat="43.8614358" lon="12.5374326"><ele>480.0</ele><time>2026-04-11T09:44:14.929Z</time></trkpt><trkpt lat="43.8614543" lon="12.537337"><ele>480.0</ele><time>2026-04-11T09:44:15.924Z</time></trkpt><trkpt lat="43.8615227" lon="12.5372527"><ele>480.0</ele><time>2026-04-11T09:44:16.925Z</time></trkpt><trkpt lat="43.8616147" lon="12.5371676"><ele>480.0</ele><time>2026-04-11T09:44:17.926Z</time></trkpt><trkpt lat="43.8617283" lon="12.5370944"><ele>480.0</ele><time>2026-04-11T09:44:18.92Z</time></trkpt><trkpt lat="43.8618202" lon="12.5370221"><ele>480.0</ele><time>2026-04-11T09:44:19.927Z</time></trkpt><trkpt lat="43.8618971" lon="12.5369506"><ele>480.0</ele><time>2026-04-11T09:44:20.924Z</time></trkpt><trkpt lat="43.8619451" lon="12.5368499"><ele>481.3333333333333</ele><time>2026-04-11T09:44:21.93Z</time></trkpt><trkpt lat="43.8619685" lon="12.5367512"><ele>482.66666666666663</ele><time>2026-04-11T09:44:22.93Z</time></trkpt><trkpt lat="43.8619638" lon="12.5366352"><ele>484.0</ele><time>2026-04-11T09:44:23.938Z</time></trkpt><trkpt lat="43.8619606" lon="12.5365079"><ele>485.3333333333333</ele><time>2026-04-11T09:44:24.92Z</time></trkpt><trkpt lat="43.8619799" lon="12.5363817"><ele>486.66666666666663</ele><time>2026-04-11T09:44:25.929Z</time></trkpt><trkpt lat="43.8620291" lon="12.5362615"><ele>488.0</ele><time>2026-04-11T09:44:26.921Z</time></trkpt><trkpt lat="43.8620973" lon="12.5361386"><ele>484.59999999999997</ele><time>2026-04-11T09:44:27.931Z</time></trkpt><trkpt lat="43.8621504" lon="12.5359956"><ele>481.19999999999993</ele><time>2026-04-11T09:44:28.925Z</time></trkpt><trkpt lat="43.8621894" lon="12.5358515"><ele>477.8</ele><time>2026-04-11T09:44:29.931Z</time></trkpt><trkpt lat="43.862223" lon="12.5357152"><ele>474.4</ele><time>2026-04-11T09:44:30.932Z</time></trkpt><trkpt lat="43.8622634" lon="12.5355905"><ele>471.0</ele><time>2026-04-11T09:44:31.934Z</time></trkpt><trkpt lat="43.8623088" lon="12.5354886"><ele>471.0</ele><time>2026-04-11T09:44:32.924Z</time></trkpt><trkpt lat="43.862382" lon="12.5354109"><ele>471.0</ele><time>2026-04-11T09:44:33.926Z</time></trkpt><trkpt lat="43.8624565" lon="12.5353347"><ele>471.0</ele><time>2026-04-11T09:44:34.92Z</time></trkpt><trkpt lat="43.8625174" lon="12.5352391"><ele>471.0</ele><time>2026-04-11T09:44:35.927Z</time></trkpt><trkpt lat="43.8625557" lon="12.5351377"><ele>471.0</ele><time>2026-04-11T09:44:36.938Z</time></trkpt><trkpt lat="43.862536" lon="12.5349913"><ele>468.0</ele><time>2026-04-11T09:44:37.926Z</time></trkpt><trkpt lat="43.8625371" lon="12.534845"><ele>465.0</ele><time>2026-04-11T09:44:38.93Z</time></trkpt><trkpt lat="43.8625643" lon="12.5347016"><ele>462.0</ele><time>2026-04-11T09:44:39.931Z</time></trkpt><trkpt lat="43.862627" lon="12.5345829"><ele>459.0</ele><time>2026-04-11T09:44:40.93Z</time></trkpt><trkpt lat="43.8627043" lon="12.5344852"><ele>456.0</ele><time>2026-04-11T09:44:41.927Z</time></trkpt><trkpt lat="43.8627965" lon="12.5343826"><ele>452.25</ele><time>2026-04-11T09:44:42.922Z</time></trkpt><trkpt lat="43.8628777" lon="12.534258"><ele>448.5</ele><time>2026-04-11T09:44:43.932Z</time></trkpt><trkpt lat="43.8629507" lon="12.5341149"><ele>444.75</ele><time>2026-04-11T09:44:44.935Z</time></trkpt><trkpt lat="43.8630259" lon="12.5339642"><ele>441.0</ele><time>2026-04-11T09:44:45.925Z</time></trkpt><trkpt lat="43.8630984" lon="12.5338039"><ele>442.0</ele><time>2026-04-11T09:44:46.921Z</time></trkpt><trkpt lat="43.8631746" lon="12.5336378"><ele>443.0</ele><time>2026-04-11T09:44:47.922Z</time></trkpt><trkpt lat="43.8632493" lon="12.5334669"><ele>444.0</ele><time>2026-04-11T09:44:48.922Z</time></trkpt><trkpt lat="43.8633301" lon="12.5332985"><ele>445.0</ele><time>2026-04-11T09:44:49.924Z</time></trkpt><trkpt lat="43.863407" lon="12.5331438"><ele>443.25</ele><time>2026-04-11T09:44:50.923Z</time></trkpt><trkpt lat="43.8634948" lon="12.5329807"><ele>441.5</ele><time>2026-04-11T09:44:51.923Z</time></trkpt><trkpt lat="43.8635807" lon="12.5328279"><ele>439.75</ele><time>2026-04-11T09:44:52.921Z</time></trkpt><trkpt lat="43.8636692" lon="12.5326769"><ele>438.0</ele><time>2026-04-11T09:44:53.922Z</time></trkpt><trkpt lat="43.8637506" lon="12.5325221"><ele>438.0</ele><time>2026-04-11T09:44:54.929Z</time></trkpt><trkpt lat="43.8638204" lon="12.532349"><ele>438.0</ele><time>2026-04-11T09:44:55.926Z</time></trkpt><trkpt lat="43.8638709" lon="12.5321584"><ele>438.0</ele><time>2026-04-11T09:44:56.924Z</time></trkpt><trkpt lat="43.8638953" lon="12.5319565"><ele>438.0</ele><time>2026-04-11T09:44:57.929Z</time></trkpt><trkpt lat="43.8639065" lon="12.5317532"><ele>439.75</ele><time>2026-04-11T09:44:58.925Z</time></trkpt><trkpt lat="43.863916" lon="12.5315524"><ele>441.5</ele><time>2026-04-11T09:44:59.931Z</time></trkpt><trkpt lat="43.8639279" lon="12.5313531"><ele>443.25</ele><time>2026-04-11T09:45:00.926Z</time></trkpt><trkpt lat="43.8639494" lon="12.5311542"><ele>445.0</ele><time>2026-04-11T09:45:01.923Z</time></trkpt><trkpt lat="43.8639703" lon="12.5309556"><ele>445.0</ele><time>2026-04-11T09:45:02.927Z</time></trkpt><trkpt lat="43.8640109" lon="12.5307923"><ele>445.0</ele><time>2026-04-11T09:45:03.933Z</time></trkpt><trkpt lat="43.864043" lon="12.5306188"><ele>445.0</ele><time>2026-04-11T09:45:04.932Z</time></trkpt><trkpt lat="43.8641" lon="12.5304475"><ele>445.0</ele><time>2026-04-11T09:45:05.924Z</time></trkpt><trkpt lat="43.8641518" lon="12.5302716"><ele>443.75</ele><time>2026-04-11T09:45:06.925Z</time></trkpt><trkpt lat="43.8641975" lon="12.5300825"><ele>442.5</ele><time>2026-04-11T09:45:07.927Z</time></trkpt><trkpt lat="43.8642263" lon="12.5298852"><ele>441.25</ele><time>2026-04-11T09:45:08.93Z</time></trkpt><trkpt lat="43.86424" lon="12.5296737"><ele>440.0</ele><time>2026-04-11T09:45:09.924Z</time></trkpt><trkpt lat="43.8642444" lon="12.5294542"><ele>439.3333333333333</ele><time>2026-04-11T09:45:10.93Z</time></trkpt><trkpt lat="43.8642408" lon="12.5292314"><ele>438.66666666666663</ele><time>2026-04-11T09:45:11.928Z</time></trkpt><trkpt lat="43.8642348" lon="12.5290124"><ele>438.0</ele><time>2026-04-11T09:45:12.923Z</time></trkpt><trkpt lat="43.8642286" lon="12.5287795"><ele>438.0</ele><time>2026-04-11T09:45:13.923Z</time></trkpt><trkpt lat="43.8642227" lon="12.5285481"><ele>438.0</ele><time>2026-04-11T09:45:14.927Z</time></trkpt><trkpt lat="43.8642306" lon="12.5283162"><ele>438.0</ele><time>2026-04-11T09:45:15.928Z</time></trkpt><trkpt lat="43.8642546" lon="12.5280828"><ele>438.75</ele><time>2026-04-11T09:45:16.918Z</time></trkpt><trkpt lat="43.8642823" lon="12.5278656"><ele>439.5</ele><time>2026-04-11T09:45:17.929Z</time></trkpt><trkpt lat="43.8642944" lon="12.5276651"><ele>440.25</ele><time>2026-04-11T09:45:18.926Z</time></trkpt><trkpt lat="43.8642819" lon="12.5274652"><ele>441.0</ele><time>2026-04-11T09:45:19.933Z</time></trkpt><trkpt lat="43.86425" lon="12.5272853"><ele>441.0</ele><time>2026-04-11T09:45:20.926Z</time></trkpt><trkpt lat="43.8642042" lon="12.5271191"><ele>441.0</ele><time>2026-04-11T09:45:21.921Z</time></trkpt><trkpt lat="43.8641622" lon="12.5269563"><ele>441.0</ele><time>2026-04-11T09:45:22.925Z</time></trkpt><trkpt lat="43.8641238" lon="12.5268031"><ele>441.0</ele><time>2026-04-11T09:45:23.926Z</time></trkpt><trkpt lat="43.8641006" lon="12.5266565"><ele>441.0</ele><time>2026-04-11T09:45:24.93Z</time></trkpt><trkpt lat="43.8640718" lon="12.5265133"><ele>441.0</ele><time>2026-04-11T09:45:25.922Z</time></trkpt><trkpt lat="43.86403" lon="12.526381"><ele>441.0</ele><time>2026-04-11T09:45:26.928Z</time></trkpt><trkpt lat="43.8639734" lon="12.5262557"><ele>441.0</ele><time>2026-04-11T09:45:27.923Z</time></trkpt><trkpt lat="43.8638986" lon="12.5261505"><ele>441.0</ele><time>2026-04-11T09:45:28.92Z</time></trkpt><trkpt lat="43.8638103" lon="12.5260689"><ele>441.0</ele><time>2026-04-11T09:45:29.927Z</time></trkpt><trkpt lat="43.8637228" lon="12.5259882"><ele>441.0</ele><time>2026-04-11T09:45:30.93Z</time></trkpt><trkpt lat="43.863634" lon="12.5258955"><ele>441.0</ele><time>2026-04-11T09:45:31.922Z</time></trkpt><trkpt lat="43.8635489" lon="12.5257893"><ele>441.0</ele><time>2026-04-11T09:45:32.927Z</time></trkpt><trkpt lat="43.8634562" lon="12.5256779"><ele>443.0</ele><time>2026-04-11T09:45:33.933Z</time></trkpt><trkpt lat="43.8633485" lon="12.525575"><ele>445.0</ele><time>2026-04-11T09:45:34.93Z</time></trkpt><trkpt lat="43.863249" lon="12.5254778"><ele>447.0</ele><time>2026-04-11T09:45:35.92Z</time></trkpt><trkpt lat="43.8631562" lon="12.525387"><ele>449.0</ele><time>2026-04-11T09:45:36.926Z</time></trkpt><trkpt lat="43.8630515" lon="12.5253179"><ele>451.75</ele><time>2026-04-11T09:45:37.929Z</time></trkpt><trkpt lat="43.86294" lon="12.5252806"><ele>454.5</ele><time>2026-04-11T09:45:38.93Z</time></trkpt><trkpt lat="43.8628277" lon="12.5252508"><ele>457.25</ele><time>2026-04-11T09:45:39.928Z</time></trkpt><trkpt lat="43.8627143" lon="12.5252451"><ele>460.0</ele><time>2026-04-11T09:45:40.932Z</time></trkpt><trkpt lat="43.8626024" lon="12.5253065"><ele>460.0</ele><time>2026-04-11T09:45:41.926Z</time></trkpt><trkpt lat="43.8624991" lon="12.525327"><ele>460.0</ele><time>2026-04-11T09:45:42.921Z</time></trkpt><trkpt lat="43.8624068" lon="12.5253402"><ele>460.0</ele><time>2026-04-11T09:45:43.922Z</time></trkpt><trkpt lat="43.8623309" lon="12.5253383"><ele>460.0</ele><time>2026-04-11T09:45:44.928Z</time></trkpt><trkpt lat="43.862265" lon="12.5252695"><ele>460.0</ele><time>2026-04-11T09:45:45.932Z</time></trkpt><trkpt lat="43.8622285" lon="12.52512"><ele>460.0</ele><time>2026-04-11T09:45:46.93Z</time></trkpt><trkpt lat="43.8622084" lon="12.5249994"><ele>460.0</ele><time>2026-04-11T09:45:47.923Z</time></trkpt><trkpt lat="43.8622155" lon="12.5248573"><ele>460.0</ele><time>2026-04-11T09:45:48.93Z</time></trkpt><trkpt lat="43.8622227" lon="12.5247011"><ele>460.0</ele><time>2026-04-11T09:45:49.919Z</time></trkpt><trkpt lat="43.8622205" lon="12.5245399"><ele>460.0</ele><time>2026-04-11T09:45:50.924Z</time></trkpt><trkpt lat="43.8621967" lon="12.5243766"><ele>459.75</ele><time>2026-04-11T09:45:51.93Z</time></trkpt><trkpt lat="43.8621519" lon="12.5242008"><ele>459.5</ele><time>2026-04-11T09:45:52.921Z</time></trkpt><trkpt lat="43.8621111" lon="12.5240329"><ele>459.25</ele><time>2026-04-11T09:45:53.922Z</time></trkpt><trkpt lat="43.8620732" lon="12.5238782"><ele>459.0</ele><time>2026-04-11T09:45:54.923Z</time></trkpt><trkpt lat="43.8620409" lon="12.5237254"><ele>456.79999999999995</ele><time>2026-04-11T09:45:55.928Z</time></trkpt><trkpt lat="43.8620481" lon="12.5235835"><ele>454.59999999999997</ele><time>2026-04-11T09:45:56.921Z</time></trkpt><trkpt lat="43.8620668" lon="12.5234497"><ele>452.4</ele><time>2026-04-11T09:45:57.923Z</time></trkpt><trkpt lat="43.8621065" lon="12.5233197"><ele>450.2</ele><time>2026-04-11T09:45:58.924Z</time></trkpt><trkpt lat="43.8621342" lon="12.5231953"><ele>448.0</ele><time>2026-04-11T09:45:59.922Z</time></trkpt><trkpt lat="43.8621356" lon="12.5230697"><ele>448.0</ele><time>2026-04-11T09:46:00.921Z</time></trkpt><trkpt lat="43.8621044" lon="12.5229434"><ele>447.99999999999994</ele><time>2026-04-11T09:46:01.925Z</time></trkpt><trkpt lat="43.8620656" lon="12.5228168"><ele>447.99999999999994</ele><time>2026-04-11T09:46:02.926Z</time></trkpt><trkpt lat="43.8619727" lon="12.5227354"><ele>448.0</ele><time>2026-04-11T09:46:03.93Z</time></trkpt><trkpt lat="43.8619009" lon="12.5226412"><ele>448.0</ele><time>2026-04-11T09:46:04.932Z</time></trkpt><trkpt lat="43.8618546" lon="12.5225429"><ele>447.0</ele><time>2026-04-11T09:46:05.926Z</time></trkpt><trkpt lat="43.8618484" lon="12.522437"><ele>445.99999999999994</ele><time>2026-04-11T09:46:06.922Z</time></trkpt><trkpt lat="43.8618808" lon="12.5223403"><ele>444.99999999999994</ele><time>2026-04-11T09:46:07.926Z</time></trkpt><trkpt lat="43.8619449" lon="12.5222588"><ele>444.0</ele><time>2026-04-11T09:46:08.922Z</time></trkpt><trkpt lat="43.8620329" lon="12.5221762"><ele>443.0</ele><time>2026-04-11T09:46:09.93Z</time></trkpt><trkpt lat="43.8621315" lon="12.522081"><ele>441.25</ele><time>2026-04-11T09:46:10.927Z</time></trkpt><trkpt lat="43.862249" lon="12.5219814"><ele>439.5</ele><time>2026-04-11T09:46:11.928Z</time></trkpt><trkpt lat="43.8623741" lon="12.5218742"><ele>437.75</ele><time>2026-04-11T09:46:12.929Z</time></trkpt><trkpt lat="43.8624927" lon="12.5217697"><ele>436.0</ele><time>2026-04-11T09:46:13.925Z</time></trkpt><trkpt lat="43.8626091" lon="12.5216653"><ele>435.25</ele><time>2026-04-11T09:46:14.93Z</time></trkpt><trkpt lat="43.8627182" lon="12.521559"><ele>434.5</ele><time>2026-04-11T09:46:15.922Z</time></trkpt><trkpt lat="43.8628192" lon="12.521462"><ele>433.75</ele><time>2026-04-11T09:46:16.931Z</time></trkpt><trkpt lat="43.8629117" lon="12.5213678"><ele>433.0</ele><time>2026-04-11T09:46:17.923Z</time></trkpt><trkpt lat="43.8629998" lon="12.5212839"><ele>432.1666666666667</ele><time>2026-04-11T09:46:18.923Z</time></trkpt><trkpt lat="43.8630735" lon="12.5212237"><ele>431.33333333333337</ele><time>2026-04-11T09:46:19.928Z</time></trkpt><trkpt lat="43.863142" lon="12.52119"><ele>430.5</ele><time>2026-04-11T09:46:20.927Z</time></trkpt><trkpt lat="43.8632084" lon="12.5211765"><ele>429.66666666666663</ele><time>2026-04-11T09:46:21.926Z</time></trkpt><trkpt lat="43.8632725" lon="12.5211567"><ele>428.8333333333333</ele><time>2026-04-11T09:46:22.925Z</time></trkpt><trkpt lat="43.8633295" lon="12.5211098"><ele>428.0</ele><time>2026-04-11T09:46:23.931Z</time></trkpt><trkpt lat="43.8634127" lon="12.5209653"><ele>428.0</ele><time>2026-04-11T09:46:25.922Z</time></trkpt><trkpt lat="43.8634326" lon="12.5208528"><ele>427.99999999999994</ele><time>2026-04-11T09:46:26.933Z</time></trkpt><trkpt lat="43.8634129" lon="12.5207178"><ele>427.99999999999994</ele><time>2026-04-11T09:46:27.928Z</time></trkpt><trkpt lat="43.8633859" lon="12.5206018"><ele>428.0</ele><time>2026-04-11T09:46:28.928Z</time></trkpt><trkpt lat="43.8633377" lon="12.5205012"><ele>428.0</ele><time>2026-04-11T09:46:29.921Z</time></trkpt><trkpt lat="43.863244" lon="12.5203982"><ele>426.0</ele><time>2026-04-11T09:46:30.923Z</time></trkpt><trkpt lat="43.8631446" lon="12.5202906"><ele>424.0</ele><time>2026-04-11T09:46:31.924Z</time></trkpt><trkpt lat="43.863059" lon="12.5201754"><ele>422.0</ele><time>2026-04-11T09:46:32.924Z</time></trkpt><trkpt lat="43.8629722" lon="12.5200662"><ele>420.0</ele><time>2026-04-11T09:46:33.92Z</time></trkpt><trkpt lat="43.8628868" lon="12.5199428"><ele>420.0</ele><time>2026-04-11T09:46:34.924Z</time></trkpt><trkpt lat="43.8628052" lon="12.5198101"><ele>420.0</ele><time>2026-04-11T09:46:35.931Z</time></trkpt><trkpt lat="43.862747" lon="12.5196719"><ele>420.0</ele><time>2026-04-11T09:46:36.929Z</time></trkpt><trkpt lat="43.8627094" lon="12.5195148"><ele>420.0</ele><time>2026-04-11T09:46:37.925Z</time></trkpt><trkpt lat="43.8627057" lon="12.519353"><ele>418.25</ele><time>2026-04-11T09:46:38.922Z</time></trkpt><trkpt lat="43.8627158" lon="12.5191811"><ele>416.5</ele><time>2026-04-11T09:46:39.921Z</time></trkpt><trkpt lat="43.8627248" lon="12.5190083"><ele>414.75</ele><time>2026-04-11T09:46:40.925Z</time></trkpt><trkpt lat="43.8627058" lon="12.5188378"><ele>413.0</ele><time>2026-04-11T09:46:41.921Z</time></trkpt><trkpt lat="43.8626967" lon="12.5186771"><ele>417.0</ele><time>2026-04-11T09:46:42.924Z</time></trkpt><trkpt lat="43.8625925" lon="12.5185267"><ele>421.0</ele><time>2026-04-11T09:46:43.921Z</time></trkpt><trkpt lat="43.8625001" lon="12.5183769"><ele>425.0</ele><time>2026-04-11T09:46:44.925Z</time></trkpt><trkpt lat="43.8623984" lon="12.5182244"><ele>429.0</ele><time>2026-04-11T09:46:45.922Z</time></trkpt><trkpt lat="43.862287" lon="12.5180716"><ele>427.33333333333337</ele><time>2026-04-11T09:46:46.925Z</time></trkpt><trkpt lat="43.8621637" lon="12.5178866"><ele>425.6666666666667</ele><time>2026-04-11T09:46:47.93Z</time></trkpt><trkpt lat="43.8620445" lon="12.5176942"><ele>424.0</ele><time>2026-04-11T09:46:48.931Z</time></trkpt><trkpt lat="43.8619323" lon="12.5175194"><ele>424.0</ele><time>2026-04-11T09:46:49.93Z</time></trkpt><trkpt lat="43.8618208" lon="12.5173506"><ele>424.0</ele><time>2026-04-11T09:46:50.921Z</time></trkpt><trkpt lat="43.8617103" lon="12.5171878"><ele>424.0</ele><time>2026-04-11T09:46:51.921Z</time></trkpt><trkpt lat="43.8616057" lon="12.5170305"><ele>426.75</ele><time>2026-04-11T09:46:52.921Z</time></trkpt><trkpt lat="43.8615023" lon="12.5168799"><ele>429.5</ele><time>2026-04-11T09:46:53.922Z</time></trkpt><trkpt lat="43.8614033" lon="12.5167203"><ele>432.25</ele><time>2026-04-11T09:46:54.933Z</time></trkpt><trkpt lat="43.8613018" lon="12.5165732"><ele>435.0</ele><time>2026-04-11T09:46:55.92Z</time></trkpt><trkpt lat="43.8612167" lon="12.5164347"><ele>435.0</ele><time>2026-04-11T09:46:56.925Z</time></trkpt><trkpt lat="43.8611431" lon="12.516299"><ele>435.0</ele><time>2026-04-11T09:46:57.923Z</time></trkpt><trkpt lat="43.8610728" lon="12.5161492"><ele>435.0</ele><time>2026-04-11T09:46:58.917Z</time></trkpt><trkpt lat="43.8610094" lon="12.5159705"><ele>435.0</ele><time>2026-04-11T09:46:59.923Z</time></trkpt><trkpt lat="43.8609493" lon="12.5157859"><ele>437.0</ele><time>2026-04-11T09:47:00.924Z</time></trkpt><trkpt lat="43.8608805" lon="12.5155894"><ele>439.0</ele><time>2026-04-11T09:47:01.924Z</time></trkpt><trkpt lat="43.8608157" lon="12.5153835"><ele>441.0</ele><time>2026-04-11T09:47:02.923Z</time></trkpt><trkpt lat="43.8607398" lon="12.5151586"><ele>443.66666666666663</ele><time>2026-04-11T09:47:03.924Z</time></trkpt><trkpt lat="43.8606673" lon="12.5149422"><ele>446.3333333333333</ele><time>2026-04-11T09:47:04.926Z</time></trkpt><trkpt lat="43.8606007" lon="12.5147091"><ele>449.0</ele><time>2026-04-11T09:47:05.918Z</time></trkpt><trkpt lat="43.8605294" lon="12.5144758"><ele>449.25</ele><time>2026-04-11T09:47:06.922Z</time></trkpt><trkpt lat="43.8604661" lon="12.5142729"><ele>449.5</ele><time>2026-04-11T09:47:07.929Z</time></trkpt><trkpt lat="43.8604052" lon="12.5140861"><ele>449.75</ele><time>2026-04-11T09:47:08.922Z</time></trkpt><trkpt lat="43.8603609" lon="12.513925"><ele>450.0</ele><time>2026-04-11T09:47:09.928Z</time></trkpt><trkpt lat="43.8603195" lon="12.5137887"><ele>449.1666666666667</ele><time>2026-04-11T09:47:10.929Z</time></trkpt><trkpt lat="43.8602775" lon="12.5136703"><ele>448.33333333333337</ele><time>2026-04-11T09:47:11.925Z</time></trkpt><trkpt lat="43.8602287" lon="12.5135719"><ele>447.5</ele><time>2026-04-11T09:47:12.931Z</time></trkpt><trkpt lat="43.8601651" lon="12.5135038"><ele>446.6666666666667</ele><time>2026-04-11T09:47:13.927Z</time></trkpt><trkpt lat="43.8600857" lon="12.5134731"><ele>445.83333333333337</ele><time>2026-04-11T09:47:14.921Z</time></trkpt><trkpt lat="43.8600056" lon="12.5134872"><ele>445.0</ele><time>2026-04-11T09:47:15.922Z</time></trkpt><trkpt lat="43.8599201" lon="12.513537"><ele>447.1666666666667</ele><time>2026-04-11T09:47:16.927Z</time></trkpt><trkpt lat="43.8598382" lon="12.5136085"><ele>449.33333333333337</ele><time>2026-04-11T09:47:17.924Z</time></trkpt><trkpt lat="43.8597501" lon="12.5136812"><ele>451.5</ele><time>2026-04-11T09:47:18.923Z</time></trkpt><trkpt lat="43.8596738" lon="12.5137222"><ele>453.66666666666663</ele><time>2026-04-11T09:47:19.925Z</time></trkpt><trkpt lat="43.8595934" lon="12.5137498"><ele>455.8333333333333</ele><time>2026-04-11T09:47:20.928Z</time></trkpt><trkpt lat="43.8595235" lon="12.5137046"><ele>458.0</ele><time>2026-04-11T09:47:21.927Z</time></trkpt><trkpt lat="43.8594581" lon="12.5136295"><ele>459.5</ele><time>2026-04-11T09:47:22.922Z</time></trkpt><trkpt lat="43.8594038" lon="12.5135102"><ele>461.0</ele><time>2026-04-11T09:47:23.928Z</time></trkpt><trkpt lat="43.8593549" lon="12.5133735"><ele>462.5</ele><time>2026-04-11T09:47:24.923Z</time></trkpt><trkpt lat="43.8593067" lon="12.5132196"><ele>464.0</ele><time>2026-04-11T09:47:25.926Z</time></trkpt><trkpt lat="43.8592561" lon="12.5130554"><ele>466.5</ele><time>2026-04-11T09:47:26.923Z</time></trkpt><trkpt lat="43.8592022" lon="12.5128881"><ele>469.0</ele><time>2026-04-11T09:47:27.929Z</time></trkpt><trkpt lat="43.8591454" lon="12.5127243"><ele>471.5</ele><time>2026-04-11T09:47:28.929Z</time></trkpt><trkpt lat="43.8590933" lon="12.5125654"><ele>474.0</ele><time>2026-04-11T09:47:29.932Z</time></trkpt><trkpt lat="43.8590348" lon="12.5124212"><ele>474.0</ele><time>2026-04-11T09:47:30.924Z</time></trkpt><trkpt lat="43.8589537" lon="12.5122921"><ele>474.0</ele><time>2026-04-11T09:47:31.921Z</time></trkpt><trkpt lat="43.8588571" lon="12.5121827"><ele>474.0</ele><time>2026-04-11T09:47:32.923Z</time></trkpt><trkpt lat="43.8587511" lon="12.5120709"><ele>474.0</ele><time>2026-04-11T09:47:33.921Z</time></trkpt><trkpt lat="43.8586405" lon="12.5119471"><ele>473.0</ele><time>2026-04-11T09:47:34.928Z</time></trkpt><trkpt lat="43.8585371" lon="12.5118078"><ele>472.0</ele><time>2026-04-11T09:47:35.919Z</time></trkpt><trkpt lat="43.8584371" lon="12.5116686"><ele>471.0</ele><time>2026-04-11T09:47:36.929Z</time></trkpt><trkpt lat="43.8583268" lon="12.5115559"><ele>470.0</ele><time>2026-04-11T09:47:37.926Z</time></trkpt><trkpt lat="43.8582198" lon="12.5114445"><ele>473.5</ele><time>2026-04-11T09:47:38.922Z</time></trkpt><trkpt lat="43.8580768" lon="12.5114304"><ele>477.0</ele><time>2026-04-11T09:47:39.924Z</time></trkpt><trkpt lat="43.8579267" lon="12.5114354"><ele>480.5</ele><time>2026-04-11T09:47:40.928Z</time></trkpt><trkpt lat="43.8577721" lon="12.5114631"><ele>484.0</ele><time>2026-04-11T09:47:41.928Z</time></trkpt><trkpt lat="43.8576206" lon="12.5115029"><ele>486.5</ele><time>2026-04-11T09:47:42.931Z</time></trkpt><trkpt lat="43.8574777" lon="12.5115291"><ele>489.0</ele><time>2026-04-11T09:47:43.926Z</time></trkpt><trkpt lat="43.8573533" lon="12.5115525"><ele>491.5</ele><time>2026-04-11T09:47:44.922Z</time></trkpt><trkpt lat="43.8572383" lon="12.5115775"><ele>494.0</ele><time>2026-04-11T09:47:45.92Z</time></trkpt><trkpt lat="43.8571197" lon="12.5115944"><ele>494.0</ele><time>2026-04-11T09:47:46.917Z</time></trkpt><trkpt lat="43.85701" lon="12.5115908"><ele>494.0</ele><time>2026-04-11T09:47:47.919Z</time></trkpt><trkpt lat="43.8568933" lon="12.5115699"><ele>494.0</ele><time>2026-04-11T09:47:48.929Z</time></trkpt><trkpt lat="43.8567733" lon="12.5115359"><ele>494.0</ele><time>2026-04-11T09:47:49.928Z</time></trkpt><trkpt lat="43.856647" lon="12.5114917"><ele>496.0</ele><time>2026-04-11T09:47:50.922Z</time></trkpt><trkpt lat="43.8565214" lon="12.5114362"><ele>498.0</ele><time>2026-04-11T09:47:51.924Z</time></trkpt><trkpt lat="43.8564071" lon="12.5113835"><ele>500.0</ele><time>2026-04-11T09:47:52.927Z</time></trkpt><trkpt lat="43.8563066" lon="12.5113356"><ele>502.0</ele><time>2026-04-11T09:47:53.925Z</time></trkpt><trkpt lat="43.8562209" lon="12.5112869"><ele>504.1666666666667</ele><time>2026-04-11T09:47:54.919Z</time></trkpt><trkpt lat="43.8561531" lon="12.51123"><ele>506.33333333333337</ele><time>2026-04-11T09:47:55.917Z</time></trkpt><trkpt lat="43.8560975" lon="12.5111469"><ele>508.5</ele><time>2026-04-11T09:47:56.929Z</time></trkpt><trkpt lat="43.8560513" lon="12.5110604"><ele>510.66666666666663</ele><time>2026-04-11T09:47:57.926Z</time></trkpt><trkpt lat="43.8560227" lon="12.5109598"><ele>512.8333333333333</ele><time>2026-04-11T09:47:58.928Z</time></trkpt><trkpt lat="43.8560237" lon="12.5108469"><ele>515.0</ele><time>2026-04-11T09:47:59.923Z</time></trkpt><trkpt lat="43.8560549" lon="12.5107327"><ele>515.0</ele><time>2026-04-11T09:48:00.923Z</time></trkpt><trkpt lat="43.8561084" lon="12.5106205"><ele>515.0</ele><time>2026-04-11T09:48:01.924Z</time></trkpt><trkpt lat="43.8561602" lon="12.5105027"><ele>515.0</ele><time>2026-04-11T09:48:02.922Z</time></trkpt><trkpt lat="43.8562076" lon="12.5103625"><ele>515.0</ele><time>2026-04-11T09:48:03.927Z</time></trkpt><trkpt lat="43.8562444" lon="12.510223"><ele>515.0</ele><time>2026-04-11T09:48:04.925Z</time></trkpt><trkpt lat="43.8562569" lon="12.5100717"><ele>516.4</ele><time>2026-04-11T09:48:05.931Z</time></trkpt><trkpt lat="43.8562507" lon="12.5099304"><ele>517.8</ele><time>2026-04-11T09:48:06.926Z</time></trkpt><trkpt lat="43.8562351" lon="12.5098106"><ele>519.2</ele><time>2026-04-11T09:48:07.92Z</time></trkpt><trkpt lat="43.856227" lon="12.5097103"><ele>520.6</ele><time>2026-04-11T09:48:08.927Z</time></trkpt><trkpt lat="43.8562597" lon="12.5095659"><ele>522.0</ele><time>2026-04-11T09:48:10.931Z</time></trkpt><trkpt lat="43.8563424" lon="12.5094887"><ele>522.6666666666666</ele><time>2026-04-11T09:48:12.919Z</time></trkpt><trkpt lat="43.8564448" lon="12.5094699"><ele>523.3333333333334</ele><time>2026-04-11T09:48:14.928Z</time></trkpt><trkpt lat="43.8565113" lon="12.5094582"><ele>524.0</ele><time>2026-04-11T09:48:16.924Z</time></trkpt><trkpt lat="43.8565678" lon="12.5093589"><ele>524.6666666666667</ele><time>2026-04-11T09:48:18.917Z</time></trkpt><trkpt lat="43.8566097" lon="12.5092187"><ele>525.3333333333334</ele><time>2026-04-11T09:48:20.925Z</time></trkpt><trkpt lat="43.8566106" lon="12.5091098"><ele>526.0</ele><time>2026-04-11T09:48:23.917Z</time></trkpt><trkpt lat="43.8565369" lon="12.5090844"><ele>526.0</ele><time>2026-04-11T09:48:25.921Z</time></trkpt><trkpt lat="43.8564385" lon="12.5090601"><ele>526.0</ele><time>2026-04-11T09:48:27.92Z</time></trkpt><trkpt lat="43.8563763" lon="12.5090268"><ele>526.0</ele><time>2026-04-11T09:48:28.925Z</time></trkpt><trkpt lat="43.856322" lon="12.5089793"><ele>526.0</ele><time>2026-04-11T09:48:29.924Z</time></trkpt><trkpt lat="43.8562691" lon="12.508915"><ele>526.0</ele><time>2026-04-11T09:48:30.918Z</time></trkpt><trkpt lat="43.8562069" lon="12.5088423"><ele>526.0</ele><time>2026-04-11T09:48:31.924Z</time></trkpt><trkpt lat="43.8561492" lon="12.5087585"><ele>526.0</ele><time>2026-04-11T09:48:32.924Z</time></trkpt><trkpt lat="43.8560963" lon="12.508666"><ele>526.0</ele><time>2026-04-11T09:48:33.924Z</time></trkpt><trkpt lat="43.8560566" lon="12.5085734"><ele>526.0</ele><time>2026-04-11T09:48:34.919Z</time></trkpt><trkpt lat="43.8560242" lon="12.508474"><ele>526.0</ele><time>2026-04-11T09:48:35.924Z</time></trkpt><trkpt lat="43.8559794" lon="12.5083711"><ele>526.0</ele><time>2026-04-11T09:48:36.925Z</time></trkpt><trkpt lat="43.8559212" lon="12.5082863"><ele>526.0</ele><time>2026-04-11T09:48:37.921Z</time></trkpt><trkpt lat="43.8558417" lon="12.5082016"><ele>525.75</ele><time>2026-04-11T09:48:38.93Z</time></trkpt><trkpt lat="43.8557459" lon="12.5081207"><ele>525.5</ele><time>2026-04-11T09:48:39.923Z</time></trkpt><trkpt lat="43.8556467" lon="12.5080416"><ele>525.25</ele><time>2026-04-11T09:48:40.926Z</time></trkpt><trkpt lat="43.8555499" lon="12.5079579"><ele>525.0</ele><time>2026-04-11T09:48:41.923Z</time></trkpt><trkpt lat="43.8554524" lon="12.5078785"><ele>524.0</ele><time>2026-04-11T09:48:42.923Z</time></trkpt><trkpt lat="43.8553486" lon="12.5077842"><ele>523.0</ele><time>2026-04-11T09:48:43.922Z</time></trkpt><trkpt lat="43.855246" lon="12.507677"><ele>522.0</ele><time>2026-04-11T09:48:44.921Z</time></trkpt><trkpt lat="43.8551441" lon="12.5075568"><ele>521.0</ele><time>2026-04-11T09:48:45.928Z</time></trkpt><trkpt lat="43.8550455" lon="12.5074217"><ele>521.0</ele><time>2026-04-11T09:48:46.931Z</time></trkpt><trkpt lat="43.8549507" lon="12.5072842"><ele>521.0</ele><time>2026-04-11T09:48:47.919Z</time></trkpt><trkpt lat="43.8548611" lon="12.5071587"><ele>521.0</ele><time>2026-04-11T09:48:48.929Z</time></trkpt><trkpt lat="43.8547676" lon="12.5070449"><ele>521.0</ele><time>2026-04-11T09:48:49.921Z</time></trkpt><trkpt lat="43.8546695" lon="12.506956"><ele>520.5</ele><time>2026-04-11T09:48:50.921Z</time></trkpt><trkpt lat="43.8545614" lon="12.5069126"><ele>520.0</ele><time>2026-04-11T09:48:51.922Z</time></trkpt><trkpt lat="43.8544551" lon="12.5069133"><ele>519.5</ele><time>2026-04-11T09:48:52.93Z</time></trkpt><trkpt lat="43.8543343" lon="12.5069409"><ele>519.0</ele><time>2026-04-11T09:48:53.925Z</time></trkpt><trkpt lat="43.8542155" lon="12.5069956"><ele>519.0</ele><time>2026-04-11T09:48:54.926Z</time></trkpt><trkpt lat="43.8540953" lon="12.507047"><ele>519.0</ele><time>2026-04-11T09:48:55.92Z</time></trkpt><trkpt lat="43.8539796" lon="12.5070949"><ele>519.0</ele><time>2026-04-11T09:48:56.924Z</time></trkpt><trkpt lat="43.8538641" lon="12.5071425"><ele>519.0</ele><time>2026-04-11T09:48:57.92Z</time></trkpt><trkpt lat="43.8537519" lon="12.5071886"><ele>516.25</ele><time>2026-04-11T09:48:58.924Z</time></trkpt><trkpt lat="43.8536417" lon="12.5072365"><ele>513.5</ele><time>2026-04-11T09:48:59.923Z</time></trkpt><trkpt lat="43.8535303" lon="12.5072862"><ele>510.75</ele><time>2026-04-11T09:49:00.922Z</time></trkpt><trkpt lat="43.8534241" lon="12.5073355"><ele>508.0</ele><time>2026-04-11T09:49:01.923Z</time></trkpt><trkpt lat="43.8533192" lon="12.5073888"><ele>505.75</ele><time>2026-04-11T09:49:02.933Z</time></trkpt><trkpt lat="43.8532165" lon="12.5074411"><ele>503.5</ele><time>2026-04-11T09:49:03.935Z</time></trkpt><trkpt lat="43.8531075" lon="12.5074879"><ele>501.25</ele><time>2026-04-11T09:49:04.923Z</time></trkpt><trkpt lat="43.8529925" lon="12.5075326"><ele>499.0</ele><time>2026-04-11T09:49:05.928Z</time></trkpt><trkpt lat="43.8528701" lon="12.5075686"><ele>499.0</ele><time>2026-04-11T09:49:06.922Z</time></trkpt><trkpt lat="43.8527369" lon="12.5075978"><ele>499.0</ele><time>2026-04-11T09:49:07.928Z</time></trkpt><trkpt lat="43.8526068" lon="12.5076227"><ele>499.0</ele><time>2026-04-11T09:49:08.924Z</time></trkpt><trkpt lat="43.8524785" lon="12.507646"><ele>499.0</ele><time>2026-04-11T09:49:09.92Z</time></trkpt><trkpt lat="43.8523535" lon="12.5076704"><ele>497.5</ele><time>2026-04-11T09:49:10.925Z</time></trkpt><trkpt lat="43.8522326" lon="12.507673"><ele>496.0</ele><time>2026-04-11T09:49:11.92Z</time></trkpt><trkpt lat="43.852114" lon="12.5076551"><ele>494.5</ele><time>2026-04-11T09:49:12.92Z</time></trkpt><trkpt lat="43.8520001" lon="12.5076125"><ele>493.0</ele><time>2026-04-11T09:49:13.92Z</time></trkpt><trkpt lat="43.8518759" lon="12.5075615"><ele>492.0</ele><time>2026-04-11T09:49:14.923Z</time></trkpt><trkpt lat="43.8517372" lon="12.5075091"><ele>491.0</ele><time>2026-04-11T09:49:15.929Z</time></trkpt><trkpt lat="43.8515983" lon="12.5074633"><ele>490.0</ele><time>2026-04-11T09:49:16.919Z</time></trkpt><trkpt lat="43.8514618" lon="12.5073936"><ele>489.0</ele><time>2026-04-11T09:49:17.928Z</time></trkpt><trkpt lat="43.8513295" lon="12.5073346"><ele>489.0</ele><time>2026-04-11T09:49:18.923Z</time></trkpt><trkpt lat="43.851197" lon="12.5072769"><ele>489.0</ele><time>2026-04-11T09:49:19.921Z</time></trkpt><trkpt lat="43.8510578" lon="12.5072202"><ele>489.0</ele><time>2026-04-11T09:49:20.929Z</time></trkpt><trkpt lat="43.8509182" lon="12.5071632"><ele>489.0</ele><time>2026-04-11T09:49:21.921Z</time></trkpt><trkpt lat="43.8507808" lon="12.5071075"><ele>486.75</ele><time>2026-04-11T09:49:22.925Z</time></trkpt><trkpt lat="43.8506459" lon="12.5070389"><ele>484.5</ele><time>2026-04-11T09:49:23.92Z</time></trkpt><trkpt lat="43.8505197" lon="12.5069777"><ele>482.25</ele><time>2026-04-11T09:49:24.925Z</time></trkpt><trkpt lat="43.8503976" lon="12.5069258"><ele>480.0</ele><time>2026-04-11T09:49:25.931Z</time></trkpt><trkpt lat="43.8502832" lon="12.5068725"><ele>480.0</ele><time>2026-04-11T09:49:26.926Z</time></trkpt><trkpt lat="43.850171" lon="12.50682"><ele>480.0</ele><time>2026-04-11T09:49:27.921Z</time></trkpt><trkpt lat="43.8500682" lon="12.5067678"><ele>480.0</ele><time>2026-04-11T09:49:28.919Z</time></trkpt><trkpt lat="43.8499667" lon="12.5067607"><ele>480.0</ele><time>2026-04-11T09:49:29.924Z</time></trkpt><trkpt lat="43.8498761" lon="12.5067902"><ele>480.0</ele><time>2026-04-11T09:49:30.923Z</time></trkpt><trkpt lat="43.8497897" lon="12.5068482"><ele>478.5</ele><time>2026-04-11T09:49:31.923Z</time></trkpt><trkpt lat="43.8497158" lon="12.5069555"><ele>477.0</ele><time>2026-04-11T09:49:32.921Z</time></trkpt><trkpt lat="43.8496573" lon="12.5070698"><ele>475.5</ele><time>2026-04-11T09:49:33.936Z</time></trkpt><trkpt lat="43.8496114" lon="12.5072177"><ele>474.0</ele><time>2026-04-11T09:49:34.923Z</time></trkpt><trkpt lat="43.8495733" lon="12.5073872"><ele>472.5</ele><time>2026-04-11T09:49:35.924Z</time></trkpt><trkpt lat="43.8495323" lon="12.507545"><ele>471.0</ele><time>2026-04-11T09:49:36.927Z</time></trkpt><trkpt lat="43.8494892" lon="12.50773"><ele>469.5</ele><time>2026-04-11T09:49:37.926Z</time></trkpt><trkpt lat="43.8494421" lon="12.5079269"><ele>468.0</ele><time>2026-04-11T09:49:38.925Z</time></trkpt><trkpt lat="43.8493965" lon="12.5081213"><ele>466.0</ele><time>2026-04-11T09:49:39.923Z</time></trkpt><trkpt lat="43.8493535" lon="12.5083158"><ele>464.0</ele><time>2026-04-11T09:49:40.934Z</time></trkpt><trkpt lat="43.8493109" lon="12.5085193"><ele>462.0</ele><time>2026-04-11T09:49:41.922Z</time></trkpt><trkpt lat="43.8492707" lon="12.5087273"><ele>460.5</ele><time>2026-04-11T09:49:42.921Z</time></trkpt><trkpt lat="43.849233" lon="12.5089216"><ele>459.0</ele><time>2026-04-11T09:49:43.924Z</time></trkpt><trkpt lat="43.8491972" lon="12.5091167"><ele>457.5</ele><time>2026-04-11T09:49:44.923Z</time></trkpt><trkpt lat="43.8491683" lon="12.5093161"><ele>456.0</ele><time>2026-04-11T09:49:45.924Z</time></trkpt><trkpt lat="43.8491407" lon="12.5095178"><ele>454.66666666666663</ele><time>2026-04-11T09:49:46.932Z</time></trkpt><trkpt lat="43.8491132" lon="12.5097273"><ele>453.3333333333333</ele><time>2026-04-11T09:49:47.918Z</time></trkpt><trkpt lat="43.8490829" lon="12.5099394"><ele>452.0</ele><time>2026-04-11T09:49:48.924Z</time></trkpt><trkpt lat="43.8490555" lon="12.5101568"><ele>452.0</ele><time>2026-04-11T09:49:49.922Z</time></trkpt><trkpt lat="43.8490282" lon="12.5103819"><ele>452.0</ele><time>2026-04-11T09:49:50.928Z</time></trkpt><trkpt lat="43.8490033" lon="12.5106054"><ele>452.0</ele><time>2026-04-11T09:49:51.931Z</time></trkpt><trkpt lat="43.8489824" lon="12.5108253"><ele>450.3333333333333</ele><time>2026-04-11T09:49:52.919Z</time></trkpt><trkpt lat="43.84896" lon="12.5110468"><ele>448.66666666666663</ele><time>2026-04-11T09:49:53.926Z</time></trkpt><trkpt lat="43.8489425" lon="12.5112607"><ele>447.0</ele><time>2026-04-11T09:49:54.922Z</time></trkpt><trkpt lat="43.848929" lon="12.5114683"><ele>446.5</ele><time>2026-04-11T09:49:55.925Z</time></trkpt><trkpt lat="43.848919" lon="12.5116764"><ele>446.0</ele><time>2026-04-11T09:49:56.92Z</time></trkpt><trkpt lat="43.8489121" lon="12.5118816"><ele>445.5</ele><time>2026-04-11T09:49:57.927Z</time></trkpt><trkpt lat="43.8488995" lon="12.5120874"><ele>445.0</ele><time>2026-04-11T09:49:58.922Z</time></trkpt><trkpt lat="43.8488887" lon="12.5123031"><ele>443.33333333333337</ele><time>2026-04-11T09:49:59.921Z</time></trkpt><trkpt lat="43.8488775" lon="12.5125248"><ele>441.66666666666663</ele><time>2026-04-11T09:50:00.923Z</time></trkpt><trkpt lat="43.8488649" lon="12.512746"><ele>440.0</ele><time>2026-04-11T09:50:01.921Z</time></trkpt><trkpt lat="43.8488515" lon="12.5129672"><ele>438.0</ele><time>2026-04-11T09:50:02.922Z</time></trkpt><trkpt lat="43.8488373" lon="12.5131859"><ele>436.0</ele><time>2026-04-11T09:50:03.921Z</time></trkpt><trkpt lat="43.8488228" lon="12.5133999"><ele>434.0</ele><time>2026-04-11T09:50:04.926Z</time></trkpt><trkpt lat="43.8488051" lon="12.5136017"><ele>433.25</ele><time>2026-04-11T09:50:05.928Z</time></trkpt><trkpt lat="43.8487917" lon="12.5137999"><ele>432.5</ele><time>2026-04-11T09:50:06.928Z</time></trkpt><trkpt lat="43.8487788" lon="12.513989"><ele>431.75</ele><time>2026-04-11T09:50:07.922Z</time></trkpt><trkpt lat="43.8487697" lon="12.5141794"><ele>431.0</ele><time>2026-04-11T09:50:08.925Z</time></trkpt><trkpt lat="43.8487557" lon="12.5143703"><ele>431.0</ele><time>2026-04-11T09:50:09.922Z</time></trkpt><trkpt lat="43.8487467" lon="12.5145676"><ele>431.0</ele><time>2026-04-11T09:50:10.927Z</time></trkpt><trkpt lat="43.8487368" lon="12.5147735"><ele>431.0</ele><time>2026-04-11T09:50:11.927Z</time></trkpt><trkpt lat="43.8487219" lon="12.5149877"><ele>431.0</ele><time>2026-04-11T09:50:12.923Z</time></trkpt><trkpt lat="43.8487082" lon="12.5152055"><ele>428.75</ele><time>2026-04-11T09:50:13.927Z</time></trkpt><trkpt lat="43.8486982" lon="12.5154143"><ele>426.5</ele><time>2026-04-11T09:50:14.924Z</time></trkpt><trkpt lat="43.8486885" lon="12.5156144"><ele>424.25</ele><time>2026-04-11T09:50:15.921Z</time></trkpt><trkpt lat="43.8486799" lon="12.5158152"><ele>422.0</ele><time>2026-04-11T09:50:16.923Z</time></trkpt><trkpt lat="43.8486654" lon="12.516019"><ele>422.0</ele><time>2026-04-11T09:50:17.923Z</time></trkpt><trkpt lat="43.8486494" lon="12.5162244"><ele>422.0</ele><time>2026-04-11T09:50:18.923Z</time></trkpt><trkpt lat="43.848639" lon="12.5164282"><ele>422.0</ele><time>2026-04-11T09:50:19.927Z</time></trkpt><trkpt lat="43.8486358" lon="12.5166372"><ele>422.0</ele><time>2026-04-11T09:50:20.924Z</time></trkpt><trkpt lat="43.8486306" lon="12.5168469"><ele>420.5</ele><time>2026-04-11T09:50:21.924Z</time></trkpt><trkpt lat="43.8486247" lon="12.5170514"><ele>419.0</ele><time>2026-04-11T09:50:22.919Z</time></trkpt><trkpt lat="43.8486146" lon="12.5172516"><ele>417.5</ele><time>2026-04-11T09:50:23.926Z</time></trkpt><trkpt lat="43.8485991" lon="12.5174321"><ele>416.0</ele><time>2026-04-11T09:50:24.921Z</time></trkpt><trkpt lat="43.848564" lon="12.5176074"><ele>415.5</ele><time>2026-04-11T09:50:25.924Z</time></trkpt><trkpt lat="43.8485122" lon="12.5177774"><ele>415.0</ele><time>2026-04-11T09:50:26.92Z</time></trkpt><trkpt lat="43.8484708" lon="12.517949"><ele>414.5</ele><time>2026-04-11T09:50:27.923Z</time></trkpt><trkpt lat="43.8484388" lon="12.5181268"><ele>414.0</ele><time>2026-04-11T09:50:28.926Z</time></trkpt><trkpt lat="43.8484166" lon="12.5183122"><ele>415.0</ele><time>2026-04-11T09:50:29.92Z</time></trkpt><trkpt lat="43.8484021" lon="12.5184998"><ele>416.0</ele><time>2026-04-11T09:50:30.922Z</time></trkpt><trkpt lat="43.8483879" lon="12.518687"><ele>417.0</ele><time>2026-04-11T09:50:31.927Z</time></trkpt><trkpt lat="43.8483762" lon="12.5188757"><ele>418.0</ele><time>2026-04-11T09:50:32.928Z</time></trkpt><trkpt lat="43.8483686" lon="12.51907"><ele>419.5</ele><time>2026-04-11T09:50:33.927Z</time></trkpt><trkpt lat="43.8483627" lon="12.5192681"><ele>421.0</ele><time>2026-04-11T09:50:34.924Z</time></trkpt><trkpt lat="43.8483588" lon="12.5194605"><ele>422.5</ele><time>2026-04-11T09:50:35.922Z</time></trkpt><trkpt lat="43.8483591" lon="12.5196557"><ele>424.0</ele><time>2026-04-11T09:50:36.928Z</time></trkpt><trkpt lat="43.8483623" lon="12.5198573"><ele>424.25</ele><time>2026-04-11T09:50:37.917Z</time></trkpt><trkpt lat="43.8483692" lon="12.5200592"><ele>424.5</ele><time>2026-04-11T09:50:38.922Z</time></trkpt><trkpt lat="43.8483825" lon="12.5202607"><ele>424.75</ele><time>2026-04-11T09:50:39.926Z</time></trkpt><trkpt lat="43.8484019" lon="12.5204617"><ele>425.0</ele><time>2026-04-11T09:50:40.919Z</time></trkpt><trkpt lat="43.8484324" lon="12.5206652"><ele>426.3333333333333</ele><time>2026-04-11T09:50:41.924Z</time></trkpt><trkpt lat="43.848472" lon="12.5208663"><ele>427.66666666666663</ele><time>2026-04-11T09:50:42.931Z</time></trkpt><trkpt lat="43.8485191" lon="12.521067"><ele>429.0</ele><time>2026-04-11T09:50:43.924Z</time></trkpt><trkpt lat="43.8485739" lon="12.5212649"><ele>432.66666666666663</ele><time>2026-04-11T09:50:44.928Z</time></trkpt><trkpt lat="43.8486427" lon="12.5214546"><ele>436.3333333333333</ele><time>2026-04-11T09:50:45.919Z</time></trkpt><trkpt lat="43.848719" lon="12.5216463"><ele>440.0</ele><time>2026-04-11T09:50:46.933Z</time></trkpt><trkpt lat="43.8487934" lon="12.5218272"><ele>440.0</ele><time>2026-04-11T09:50:47.931Z</time></trkpt><trkpt lat="43.848872" lon="12.522008"><ele>440.0</ele><time>2026-04-11T09:50:48.929Z</time></trkpt><trkpt lat="43.8489429" lon="12.5221862"><ele>440.0</ele><time>2026-04-11T09:50:49.925Z</time></trkpt><trkpt lat="43.849017" lon="12.5223657"><ele>440.0</ele><time>2026-04-11T09:50:50.925Z</time></trkpt><trkpt lat="43.8490844" lon="12.5225543"><ele>444.0</ele><time>2026-04-11T09:50:51.924Z</time></trkpt><trkpt lat="43.8491459" lon="12.5227403"><ele>448.0</ele><time>2026-04-11T09:50:52.919Z</time></trkpt><trkpt lat="43.8492079" lon="12.5229363"><ele>452.0</ele><time>2026-04-11T09:50:53.926Z</time></trkpt><trkpt lat="43.8492675" lon="12.5231339"><ele>452.66666666666663</ele><time>2026-04-11T09:50:54.93Z</time></trkpt><trkpt lat="43.8493302" lon="12.5233349"><ele>453.33333333333337</ele><time>2026-04-11T09:50:55.921Z</time></trkpt><trkpt lat="43.8493922" lon="12.5235296"><ele>454.0</ele><time>2026-04-11T09:50:56.929Z</time></trkpt><trkpt lat="43.8494479" lon="12.5237248"><ele>454.25</ele><time>2026-04-11T09:50:57.93Z</time></trkpt><trkpt lat="43.8495053" lon="12.5239105"><ele>454.5</ele><time>2026-04-11T09:50:58.931Z</time></trkpt><trkpt lat="43.8495637" lon="12.5240922"><ele>454.75</ele><time>2026-04-11T09:50:59.936Z</time></trkpt><trkpt lat="43.8496162" lon="12.5242671"><ele>455.0</ele><time>2026-04-11T09:51:00.922Z</time></trkpt><trkpt lat="43.8496703" lon="12.5244405"><ele>457.3333333333333</ele><time>2026-04-11T09:51:01.917Z</time></trkpt><trkpt lat="43.8497277" lon="12.524627"><ele>459.66666666666663</ele><time>2026-04-11T09:51:02.924Z</time></trkpt><trkpt lat="43.8497858" lon="12.5248187"><ele>462.0</ele><time>2026-04-11T09:51:03.93Z</time></trkpt><trkpt lat="43.8498467" lon="12.5250153"><ele>462.0</ele><time>2026-04-11T09:51:04.922Z</time></trkpt><trkpt lat="43.8499096" lon="12.5252178"><ele>462.0</ele><time>2026-04-11T09:51:05.927Z</time></trkpt><trkpt lat="43.8499735" lon="12.5254209"><ele>462.0</ele><time>2026-04-11T09:51:06.917Z</time></trkpt><trkpt lat="43.8500348" lon="12.5256165"><ele>462.0</ele><time>2026-04-11T09:51:07.931Z</time></trkpt><trkpt lat="43.8500879" lon="12.5258072"><ele>462.0</ele><time>2026-04-11T09:51:08.93Z</time></trkpt><trkpt lat="43.8501325" lon="12.525994"><ele>462.0</ele><time>2026-04-11T09:51:09.921Z</time></trkpt><trkpt lat="43.8501677" lon="12.5261779"><ele>462.0</ele><time>2026-04-11T09:51:10.932Z</time></trkpt><trkpt lat="43.850198" lon="12.5263613"><ele>462.25</ele><time>2026-04-11T09:51:11.925Z</time></trkpt><trkpt lat="43.8502418" lon="12.5265403"><ele>462.5</ele><time>2026-04-11T09:51:12.927Z</time></trkpt><trkpt lat="43.8503007" lon="12.5267189"><ele>462.75</ele><time>2026-04-11T09:51:13.921Z</time></trkpt><trkpt lat="43.8503689" lon="12.5268832"><ele>463.0</ele><time>2026-04-11T09:51:14.932Z</time></trkpt><trkpt lat="43.8504365" lon="12.5270366"><ele>464.25</ele><time>2026-04-11T09:51:15.923Z</time></trkpt><trkpt lat="43.8504964" lon="12.5271965"><ele>465.5</ele><time>2026-04-11T09:51:16.925Z</time></trkpt><trkpt lat="43.8505529" lon="12.5273513"><ele>466.75</ele><time>2026-04-11T09:51:17.923Z</time></trkpt><trkpt lat="43.850601" lon="12.5274938"><ele>468.0</ele><time>2026-04-11T09:51:18.923Z</time></trkpt><trkpt lat="43.8506306" lon="12.5276299"><ele>468.0</ele><time>2026-04-11T09:51:19.922Z</time></trkpt><trkpt lat="43.8506604" lon="12.5277615"><ele>467.99999999999994</ele><time>2026-04-11T09:51:20.917Z</time></trkpt><trkpt lat="43.850633" lon="12.527889"><ele>467.99999999999994</ele><time>2026-04-11T09:51:21.922Z</time></trkpt><trkpt lat="43.8505856" lon="12.5280008"><ele>468.0</ele><time>2026-04-11T09:51:22.926Z</time></trkpt><trkpt lat="43.850521" lon="12.5280845"><ele>468.0</ele><time>2026-04-11T09:51:23.92Z</time></trkpt><trkpt lat="43.8504251" lon="12.5281381"><ele>469.0</ele><time>2026-04-11T09:51:24.922Z</time></trkpt><trkpt lat="43.8503243" lon="12.5281595"><ele>470.0</ele><time>2026-04-11T09:51:25.933Z</time></trkpt><trkpt lat="43.8502167" lon="12.5281653"><ele>471.0</ele><time>2026-04-11T09:51:26.923Z</time></trkpt><trkpt lat="43.8501037" lon="12.5280887"><ele>472.0</ele><time>2026-04-11T09:51:27.922Z</time></trkpt><trkpt lat="43.8499888" lon="12.5280114"><ele>473.75</ele><time>2026-04-11T09:51:28.934Z</time></trkpt><trkpt lat="43.8498795" lon="12.5279176"><ele>475.5</ele><time>2026-04-11T09:51:29.927Z</time></trkpt><trkpt lat="43.8497675" lon="12.5278007"><ele>477.25</ele><time>2026-04-11T09:51:30.92Z</time></trkpt><trkpt lat="43.8496619" lon="12.5276831"><ele>479.0</ele><time>2026-04-11T09:51:31.926Z</time></trkpt><trkpt lat="43.8495606" lon="12.5275744"><ele>480.75</ele><time>2026-04-11T09:51:32.921Z</time></trkpt><trkpt lat="43.8494631" lon="12.5274648"><ele>482.5</ele><time>2026-04-11T09:51:33.927Z</time></trkpt><trkpt lat="43.8493642" lon="12.5273599"><ele>484.25</ele><time>2026-04-11T09:51:34.924Z</time></trkpt><trkpt lat="43.8492688" lon="12.527251"><ele>486.0</ele><time>2026-04-11T09:51:35.926Z</time></trkpt><trkpt lat="43.8491728" lon="12.527142"><ele>489.25</ele><time>2026-04-11T09:51:36.921Z</time></trkpt><trkpt lat="43.8490738" lon="12.5270342"><ele>492.5</ele><time>2026-04-11T09:51:37.929Z</time></trkpt><trkpt lat="43.8489783" lon="12.5269237"><ele>495.75</ele><time>2026-04-11T09:51:38.922Z</time></trkpt><trkpt lat="43.8488778" lon="12.5268213"><ele>499.0</ele><time>2026-04-11T09:51:39.924Z</time></trkpt><trkpt lat="43.8487683" lon="12.5267151"><ele>499.0</ele><time>2026-04-11T09:51:40.924Z</time></trkpt><trkpt lat="43.8486672" lon="12.5266188"><ele>499.0</ele><time>2026-04-11T09:51:41.924Z</time></trkpt><trkpt lat="43.8485621" lon="12.526526"><ele>499.0</ele><time>2026-04-11T09:51:42.923Z</time></trkpt><trkpt lat="43.8484556" lon="12.5264331"><ele>499.0</ele><time>2026-04-11T09:51:43.924Z</time></trkpt><trkpt lat="43.8483456" lon="12.5263518"><ele>500.0</ele><time>2026-04-11T09:51:44.93Z</time></trkpt><trkpt lat="43.8482349" lon="12.5263017"><ele>501.0</ele><time>2026-04-11T09:51:45.932Z</time></trkpt><trkpt lat="43.8481239" lon="12.5262848"><ele>502.0</ele><time>2026-04-11T09:51:46.918Z</time></trkpt><trkpt lat="43.8480125" lon="12.5263047"><ele>503.0</ele><time>2026-04-11T09:51:47.927Z</time></trkpt><trkpt lat="43.8479033" lon="12.526354"><ele>503.0</ele><time>2026-04-11T09:51:48.93Z</time></trkpt><trkpt lat="43.8478093" lon="12.5264345"><ele>502.99999999999994</ele><time>2026-04-11T09:51:49.922Z</time></trkpt><trkpt lat="43.847726" lon="12.5265334"><ele>502.99999999999994</ele><time>2026-04-11T09:51:50.922Z</time></trkpt><trkpt lat="43.8476591" lon="12.5266519"><ele>503.0</ele><time>2026-04-11T09:51:51.93Z</time></trkpt><trkpt lat="43.847612" lon="12.5267958"><ele>503.0</ele><time>2026-04-11T09:51:52.921Z</time></trkpt><trkpt lat="43.8475897" lon="12.5269574"><ele>502.25</ele><time>2026-04-11T09:51:53.931Z</time></trkpt><trkpt lat="43.8475986" lon="12.5271098"><ele>501.5</ele><time>2026-04-11T09:51:54.927Z</time></trkpt><trkpt lat="43.8475923" lon="12.5272852"><ele>500.75</ele><time>2026-04-11T09:51:55.92Z</time></trkpt><trkpt lat="43.8476163" lon="12.5274389"><ele>500.0</ele><time>2026-04-11T09:51:56.927Z</time></trkpt><trkpt lat="43.8476511" lon="12.5276006"><ele>500.0</ele><time>2026-04-11T09:51:57.924Z</time></trkpt><trkpt lat="43.8476562" lon="12.527764"><ele>500.0</ele><time>2026-04-11T09:51:58.923Z</time></trkpt><trkpt lat="43.8476585" lon="12.527939"><ele>500.0</ele><time>2026-04-11T09:51:59.928Z</time></trkpt><trkpt lat="43.8476649" lon="12.5281173"><ele>500.0</ele><time>2026-04-11T09:52:00.922Z</time></trkpt><trkpt lat="43.8476503" lon="12.5282889"><ele>505.75</ele><time>2026-04-11T09:52:01.927Z</time></trkpt><trkpt lat="43.847622" lon="12.5284646"><ele>511.5</ele><time>2026-04-11T09:52:02.92Z</time></trkpt><trkpt lat="43.8475811" lon="12.5286379"><ele>517.25</ele><time>2026-04-11T09:52:03.928Z</time></trkpt><trkpt lat="43.8475342" lon="12.5288159"><ele>523.0</ele><time>2026-04-11T09:52:04.919Z</time></trkpt><trkpt lat="43.8474809" lon="12.5289872"><ele>523.0</ele><time>2026-04-11T09:52:05.918Z</time></trkpt><trkpt lat="43.8474298" lon="12.5291451"><ele>523.0</ele><time>2026-04-11T09:52:06.923Z</time></trkpt><trkpt lat="43.8473659" lon="12.52929"><ele>523.0</ele><time>2026-04-11T09:52:07.918Z</time></trkpt><trkpt lat="43.8472953" lon="12.5294271"><ele>523.0</ele><time>2026-04-11T09:52:08.917Z</time></trkpt><trkpt lat="43.8472058" lon="12.5295451"><ele>522.25</ele><time>2026-04-11T09:52:09.921Z</time></trkpt><trkpt lat="43.8470997" lon="12.5296413"><ele>521.5</ele><time>2026-04-11T09:52:10.919Z</time></trkpt><trkpt lat="43.8469851" lon="12.5297382"><ele>520.75</ele><time>2026-04-11T09:52:11.923Z</time></trkpt><trkpt lat="43.8468661" lon="12.5297937"><ele>520.0</ele><time>2026-04-11T09:52:12.925Z</time></trkpt><trkpt lat="43.8467424" lon="12.5298369"><ele>522.5</ele><time>2026-04-11T09:52:13.924Z</time></trkpt><trkpt lat="43.8466104" lon="12.5298762"><ele>525.0</ele><time>2026-04-11T09:52:14.927Z</time></trkpt><trkpt lat="43.8464768" lon="12.5299245"><ele>527.5</ele><time>2026-04-11T09:52:15.92Z</time></trkpt><trkpt lat="43.8463324" lon="12.5299855"><ele>530.0</ele><time>2026-04-11T09:52:16.923Z</time></trkpt><trkpt lat="43.8461857" lon="12.5300427"><ele>530.0</ele><time>2026-04-11T09:52:17.927Z</time></trkpt><trkpt lat="43.8460282" lon="12.5301094"><ele>530.0</ele><time>2026-04-11T09:52:18.918Z</time></trkpt><trkpt lat="43.8458742" lon="12.5301735"><ele>530.0</ele><time>2026-04-11T09:52:19.922Z</time></trkpt><trkpt lat="43.845716" lon="12.5302306"><ele>529.6666666666666</ele><time>2026-04-11T09:52:20.934Z</time></trkpt><trkpt lat="43.8455571" lon="12.5302918"><ele>529.3333333333334</ele><time>2026-04-11T09:52:21.923Z</time></trkpt><trkpt lat="43.8453926" lon="12.5303511"><ele>529.0</ele><time>2026-04-11T09:52:22.923Z</time></trkpt><trkpt lat="43.8452198" lon="12.5304181"><ele>532.3333333333334</ele><time>2026-04-11T09:52:23.93Z</time></trkpt><trkpt lat="43.8450503" lon="12.5304661"><ele>535.6666666666666</ele><time>2026-04-11T09:52:24.926Z</time></trkpt><trkpt lat="43.8448891" lon="12.5305274"><ele>539.0</ele><time>2026-04-11T09:52:25.922Z</time></trkpt><trkpt lat="43.8447444" lon="12.5305799"><ele>539.0</ele><time>2026-04-11T09:52:26.925Z</time></trkpt><trkpt lat="43.8445993" lon="12.5306335"><ele>539.0</ele><time>2026-04-11T09:52:27.922Z</time></trkpt><trkpt lat="43.8444496" lon="12.5306996"><ele>539.0</ele><time>2026-04-11T09:52:28.927Z</time></trkpt><trkpt lat="43.8443078" lon="12.5307824"><ele>539.6666666666666</ele><time>2026-04-11T09:52:29.916Z</time></trkpt><trkpt lat="43.8441701" lon="12.5308896"><ele>540.3333333333334</ele><time>2026-04-11T09:52:30.927Z</time></trkpt><trkpt lat="43.8440371" lon="12.5310171"><ele>541.0</ele><time>2026-04-11T09:52:31.923Z</time></trkpt><trkpt lat="43.8439127" lon="12.5311593"><ele>546.0</ele><time>2026-04-11T09:52:32.924Z</time></trkpt><trkpt lat="43.8437944" lon="12.5313044"><ele>551.0</ele><time>2026-04-11T09:52:33.92Z</time></trkpt><trkpt lat="43.8436716" lon="12.5314555"><ele>556.0</ele><time>2026-04-11T09:52:34.924Z</time></trkpt><trkpt lat="43.8435501" lon="12.5316049"><ele>555.6666666666667</ele><time>2026-04-11T09:52:35.925Z</time></trkpt><trkpt lat="43.84343" lon="12.5317593"><ele>555.3333333333334</ele><time>2026-04-11T09:52:36.918Z</time></trkpt><trkpt lat="43.8433141" lon="12.5319159"><ele>555.0</ele><time>2026-04-11T09:52:37.922Z</time></trkpt><trkpt lat="43.8432019" lon="12.5320704"><ele>562.3333333333334</ele><time>2026-04-11T09:52:38.923Z</time></trkpt><trkpt lat="43.8430922" lon="12.5322202"><ele>569.6666666666667</ele><time>2026-04-11T09:52:39.929Z</time></trkpt><trkpt lat="43.8429921" lon="12.5323834"><ele>577.0</ele><time>2026-04-11T09:52:40.922Z</time></trkpt><trkpt lat="43.8429074" lon="12.5325623"><ele>577.0</ele><time>2026-04-11T09:52:41.916Z</time></trkpt><trkpt lat="43.8428462" lon="12.532741"><ele>577.0</ele><time>2026-04-11T09:52:42.927Z</time></trkpt><trkpt lat="43.842781" lon="12.53292"><ele>577.0</ele><time>2026-04-11T09:52:43.934Z</time></trkpt><trkpt lat="43.8427136" lon="12.5330989"><ele>577.0</ele><time>2026-04-11T09:52:44.933Z</time></trkpt><trkpt lat="43.8426394" lon="12.5332682"><ele>576.25</ele><time>2026-04-11T09:52:45.923Z</time></trkpt><trkpt lat="43.8425675" lon="12.5334359"><ele>575.5</ele><time>2026-04-11T09:52:46.926Z</time></trkpt><trkpt lat="43.8424751" lon="12.5335845"><ele>574.75</ele><time>2026-04-11T09:52:47.925Z</time></trkpt><trkpt lat="43.8423872" lon="12.5337455"><ele>574.0</ele><time>2026-04-11T09:52:48.932Z</time></trkpt><trkpt lat="43.8422852" lon="12.5338721"><ele>574.0</ele><time>2026-04-11T09:52:49.93Z</time></trkpt><trkpt lat="43.8421834" lon="12.5340004"><ele>574.0</ele><time>2026-04-11T09:52:50.933Z</time></trkpt><trkpt lat="43.8420703" lon="12.5341275"><ele>574.0</ele><time>2026-04-11T09:52:51.924Z</time></trkpt><trkpt lat="43.8419503" lon="12.5342459"><ele>574.0</ele><time>2026-04-11T09:52:52.919Z</time></trkpt><trkpt lat="43.8418301" lon="12.5343631"><ele>571.3333333333334</ele><time>2026-04-11T09:52:53.927Z</time></trkpt><trkpt lat="43.8417032" lon="12.5344895"><ele>568.6666666666666</ele><time>2026-04-11T09:52:54.919Z</time></trkpt><trkpt lat="43.8415745" lon="12.5346161"><ele>566.0</ele><time>2026-04-11T09:52:55.922Z</time></trkpt><trkpt lat="43.8414456" lon="12.5347459"><ele>566.0</ele><time>2026-04-11T09:52:56.924Z</time></trkpt><trkpt lat="43.8413157" lon="12.5348763"><ele>566.0</ele><time>2026-04-11T09:52:57.933Z</time></trkpt><trkpt lat="43.8411817" lon="12.535007"><ele>566.0</ele><time>2026-04-11T09:52:58.917Z</time></trkpt><trkpt lat="43.8410553" lon="12.5351469"><ele>565.25</ele><time>2026-04-11T09:52:59.925Z</time></trkpt><trkpt lat="43.8409362" lon="12.5352811"><ele>564.5</ele><time>2026-04-11T09:53:00.927Z</time></trkpt><trkpt lat="43.8408275" lon="12.5354172"><ele>563.75</ele><time>2026-04-11T09:53:01.925Z</time></trkpt><trkpt lat="43.8407413" lon="12.5355655"><ele>563.0</ele><time>2026-04-11T09:53:02.925Z</time></trkpt><trkpt lat="43.8406791" lon="12.5357223"><ele>565.5</ele><time>2026-04-11T09:53:03.919Z</time></trkpt><trkpt lat="43.8406446" lon="12.5358868"><ele>568.0</ele><time>2026-04-11T09:53:04.919Z</time></trkpt><trkpt lat="43.840642" lon="12.5360681"><ele>570.5</ele><time>2026-04-11T09:53:05.922Z</time></trkpt><trkpt lat="43.8406639" lon="12.536256"><ele>573.0</ele><time>2026-04-11T09:53:06.922Z</time></trkpt><trkpt lat="43.8407071" lon="12.5364411"><ele>575.5</ele><time>2026-04-11T09:53:07.924Z</time></trkpt><trkpt lat="43.8407487" lon="12.5366326"><ele>578.0</ele><time>2026-04-11T09:53:08.921Z</time></trkpt><trkpt lat="43.8407937" lon="12.5368286"><ele>580.5</ele><time>2026-04-11T09:53:09.923Z</time></trkpt><trkpt lat="43.8408335" lon="12.5370301"><ele>583.0</ele><time>2026-04-11T09:53:10.923Z</time></trkpt><trkpt lat="43.8408669" lon="12.5372362"><ele>583.5</ele><time>2026-04-11T09:53:11.926Z</time></trkpt><trkpt lat="43.8408916" lon="12.5374436"><ele>584.0</ele><time>2026-04-11T09:53:12.92Z</time></trkpt><trkpt lat="43.8409121" lon="12.5376478"><ele>584.5</ele><time>2026-04-11T09:53:13.919Z</time></trkpt><trkpt lat="43.8409298" lon="12.5378425"><ele>585.0</ele><time>2026-04-11T09:53:14.922Z</time></trkpt><trkpt lat="43.8409401" lon="12.5380361"><ele>586.75</ele><time>2026-04-11T09:53:15.922Z</time></trkpt><trkpt lat="43.8409531" lon="12.538229"><ele>588.5</ele><time>2026-04-11T09:53:16.92Z</time></trkpt><trkpt lat="43.8409639" lon="12.5384303"><ele>590.25</ele><time>2026-04-11T09:53:17.928Z</time></trkpt><trkpt lat="43.8409812" lon="12.5386345"><ele>592.0</ele><time>2026-04-11T09:53:18.92Z</time></trkpt><trkpt lat="43.8409942" lon="12.538834"><ele>587.25</ele><time>2026-04-11T09:53:19.924Z</time></trkpt><trkpt lat="43.84101" lon="12.5390226"><ele>582.5</ele><time>2026-04-11T09:53:20.928Z</time></trkpt><trkpt lat="43.8410318" lon="12.5391881"><ele>577.75</ele><time>2026-04-11T09:53:21.923Z</time></trkpt><trkpt lat="43.8410463" lon="12.539346"><ele>573.0</ele><time>2026-04-11T09:53:22.922Z</time></trkpt><trkpt lat="43.8410515" lon="12.5395031"><ele>574.25</ele><time>2026-04-11T09:53:23.926Z</time></trkpt><trkpt lat="43.8410264" lon="12.5396611"><ele>575.5</ele><time>2026-04-11T09:53:24.923Z</time></trkpt><trkpt lat="43.8409785" lon="12.5398097"><ele>576.75</ele><time>2026-04-11T09:53:25.923Z</time></trkpt><trkpt lat="43.8409174" lon="12.5399495"><ele>578.0</ele><time>2026-04-11T09:53:26.931Z</time></trkpt><trkpt lat="43.8408138" lon="12.5400647"><ele>582.0</ele><time>2026-04-11T09:53:27.922Z</time></trkpt><trkpt lat="43.8407032" lon="12.5401591"><ele>586.0</ele><time>2026-04-11T09:53:28.928Z</time></trkpt><trkpt lat="43.8405961" lon="12.5402461"><ele>590.0</ele><time>2026-04-11T09:53:29.922Z</time></trkpt><trkpt lat="43.8404924" lon="12.5403249"><ele>594.0</ele><time>2026-04-11T09:53:30.931Z</time></trkpt><trkpt lat="43.8403998" lon="12.5403717"><ele>594.0</ele><time>2026-04-11T09:53:31.931Z</time></trkpt><trkpt lat="43.8403114" lon="12.5403852"><ele>594.0</ele><time>2026-04-11T09:53:32.926Z</time></trkpt><trkpt lat="43.840222" lon="12.5403506"><ele>594.0</ele><time>2026-04-11T09:53:33.923Z</time></trkpt><trkpt lat="43.8401595" lon="12.5402615"><ele>594.0</ele><time>2026-04-11T09:53:34.931Z</time></trkpt><trkpt lat="43.8401151" lon="12.5401543"><ele>594.0</ele><time>2026-04-11T09:53:35.927Z</time></trkpt><trkpt lat="43.8400876" lon="12.5400146"><ele>594.0</ele><time>2026-04-11T09:53:36.934Z</time></trkpt><trkpt lat="43.8400929" lon="12.5398716"><ele>594.0</ele><time>2026-04-11T09:53:37.928Z</time></trkpt><trkpt lat="43.8402403" lon="12.539802"><ele>594.0</ele><time>2026-04-11T09:53:38.923Z</time></trkpt><trkpt lat="43.8403012" lon="12.5396854"><ele>594.0</ele><time>2026-04-11T09:53:39.934Z</time></trkpt><trkpt lat="43.8403522" lon="12.5395734"><ele>594.5</ele><time>2026-04-11T09:53:40.925Z</time></trkpt><trkpt lat="43.8403818" lon="12.5394674"><ele>595.0</ele><time>2026-04-11T09:53:41.922Z</time></trkpt><trkpt lat="43.8404071" lon="12.5393604"><ele>595.5</ele><time>2026-04-11T09:53:42.926Z</time></trkpt><trkpt lat="43.8403722" lon="12.5392347"><ele>596.0</ele><time>2026-04-11T09:53:43.925Z</time></trkpt><trkpt lat="43.8403288" lon="12.539154"><ele>596.5</ele><time>2026-04-11T09:53:44.926Z</time></trkpt><trkpt lat="43.8402489" lon="12.5390962"><ele>597.0</ele><time>2026-04-11T09:53:45.928Z</time></trkpt><trkpt lat="43.8401526" lon="12.5390701"><ele>600.25</ele><time>2026-04-11T09:53:46.927Z</time></trkpt><trkpt lat="43.8400443" lon="12.5390812"><ele>603.5</ele><time>2026-04-11T09:53:47.93Z</time></trkpt><trkpt lat="43.8399264" lon="12.5391092"><ele>606.75</ele><time>2026-04-11T09:53:48.929Z</time></trkpt><trkpt lat="43.8398105" lon="12.539193"><ele>610.0</ele><time>2026-04-11T09:53:49.936Z</time></trkpt><trkpt lat="43.8396956" lon="12.5392563"><ele>610.0</ele><time>2026-04-11T09:53:50.924Z</time></trkpt><trkpt lat="43.8395893" lon="12.5393072"><ele>610.0</ele><time>2026-04-11T09:53:51.926Z</time></trkpt><trkpt lat="43.8394759" lon="12.5393718"><ele>610.0</ele><time>2026-04-11T09:53:52.93Z</time></trkpt><trkpt lat="43.8393614" lon="12.5394314"><ele>610.0</ele><time>2026-04-11T09:53:53.92Z</time></trkpt><trkpt lat="43.8392437" lon="12.5394942"><ele>610.75</ele><time>2026-04-11T09:53:54.926Z</time></trkpt><trkpt lat="43.8391221" lon="12.5395569"><ele>611.5</ele><time>2026-04-11T09:53:55.926Z</time></trkpt><trkpt lat="43.8389956" lon="12.5396192"><ele>612.25</ele><time>2026-04-11T09:53:56.923Z</time></trkpt><trkpt lat="43.8388589" lon="12.5396844"><ele>613.0</ele><time>2026-04-11T09:53:57.927Z</time></trkpt><trkpt lat="43.8387192" lon="12.5397477"><ele>613.0</ele><time>2026-04-11T09:53:58.93Z</time></trkpt><trkpt lat="43.83858" lon="12.5398084"><ele>613.0</ele><time>2026-04-11T09:53:59.933Z</time></trkpt><trkpt lat="43.838452" lon="12.539871"><ele>613.0</ele><time>2026-04-11T09:54:00.923Z</time></trkpt><trkpt lat="43.8383435" lon="12.5399568"><ele>613.0</ele><time>2026-04-11T09:54:01.927Z</time></trkpt><trkpt lat="43.8382475" lon="12.5400745"><ele>614.0</ele><time>2026-04-11T09:54:02.928Z</time></trkpt><trkpt lat="43.8381734" lon="12.5402225"><ele>615.0</ele><time>2026-04-11T09:54:03.93Z</time></trkpt><trkpt lat="43.8381231" lon="12.5403842"><ele>616.0</ele><time>2026-04-11T09:54:04.921Z</time></trkpt><trkpt lat="43.8380945" lon="12.5405546"><ele>617.0</ele><time>2026-04-11T09:54:05.924Z</time></trkpt><trkpt lat="43.8380719" lon="12.540725"><ele>617.0</ele><time>2026-04-11T09:54:06.927Z</time></trkpt><trkpt lat="43.8380399" lon="12.5408832"><ele>617.0</ele><time>2026-04-11T09:54:07.925Z</time></trkpt><trkpt lat="43.8379945" lon="12.5410243"><ele>617.0</ele><time>2026-04-11T09:54:08.926Z</time></trkpt><trkpt lat="43.8379314" lon="12.5411512"><ele>617.0</ele><time>2026-04-11T09:54:09.922Z</time></trkpt><trkpt lat="43.8378348" lon="12.5412574"><ele>616.25</ele><time>2026-04-11T09:54:10.922Z</time></trkpt><trkpt lat="43.8377404" lon="12.5413453"><ele>615.5</ele><time>2026-04-11T09:54:11.924Z</time></trkpt><trkpt lat="43.8376054" lon="12.5413934"><ele>614.75</ele><time>2026-04-11T09:54:12.927Z</time></trkpt><trkpt lat="43.8374681" lon="12.5414447"><ele>614.0</ele><time>2026-04-11T09:54:13.922Z</time></trkpt><trkpt lat="43.8373243" lon="12.5414886"><ele>614.0</ele><time>2026-04-11T09:54:14.922Z</time></trkpt><trkpt lat="43.8371794" lon="12.5415312"><ele>614.0</ele><time>2026-04-11T09:54:15.927Z</time></trkpt><trkpt lat="43.8370261" lon="12.5415715"><ele>614.0</ele><time>2026-04-11T09:54:16.923Z</time></trkpt><trkpt lat="43.836879" lon="12.5416045"><ele>614.25</ele><time>2026-04-11T09:54:17.927Z</time></trkpt><trkpt lat="43.8367259" lon="12.5416594"><ele>614.5</ele><time>2026-04-11T09:54:18.924Z</time></trkpt><trkpt lat="43.8365811" lon="12.5416906"><ele>614.75</ele><time>2026-04-11T09:54:19.924Z</time></trkpt><trkpt lat="43.8364582" lon="12.5417096"><ele>615.0</ele><time>2026-04-11T09:54:20.926Z</time></trkpt><trkpt lat="43.8363446" lon="12.5417147"><ele>615.0</ele><time>2026-04-11T09:54:21.926Z</time></trkpt><trkpt lat="43.8362043" lon="12.5417516"><ele>615.0</ele><time>2026-04-11T09:54:22.92Z</time></trkpt><trkpt lat="43.8360591" lon="12.5418139"><ele>615.0</ele><time>2026-04-11T09:54:23.927Z</time></trkpt><trkpt lat="43.8359268" lon="12.5418697"><ele>615.0</ele><time>2026-04-11T09:54:24.924Z</time></trkpt><trkpt lat="43.8358016" lon="12.5419353"><ele>612.25</ele><time>2026-04-11T09:54:25.935Z</time></trkpt><trkpt lat="43.8357039" lon="12.542035"><ele>609.5</ele><time>2026-04-11T09:54:26.925Z</time></trkpt><trkpt lat="43.8355957" lon="12.5421324"><ele>606.75</ele><time>2026-04-11T09:54:27.925Z</time></trkpt><trkpt lat="43.8355033" lon="12.5422237"><ele>604.0</ele><time>2026-04-11T09:54:28.925Z</time></trkpt><trkpt lat="43.8354317" lon="12.5423092"><ele>604.0</ele><time>2026-04-11T09:54:29.93Z</time></trkpt><trkpt lat="43.8353889" lon="12.5424103"><ele>604.0</ele><time>2026-04-11T09:54:30.922Z</time></trkpt><trkpt lat="43.8353663" lon="12.5425155"><ele>604.0</ele><time>2026-04-11T09:54:31.923Z</time></trkpt><trkpt lat="43.8353831" lon="12.5426314"><ele>604.0</ele><time>2026-04-11T09:54:32.921Z</time></trkpt><trkpt lat="43.8354315" lon="12.5427216"><ele>604.0</ele><time>2026-04-11T09:54:33.921Z</time></trkpt><trkpt lat="43.8355348" lon="12.5428046"><ele>604.0</ele><time>2026-04-11T09:54:35.924Z</time></trkpt><trkpt lat="43.835607" lon="12.5427584"><ele>604.0</ele><time>2026-04-11T09:54:36.923Z</time></trkpt><trkpt lat="43.8357016" lon="12.5426231"><ele>604.0</ele><time>2026-04-11T09:54:37.923Z</time></trkpt><trkpt lat="43.835793" lon="12.5425493"><ele>604.0</ele><time>2026-04-11T09:54:38.927Z</time></trkpt><trkpt lat="43.8358699" lon="12.5424801"><ele>604.0</ele><time>2026-04-11T09:54:39.931Z</time></trkpt><trkpt lat="43.8359527" lon="12.542441"><ele>604.0</ele><time>2026-04-11T09:54:40.927Z</time></trkpt><trkpt lat="43.8360401" lon="12.5424148"><ele>605.0</ele><time>2026-04-11T09:54:41.926Z</time></trkpt><trkpt lat="43.8361174" lon="12.542423"><ele>606.0</ele><time>2026-04-11T09:54:42.922Z</time></trkpt><trkpt lat="43.8361896" lon="12.5424274"><ele>607.0</ele><time>2026-04-11T09:54:43.925Z</time></trkpt><trkpt lat="43.8362736" lon="12.5424686"><ele>608.0</ele><time>2026-04-11T09:54:44.921Z</time></trkpt><trkpt lat="43.8361996" lon="12.5426341"><ele>609.0</ele><time>2026-04-11T09:54:45.925Z</time></trkpt><trkpt lat="43.8361486" lon="12.5427336"><ele>609.0</ele><time>2026-04-11T09:54:46.926Z</time></trkpt><trkpt lat="43.8360595" lon="12.5427935"><ele>609.0</ele><time>2026-04-11T09:54:47.921Z</time></trkpt><trkpt lat="43.8359674" lon="12.5428425"><ele>609.0</ele><time>2026-04-11T09:54:48.926Z</time></trkpt><trkpt lat="43.8358532" lon="12.5429084"><ele>609.0</ele><time>2026-04-11T09:54:49.921Z</time></trkpt><trkpt lat="43.8357428" lon="12.5429735"><ele>609.0</ele><time>2026-04-11T09:54:50.927Z</time></trkpt><trkpt lat="43.8356413" lon="12.543037"><ele>604.25</ele><time>2026-04-11T09:54:51.919Z</time></trkpt><trkpt lat="43.8355255" lon="12.5430616"><ele>599.5</ele><time>2026-04-11T09:54:52.924Z</time></trkpt><trkpt lat="43.8354116" lon="12.5430853"><ele>594.75</ele><time>2026-04-11T09:54:53.926Z</time></trkpt><trkpt lat="43.8352915" lon="12.5430731"><ele>590.0</ele><time>2026-04-11T09:54:54.924Z</time></trkpt><trkpt lat="43.8351807" lon="12.5430072"><ele>590.0</ele><time>2026-04-11T09:54:55.921Z</time></trkpt><trkpt lat="43.8350579" lon="12.542965"><ele>590.0</ele><time>2026-04-11T09:54:56.923Z</time></trkpt><trkpt lat="43.834933" lon="12.5429199"><ele>590.0</ele><time>2026-04-11T09:54:57.92Z</time></trkpt><trkpt lat="43.8348074" lon="12.5428787"><ele>590.0</ele><time>2026-04-11T09:54:58.925Z</time></trkpt><trkpt lat="43.8346782" lon="12.542848"><ele>591.0</ele><time>2026-04-11T09:54:59.923Z</time></trkpt><trkpt lat="43.8345484" lon="12.5428267"><ele>592.0</ele><time>2026-04-11T09:55:00.93Z</time></trkpt><trkpt lat="43.834422" lon="12.54282"><ele>593.0</ele><time>2026-04-11T09:55:01.925Z</time></trkpt><trkpt lat="43.8343003" lon="12.5428588"><ele>594.0</ele><time>2026-04-11T09:55:02.921Z</time></trkpt><trkpt lat="43.8341823" lon="12.5429042"><ele>590.0</ele><time>2026-04-11T09:55:03.925Z</time></trkpt><trkpt lat="43.8340648" lon="12.5429938"><ele>586.0</ele><time>2026-04-11T09:55:04.922Z</time></trkpt><trkpt lat="43.8339591" lon="12.5430978"><ele>582.0</ele><time>2026-04-11T09:55:05.93Z</time></trkpt><trkpt lat="43.8338561" lon="12.5432289"><ele>578.0</ele><time>2026-04-11T09:55:06.928Z</time></trkpt><trkpt lat="43.8337557" lon="12.5433667"><ele>578.0</ele><time>2026-04-11T09:55:07.921Z</time></trkpt><trkpt lat="43.8336589" lon="12.5435082"><ele>578.0</ele><time>2026-04-11T09:55:08.925Z</time></trkpt><trkpt lat="43.8335473" lon="12.5436427"><ele>578.0</ele><time>2026-04-11T09:55:09.931Z</time></trkpt><trkpt lat="43.8334486" lon="12.5437676"><ele>578.0</ele><time>2026-04-11T09:55:10.932Z</time></trkpt><trkpt lat="43.8333472" lon="12.5439036"><ele>574.5</ele><time>2026-04-11T09:55:11.923Z</time></trkpt><trkpt lat="43.833245" lon="12.5440374"><ele>571.0</ele><time>2026-04-11T09:55:12.93Z</time></trkpt><trkpt lat="43.8331487" lon="12.5441904"><ele>567.5</ele><time>2026-04-11T09:55:13.926Z</time></trkpt><trkpt lat="43.8330547" lon="12.5443689"><ele>564.0</ele><time>2026-04-11T09:55:14.921Z</time></trkpt><trkpt lat="43.8329489" lon="12.5445704"><ele>563.6666666666666</ele><time>2026-04-11T09:55:15.932Z</time></trkpt><trkpt lat="43.8328411" lon="12.5447885"><ele>563.3333333333333</ele><time>2026-04-11T09:55:16.92Z</time></trkpt><trkpt lat="43.8327278" lon="12.5450027"><ele>563.0</ele><time>2026-04-11T09:55:17.922Z</time></trkpt><trkpt lat="43.8325996" lon="12.5452777"><ele>564.0</ele><time>2026-04-11T09:55:18.922Z</time></trkpt><trkpt lat="43.8324767" lon="12.5455495"><ele>565.0</ele><time>2026-04-11T09:55:19.931Z</time></trkpt><trkpt lat="43.8323453" lon="12.545834"><ele>565.0</ele><time>2026-04-11T09:55:20.921Z</time></trkpt><trkpt lat="43.8322071" lon="12.5461167"><ele>565.0</ele><time>2026-04-11T09:55:21.918Z</time></trkpt><trkpt lat="43.8320727" lon="12.5463882"><ele>561.5</ele><time>2026-04-11T09:55:22.919Z</time></trkpt><trkpt lat="43.8319379" lon="12.5466505"><ele>558.0</ele><time>2026-04-11T09:55:23.921Z</time></trkpt><trkpt lat="43.8318173" lon="12.5469058"><ele>560.3333333333334</ele><time>2026-04-11T09:55:24.926Z</time></trkpt><trkpt lat="43.8316882" lon="12.547148"><ele>562.6666666666667</ele><time>2026-04-11T09:55:25.927Z</time></trkpt><trkpt lat="43.8315666" lon="12.5474029"><ele>565.0</ele><time>2026-04-11T09:55:26.92Z</time></trkpt><trkpt lat="43.831447" lon="12.5476495"><ele>561.0</ele><time>2026-04-11T09:55:27.922Z</time></trkpt><trkpt lat="43.8313393" lon="12.5478821"><ele>557.0</ele><time>2026-04-11T09:55:28.927Z</time></trkpt><trkpt lat="43.8312411" lon="12.5481175"><ele>553.0</ele><time>2026-04-11T09:55:29.927Z</time></trkpt><trkpt lat="43.831156" lon="12.5483501"><ele>553.0</ele><time>2026-04-11T09:55:30.919Z</time></trkpt><trkpt lat="43.8310807" lon="12.5485932"><ele>553.0</ele><time>2026-04-11T09:55:31.925Z</time></trkpt><trkpt lat="43.8310365" lon="12.5488451"><ele>553.0</ele><time>2026-04-11T09:55:32.929Z</time></trkpt><trkpt lat="43.8310242" lon="12.5491045"><ele>554.0</ele><time>2026-04-11T09:55:33.928Z</time></trkpt><trkpt lat="43.8310358" lon="12.5493737"><ele>555.0</ele><time>2026-04-11T09:55:34.932Z</time></trkpt><trkpt lat="43.8310532" lon="12.5496466"><ele>556.0</ele><time>2026-04-11T09:55:35.921Z</time></trkpt><trkpt lat="43.8310815" lon="12.5499375"><ele>556.0</ele><time>2026-04-11T09:55:36.927Z</time></trkpt><trkpt lat="43.8310927" lon="12.5502324"><ele>556.0</ele><time>2026-04-11T09:55:37.927Z</time></trkpt><trkpt lat="43.8310988" lon="12.5505107"><ele>556.0</ele><time>2026-04-11T09:55:38.922Z</time></trkpt><trkpt lat="43.8311051" lon="12.5507767"><ele>557.0</ele><time>2026-04-11T09:55:39.921Z</time></trkpt><trkpt lat="43.8311016" lon="12.5510297"><ele>558.0</ele><time>2026-04-11T09:55:40.926Z</time></trkpt><trkpt lat="43.8310947" lon="12.5512719"><ele>559.0</ele><time>2026-04-11T09:55:41.925Z</time></trkpt><trkpt lat="43.8310848" lon="12.5515103"><ele>555.6666666666667</ele><time>2026-04-11T09:55:42.931Z</time></trkpt><trkpt lat="43.8310619" lon="12.5517456"><ele>552.3333333333334</ele><time>2026-04-11T09:55:43.927Z</time></trkpt><trkpt lat="43.8310226" lon="12.551984"><ele>549.0</ele><time>2026-04-11T09:55:44.926Z</time></trkpt><trkpt lat="43.830984" lon="12.5522128"><ele>550.3333333333334</ele><time>2026-04-11T09:55:45.926Z</time></trkpt><trkpt lat="43.830939" lon="12.552435"><ele>551.6666666666667</ele><time>2026-04-11T09:55:46.924Z</time></trkpt><trkpt lat="43.8308768" lon="12.552648"><ele>553.0</ele><time>2026-04-11T09:55:47.924Z</time></trkpt><trkpt lat="43.8307992" lon="12.5528516"><ele>550.0</ele><time>2026-04-11T09:55:48.921Z</time></trkpt><trkpt lat="43.83071" lon="12.5530249"><ele>547.0</ele><time>2026-04-11T09:55:49.92Z</time></trkpt><trkpt lat="43.8306214" lon="12.5531794"><ele>544.0</ele><time>2026-04-11T09:55:50.921Z</time></trkpt><trkpt lat="43.8305329" lon="12.5533141"><ele>541.0</ele><time>2026-04-11T09:55:51.927Z</time></trkpt><trkpt lat="43.8304365" lon="12.5534053"><ele>541.0</ele><time>2026-04-11T09:55:52.915Z</time></trkpt><trkpt lat="43.8303225" lon="12.5534808"><ele>541.0</ele><time>2026-04-11T09:55:53.925Z</time></trkpt><trkpt lat="43.8302087" lon="12.5535488"><ele>541.0</ele><time>2026-04-11T09:55:54.922Z</time></trkpt><trkpt lat="43.8300764" lon="12.5535515"><ele>541.0</ele><time>2026-04-11T09:55:55.92Z</time></trkpt><trkpt lat="43.8299571" lon="12.5533042"><ele>543.3333333333334</ele><time>2026-04-11T09:55:56.924Z</time></trkpt><trkpt lat="43.8298763" lon="12.5530931"><ele>545.6666666666666</ele><time>2026-04-11T09:55:57.919Z</time></trkpt><trkpt lat="43.8297763" lon="12.552939"><ele>548.0</ele><time>2026-04-11T09:55:58.921Z</time></trkpt><trkpt lat="43.8296807" lon="12.552818"><ele>549.0</ele><time>2026-04-11T09:55:59.924Z</time></trkpt><trkpt lat="43.8295738" lon="12.5527279"><ele>550.0</ele><time>2026-04-11T09:56:00.922Z</time></trkpt><trkpt lat="43.8294713" lon="12.5526421"><ele>551.0</ele><time>2026-04-11T09:56:01.927Z</time></trkpt><trkpt lat="43.8293385" lon="12.5527039"><ele>552.0</ele><time>2026-04-11T09:56:02.928Z</time></trkpt><trkpt lat="43.8292311" lon="12.5527968"><ele>547.6666666666666</ele><time>2026-04-11T09:56:03.921Z</time></trkpt><trkpt lat="43.8291526" lon="12.5529556"><ele>543.3333333333333</ele><time>2026-04-11T09:56:04.921Z</time></trkpt><trkpt lat="43.8290902" lon="12.5531462"><ele>539.0</ele><time>2026-04-11T09:56:05.926Z</time></trkpt><trkpt lat="43.829024" lon="12.5533677"><ele>539.0</ele><time>2026-04-11T09:56:06.924Z</time></trkpt><trkpt lat="43.8289596" lon="12.5536019"><ele>539.0</ele><time>2026-04-11T09:56:07.923Z</time></trkpt><trkpt lat="43.8288969" lon="12.5538306"><ele>539.0</ele><time>2026-04-11T09:56:08.922Z</time></trkpt><trkpt lat="43.8288423" lon="12.5540567"><ele>535.3333333333333</ele><time>2026-04-11T09:56:09.926Z</time></trkpt><trkpt lat="43.8287821" lon="12.5542765"><ele>531.6666666666666</ele><time>2026-04-11T09:56:10.922Z</time></trkpt><trkpt lat="43.8287139" lon="12.5544861"><ele>528.0</ele><time>2026-04-11T09:56:11.915Z</time></trkpt><trkpt lat="43.8286446" lon="12.5546888"><ele>526.75</ele><time>2026-04-11T09:56:12.924Z</time></trkpt><trkpt lat="43.8285704" lon="12.5548759"><ele>525.5</ele><time>2026-04-11T09:56:13.924Z</time></trkpt><trkpt lat="43.8284574" lon="12.5550263"><ele>524.25</ele><time>2026-04-11T09:56:14.922Z</time></trkpt><trkpt lat="43.8283379" lon="12.5551226"><ele>523.0</ele><time>2026-04-11T09:56:15.928Z</time></trkpt><trkpt lat="43.828204" lon="12.5551892"><ele>523.0</ele><time>2026-04-11T09:56:16.922Z</time></trkpt><trkpt lat="43.8280618" lon="12.5551757"><ele>523.0</ele><time>2026-04-11T09:56:17.92Z</time></trkpt><trkpt lat="43.8279222" lon="12.5551777"><ele>523.0</ele><time>2026-04-11T09:56:18.928Z</time></trkpt><trkpt lat="43.8277896" lon="12.5551333"><ele>523.0</ele><time>2026-04-11T09:56:19.924Z</time></trkpt><trkpt lat="43.8276649" lon="12.5551133"><ele>521.0</ele><time>2026-04-11T09:56:20.927Z</time></trkpt><trkpt lat="43.8275535" lon="12.5551071"><ele>519.0</ele><time>2026-04-11T09:56:21.92Z</time></trkpt><trkpt lat="43.8274348" lon="12.5551598"><ele>517.0</ele><time>2026-04-11T09:56:22.927Z</time></trkpt><trkpt lat="43.827336" lon="12.5552372"><ele>515.0</ele><time>2026-04-11T09:56:23.922Z</time></trkpt><trkpt lat="43.8272598" lon="12.5553616"><ele>514.5</ele><time>2026-04-11T09:56:24.926Z</time></trkpt><trkpt lat="43.8272033" lon="12.5555149"><ele>514.0</ele><time>2026-04-11T09:56:25.925Z</time></trkpt><trkpt lat="43.8271716" lon="12.5556803"><ele>513.5</ele><time>2026-04-11T09:56:26.927Z</time></trkpt><trkpt lat="43.8271668" lon="12.5558444"><ele>513.0</ele><time>2026-04-11T09:56:27.929Z</time></trkpt><trkpt lat="43.8271953" lon="12.5559892"><ele>513.0</ele><time>2026-04-11T09:56:28.931Z</time></trkpt><trkpt lat="43.8272404" lon="12.5561257"><ele>513.0</ele><time>2026-04-11T09:56:29.93Z</time></trkpt><trkpt lat="43.8273096" lon="12.5562487"><ele>513.0</ele><time>2026-04-11T09:56:30.927Z</time></trkpt><trkpt lat="43.8273801" lon="12.5563609"><ele>513.0</ele><time>2026-04-11T09:56:31.927Z</time></trkpt><trkpt lat="43.8274506" lon="12.5564738"><ele>513.0</ele><time>2026-04-11T09:56:32.916Z</time></trkpt><trkpt lat="43.8275105" lon="12.5565539"><ele>511.2</ele><time>2026-04-11T09:56:33.927Z</time></trkpt><trkpt lat="43.8275616" lon="12.5566234"><ele>509.4</ele><time>2026-04-11T09:56:34.919Z</time></trkpt><trkpt lat="43.8276163" lon="12.5567545"><ele>507.59999999999997</ele><time>2026-04-11T09:56:36.925Z</time></trkpt><trkpt lat="43.8276277" lon="12.5568562"><ele>505.79999999999995</ele><time>2026-04-11T09:56:37.922Z</time></trkpt><trkpt lat="43.8276147" lon="12.5569841"><ele>504.0</ele><time>2026-04-11T09:56:38.93Z</time></trkpt><trkpt lat="43.8275884" lon="12.5571214"><ele>501.0</ele><time>2026-04-11T09:56:39.926Z</time></trkpt><trkpt lat="43.8275451" lon="12.5572925"><ele>498.0</ele><time>2026-04-11T09:56:40.923Z</time></trkpt><trkpt lat="43.8275098" lon="12.5574678"><ele>495.0</ele><time>2026-04-11T09:56:41.928Z</time></trkpt><trkpt lat="43.8274714" lon="12.5576629"><ele>492.0</ele><time>2026-04-11T09:56:42.922Z</time></trkpt><trkpt lat="43.8274315" lon="12.5578587"><ele>490.25</ele><time>2026-04-11T09:56:43.93Z</time></trkpt><trkpt lat="43.827387" lon="12.5580543"><ele>488.5</ele><time>2026-04-11T09:56:44.928Z</time></trkpt><trkpt lat="43.8273497" lon="12.558248"><ele>486.75</ele><time>2026-04-11T09:56:45.927Z</time></trkpt><trkpt lat="43.8272977" lon="12.5584312"><ele>485.0</ele><time>2026-04-11T09:56:46.924Z</time></trkpt><trkpt lat="43.8272457" lon="12.5586095"><ele>482.5</ele><time>2026-04-11T09:56:47.923Z</time></trkpt><trkpt lat="43.8271691" lon="12.5587602"><ele>480.0</ele><time>2026-04-11T09:56:48.929Z</time></trkpt><trkpt lat="43.827078" lon="12.558926"><ele>477.5</ele><time>2026-04-11T09:56:49.921Z</time></trkpt><trkpt lat="43.8270212" lon="12.5591154"><ele>475.0</ele><time>2026-04-11T09:56:50.922Z</time></trkpt><trkpt lat="43.8269878" lon="12.5593139"><ele>475.0</ele><time>2026-04-11T09:56:51.92Z</time></trkpt><trkpt lat="43.8269653" lon="12.5595129"><ele>475.0</ele><time>2026-04-11T09:56:52.929Z</time></trkpt><trkpt lat="43.8269371" lon="12.5597045"><ele>475.0</ele><time>2026-04-11T09:56:53.922Z</time></trkpt><trkpt lat="43.8269064" lon="12.5598954"><ele>475.0</ele><time>2026-04-11T09:56:54.926Z</time></trkpt><trkpt lat="43.8268573" lon="12.5600733"><ele>475.5</ele><time>2026-04-11T09:56:55.923Z</time></trkpt><trkpt lat="43.82681" lon="12.5602509"><ele>476.0</ele><time>2026-04-11T09:56:56.925Z</time></trkpt><trkpt lat="43.8267458" lon="12.5604108"><ele>476.5</ele><time>2026-04-11T09:56:57.925Z</time></trkpt><trkpt lat="43.8266673" lon="12.560549"><ele>477.0</ele><time>2026-04-11T09:56:58.926Z</time></trkpt><trkpt lat="43.8265891" lon="12.5606534"><ele>473.25</ele><time>2026-04-11T09:56:59.925Z</time></trkpt><trkpt lat="43.8265002" lon="12.5607435"><ele>469.5</ele><time>2026-04-11T09:57:00.923Z</time></trkpt><trkpt lat="43.8263639" lon="12.5607656"><ele>465.75</ele><time>2026-04-11T09:57:01.93Z</time></trkpt><trkpt lat="43.8262336" lon="12.5606752"><ele>462.0</ele><time>2026-04-11T09:57:02.925Z</time></trkpt><trkpt lat="43.8261057" lon="12.5606273"><ele>461.75</ele><time>2026-04-11T09:57:03.927Z</time></trkpt><trkpt lat="43.8259776" lon="12.5605826"><ele>461.5</ele><time>2026-04-11T09:57:04.926Z</time></trkpt><trkpt lat="43.8258479" lon="12.5605746"><ele>461.25</ele><time>2026-04-11T09:57:05.922Z</time></trkpt><trkpt lat="43.8257224" lon="12.5605801"><ele>461.0</ele><time>2026-04-11T09:57:06.917Z</time></trkpt><trkpt lat="43.8256102" lon="12.5605998"><ele>461.0</ele><time>2026-04-11T09:57:07.926Z</time></trkpt><trkpt lat="43.8255136" lon="12.5606632"><ele>461.0</ele><time>2026-04-11T09:57:08.92Z</time></trkpt><trkpt lat="43.8254165" lon="12.5607769"><ele>461.0</ele><time>2026-04-11T09:57:09.925Z</time></trkpt><trkpt lat="43.825324" lon="12.5608896"><ele>461.0</ele><time>2026-04-11T09:57:10.924Z</time></trkpt><trkpt lat="43.8252551" lon="12.5610389"><ele>456.66666666666663</ele><time>2026-04-11T09:57:11.931Z</time></trkpt><trkpt lat="43.8253244" lon="12.561365"><ele>452.33333333333337</ele><time>2026-04-11T09:57:12.932Z</time></trkpt><trkpt lat="43.8252964" lon="12.561604"><ele>448.0</ele><time>2026-04-11T09:57:13.922Z</time></trkpt><trkpt lat="43.8252419" lon="12.5618142"><ele>448.0</ele><time>2026-04-11T09:57:14.929Z</time></trkpt><trkpt lat="43.8251644" lon="12.5620228"><ele>448.0</ele><time>2026-04-11T09:57:15.932Z</time></trkpt><trkpt lat="43.8250831" lon="12.5622344"><ele>448.0</ele><time>2026-04-11T09:57:16.92Z</time></trkpt><trkpt lat="43.8249982" lon="12.5624453"><ele>445.33333333333337</ele><time>2026-04-11T09:57:17.923Z</time></trkpt><trkpt lat="43.8249205" lon="12.5626443"><ele>442.66666666666663</ele><time>2026-04-11T09:57:18.924Z</time></trkpt><trkpt lat="43.8248372" lon="12.5628448"><ele>440.0</ele><time>2026-04-11T09:57:19.928Z</time></trkpt><trkpt lat="43.8247553" lon="12.5630333"><ele>440.0</ele><time>2026-04-11T09:57:20.923Z</time></trkpt><trkpt lat="43.8246751" lon="12.5632127"><ele>440.0</ele><time>2026-04-11T09:57:21.929Z</time></trkpt><trkpt lat="43.8245834" lon="12.5633834"><ele>440.0</ele><time>2026-04-11T09:57:22.925Z</time></trkpt><trkpt lat="43.8244897" lon="12.5635082"><ele>440.0</ele><time>2026-04-11T09:57:23.928Z</time></trkpt><trkpt lat="43.8243405" lon="12.5635777"><ele>439.3333333333333</ele><time>2026-04-11T09:57:24.925Z</time></trkpt><trkpt lat="43.824185" lon="12.5636333"><ele>438.66666666666663</ele><time>2026-04-11T09:57:25.924Z</time></trkpt><trkpt lat="43.8240362" lon="12.5636728"><ele>438.0</ele><time>2026-04-11T09:57:26.923Z</time></trkpt><trkpt lat="43.8238886" lon="12.5637093"><ele>438.0</ele><time>2026-04-11T09:57:27.922Z</time></trkpt><trkpt lat="43.823747" lon="12.5637299"><ele>438.0</ele><time>2026-04-11T09:57:28.929Z</time></trkpt><trkpt lat="43.8236233" lon="12.5637659"><ele>438.0</ele><time>2026-04-11T09:57:29.924Z</time></trkpt><trkpt lat="43.8235058" lon="12.5638143"><ele>438.0</ele><time>2026-04-11T09:57:30.923Z</time></trkpt><trkpt lat="43.8234193" lon="12.5639754"><ele>433.0</ele><time>2026-04-11T09:57:31.923Z</time></trkpt><trkpt lat="43.8233496" lon="12.5641471"><ele>428.0</ele><time>2026-04-11T09:57:32.927Z</time></trkpt><trkpt lat="43.8232764" lon="12.5643483"><ele>423.0</ele><time>2026-04-11T09:57:33.919Z</time></trkpt><trkpt lat="43.8232049" lon="12.5645474"><ele>422.33333333333337</ele><time>2026-04-11T09:57:34.927Z</time></trkpt><trkpt lat="43.823138" lon="12.5647484"><ele>421.6666666666667</ele><time>2026-04-11T09:57:35.92Z</time></trkpt><trkpt lat="43.8230752" lon="12.5649456"><ele>421.0</ele><time>2026-04-11T09:57:36.922Z</time></trkpt><trkpt lat="43.8230087" lon="12.5651415"><ele>421.0</ele><time>2026-04-11T09:57:37.924Z</time></trkpt><trkpt lat="43.8229354" lon="12.5653369"><ele>421.0</ele><time>2026-04-11T09:57:38.93Z</time></trkpt><trkpt lat="43.8228681" lon="12.5655296"><ele>421.0</ele><time>2026-04-11T09:57:39.923Z</time></trkpt><trkpt lat="43.8227999" lon="12.5657226"><ele>417.25</ele><time>2026-04-11T09:57:40.925Z</time></trkpt><trkpt lat="43.8227409" lon="12.5659191"><ele>413.5</ele><time>2026-04-11T09:57:41.924Z</time></trkpt><trkpt lat="43.822684" lon="12.5660998"><ele>409.75</ele><time>2026-04-11T09:57:42.923Z</time></trkpt><trkpt lat="43.8226264" lon="12.5662713"><ele>406.0</ele><time>2026-04-11T09:57:43.92Z</time></trkpt><trkpt lat="43.822566" lon="12.5664404"><ele>404.25</ele><time>2026-04-11T09:57:44.924Z</time></trkpt><trkpt lat="43.8225014" lon="12.5665992"><ele>402.5</ele><time>2026-04-11T09:57:45.921Z</time></trkpt><trkpt lat="43.8224331" lon="12.5667594"><ele>400.75</ele><time>2026-04-11T09:57:46.928Z</time></trkpt><trkpt lat="43.8223571" lon="12.5669173"><ele>399.0</ele><time>2026-04-11T09:57:47.929Z</time></trkpt><trkpt lat="43.82227" lon="12.5670708"><ele>398.25</ele><time>2026-04-11T09:57:48.92Z</time></trkpt><trkpt lat="43.8221944" lon="12.5672235"><ele>397.5</ele><time>2026-04-11T09:57:49.929Z</time></trkpt><trkpt lat="43.8221196" lon="12.5673779"><ele>396.75</ele><time>2026-04-11T09:57:50.927Z</time></trkpt><trkpt lat="43.8220344" lon="12.5675211"><ele>396.0</ele><time>2026-04-11T09:57:51.932Z</time></trkpt><trkpt lat="43.8219655" lon="12.5676663"><ele>396.0</ele><time>2026-04-11T09:57:52.921Z</time></trkpt><trkpt lat="43.8219223" lon="12.5678196"><ele>396.0</ele><time>2026-04-11T09:57:53.925Z</time></trkpt><trkpt lat="43.8218824" lon="12.5679718"><ele>396.0</ele><time>2026-04-11T09:57:54.923Z</time></trkpt><trkpt lat="43.8218352" lon="12.5681214"><ele>396.0</ele><time>2026-04-11T09:57:55.921Z</time></trkpt><trkpt lat="43.8217966" lon="12.5682653"><ele>394.8</ele><time>2026-04-11T09:57:56.92Z</time></trkpt><trkpt lat="43.8217654" lon="12.5683973"><ele>393.6</ele><time>2026-04-11T09:57:57.927Z</time></trkpt><trkpt lat="43.8217283" lon="12.568521"><ele>392.4</ele><time>2026-04-11T09:57:58.926Z</time></trkpt><trkpt lat="43.8216875" lon="12.5686443"><ele>391.2</ele><time>2026-04-11T09:57:59.928Z</time></trkpt><trkpt lat="43.8216505" lon="12.5687662"><ele>390.0</ele><time>2026-04-11T09:58:00.92Z</time></trkpt><trkpt lat="43.8216012" lon="12.5688987"><ele>388.75</ele><time>2026-04-11T09:58:01.932Z</time></trkpt><trkpt lat="43.8215732" lon="12.5690433"><ele>387.5</ele><time>2026-04-11T09:58:02.922Z</time></trkpt><trkpt lat="43.8215447" lon="12.5691944"><ele>386.25</ele><time>2026-04-11T09:58:03.926Z</time></trkpt><trkpt lat="43.8215219" lon="12.5693556"><ele>385.0</ele><time>2026-04-11T09:58:04.92Z</time></trkpt><trkpt lat="43.8214886" lon="12.5695181"><ele>383.25</ele><time>2026-04-11T09:58:05.924Z</time></trkpt><trkpt lat="43.8214754" lon="12.5696968"><ele>381.5</ele><time>2026-04-11T09:58:06.922Z</time></trkpt><trkpt lat="43.8214543" lon="12.569879"><ele>379.75</ele><time>2026-04-11T09:58:07.927Z</time></trkpt><trkpt lat="43.8214421" lon="12.5700517"><ele>378.0</ele><time>2026-04-11T09:58:08.927Z</time></trkpt><trkpt lat="43.8214156" lon="12.5702249"><ele>376.25</ele><time>2026-04-11T09:58:09.929Z</time></trkpt><trkpt lat="43.8213947" lon="12.5703906"><ele>374.5</ele><time>2026-04-11T09:58:10.925Z</time></trkpt><trkpt lat="43.8213758" lon="12.5705699"><ele>372.75</ele><time>2026-04-11T09:58:11.924Z</time></trkpt><trkpt lat="43.8213478" lon="12.570736"><ele>371.0</ele><time>2026-04-11T09:58:12.928Z</time></trkpt><trkpt lat="43.8213294" lon="12.5708848"><ele>371.0</ele><time>2026-04-11T09:58:13.924Z</time></trkpt><trkpt lat="43.8213189" lon="12.5710232"><ele>371.0</ele><time>2026-04-11T09:58:14.928Z</time></trkpt><trkpt lat="43.821316" lon="12.571144"><ele>371.0</ele><time>2026-04-11T09:58:15.928Z</time></trkpt><trkpt lat="43.8213608" lon="12.5712398"><ele>371.0</ele><time>2026-04-11T09:58:16.93Z</time></trkpt><trkpt lat="43.8214437" lon="12.571331"><ele>371.0</ele><time>2026-04-11T09:58:18.923Z</time></trkpt><trkpt lat="43.8216114" lon="12.5712039"><ele>371.0</ele><time>2026-04-11T09:58:19.928Z</time></trkpt><trkpt lat="43.8217213" lon="12.5711385"><ele>371.0</ele><time>2026-04-11T09:58:20.924Z</time></trkpt><trkpt lat="43.821833" lon="12.5710844"><ele>371.0</ele><time>2026-04-11T09:58:21.928Z</time></trkpt><trkpt lat="43.8219347" lon="12.5710799"><ele>371.0</ele><time>2026-04-11T09:58:22.926Z</time></trkpt><trkpt lat="43.8220248" lon="12.5711168"><ele>371.0</ele><time>2026-04-11T09:58:23.926Z</time></trkpt><trkpt lat="43.8220833" lon="12.571201"><ele>367.0</ele><time>2026-04-11T09:58:24.929Z</time></trkpt><trkpt lat="43.8221388" lon="12.5712941"><ele>363.0</ele><time>2026-04-11T09:58:25.923Z</time></trkpt><trkpt lat="43.8221729" lon="12.571408"><ele>359.0</ele><time>2026-04-11T09:58:26.929Z</time></trkpt><trkpt lat="43.8220895" lon="12.5715446"><ele>355.0</ele><time>2026-04-11T09:58:27.926Z</time></trkpt><trkpt lat="43.8220413" lon="12.571659"><ele>351.0</ele><time>2026-04-11T09:58:28.928Z</time></trkpt><trkpt lat="43.8219226" lon="12.5717261"><ele>351.0</ele><time>2026-04-11T09:58:29.923Z</time></trkpt><trkpt lat="43.8218176" lon="12.5717991"><ele>351.0</ele><time>2026-04-11T09:58:30.931Z</time></trkpt><trkpt lat="43.8217072" lon="12.5718781"><ele>351.0</ele><time>2026-04-11T09:58:31.926Z</time></trkpt><trkpt lat="43.8215967" lon="12.5719591"><ele>351.0</ele><time>2026-04-11T09:58:32.918Z</time></trkpt><trkpt lat="43.8214845" lon="12.5720376"><ele>351.75</ele><time>2026-04-11T09:58:33.92Z</time></trkpt><trkpt lat="43.8213718" lon="12.5721167"><ele>352.5</ele><time>2026-04-11T09:58:34.924Z</time></trkpt><trkpt lat="43.8212626" lon="12.5721998"><ele>353.25</ele><time>2026-04-11T09:58:35.928Z</time></trkpt><trkpt lat="43.8211565" lon="12.5722925"><ele>354.0</ele><time>2026-04-11T09:58:36.929Z</time></trkpt><trkpt lat="43.8210658" lon="12.5723988"><ele>353.25</ele><time>2026-04-11T09:58:37.921Z</time></trkpt><trkpt lat="43.8209681" lon="12.572512"><ele>352.5</ele><time>2026-04-11T09:58:38.929Z</time></trkpt><trkpt lat="43.8208826" lon="12.5726257"><ele>351.75</ele><time>2026-04-11T09:58:39.921Z</time></trkpt><trkpt lat="43.8207982" lon="12.5727321"><ele>351.0</ele><time>2026-04-11T09:58:40.927Z</time></trkpt><trkpt lat="43.8207278" lon="12.572824"><ele>350.0</ele><time>2026-04-11T09:58:41.92Z</time></trkpt><trkpt lat="43.8206555" lon="12.5729256"><ele>349.0</ele><time>2026-04-11T09:58:42.922Z</time></trkpt><trkpt lat="43.820589" lon="12.5730139"><ele>348.0</ele><time>2026-04-11T09:58:43.924Z</time></trkpt><trkpt lat="43.8205372" lon="12.5731155"><ele>347.0</ele><time>2026-04-11T09:58:44.922Z</time></trkpt><trkpt lat="43.8205111" lon="12.5732264"><ele>346.0</ele><time>2026-04-11T09:58:45.919Z</time></trkpt><trkpt lat="43.8205183" lon="12.5733358"><ele>345.0</ele><time>2026-04-11T09:58:46.926Z</time></trkpt><trkpt lat="43.8205595" lon="12.5734279"><ele>345.0</ele><time>2026-04-11T09:58:47.924Z</time></trkpt><trkpt lat="43.8206406" lon="12.5734871"><ele>345.0</ele><time>2026-04-11T09:58:48.929Z</time></trkpt><trkpt lat="43.8207217" lon="12.5734998"><ele>345.0</ele><time>2026-04-11T09:58:49.924Z</time></trkpt><trkpt lat="43.8208054" lon="12.5734623"><ele>345.0</ele><time>2026-04-11T09:58:50.928Z</time></trkpt><trkpt lat="43.8208858" lon="12.5734394"><ele>345.0</ele><time>2026-04-11T09:58:51.928Z</time></trkpt><trkpt lat="43.8209609" lon="12.5734615"><ele>345.0</ele><time>2026-04-11T09:58:52.923Z</time></trkpt><trkpt lat="43.8210213" lon="12.5735384"><ele>343.8</ele><time>2026-04-11T09:58:53.929Z</time></trkpt><trkpt lat="43.82105" lon="12.5736415"><ele>342.6</ele><time>2026-04-11T09:58:54.93Z</time></trkpt><trkpt lat="43.8210152" lon="12.5737453"><ele>341.4</ele><time>2026-04-11T09:58:55.921Z</time></trkpt><trkpt lat="43.820939" lon="12.5738133"><ele>340.2</ele><time>2026-04-11T09:58:56.924Z</time></trkpt><trkpt lat="43.8208393" lon="12.5738523"><ele>339.0</ele><time>2026-04-11T09:58:57.924Z</time></trkpt><trkpt lat="43.8207373" lon="12.5738852"><ele>338.2</ele><time>2026-04-11T09:58:58.925Z</time></trkpt><trkpt lat="43.8206368" lon="12.5739191"><ele>337.4</ele><time>2026-04-11T09:58:59.928Z</time></trkpt><trkpt lat="43.8205451" lon="12.5739462"><ele>336.6</ele><time>2026-04-11T09:59:00.927Z</time></trkpt><trkpt lat="43.8204617" lon="12.573981"><ele>335.8</ele><time>2026-04-11T09:59:01.926Z</time></trkpt><trkpt lat="43.8203853" lon="12.5740552"><ele>335.0</ele><time>2026-04-11T09:59:02.919Z</time></trkpt><trkpt lat="43.820338" lon="12.5741528"><ele>335.0</ele><time>2026-04-11T09:59:03.923Z</time></trkpt><trkpt lat="43.8203148" lon="12.5742613"><ele>335.0</ele><time>2026-04-11T09:59:04.924Z</time></trkpt><trkpt lat="43.8203396" lon="12.5743891"><ele>335.0</ele><time>2026-04-11T09:59:05.922Z</time></trkpt><trkpt lat="43.8203892" lon="12.5745206"><ele>335.0</ele><time>2026-04-11T09:59:06.926Z</time></trkpt><trkpt lat="43.8204621" lon="12.574644"><ele>335.0</ele><time>2026-04-11T09:59:07.925Z</time></trkpt><trkpt lat="43.8205405" lon="12.574763"><ele>333.0</ele><time>2026-04-11T09:59:08.931Z</time></trkpt><trkpt lat="43.8206128" lon="12.5748894"><ele>331.0</ele><time>2026-04-11T09:59:09.931Z</time></trkpt><trkpt lat="43.8206668" lon="12.5750149"><ele>329.0</ele><time>2026-04-11T09:59:10.919Z</time></trkpt><trkpt lat="43.8207066" lon="12.5751502"><ele>327.0</ele><time>2026-04-11T09:59:11.924Z</time></trkpt><trkpt lat="43.8207238" lon="12.5753044"><ele>325.0</ele><time>2026-04-11T09:59:12.929Z</time></trkpt><trkpt lat="43.8207139" lon="12.5754756"><ele>323.25</ele><time>2026-04-11T09:59:13.921Z</time></trkpt><trkpt lat="43.8206853" lon="12.5756595"><ele>321.5</ele><time>2026-04-11T09:59:14.923Z</time></trkpt><trkpt lat="43.8206447" lon="12.5758545"><ele>319.75</ele><time>2026-04-11T09:59:15.929Z</time></trkpt><trkpt lat="43.8206055" lon="12.5760448"><ele>318.0</ele><time>2026-04-11T09:59:16.917Z</time></trkpt><trkpt lat="43.8205674" lon="12.5762323"><ele>316.5</ele><time>2026-04-11T09:59:17.924Z</time></trkpt><trkpt lat="43.8205299" lon="12.5764179"><ele>315.0</ele><time>2026-04-11T09:59:18.927Z</time></trkpt><trkpt lat="43.8204927" lon="12.5766001"><ele>313.5</ele><time>2026-04-11T09:59:19.919Z</time></trkpt><trkpt lat="43.8204568" lon="12.5767793"><ele>312.0</ele><time>2026-04-11T09:59:20.923Z</time></trkpt><trkpt lat="43.8204189" lon="12.5769463"><ele>309.75</ele><time>2026-04-11T09:59:21.929Z</time></trkpt><trkpt lat="43.8203802" lon="12.5771075"><ele>307.5</ele><time>2026-04-11T09:59:22.932Z</time></trkpt><trkpt lat="43.8203413" lon="12.5772618"><ele>305.25</ele><time>2026-04-11T09:59:23.93Z</time></trkpt><trkpt lat="43.8203011" lon="12.5774098"><ele>303.0</ele><time>2026-04-11T09:59:24.919Z</time></trkpt><trkpt lat="43.8202501" lon="12.5775423"><ele>303.0</ele><time>2026-04-11T09:59:25.924Z</time></trkpt><trkpt lat="43.8201591" lon="12.5776373"><ele>303.0</ele><time>2026-04-11T09:59:26.922Z</time></trkpt><trkpt lat="43.8200611" lon="12.5776951"><ele>303.0</ele><time>2026-04-11T09:59:27.931Z</time></trkpt><trkpt lat="43.8199601" lon="12.5777348"><ele>303.0</ele><time>2026-04-11T09:59:28.933Z</time></trkpt><trkpt lat="43.8198635" lon="12.5776906"><ele>303.0</ele><time>2026-04-11T09:59:29.926Z</time></trkpt><trkpt lat="43.8197736" lon="12.5776349"><ele>304.6</ele><time>2026-04-11T09:59:30.928Z</time></trkpt><trkpt lat="43.8196852" lon="12.5775696"><ele>306.20000000000005</ele><time>2026-04-11T09:59:31.926Z</time></trkpt><trkpt lat="43.8196654" lon="12.577413"><ele>307.8</ele><time>2026-04-11T09:59:32.923Z</time></trkpt><trkpt lat="43.819654" lon="12.5772609"><ele>309.40000000000003</ele><time>2026-04-11T09:59:33.92Z</time></trkpt><trkpt lat="43.8196402" lon="12.5771142"><ele>311.0</ele><time>2026-04-11T09:59:34.925Z</time></trkpt><trkpt lat="43.819639" lon="12.5769687"><ele>311.5</ele><time>2026-04-11T09:59:35.917Z</time></trkpt><trkpt lat="43.81969" lon="12.5767657"><ele>312.0</ele><time>2026-04-11T09:59:36.923Z</time></trkpt><trkpt lat="43.8197483" lon="12.5765798"><ele>312.5</ele><time>2026-04-11T09:59:37.921Z</time></trkpt><trkpt lat="43.8197829" lon="12.5764049"><ele>313.0</ele><time>2026-04-11T09:59:38.928Z</time></trkpt><trkpt lat="43.8198022" lon="12.5762255"><ele>312.0</ele><time>2026-04-11T09:59:39.923Z</time></trkpt><trkpt lat="43.8198056" lon="12.5760557"><ele>311.0</ele><time>2026-04-11T09:59:40.921Z</time></trkpt><trkpt lat="43.819796" lon="12.5758838"><ele>310.0</ele><time>2026-04-11T09:59:41.926Z</time></trkpt><trkpt lat="43.8197695" lon="12.5757234"><ele>309.0</ele><time>2026-04-11T09:59:42.928Z</time></trkpt><trkpt lat="43.8197354" lon="12.5755697"><ele>309.0</ele><time>2026-04-11T09:59:43.925Z</time></trkpt><trkpt lat="43.8197137" lon="12.5754271"><ele>309.0</ele><time>2026-04-11T09:59:44.93Z</time></trkpt><trkpt lat="43.8196719" lon="12.5753067"><ele>309.0</ele><time>2026-04-11T09:59:45.92Z</time></trkpt><trkpt lat="43.8195999" lon="12.5752265"><ele>309.0</ele><time>2026-04-11T09:59:46.923Z</time></trkpt><trkpt lat="43.8195222" lon="12.5751714"><ele>309.0</ele><time>2026-04-11T09:59:47.931Z</time></trkpt><trkpt lat="43.8194528" lon="12.5751272"><ele>309.0</ele><time>2026-04-11T09:59:48.924Z</time></trkpt><trkpt lat="43.8193829" lon="12.5753414"><ele>309.0</ele><time>2026-04-11T09:59:49.921Z</time></trkpt><trkpt lat="43.8193437" lon="12.5754748"><ele>309.0</ele><time>2026-04-11T09:59:50.922Z</time></trkpt><trkpt lat="43.8193436" lon="12.5756349"><ele>309.0</ele><time>2026-04-11T09:59:51.919Z</time></trkpt><trkpt lat="43.8193408" lon="12.5757975"><ele>309.0</ele><time>2026-04-11T09:59:52.926Z</time></trkpt><trkpt lat="43.8193182" lon="12.5759546"><ele>309.0</ele><time>2026-04-11T09:59:53.923Z</time></trkpt><trkpt lat="43.8192702" lon="12.5761089"><ele>309.0</ele><time>2026-04-11T09:59:54.92Z</time></trkpt><trkpt lat="43.8192067" lon="12.5762552"><ele>309.0</ele><time>2026-04-11T09:59:55.926Z</time></trkpt><trkpt lat="43.8191458" lon="12.5764035"><ele>303.0</ele><time>2026-04-11T09:59:56.925Z</time></trkpt><trkpt lat="43.8190802" lon="12.5765508"><ele>297.0</ele><time>2026-04-11T09:59:57.925Z</time></trkpt><trkpt lat="43.8190148" lon="12.5766961"><ele>291.0</ele><time>2026-04-11T09:59:58.926Z</time></trkpt><trkpt lat="43.8189543" lon="12.5768409"><ele>285.0</ele><time>2026-04-11T09:59:59.929Z</time></trkpt><trkpt lat="43.8188941" lon="12.576983"><ele>286.0</ele><time>2026-04-11T10:00:00.921Z</time></trkpt><trkpt lat="43.8188307" lon="12.5771241"><ele>287.0</ele><time>2026-04-11T10:00:01.925Z</time></trkpt><trkpt lat="43.8187632" lon="12.5772624"><ele>288.0</ele><time>2026-04-11T10:00:02.921Z</time></trkpt><trkpt lat="43.8186993" lon="12.577403"><ele>289.0</ele><time>2026-04-11T10:00:03.926Z</time></trkpt><trkpt lat="43.8186321" lon="12.5775423"><ele>289.0</ele><time>2026-04-11T10:00:04.924Z</time></trkpt><trkpt lat="43.818559" lon="12.5776887"><ele>289.0</ele><time>2026-04-11T10:00:05.924Z</time></trkpt><trkpt lat="43.8184979" lon="12.5778487"><ele>289.0</ele><time>2026-04-11T10:00:06.93Z</time></trkpt><trkpt lat="43.8184652" lon="12.5780381"><ele>289.0</ele><time>2026-04-11T10:00:07.924Z</time></trkpt><trkpt lat="43.818439" lon="12.5782384"><ele>283.0</ele><time>2026-04-11T10:00:08.927Z</time></trkpt><trkpt lat="43.8184221" lon="12.578443"><ele>277.0</ele><time>2026-04-11T10:00:09.919Z</time></trkpt><trkpt lat="43.8184107" lon="12.5786379"><ele>271.0</ele><time>2026-04-11T10:00:10.93Z</time></trkpt><trkpt lat="43.8183971" lon="12.5788387"><ele>265.0</ele><time>2026-04-11T10:00:11.929Z</time></trkpt><trkpt lat="43.8183833" lon="12.5790396"><ele>264.25</ele><time>2026-04-11T10:00:12.924Z</time></trkpt><trkpt lat="43.8183702" lon="12.5792337"><ele>263.5</ele><time>2026-04-11T10:00:13.921Z</time></trkpt><trkpt lat="43.8183552" lon="12.5794209"><ele>262.75</ele><time>2026-04-11T10:00:14.92Z</time></trkpt><trkpt lat="43.8183644" lon="12.5795979"><ele>262.0</ele><time>2026-04-11T10:00:15.928Z</time></trkpt><trkpt lat="43.818397" lon="12.5797675"><ele>261.5</ele><time>2026-04-11T10:00:16.923Z</time></trkpt><trkpt lat="43.8184524" lon="12.5799234"><ele>261.0</ele><time>2026-04-11T10:00:17.926Z</time></trkpt><trkpt lat="43.818525" lon="12.5800493"><ele>260.5</ele><time>2026-04-11T10:00:18.926Z</time></trkpt><trkpt lat="43.8186157" lon="12.5801486"><ele>260.0</ele><time>2026-04-11T10:00:19.926Z</time></trkpt><trkpt lat="43.8187297" lon="12.580215"><ele>260.0</ele><time>2026-04-11T10:00:20.931Z</time></trkpt><trkpt lat="43.818852" lon="12.580236"><ele>260.0</ele><time>2026-04-11T10:00:21.925Z</time></trkpt><trkpt lat="43.8189845" lon="12.5802581"><ele>260.0</ele><time>2026-04-11T10:00:22.925Z</time></trkpt><trkpt lat="43.819098" lon="12.5802084"><ele>260.0</ele><time>2026-04-11T10:00:23.926Z</time></trkpt><trkpt lat="43.819206" lon="12.5801802"><ele>262.75</ele><time>2026-04-11T10:00:24.922Z</time></trkpt><trkpt lat="43.8193248" lon="12.5801561"><ele>265.5</ele><time>2026-04-11T10:00:25.925Z</time></trkpt><trkpt lat="43.8194407" lon="12.5801628"><ele>268.25</ele><time>2026-04-11T10:00:26.924Z</time></trkpt><trkpt lat="43.819553" lon="12.5802055"><ele>271.0</ele><time>2026-04-11T10:00:27.923Z</time></trkpt><trkpt lat="43.8196595" lon="12.580291"><ele>265.5</ele><time>2026-04-11T10:00:28.924Z</time></trkpt><trkpt lat="43.8197567" lon="12.5804002"><ele>260.0</ele><time>2026-04-11T10:00:29.927Z</time></trkpt><trkpt lat="43.8198446" lon="12.5805183"><ele>254.5</ele><time>2026-04-11T10:00:30.929Z</time></trkpt><trkpt lat="43.8199304" lon="12.5806396"><ele>249.0</ele><time>2026-04-11T10:00:31.923Z</time></trkpt><trkpt lat="43.8200147" lon="12.5807769"><ele>249.0</ele><time>2026-04-11T10:00:32.919Z</time></trkpt><trkpt lat="43.8200921" lon="12.5809277"><ele>249.0</ele><time>2026-04-11T10:00:33.922Z</time></trkpt><trkpt lat="43.820169" lon="12.5810934"><ele>249.0</ele><time>2026-04-11T10:00:34.923Z</time></trkpt><trkpt lat="43.8202382" lon="12.5812746"><ele>249.0</ele><time>2026-04-11T10:00:35.919Z</time></trkpt><trkpt lat="43.8203058" lon="12.5814674"><ele>250.0</ele><time>2026-04-11T10:00:36.928Z</time></trkpt><trkpt lat="43.8203748" lon="12.5816558"><ele>251.0</ele><time>2026-04-11T10:00:37.922Z</time></trkpt><trkpt lat="43.8204438" lon="12.5818354"><ele>252.0</ele><time>2026-04-11T10:00:38.927Z</time></trkpt><trkpt lat="43.8205038" lon="12.5820068"><ele>253.0</ele><time>2026-04-11T10:00:39.92Z</time></trkpt><trkpt lat="43.8205685" lon="12.5821844"><ele>250.0</ele><time>2026-04-11T10:00:40.926Z</time></trkpt><trkpt lat="43.8206268" lon="12.5823484"><ele>247.0</ele><time>2026-04-11T10:00:41.927Z</time></trkpt><trkpt lat="43.8206852" lon="12.5825122"><ele>244.0</ele><time>2026-04-11T10:00:42.933Z</time></trkpt><trkpt lat="43.820742" lon="12.5826697"><ele>241.0</ele><time>2026-04-11T10:00:43.923Z</time></trkpt><trkpt lat="43.8207986" lon="12.5828284"><ele>238.0</ele><time>2026-04-11T10:00:44.921Z</time></trkpt><trkpt lat="43.8208606" lon="12.5829919"><ele>235.0</ele><time>2026-04-11T10:00:45.92Z</time></trkpt><trkpt lat="43.8209089" lon="12.5831517"><ele>232.0</ele><time>2026-04-11T10:00:46.919Z</time></trkpt><trkpt lat="43.8209487" lon="12.5833162"><ele>229.0</ele><time>2026-04-11T10:00:47.923Z</time></trkpt><trkpt lat="43.8209786" lon="12.5834863"><ele>232.0</ele><time>2026-04-11T10:00:48.921Z</time></trkpt><trkpt lat="43.8209997" lon="12.5836462"><ele>235.0</ele><time>2026-04-11T10:00:49.923Z</time></trkpt><trkpt lat="43.8210207" lon="12.5837999"><ele>238.0</ele><time>2026-04-11T10:00:50.923Z</time></trkpt><trkpt lat="43.8210378" lon="12.5839578"><ele>241.0</ele><time>2026-04-11T10:00:51.925Z</time></trkpt><trkpt lat="43.8210599" lon="12.5841086"><ele>241.0</ele><time>2026-04-11T10:00:52.921Z</time></trkpt><trkpt lat="43.8210748" lon="12.5842495"><ele>241.00000000000003</ele><time>2026-04-11T10:00:53.918Z</time></trkpt><trkpt lat="43.8210914" lon="12.5843889"><ele>241.00000000000003</ele><time>2026-04-11T10:00:54.917Z</time></trkpt><trkpt lat="43.8211054" lon="12.5845192"><ele>241.0</ele><time>2026-04-11T10:00:55.919Z</time></trkpt><trkpt lat="43.8210976" lon="12.5846316"><ele>241.0</ele><time>2026-04-11T10:00:56.929Z</time></trkpt><trkpt lat="43.8210871" lon="12.5847454"><ele>239.83333333333331</ele><time>2026-04-11T10:00:57.93Z</time></trkpt><trkpt lat="43.8210187" lon="12.5847854"><ele>238.66666666666666</ele><time>2026-04-11T10:00:58.931Z</time></trkpt><trkpt lat="43.8209493" lon="12.5848088"><ele>237.5</ele><time>2026-04-11T10:00:59.928Z</time></trkpt><trkpt lat="43.8208831" lon="12.5847906"><ele>236.33333333333331</ele><time>2026-04-11T10:01:00.926Z</time></trkpt><trkpt lat="43.8208241" lon="12.5847286"><ele>235.16666666666666</ele><time>2026-04-11T10:01:01.929Z</time></trkpt><trkpt lat="43.8207872" lon="12.5846286"><ele>234.0</ele><time>2026-04-11T10:01:02.93Z</time></trkpt><trkpt lat="43.8207652" lon="12.5845107"><ele>222.0</ele><time>2026-04-11T10:01:03.916Z</time></trkpt></trkseg></trk></gpx>